<?xml version="1.0" encoding="UTF-8" standalone="no" ?>
<gpx xmlns="http://www.topografix.com/GPX/1/1" xmlns:xsi="http://www.w3.org/2001/XMLSchema-instance" xsi:schemaLocation="http://www.topografix.com/GPX/1/1 http://www.topografix.com/GPX/1/1/gpx.xsd" version="1.1" creator="VisuGPX - https://www.visugpx.com">
  <metadata>
    <name>Digne-les-Bains VTTAE</name>
  </metadata>
  <trk>
    <name><![CDATA[Digne-les-Bains VTTAE_1]]></name>
    <trkseg>
      <trkpt lat="44.09115" lon="6.24308">
        <ele>603.2</ele>
        <time>2022-06-06T08:19:25Z</time>
      </trkpt>
      <trkpt lat="44.09113" lon="6.24312">
        <ele>603.4</ele>
        <time>2022-06-06T08:19:26Z</time>
      </trkpt>
      <trkpt lat="44.09115" lon="6.24322">
        <ele>603.4</ele>
        <time>2022-06-06T08:19:28Z</time>
      </trkpt>
      <trkpt lat="44.09118" lon="6.24347">
        <ele>604</ele>
        <time>2022-06-06T08:19:34Z</time>
      </trkpt>
      <trkpt lat="44.09115" lon="6.24377">
        <ele>604.8</ele>
        <time>2022-06-06T08:19:41Z</time>
      </trkpt>
      <trkpt lat="44.09116" lon="6.24404">
        <ele>605.6</ele>
        <time>2022-06-06T08:19:47Z</time>
      </trkpt>
      <trkpt lat="44.09126" lon="6.24426">
        <ele>606</ele>
        <time>2022-06-06T08:19:52Z</time>
      </trkpt>
      <trkpt lat="44.09134" lon="6.24447">
        <ele>606.4</ele>
        <time>2022-06-06T08:19:57Z</time>
      </trkpt>
      <trkpt lat="44.09136" lon="6.2447">
        <ele>607</ele>
        <time>2022-06-06T08:20:02Z</time>
      </trkpt>
      <trkpt lat="44.09141" lon="6.2451">
        <ele>608</ele>
        <time>2022-06-06T08:20:10Z</time>
      </trkpt>
      <trkpt lat="44.09146" lon="6.24546">
        <ele>608.8</ele>
        <time>2022-06-06T08:20:17Z</time>
      </trkpt>
      <trkpt lat="44.09149" lon="6.2459">
        <ele>609.6</ele>
        <time>2022-06-06T08:20:25Z</time>
      </trkpt>
      <trkpt lat="44.09147" lon="6.24621">
        <ele>610.2</ele>
        <time>2022-06-06T08:20:31Z</time>
      </trkpt>
      <trkpt lat="44.09146" lon="6.24626">
        <ele>610.2</ele>
        <time>2022-06-06T08:20:32Z</time>
      </trkpt>
      <trkpt lat="44.09142" lon="6.24643">
        <ele>610.6</ele>
        <time>2022-06-06T08:20:35Z</time>
      </trkpt>
      <trkpt lat="44.0914" lon="6.24649">
        <ele>610.6</ele>
        <time>2022-06-06T08:20:36Z</time>
      </trkpt>
      <trkpt lat="44.09132" lon="6.24687">
        <ele>611.2</ele>
        <time>2022-06-06T08:20:42Z</time>
      </trkpt>
      <trkpt lat="44.09122" lon="6.24739">
        <ele>611.6</ele>
        <time>2022-06-06T08:20:50Z</time>
      </trkpt>
      <trkpt lat="44.09114" lon="6.24769">
        <ele>612</ele>
        <time>2022-06-06T08:20:55Z</time>
      </trkpt>
      <trkpt lat="44.09112" lon="6.24774">
        <ele>612</ele>
        <time>2022-06-06T08:20:56Z</time>
      </trkpt>
      <trkpt lat="44.0911" lon="6.24779">
        <ele>612</ele>
        <time>2022-06-06T08:20:57Z</time>
      </trkpt>
      <trkpt lat="44.09099" lon="6.248">
        <ele>612.2</ele>
        <time>2022-06-06T08:21:01Z</time>
      </trkpt>
      <trkpt lat="44.0908" lon="6.24838">
        <ele>612.6</ele>
        <time>2022-06-06T08:21:08Z</time>
      </trkpt>
      <trkpt lat="44.09063" lon="6.24868">
        <ele>612.8</ele>
        <time>2022-06-06T08:21:14Z</time>
      </trkpt>
      <trkpt lat="44.09038" lon="6.24903">
        <ele>613.2</ele>
        <time>2022-06-06T08:21:22Z</time>
      </trkpt>
      <trkpt lat="44.09016" lon="6.24941">
        <ele>613.4</ele>
        <time>2022-06-06T08:21:30Z</time>
      </trkpt>
      <trkpt lat="44.09012" lon="6.24952">
        <ele>613.4</ele>
        <time>2022-06-06T08:21:32Z</time>
      </trkpt>
      <trkpt lat="44.09009" lon="6.24969">
        <ele>613.6</ele>
        <time>2022-06-06T08:21:35Z</time>
      </trkpt>
      <trkpt lat="44.09006" lon="6.24985">
        <ele>613.6</ele>
        <time>2022-06-06T08:21:38Z</time>
      </trkpt>
      <trkpt lat="44.09002" lon="6.24994">
        <ele>613.6</ele>
        <time>2022-06-06T08:21:40Z</time>
      </trkpt>
      <trkpt lat="44.08987" lon="6.25025">
        <ele>613.8</ele>
        <time>2022-06-06T08:21:46Z</time>
      </trkpt>
      <trkpt lat="44.08985" lon="6.2503">
        <ele>613.8</ele>
        <time>2022-06-06T08:21:47Z</time>
      </trkpt>
      <trkpt lat="44.08978" lon="6.25053">
        <ele>613.8</ele>
        <time>2022-06-06T08:21:51Z</time>
      </trkpt>
      <trkpt lat="44.08968" lon="6.25095">
        <ele>614</ele>
        <time>2022-06-06T08:21:58Z</time>
      </trkpt>
      <trkpt lat="44.08959" lon="6.25139">
        <ele>614</ele>
        <time>2022-06-06T08:22:05Z</time>
      </trkpt>
      <trkpt lat="44.08951" lon="6.25181">
        <ele>614</ele>
        <time>2022-06-06T08:22:12Z</time>
      </trkpt>
      <trkpt lat="44.08948" lon="6.25194">
        <ele>614</ele>
        <time>2022-06-06T08:22:14Z</time>
      </trkpt>
      <trkpt lat="44.08943" lon="6.25217">
        <ele>614</ele>
        <time>2022-06-06T08:22:18Z</time>
      </trkpt>
      <trkpt lat="44.08941" lon="6.25228">
        <ele>614</ele>
        <time>2022-06-06T08:22:20Z</time>
      </trkpt>
      <trkpt lat="44.0894" lon="6.25253">
        <ele>614</ele>
        <time>2022-06-06T08:22:24Z</time>
      </trkpt>
      <trkpt lat="44.08939" lon="6.25306">
        <ele>614</ele>
        <time>2022-06-06T08:22:32Z</time>
      </trkpt>
      <trkpt lat="44.08936" lon="6.25367">
        <ele>614</ele>
        <time>2022-06-06T08:22:40Z</time>
      </trkpt>
      <trkpt lat="44.08936" lon="6.25402">
        <ele>614</ele>
        <time>2022-06-06T08:22:44Z</time>
      </trkpt>
      <trkpt lat="44.08938" lon="6.2542">
        <ele>614</ele>
        <time>2022-06-06T08:22:46Z</time>
      </trkpt>
      <trkpt lat="44.08947" lon="6.25442">
        <ele>614</ele>
        <time>2022-06-06T08:22:49Z</time>
      </trkpt>
      <trkpt lat="44.08951" lon="6.25448">
        <ele>614</ele>
        <time>2022-06-06T08:22:50Z</time>
      </trkpt>
      <trkpt lat="44.0897" lon="6.25478">
        <ele>614</ele>
        <time>2022-06-06T08:22:55Z</time>
      </trkpt>
      <trkpt lat="44.08989" lon="6.25508">
        <ele>614</ele>
        <time>2022-06-06T08:23:01Z</time>
      </trkpt>
      <trkpt lat="44.09014" lon="6.25544">
        <ele>614</ele>
        <time>2022-06-06T08:23:07Z</time>
      </trkpt>
      <trkpt lat="44.09018" lon="6.25551">
        <ele>614</ele>
        <time>2022-06-06T08:23:08Z</time>
      </trkpt>
      <trkpt lat="44.09023" lon="6.25565">
        <ele>614</ele>
        <time>2022-06-06T08:23:10Z</time>
      </trkpt>
      <trkpt lat="44.09024" lon="6.25573">
        <ele>614</ele>
        <time>2022-06-06T08:23:11Z</time>
      </trkpt>
      <trkpt lat="44.09031" lon="6.25622">
        <ele>613.8</ele>
        <time>2022-06-06T08:23:18Z</time>
      </trkpt>
      <trkpt lat="44.09037" lon="6.25665">
        <ele>613.8</ele>
        <time>2022-06-06T08:23:24Z</time>
      </trkpt>
      <trkpt lat="44.09039" lon="6.25672">
        <ele>613.8</ele>
        <time>2022-06-06T08:23:25Z</time>
      </trkpt>
      <trkpt lat="44.09041" lon="6.25678">
        <ele>613.8</ele>
        <time>2022-06-06T08:23:26Z</time>
      </trkpt>
      <trkpt lat="44.09051" lon="6.25695">
        <ele>613.8</ele>
        <time>2022-06-06T08:23:29Z</time>
      </trkpt>
      <trkpt lat="44.09062" lon="6.25713">
        <ele>613.8</ele>
        <time>2022-06-06T08:23:32Z</time>
      </trkpt>
      <trkpt lat="44.09067" lon="6.25724">
        <ele>613.8</ele>
        <time>2022-06-06T08:23:34Z</time>
      </trkpt>
      <trkpt lat="44.0907" lon="6.25737">
        <ele>613.8</ele>
        <time>2022-06-06T08:23:36Z</time>
      </trkpt>
      <trkpt lat="44.09071" lon="6.25751">
        <ele>613.8</ele>
        <time>2022-06-06T08:23:38Z</time>
      </trkpt>
      <trkpt lat="44.09072" lon="6.258">
        <ele>613.6</ele>
        <time>2022-06-06T08:23:45Z</time>
      </trkpt>
      <trkpt lat="44.09071" lon="6.25815">
        <ele>613.6</ele>
        <time>2022-06-06T08:23:47Z</time>
      </trkpt>
      <trkpt lat="44.09066" lon="6.25851">
        <ele>614</ele>
        <time>2022-06-06T08:23:52Z</time>
      </trkpt>
      <trkpt lat="44.09054" lon="6.2589">
        <ele>614</ele>
        <time>2022-06-06T08:23:58Z</time>
      </trkpt>
      <trkpt lat="44.09028" lon="6.25929">
        <ele>614</ele>
        <time>2022-06-06T08:24:05Z</time>
      </trkpt>
      <trkpt lat="44.09003" lon="6.25971">
        <ele>614</ele>
        <time>2022-06-06T08:24:12Z</time>
      </trkpt>
      <trkpt lat="44.09" lon="6.25978">
        <ele>614</ele>
        <time>2022-06-06T08:24:13Z</time>
      </trkpt>
      <trkpt lat="44.08991" lon="6.2601">
        <ele>614</ele>
        <time>2022-06-06T08:24:17Z</time>
      </trkpt>
      <trkpt lat="44.08976" lon="6.26072">
        <ele>614</ele>
        <time>2022-06-06T08:24:25Z</time>
      </trkpt>
      <trkpt lat="44.08962" lon="6.26118">
        <ele>616.2</ele>
        <time>2022-06-06T08:24:31Z</time>
      </trkpt>
      <trkpt lat="44.08959" lon="6.26125">
        <ele>616.2</ele>
        <time>2022-06-06T08:24:32Z</time>
      </trkpt>
      <trkpt lat="44.08937" lon="6.26152">
        <ele>616.6</ele>
        <time>2022-06-06T08:24:37Z</time>
      </trkpt>
      <trkpt lat="44.08933" lon="6.26158">
        <ele>616.8</ele>
        <time>2022-06-06T08:24:38Z</time>
      </trkpt>
      <trkpt lat="44.0892" lon="6.26174">
        <ele>617</ele>
        <time>2022-06-06T08:24:41Z</time>
      </trkpt>
      <trkpt lat="44.08896" lon="6.26206">
        <ele>617.4</ele>
        <time>2022-06-06T08:24:47Z</time>
      </trkpt>
      <trkpt lat="44.08888" lon="6.26225">
        <ele>617.6</ele>
        <time>2022-06-06T08:24:50Z</time>
      </trkpt>
      <trkpt lat="44.08884" lon="6.26238">
        <ele>617.8</ele>
        <time>2022-06-06T08:24:52Z</time>
      </trkpt>
      <trkpt lat="44.08864" lon="6.26289">
        <ele>618.6</ele>
        <time>2022-06-06T08:25:00Z</time>
      </trkpt>
      <trkpt lat="44.08856" lon="6.26315">
        <ele>619.4</ele>
        <time>2022-06-06T08:25:04Z</time>
      </trkpt>
      <trkpt lat="44.08854" lon="6.26329">
        <ele>619.6</ele>
        <time>2022-06-06T08:25:06Z</time>
      </trkpt>
      <trkpt lat="44.08849" lon="6.26372">
        <ele>620.4</ele>
        <time>2022-06-06T08:25:12Z</time>
      </trkpt>
      <trkpt lat="44.08847" lon="6.26386">
        <ele>620.6</ele>
        <time>2022-06-06T08:25:14Z</time>
      </trkpt>
      <trkpt lat="44.08848" lon="6.26401">
        <ele>621</ele>
        <time>2022-06-06T08:25:16Z</time>
      </trkpt>
      <trkpt lat="44.08849" lon="6.26408">
        <ele>621.2</ele>
        <time>2022-06-06T08:25:17Z</time>
      </trkpt>
      <trkpt lat="44.08863" lon="6.26463">
        <ele>622.6</ele>
        <time>2022-06-06T08:25:25Z</time>
      </trkpt>
      <trkpt lat="44.08877" lon="6.2651">
        <ele>623.8</ele>
        <time>2022-06-06T08:25:32Z</time>
      </trkpt>
      <trkpt lat="44.08889" lon="6.26551">
        <ele>624.8</ele>
        <time>2022-06-06T08:25:38Z</time>
      </trkpt>
      <trkpt lat="44.08894" lon="6.26566">
        <ele>625.2</ele>
        <time>2022-06-06T08:25:40Z</time>
      </trkpt>
      <trkpt lat="44.08902" lon="6.26596">
        <ele>625.8</ele>
        <time>2022-06-06T08:25:44Z</time>
      </trkpt>
      <trkpt lat="44.08911" lon="6.26633">
        <ele>626.8</ele>
        <time>2022-06-06T08:25:49Z</time>
      </trkpt>
      <trkpt lat="44.08931" lon="6.26692">
        <ele>628.2</ele>
        <time>2022-06-06T08:25:57Z</time>
      </trkpt>
      <trkpt lat="44.08934" lon="6.267">
        <ele>628.4</ele>
        <time>2022-06-06T08:25:58Z</time>
      </trkpt>
      <trkpt lat="44.08947" lon="6.26727">
        <ele>629</ele>
        <time>2022-06-06T08:26:02Z</time>
      </trkpt>
      <trkpt lat="44.08972" lon="6.26783">
        <ele>630.2</ele>
        <time>2022-06-06T08:26:10Z</time>
      </trkpt>
      <trkpt lat="44.08991" lon="6.26822">
        <ele>631</ele>
        <time>2022-06-06T08:26:16Z</time>
      </trkpt>
      <trkpt lat="44.09011" lon="6.26861">
        <ele>631.8</ele>
        <time>2022-06-06T08:26:22Z</time>
      </trkpt>
      <trkpt lat="44.09028" lon="6.26893">
        <ele>632.4</ele>
        <time>2022-06-06T08:26:27Z</time>
      </trkpt>
      <trkpt lat="44.09035" lon="6.26918">
        <ele>632.6</ele>
        <time>2022-06-06T08:26:30Z</time>
      </trkpt>
      <trkpt lat="44.09038" lon="6.26934">
        <ele>633</ele>
        <time>2022-06-06T08:26:32Z</time>
      </trkpt>
      <trkpt lat="44.09042" lon="6.27001">
        <ele>634</ele>
        <time>2022-06-06T08:26:40Z</time>
      </trkpt>
      <trkpt lat="44.09043" lon="6.27052">
        <ele>635</ele>
        <time>2022-06-06T08:26:47Z</time>
      </trkpt>
      <trkpt lat="44.09044" lon="6.27066">
        <ele>635.4</ele>
        <time>2022-06-06T08:26:49Z</time>
      </trkpt>
      <trkpt lat="44.09045" lon="6.27086">
        <ele>635.6</ele>
        <time>2022-06-06T08:26:52Z</time>
      </trkpt>
      <trkpt lat="44.09045" lon="6.27137">
        <ele>637</ele>
        <time>2022-06-06T08:27:00Z</time>
      </trkpt>
      <trkpt lat="44.09036" lon="6.27173">
        <ele>638</ele>
        <time>2022-06-06T08:27:06Z</time>
      </trkpt>
      <trkpt lat="44.09029" lon="6.27195">
        <ele>638.6</ele>
        <time>2022-06-06T08:27:10Z</time>
      </trkpt>
      <trkpt lat="44.09023" lon="6.27211">
        <ele>639</ele>
        <time>2022-06-06T08:27:13Z</time>
      </trkpt>
      <trkpt lat="44.09006" lon="6.27257">
        <ele>640</ele>
        <time>2022-06-06T08:27:21Z</time>
      </trkpt>
      <trkpt lat="44.08989" lon="6.27308">
        <ele>641</ele>
        <time>2022-06-06T08:27:30Z</time>
      </trkpt>
      <trkpt lat="44.08981" lon="6.27333">
        <ele>641.4</ele>
        <time>2022-06-06T08:27:34Z</time>
      </trkpt>
      <trkpt lat="44.08974" lon="6.27349">
        <ele>641.8</ele>
        <time>2022-06-06T08:27:37Z</time>
      </trkpt>
      <trkpt lat="44.08972" lon="6.27355">
        <ele>641.8</ele>
        <time>2022-06-06T08:27:38Z</time>
      </trkpt>
      <trkpt lat="44.08968" lon="6.27366">
        <ele>642</ele>
        <time>2022-06-06T08:27:40Z</time>
      </trkpt>
      <trkpt lat="44.08966" lon="6.27379">
        <ele>642.2</ele>
        <time>2022-06-06T08:27:42Z</time>
      </trkpt>
      <trkpt lat="44.08956" lon="6.27421">
        <ele>642.8</ele>
        <time>2022-06-06T08:27:49Z</time>
      </trkpt>
      <trkpt lat="44.0895" lon="6.27451">
        <ele>643.2</ele>
        <time>2022-06-06T08:27:54Z</time>
      </trkpt>
      <trkpt lat="44.08947" lon="6.27463">
        <ele>643.4</ele>
        <time>2022-06-06T08:27:56Z</time>
      </trkpt>
      <trkpt lat="44.08937" lon="6.27499">
        <ele>643.8</ele>
        <time>2022-06-06T08:28:02Z</time>
      </trkpt>
      <trkpt lat="44.0893" lon="6.27523">
        <ele>644</ele>
        <time>2022-06-06T08:28:06Z</time>
      </trkpt>
      <trkpt lat="44.08926" lon="6.27535">
        <ele>644</ele>
        <time>2022-06-06T08:28:08Z</time>
      </trkpt>
      <trkpt lat="44.08917" lon="6.27574">
        <ele>644.2</ele>
        <time>2022-06-06T08:28:14Z</time>
      </trkpt>
      <trkpt lat="44.08915" lon="6.27581">
        <ele>644.2</ele>
        <time>2022-06-06T08:28:15Z</time>
      </trkpt>
      <trkpt lat="44.08909" lon="6.27608">
        <ele>644.2</ele>
        <time>2022-06-06T08:28:19Z</time>
      </trkpt>
      <trkpt lat="44.08899" lon="6.27648">
        <ele>644.2</ele>
        <time>2022-06-06T08:28:25Z</time>
      </trkpt>
      <trkpt lat="44.08895" lon="6.27667">
        <ele>644.2</ele>
        <time>2022-06-06T08:28:28Z</time>
      </trkpt>
      <trkpt lat="44.08894" lon="6.27688">
        <ele>644.2</ele>
        <time>2022-06-06T08:28:31Z</time>
      </trkpt>
      <trkpt lat="44.08896" lon="6.27709">
        <ele>644.6</ele>
        <time>2022-06-06T08:28:34Z</time>
      </trkpt>
      <trkpt lat="44.089" lon="6.27729">
        <ele>644.8</ele>
        <time>2022-06-06T08:28:37Z</time>
      </trkpt>
      <trkpt lat="44.08902" lon="6.27736">
        <ele>644.8</ele>
        <time>2022-06-06T08:28:38Z</time>
      </trkpt>
      <trkpt lat="44.08909" lon="6.2776">
        <ele>645</ele>
        <time>2022-06-06T08:28:42Z</time>
      </trkpt>
      <trkpt lat="44.08919" lon="6.2779">
        <ele>645.6</ele>
        <time>2022-06-06T08:28:47Z</time>
      </trkpt>
      <trkpt lat="44.08923" lon="6.27801">
        <ele>645.8</ele>
        <time>2022-06-06T08:28:49Z</time>
      </trkpt>
      <trkpt lat="44.08937" lon="6.27842">
        <ele>646.4</ele>
        <time>2022-06-06T08:28:56Z</time>
      </trkpt>
      <trkpt lat="44.08947" lon="6.27877">
        <ele>647.4</ele>
        <time>2022-06-06T08:29:02Z</time>
      </trkpt>
      <trkpt lat="44.08949" lon="6.27883">
        <ele>647.6</ele>
        <time>2022-06-06T08:29:03Z</time>
      </trkpt>
      <trkpt lat="44.08955" lon="6.27932">
        <ele>648.4</ele>
        <time>2022-06-06T08:29:11Z</time>
      </trkpt>
      <trkpt lat="44.08961" lon="6.27982">
        <ele>649.2</ele>
        <time>2022-06-06T08:29:19Z</time>
      </trkpt>
      <trkpt lat="44.08959" lon="6.28">
        <ele>649.4</ele>
        <time>2022-06-06T08:29:22Z</time>
      </trkpt>
      <trkpt lat="44.08954" lon="6.28011">
        <ele>649.6</ele>
        <time>2022-06-06T08:29:24Z</time>
      </trkpt>
      <trkpt lat="44.08948" lon="6.2802">
        <ele>649.8</ele>
        <time>2022-06-06T08:29:26Z</time>
      </trkpt>
      <trkpt lat="44.08942" lon="6.28029">
        <ele>650</ele>
        <time>2022-06-06T08:29:28Z</time>
      </trkpt>
      <trkpt lat="44.08918" lon="6.2806">
        <ele>650.6</ele>
        <time>2022-06-06T08:29:35Z</time>
      </trkpt>
      <trkpt lat="44.08899" lon="6.28098">
        <ele>651</ele>
        <time>2022-06-06T08:29:42Z</time>
      </trkpt>
      <trkpt lat="44.08896" lon="6.28117">
        <ele>651.2</ele>
        <time>2022-06-06T08:29:45Z</time>
      </trkpt>
      <trkpt lat="44.08895" lon="6.28129">
        <ele>651.6</ele>
        <time>2022-06-06T08:29:47Z</time>
      </trkpt>
      <trkpt lat="44.08896" lon="6.28135">
        <ele>651.8</ele>
        <time>2022-06-06T08:29:48Z</time>
      </trkpt>
      <trkpt lat="44.089" lon="6.28155">
        <ele>652.2</ele>
        <time>2022-06-06T08:29:51Z</time>
      </trkpt>
      <trkpt lat="44.08902" lon="6.28162">
        <ele>652.4</ele>
        <time>2022-06-06T08:29:52Z</time>
      </trkpt>
      <trkpt lat="44.08911" lon="6.28185">
        <ele>652.8</ele>
        <time>2022-06-06T08:29:56Z</time>
      </trkpt>
      <trkpt lat="44.08923" lon="6.28205">
        <ele>653.2</ele>
        <time>2022-06-06T08:30:00Z</time>
      </trkpt>
      <trkpt lat="44.08931" lon="6.2822">
        <ele>653.4</ele>
        <time>2022-06-06T08:30:03Z</time>
      </trkpt>
      <trkpt lat="44.08943" lon="6.28244">
        <ele>653.8</ele>
        <time>2022-06-06T08:30:08Z</time>
      </trkpt>
      <trkpt lat="44.08946" lon="6.28249">
        <ele>653.8</ele>
        <time>2022-06-06T08:30:09Z</time>
      </trkpt>
      <trkpt lat="44.0895" lon="6.2826">
        <ele>654</ele>
        <time>2022-06-06T08:30:11Z</time>
      </trkpt>
      <trkpt lat="44.08951" lon="6.28272">
        <ele>654</ele>
        <time>2022-06-06T08:30:13Z</time>
      </trkpt>
      <trkpt lat="44.08947" lon="6.28289">
        <ele>654.4</ele>
        <time>2022-06-06T08:30:16Z</time>
      </trkpt>
      <trkpt lat="44.08944" lon="6.28294">
        <ele>654.4</ele>
        <time>2022-06-06T08:30:17Z</time>
      </trkpt>
      <trkpt lat="44.08921" lon="6.28325">
        <ele>654.8</ele>
        <time>2022-06-06T08:30:24Z</time>
      </trkpt>
      <trkpt lat="44.08913" lon="6.2833">
        <ele>655</ele>
        <time>2022-06-06T08:30:26Z</time>
      </trkpt>
      <trkpt lat="44.08905" lon="6.28332">
        <ele>655.2</ele>
        <time>2022-06-06T08:30:28Z</time>
      </trkpt>
      <trkpt lat="44.08887" lon="6.28336">
        <ele>655.4</ele>
        <time>2022-06-06T08:30:32Z</time>
      </trkpt>
      <trkpt lat="44.08879" lon="6.28341">
        <ele>655.4</ele>
        <time>2022-06-06T08:30:34Z</time>
      </trkpt>
      <trkpt lat="44.08869" lon="6.28352">
        <ele>655.6</ele>
        <time>2022-06-06T08:30:37Z</time>
      </trkpt>
      <trkpt lat="44.08864" lon="6.28362">
        <ele>655.8</ele>
        <time>2022-06-06T08:30:39Z</time>
      </trkpt>
      <trkpt lat="44.08862" lon="6.28367">
        <ele>655.8</ele>
        <time>2022-06-06T08:30:40Z</time>
      </trkpt>
      <trkpt lat="44.08856" lon="6.28383">
        <ele>656</ele>
        <time>2022-06-06T08:30:43Z</time>
      </trkpt>
      <trkpt lat="44.08853" lon="6.28394">
        <ele>656.2</ele>
        <time>2022-06-06T08:30:45Z</time>
      </trkpt>
      <trkpt lat="44.0885" lon="6.28405">
        <ele>656.8</ele>
        <time>2022-06-06T08:30:47Z</time>
      </trkpt>
      <trkpt lat="44.08848" lon="6.28427">
        <ele>657.8</ele>
        <time>2022-06-06T08:30:51Z</time>
      </trkpt>
      <trkpt lat="44.08849" lon="6.28439">
        <ele>658.4</ele>
        <time>2022-06-06T08:30:53Z</time>
      </trkpt>
      <trkpt lat="44.08853" lon="6.28449">
        <ele>659</ele>
        <time>2022-06-06T08:30:55Z</time>
      </trkpt>
      <trkpt lat="44.08864" lon="6.28474">
        <ele>660.2</ele>
        <time>2022-06-06T08:31:00Z</time>
      </trkpt>
      <trkpt lat="44.08865" lon="6.28502">
        <ele>661.4</ele>
        <time>2022-06-06T08:31:05Z</time>
      </trkpt>
      <trkpt lat="44.08859" lon="6.28538">
        <ele>663.2</ele>
        <time>2022-06-06T08:31:12Z</time>
      </trkpt>
      <trkpt lat="44.08856" lon="6.28575">
        <ele>665.2</ele>
        <time>2022-06-06T08:31:19Z</time>
      </trkpt>
      <trkpt lat="44.08858" lon="6.2861">
        <ele>667.6</ele>
        <time>2022-06-06T08:31:26Z</time>
      </trkpt>
      <trkpt lat="44.08864" lon="6.28635">
        <ele>669.4</ele>
        <time>2022-06-06T08:31:32Z</time>
      </trkpt>
      <trkpt lat="44.08873" lon="6.28645">
        <ele>670.2</ele>
        <time>2022-06-06T08:31:35Z</time>
      </trkpt>
      <trkpt lat="44.0888" lon="6.28651">
        <ele>670.8</ele>
        <time>2022-06-06T08:31:37Z</time>
      </trkpt>
      <trkpt lat="44.08899" lon="6.28668">
        <ele>672.6</ele>
        <time>2022-06-06T08:31:43Z</time>
      </trkpt>
      <trkpt lat="44.08923" lon="6.28687">
        <ele>674.2</ele>
        <time>2022-06-06T08:31:50Z</time>
      </trkpt>
      <trkpt lat="44.08939" lon="6.28692">
        <ele>675.2</ele>
        <time>2022-06-06T08:31:54Z</time>
      </trkpt>
      <trkpt lat="44.08943" lon="6.28695">
        <ele>675.4</ele>
        <time>2022-06-06T08:31:55Z</time>
      </trkpt>
      <trkpt lat="44.08948" lon="6.28699">
        <ele>675.6</ele>
        <time>2022-06-06T08:31:56Z</time>
      </trkpt>
      <trkpt lat="44.08952" lon="6.2871">
        <ele>676</ele>
        <time>2022-06-06T08:31:58Z</time>
      </trkpt>
      <trkpt lat="44.08944" lon="6.2872">
        <ele>676.6</ele>
        <time>2022-06-06T08:32:00Z</time>
      </trkpt>
      <trkpt lat="44.08939" lon="6.28726">
        <ele>676.8</ele>
        <time>2022-06-06T08:32:01Z</time>
      </trkpt>
      <trkpt lat="44.08933" lon="6.28738">
        <ele>677.2</ele>
        <time>2022-06-06T08:32:03Z</time>
      </trkpt>
      <trkpt lat="44.08931" lon="6.28744">
        <ele>677.4</ele>
        <time>2022-06-06T08:32:04Z</time>
      </trkpt>
      <trkpt lat="44.08922" lon="6.28776">
        <ele>678.6</ele>
        <time>2022-06-06T08:32:10Z</time>
      </trkpt>
      <trkpt lat="44.089" lon="6.28809">
        <ele>680</ele>
        <time>2022-06-06T08:32:18Z</time>
      </trkpt>
      <trkpt lat="44.08881" lon="6.28844">
        <ele>681.4</ele>
        <time>2022-06-06T08:32:26Z</time>
      </trkpt>
      <trkpt lat="44.08873" lon="6.28873">
        <ele>682.8</ele>
        <time>2022-06-06T08:32:32Z</time>
      </trkpt>
      <trkpt lat="44.08881" lon="6.28893">
        <ele>683.8</ele>
        <time>2022-06-06T08:32:36Z</time>
      </trkpt>
      <trkpt lat="44.08888" lon="6.28918">
        <ele>685</ele>
        <time>2022-06-06T08:32:41Z</time>
      </trkpt>
      <trkpt lat="44.08894" lon="6.2895">
        <ele>686.6</ele>
        <time>2022-06-06T08:32:47Z</time>
      </trkpt>
      <trkpt lat="44.08904" lon="6.28986">
        <ele>688.2</ele>
        <time>2022-06-06T08:32:54Z</time>
      </trkpt>
      <trkpt lat="44.08908" lon="6.29024">
        <ele>690.2</ele>
        <time>2022-06-06T08:33:01Z</time>
      </trkpt>
      <trkpt lat="44.08918" lon="6.29066">
        <ele>692.8</ele>
        <time>2022-06-06T08:33:09Z</time>
      </trkpt>
      <trkpt lat="44.08925" lon="6.29096">
        <ele>694.4</ele>
        <time>2022-06-06T08:33:15Z</time>
      </trkpt>
      <trkpt lat="44.08931" lon="6.29122">
        <ele>696</ele>
        <time>2022-06-06T08:33:20Z</time>
      </trkpt>
      <trkpt lat="44.08941" lon="6.29144">
        <ele>697.4</ele>
        <time>2022-06-06T08:33:25Z</time>
      </trkpt>
      <trkpt lat="44.08955" lon="6.29151">
        <ele>698.6</ele>
        <time>2022-06-06T08:33:29Z</time>
      </trkpt>
      <trkpt lat="44.08963" lon="6.29153">
        <ele>699.2</ele>
        <time>2022-06-06T08:33:31Z</time>
      </trkpt>
      <trkpt lat="44.08974" lon="6.29161">
        <ele>700</ele>
        <time>2022-06-06T08:33:34Z</time>
      </trkpt>
      <trkpt lat="44.08989" lon="6.29178">
        <ele>701.2</ele>
        <time>2022-06-06T08:33:39Z</time>
      </trkpt>
      <trkpt lat="44.08991" lon="6.29182">
        <ele>701.6</ele>
        <time>2022-06-06T08:33:40Z</time>
      </trkpt>
      <trkpt lat="44.08993" lon="6.29187">
        <ele>701.8</ele>
        <time>2022-06-06T08:33:41Z</time>
      </trkpt>
      <trkpt lat="44.08998" lon="6.29209">
        <ele>702.8</ele>
        <time>2022-06-06T08:33:45Z</time>
      </trkpt>
      <trkpt lat="44.09" lon="6.29214">
        <ele>703.2</ele>
        <time>2022-06-06T08:33:46Z</time>
      </trkpt>
      <trkpt lat="44.09004" lon="6.29225">
        <ele>703.6</ele>
        <time>2022-06-06T08:33:48Z</time>
      </trkpt>
      <trkpt lat="44.09004" lon="6.29231">
        <ele>703.8</ele>
        <time>2022-06-06T08:33:49Z</time>
      </trkpt>
      <trkpt lat="44.09003" lon="6.29237">
        <ele>704</ele>
        <time>2022-06-06T08:33:50Z</time>
      </trkpt>
      <trkpt lat="44.09" lon="6.29249">
        <ele>704.4</ele>
        <time>2022-06-06T08:33:52Z</time>
      </trkpt>
      <trkpt lat="44.08999" lon="6.29255">
        <ele>704.6</ele>
        <time>2022-06-06T08:33:53Z</time>
      </trkpt>
      <trkpt lat="44.08999" lon="6.29261">
        <ele>705</ele>
        <time>2022-06-06T08:33:54Z</time>
      </trkpt>
      <trkpt lat="44.09002" lon="6.29285">
        <ele>706</ele>
        <time>2022-06-06T08:33:58Z</time>
      </trkpt>
      <trkpt lat="44.09011" lon="6.29333">
        <ele>708.6</ele>
        <time>2022-06-06T08:34:06Z</time>
      </trkpt>
      <trkpt lat="44.09015" lon="6.29356">
        <ele>709.6</ele>
        <time>2022-06-06T08:34:10Z</time>
      </trkpt>
      <trkpt lat="44.0902" lon="6.29373">
        <ele>710.4</ele>
        <time>2022-06-06T08:34:13Z</time>
      </trkpt>
      <trkpt lat="44.09026" lon="6.29412">
        <ele>712.6</ele>
        <time>2022-06-06T08:34:20Z</time>
      </trkpt>
      <trkpt lat="44.09032" lon="6.29436">
        <ele>714</ele>
        <time>2022-06-06T08:34:25Z</time>
      </trkpt>
      <trkpt lat="44.09035" lon="6.29439">
        <ele>714.4</ele>
        <time>2022-06-06T08:34:26Z</time>
      </trkpt>
      <trkpt lat="44.09045" lon="6.29446">
        <ele>715.4</ele>
        <time>2022-06-06T08:34:29Z</time>
      </trkpt>
      <trkpt lat="44.09066" lon="6.29469">
        <ele>717.4</ele>
        <time>2022-06-06T08:34:36Z</time>
      </trkpt>
      <trkpt lat="44.09084" lon="6.29495">
        <ele>719.6</ele>
        <time>2022-06-06T08:34:43Z</time>
      </trkpt>
      <trkpt lat="44.091" lon="6.29526">
        <ele>721.6</ele>
        <time>2022-06-06T08:34:50Z</time>
      </trkpt>
      <trkpt lat="44.09112" lon="6.29539">
        <ele>722.8</ele>
        <time>2022-06-06T08:34:54Z</time>
      </trkpt>
      <trkpt lat="44.09119" lon="6.29551">
        <ele>723.6</ele>
        <time>2022-06-06T08:34:57Z</time>
      </trkpt>
      <trkpt lat="44.09118" lon="6.29573">
        <ele>724.8</ele>
        <time>2022-06-06T08:35:01Z</time>
      </trkpt>
      <trkpt lat="44.09125" lon="6.29602">
        <ele>726.4</ele>
        <time>2022-06-06T08:35:07Z</time>
      </trkpt>
      <trkpt lat="44.09134" lon="6.29635">
        <ele>728.6</ele>
        <time>2022-06-06T08:35:14Z</time>
      </trkpt>
      <trkpt lat="44.09138" lon="6.29645">
        <ele>729.2</ele>
        <time>2022-06-06T08:35:16Z</time>
      </trkpt>
      <trkpt lat="44.09144" lon="6.29654">
        <ele>729.6</ele>
        <time>2022-06-06T08:35:18Z</time>
      </trkpt>
      <trkpt lat="44.09147" lon="6.29659">
        <ele>730</ele>
        <time>2022-06-06T08:35:19Z</time>
      </trkpt>
      <trkpt lat="44.09166" lon="6.29688">
        <ele>731.2</ele>
        <time>2022-06-06T08:35:25Z</time>
      </trkpt>
      <trkpt lat="44.09182" lon="6.29713">
        <ele>732.2</ele>
        <time>2022-06-06T08:35:30Z</time>
      </trkpt>
      <trkpt lat="44.09197" lon="6.29733">
        <ele>733</ele>
        <time>2022-06-06T08:35:34Z</time>
      </trkpt>
      <trkpt lat="44.09205" lon="6.29741">
        <ele>733.4</ele>
        <time>2022-06-06T08:35:36Z</time>
      </trkpt>
      <trkpt lat="44.09212" lon="6.29749">
        <ele>733.8</ele>
        <time>2022-06-06T08:35:38Z</time>
      </trkpt>
      <trkpt lat="44.09214" lon="6.29755">
        <ele>734</ele>
        <time>2022-06-06T08:35:39Z</time>
      </trkpt>
      <trkpt lat="44.09213" lon="6.29762">
        <ele>734.2</ele>
        <time>2022-06-06T08:35:40Z</time>
      </trkpt>
      <trkpt lat="44.09211" lon="6.29773">
        <ele>734.6</ele>
        <time>2022-06-06T08:35:42Z</time>
      </trkpt>
      <trkpt lat="44.09208" lon="6.29776">
        <ele>734.8</ele>
        <time>2022-06-06T08:35:43Z</time>
      </trkpt>
      <trkpt lat="44.09197" lon="6.29771">
        <ele>735.4</ele>
        <time>2022-06-06T08:35:46Z</time>
      </trkpt>
      <trkpt lat="44.09176" lon="6.29749">
        <ele>737</ele>
        <time>2022-06-06T08:35:53Z</time>
      </trkpt>
      <trkpt lat="44.09159" lon="6.29728">
        <ele>738.2</ele>
        <time>2022-06-06T08:35:59Z</time>
      </trkpt>
      <trkpt lat="44.09143" lon="6.29716">
        <ele>739.4</ele>
        <time>2022-06-06T08:36:04Z</time>
      </trkpt>
      <trkpt lat="44.09121" lon="6.29698">
        <ele>740.6</ele>
        <time>2022-06-06T08:36:11Z</time>
      </trkpt>
      <trkpt lat="44.09102" lon="6.29684">
        <ele>741.6</ele>
        <time>2022-06-06T08:36:17Z</time>
      </trkpt>
      <trkpt lat="44.09091" lon="6.29695">
        <ele>741.6</ele>
        <time>2022-06-06T08:36:21Z</time>
      </trkpt>
      <trkpt lat="44.09083" lon="6.29717">
        <ele>741.8</ele>
        <time>2022-06-06T08:36:26Z</time>
      </trkpt>
      <trkpt lat="44.09073" lon="6.29748">
        <ele>742.6</ele>
        <time>2022-06-06T08:36:33Z</time>
      </trkpt>
      <trkpt lat="44.09069" lon="6.29777">
        <ele>743.2</ele>
        <time>2022-06-06T08:36:39Z</time>
      </trkpt>
      <trkpt lat="44.09072" lon="6.29812">
        <ele>744.6</ele>
        <time>2022-06-06T08:36:46Z</time>
      </trkpt>
      <trkpt lat="44.09076" lon="6.29838">
        <ele>746.8</ele>
        <time>2022-06-06T08:36:52Z</time>
      </trkpt>
      <trkpt lat="44.09082" lon="6.2986">
        <ele>748.4</ele>
        <time>2022-06-06T08:36:57Z</time>
      </trkpt>
      <trkpt lat="44.09095" lon="6.29882">
        <ele>750.4</ele>
        <time>2022-06-06T08:37:03Z</time>
      </trkpt>
      <trkpt lat="44.09114" lon="6.29902">
        <ele>752.4</ele>
        <time>2022-06-06T08:37:10Z</time>
      </trkpt>
      <trkpt lat="44.0913" lon="6.29927">
        <ele>754.6</ele>
        <time>2022-06-06T08:37:17Z</time>
      </trkpt>
      <trkpt lat="44.09148" lon="6.2995">
        <ele>757</ele>
        <time>2022-06-06T08:37:24Z</time>
      </trkpt>
      <trkpt lat="44.09174" lon="6.29974">
        <ele>759.8</ele>
        <time>2022-06-06T08:37:33Z</time>
      </trkpt>
      <trkpt lat="44.09192" lon="6.29991">
        <ele>761.6</ele>
        <time>2022-06-06T08:37:39Z</time>
      </trkpt>
      <trkpt lat="44.09217" lon="6.30013">
        <ele>764.2</ele>
        <time>2022-06-06T08:37:47Z</time>
      </trkpt>
      <trkpt lat="44.0924" lon="6.3003">
        <ele>766.4</ele>
        <time>2022-06-06T08:37:54Z</time>
      </trkpt>
      <trkpt lat="44.09246" lon="6.30049">
        <ele>767.8</ele>
        <time>2022-06-06T08:37:58Z</time>
      </trkpt>
      <trkpt lat="44.09244" lon="6.30081">
        <ele>769.8</ele>
        <time>2022-06-06T08:38:04Z</time>
      </trkpt>
      <trkpt lat="44.09233" lon="6.30096">
        <ele>771</ele>
        <time>2022-06-06T08:38:08Z</time>
      </trkpt>
      <trkpt lat="44.09216" lon="6.30103">
        <ele>772.4</ele>
        <time>2022-06-06T08:38:13Z</time>
      </trkpt>
      <trkpt lat="44.09199" lon="6.30099">
        <ele>773.6</ele>
        <time>2022-06-06T08:38:18Z</time>
      </trkpt>
      <trkpt lat="44.09169" lon="6.30081">
        <ele>776</ele>
        <time>2022-06-06T08:38:27Z</time>
      </trkpt>
      <trkpt lat="44.09152" lon="6.3007">
        <ele>777.4</ele>
        <time>2022-06-06T08:38:32Z</time>
      </trkpt>
      <trkpt lat="44.0913" lon="6.30066">
        <ele>778.6</ele>
        <time>2022-06-06T08:38:38Z</time>
      </trkpt>
      <trkpt lat="44.09105" lon="6.30054">
        <ele>780.2</ele>
        <time>2022-06-06T08:38:45Z</time>
      </trkpt>
      <trkpt lat="44.09074" lon="6.30032">
        <ele>782.4</ele>
        <time>2022-06-06T08:38:54Z</time>
      </trkpt>
      <trkpt lat="44.09071" lon="6.30033">
        <ele>782.6</ele>
        <time>2022-06-06T08:38:55Z</time>
      </trkpt>
      <trkpt lat="44.09065" lon="6.30039">
        <ele>783</ele>
        <time>2022-06-06T08:38:57Z</time>
      </trkpt>
      <trkpt lat="44.09059" lon="6.30055">
        <ele>783.6</ele>
        <time>2022-06-06T08:39:01Z</time>
      </trkpt>
      <trkpt lat="44.09056" lon="6.30058">
        <ele>783.8</ele>
        <time>2022-06-06T08:39:02Z</time>
      </trkpt>
      <trkpt lat="44.09049" lon="6.30056">
        <ele>784.2</ele>
        <time>2022-06-06T08:39:04Z</time>
      </trkpt>
      <trkpt lat="44.09046" lon="6.30052">
        <ele>784.4</ele>
        <time>2022-06-06T08:39:05Z</time>
      </trkpt>
      <trkpt lat="44.09043" lon="6.30042">
        <ele>784.8</ele>
        <time>2022-06-06T08:39:07Z</time>
      </trkpt>
      <trkpt lat="44.0903" lon="6.30009">
        <ele>786</ele>
        <time>2022-06-06T08:39:14Z</time>
      </trkpt>
      <trkpt lat="44.09019" lon="6.30002">
        <ele>787</ele>
        <time>2022-06-06T08:39:18Z</time>
      </trkpt>
      <trkpt lat="44.09009" lon="6.30014">
        <ele>787.8</ele>
        <time>2022-06-06T08:39:22Z</time>
      </trkpt>
      <trkpt lat="44.09008" lon="6.30036">
        <ele>788.6</ele>
        <time>2022-06-06T08:39:26Z</time>
      </trkpt>
      <trkpt lat="44.0901" lon="6.30073">
        <ele>790</ele>
        <time>2022-06-06T08:39:33Z</time>
      </trkpt>
      <trkpt lat="44.09004" lon="6.30111">
        <ele>791.4</ele>
        <time>2022-06-06T08:39:41Z</time>
      </trkpt>
      <trkpt lat="44.08988" lon="6.30144">
        <ele>792.6</ele>
        <time>2022-06-06T08:39:49Z</time>
      </trkpt>
      <trkpt lat="44.08972" lon="6.30163">
        <ele>793.4</ele>
        <time>2022-06-06T08:39:55Z</time>
      </trkpt>
      <trkpt lat="44.08957" lon="6.30173">
        <ele>794.2</ele>
        <time>2022-06-06T08:40:00Z</time>
      </trkpt>
      <trkpt lat="44.08937" lon="6.30178">
        <ele>795.6</ele>
        <time>2022-06-06T08:40:06Z</time>
      </trkpt>
      <trkpt lat="44.08909" lon="6.30169">
        <ele>797.6</ele>
        <time>2022-06-06T08:40:14Z</time>
      </trkpt>
      <trkpt lat="44.08881" lon="6.30162">
        <ele>799.4</ele>
        <time>2022-06-06T08:40:22Z</time>
      </trkpt>
      <trkpt lat="44.08855" lon="6.30161">
        <ele>801.6</ele>
        <time>2022-06-06T08:40:30Z</time>
      </trkpt>
      <trkpt lat="44.08834" lon="6.3017">
        <ele>803.6</ele>
        <time>2022-06-06T08:40:37Z</time>
      </trkpt>
      <trkpt lat="44.0882" lon="6.30187">
        <ele>805.4</ele>
        <time>2022-06-06T08:40:43Z</time>
      </trkpt>
      <trkpt lat="44.08819" lon="6.30194">
        <ele>806.2</ele>
        <time>2022-06-06T08:40:45Z</time>
      </trkpt>
      <trkpt lat="44.0882" lon="6.30198">
        <ele>806.6</ele>
        <time>2022-06-06T08:40:46Z</time>
      </trkpt>
      <trkpt lat="44.08829" lon="6.30208">
        <ele>808.4</ele>
        <time>2022-06-06T08:40:50Z</time>
      </trkpt>
      <trkpt lat="44.08844" lon="6.30218">
        <ele>811.2</ele>
        <time>2022-06-06T08:40:56Z</time>
      </trkpt>
      <trkpt lat="44.08846" lon="6.30221">
        <ele>811.6</ele>
        <time>2022-06-06T08:40:57Z</time>
      </trkpt>
      <trkpt lat="44.08844" lon="6.30228">
        <ele>812.4</ele>
        <time>2022-06-06T08:40:59Z</time>
      </trkpt>
      <trkpt lat="44.08833" lon="6.30231">
        <ele>814</ele>
        <time>2022-06-06T08:41:03Z</time>
      </trkpt>
      <trkpt lat="44.08813" lon="6.30236">
        <ele>817</ele>
        <time>2022-06-06T08:41:10Z</time>
      </trkpt>
      <trkpt lat="44.08799" lon="6.30251">
        <ele>819.4</ele>
        <time>2022-06-06T08:41:16Z</time>
      </trkpt>
      <trkpt lat="44.08789" lon="6.30262">
        <ele>821.2</ele>
        <time>2022-06-06T08:41:21Z</time>
      </trkpt>
      <trkpt lat="44.08772" lon="6.30266">
        <ele>823.4</ele>
        <time>2022-06-06T08:41:28Z</time>
      </trkpt>
      <trkpt lat="44.08758" lon="6.30273">
        <ele>825.4</ele>
        <time>2022-06-06T08:41:34Z</time>
      </trkpt>
      <trkpt lat="44.08755" lon="6.30293">
        <ele>827.2</ele>
        <time>2022-06-06T08:41:39Z</time>
      </trkpt>
      <trkpt lat="44.08752" lon="6.3031">
        <ele>829.2</ele>
        <time>2022-06-06T08:41:44Z</time>
      </trkpt>
      <trkpt lat="44.08748" lon="6.30313">
        <ele>829.8</ele>
        <time>2022-06-06T08:41:46Z</time>
      </trkpt>
      <trkpt lat="44.08745" lon="6.30313">
        <ele>830.4</ele>
        <time>2022-06-06T08:41:47Z</time>
      </trkpt>
      <trkpt lat="44.08732" lon="6.30304">
        <ele>832.2</ele>
        <time>2022-06-06T08:41:52Z</time>
      </trkpt>
      <trkpt lat="44.08727" lon="6.30304">
        <ele>833.2</ele>
        <time>2022-06-06T08:41:54Z</time>
      </trkpt>
      <trkpt lat="44.08722" lon="6.30307">
        <ele>834.2</ele>
        <time>2022-06-06T08:41:56Z</time>
      </trkpt>
      <trkpt lat="44.08713" lon="6.30325">
        <ele>836.8</ele>
        <time>2022-06-06T08:42:02Z</time>
      </trkpt>
      <trkpt lat="44.08714" lon="6.30348">
        <ele>839.4</ele>
        <time>2022-06-06T08:42:08Z</time>
      </trkpt>
      <trkpt lat="44.08718" lon="6.30363">
        <ele>841</ele>
        <time>2022-06-06T08:42:12Z</time>
      </trkpt>
      <trkpt lat="44.08728" lon="6.30389">
        <ele>844.2</ele>
        <time>2022-06-06T08:42:19Z</time>
      </trkpt>
      <trkpt lat="44.08731" lon="6.30412">
        <ele>846.4</ele>
        <time>2022-06-06T08:42:24Z</time>
      </trkpt>
      <trkpt lat="44.08729" lon="6.30416">
        <ele>846.8</ele>
        <time>2022-06-06T08:42:25Z</time>
      </trkpt>
      <trkpt lat="44.08726" lon="6.30417">
        <ele>847.4</ele>
        <time>2022-06-06T08:42:26Z</time>
      </trkpt>
      <trkpt lat="44.0872" lon="6.30414">
        <ele>848.2</ele>
        <time>2022-06-06T08:42:28Z</time>
      </trkpt>
      <trkpt lat="44.087" lon="6.30397">
        <ele>851.4</ele>
        <time>2022-06-06T08:42:35Z</time>
      </trkpt>
      <trkpt lat="44.08692" lon="6.30404">
        <ele>852.6</ele>
        <time>2022-06-06T08:42:38Z</time>
      </trkpt>
      <trkpt lat="44.08691" lon="6.30422">
        <ele>854.4</ele>
        <time>2022-06-06T08:42:42Z</time>
      </trkpt>
      <trkpt lat="44.087" lon="6.30439">
        <ele>856.6</ele>
        <time>2022-06-06T08:42:47Z</time>
      </trkpt>
      <trkpt lat="44.08711" lon="6.30449">
        <ele>858.6</ele>
        <time>2022-06-06T08:42:51Z</time>
      </trkpt>
      <trkpt lat="44.08709" lon="6.30458">
        <ele>859.4</ele>
        <time>2022-06-06T08:42:53Z</time>
      </trkpt>
      <trkpt lat="44.08706" lon="6.3046">
        <ele>859.8</ele>
        <time>2022-06-06T08:42:54Z</time>
      </trkpt>
      <trkpt lat="44.08692" lon="6.30463">
        <ele>861.6</ele>
        <time>2022-06-06T08:42:58Z</time>
      </trkpt>
      <trkpt lat="44.08685" lon="6.30478">
        <ele>863.2</ele>
        <time>2022-06-06T08:43:02Z</time>
      </trkpt>
      <trkpt lat="44.08691" lon="6.30499">
        <ele>865.4</ele>
        <time>2022-06-06T08:43:07Z</time>
      </trkpt>
      <trkpt lat="44.08706" lon="6.30522">
        <ele>868.8</ele>
        <time>2022-06-06T08:43:14Z</time>
      </trkpt>
      <trkpt lat="44.08722" lon="6.30546">
        <ele>872</ele>
        <time>2022-06-06T08:43:21Z</time>
      </trkpt>
      <trkpt lat="44.08741" lon="6.30578">
        <ele>876</ele>
        <time>2022-06-06T08:43:30Z</time>
      </trkpt>
      <trkpt lat="44.08757" lon="6.30606">
        <ele>879.6</ele>
        <time>2022-06-06T08:43:38Z</time>
      </trkpt>
      <trkpt lat="44.08769" lon="6.30608">
        <ele>881.2</ele>
        <time>2022-06-06T08:43:42Z</time>
      </trkpt>
      <trkpt lat="44.08785" lon="6.30593">
        <ele>883.8</ele>
        <time>2022-06-06T08:43:48Z</time>
      </trkpt>
      <trkpt lat="44.08807" lon="6.30571">
        <ele>887.4</ele>
        <time>2022-06-06T08:43:57Z</time>
      </trkpt>
      <trkpt lat="44.08822" lon="6.30558">
        <ele>889.8</ele>
        <time>2022-06-06T08:44:03Z</time>
      </trkpt>
      <trkpt lat="44.08829" lon="6.30554">
        <ele>890.8</ele>
        <time>2022-06-06T08:44:06Z</time>
      </trkpt>
      <trkpt lat="44.08834" lon="6.30556">
        <ele>891.6</ele>
        <time>2022-06-06T08:44:08Z</time>
      </trkpt>
      <trkpt lat="44.08849" lon="6.30567">
        <ele>893.6</ele>
        <time>2022-06-06T08:44:14Z</time>
      </trkpt>
      <trkpt lat="44.08867" lon="6.30578">
        <ele>896</ele>
        <time>2022-06-06T08:44:21Z</time>
      </trkpt>
      <trkpt lat="44.08884" lon="6.30577">
        <ele>897.8</ele>
        <time>2022-06-06T08:44:27Z</time>
      </trkpt>
      <trkpt lat="44.08907" lon="6.3057">
        <ele>900.4</ele>
        <time>2022-06-06T08:44:35Z</time>
      </trkpt>
      <trkpt lat="44.08931" lon="6.30571">
        <ele>903</ele>
        <time>2022-06-06T08:44:43Z</time>
      </trkpt>
      <trkpt lat="44.08951" lon="6.30578">
        <ele>905</ele>
        <time>2022-06-06T08:44:50Z</time>
      </trkpt>
      <trkpt lat="44.08954" lon="6.30584">
        <ele>905.6</ele>
        <time>2022-06-06T08:44:52Z</time>
      </trkpt>
      <trkpt lat="44.08953" lon="6.30592">
        <ele>906</ele>
        <time>2022-06-06T08:44:54Z</time>
      </trkpt>
      <trkpt lat="44.08949" lon="6.30596">
        <ele>906.4</ele>
        <time>2022-06-06T08:44:56Z</time>
      </trkpt>
      <trkpt lat="44.08946" lon="6.30597">
        <ele>906.6</ele>
        <time>2022-06-06T08:44:57Z</time>
      </trkpt>
      <trkpt lat="44.08927" lon="6.306">
        <ele>908.2</ele>
        <time>2022-06-06T08:45:03Z</time>
      </trkpt>
      <trkpt lat="44.08912" lon="6.30613">
        <ele>909.8</ele>
        <time>2022-06-06T08:45:08Z</time>
      </trkpt>
      <trkpt lat="44.08902" lon="6.30638">
        <ele>911.4</ele>
        <time>2022-06-06T08:45:14Z</time>
      </trkpt>
      <trkpt lat="44.08896" lon="6.30656">
        <ele>912.6</ele>
        <time>2022-06-06T08:45:18Z</time>
      </trkpt>
      <trkpt lat="44.08896" lon="6.3068">
        <ele>914.2</ele>
        <time>2022-06-06T08:45:23Z</time>
      </trkpt>
      <trkpt lat="44.08903" lon="6.30723">
        <ele>917.4</ele>
        <time>2022-06-06T08:45:32Z</time>
      </trkpt>
      <trkpt lat="44.08903" lon="6.3076">
        <ele>920.2</ele>
        <time>2022-06-06T08:45:40Z</time>
      </trkpt>
      <trkpt lat="44.08897" lon="6.30787">
        <ele>922.2</ele>
        <time>2022-06-06T08:45:46Z</time>
      </trkpt>
      <trkpt lat="44.08899" lon="6.30811">
        <ele>924</ele>
        <time>2022-06-06T08:45:51Z</time>
      </trkpt>
      <trkpt lat="44.08902" lon="6.30838">
        <ele>926.2</ele>
        <time>2022-06-06T08:45:57Z</time>
      </trkpt>
      <trkpt lat="44.08895" lon="6.30855">
        <ele>928</ele>
        <time>2022-06-06T08:46:02Z</time>
      </trkpt>
      <trkpt lat="44.0888" lon="6.30862">
        <ele>929.8</ele>
        <time>2022-06-06T08:46:07Z</time>
      </trkpt>
      <trkpt lat="44.0886" lon="6.30871">
        <ele>931.8</ele>
        <time>2022-06-06T08:46:14Z</time>
      </trkpt>
      <trkpt lat="44.0885" lon="6.30897">
        <ele>933.6</ele>
        <time>2022-06-06T08:46:20Z</time>
      </trkpt>
      <trkpt lat="44.08841" lon="6.3093">
        <ele>936.2</ele>
        <time>2022-06-06T08:46:28Z</time>
      </trkpt>
      <trkpt lat="44.08831" lon="6.30949">
        <ele>938</ele>
        <time>2022-06-06T08:46:34Z</time>
      </trkpt>
      <trkpt lat="44.08815" lon="6.30953">
        <ele>939.4</ele>
        <time>2022-06-06T08:46:39Z</time>
      </trkpt>
      <trkpt lat="44.08802" lon="6.30938">
        <ele>940.6</ele>
        <time>2022-06-06T08:46:44Z</time>
      </trkpt>
      <trkpt lat="44.08785" lon="6.30926">
        <ele>942</ele>
        <time>2022-06-06T08:46:50Z</time>
      </trkpt>
      <trkpt lat="44.08779" lon="6.30927">
        <ele>942.6</ele>
        <time>2022-06-06T08:46:52Z</time>
      </trkpt>
      <trkpt lat="44.08775" lon="6.30933">
        <ele>943.2</ele>
        <time>2022-06-06T08:46:54Z</time>
      </trkpt>
      <trkpt lat="44.08774" lon="6.30951">
        <ele>944.2</ele>
        <time>2022-06-06T08:46:58Z</time>
      </trkpt>
      <trkpt lat="44.08773" lon="6.30981">
        <ele>946</ele>
        <time>2022-06-06T08:47:05Z</time>
      </trkpt>
      <trkpt lat="44.08767" lon="6.31003">
        <ele>947.4</ele>
        <time>2022-06-06T08:47:11Z</time>
      </trkpt>
      <trkpt lat="44.08759" lon="6.31018">
        <ele>948.8</ele>
        <time>2022-06-06T08:47:16Z</time>
      </trkpt>
      <trkpt lat="44.08759" lon="6.31049">
        <ele>950.2</ele>
        <time>2022-06-06T08:47:23Z</time>
      </trkpt>
      <trkpt lat="44.0876" lon="6.31081">
        <ele>951.8</ele>
        <time>2022-06-06T08:47:30Z</time>
      </trkpt>
      <trkpt lat="44.0876" lon="6.3111">
        <ele>953.4</ele>
        <time>2022-06-06T08:47:37Z</time>
      </trkpt>
      <trkpt lat="44.0875" lon="6.31143">
        <ele>955.4</ele>
        <time>2022-06-06T08:47:46Z</time>
      </trkpt>
      <trkpt lat="44.08739" lon="6.31169">
        <ele>957</ele>
        <time>2022-06-06T08:47:53Z</time>
      </trkpt>
      <trkpt lat="44.08723" lon="6.31187">
        <ele>958.2</ele>
        <time>2022-06-06T08:47:59Z</time>
      </trkpt>
      <trkpt lat="44.08701" lon="6.31198">
        <ele>959.4</ele>
        <time>2022-06-06T08:48:05Z</time>
      </trkpt>
      <trkpt lat="44.08699" lon="6.31203">
        <ele>959.6</ele>
        <time>2022-06-06T08:48:06Z</time>
      </trkpt>
      <trkpt lat="44.08701" lon="6.31213">
        <ele>960</ele>
        <time>2022-06-06T08:48:08Z</time>
      </trkpt>
      <trkpt lat="44.08709" lon="6.31218">
        <ele>960.4</ele>
        <time>2022-06-06T08:48:10Z</time>
      </trkpt>
      <trkpt lat="44.08713" lon="6.31217">
        <ele>960.6</ele>
        <time>2022-06-06T08:48:11Z</time>
      </trkpt>
      <trkpt lat="44.08731" lon="6.31207">
        <ele>961.6</ele>
        <time>2022-06-06T08:48:16Z</time>
      </trkpt>
      <trkpt lat="44.08756" lon="6.31189">
        <ele>962.8</ele>
        <time>2022-06-06T08:48:23Z</time>
      </trkpt>
      <trkpt lat="44.0878" lon="6.31167">
        <ele>964.6</ele>
        <time>2022-06-06T08:48:30Z</time>
      </trkpt>
      <trkpt lat="44.08788" lon="6.31163">
        <ele>965</ele>
        <time>2022-06-06T08:48:32Z</time>
      </trkpt>
      <trkpt lat="44.08797" lon="6.31164">
        <ele>965.6</ele>
        <time>2022-06-06T08:48:34Z</time>
      </trkpt>
      <trkpt lat="44.08825" lon="6.31174">
        <ele>967.4</ele>
        <time>2022-06-06T08:48:41Z</time>
      </trkpt>
      <trkpt lat="44.08837" lon="6.31181">
        <ele>968</ele>
        <time>2022-06-06T08:48:44Z</time>
      </trkpt>
      <trkpt lat="44.08848" lon="6.3119">
        <ele>968.8</ele>
        <time>2022-06-06T08:48:47Z</time>
      </trkpt>
      <trkpt lat="44.08877" lon="6.31205">
        <ele>970.8</ele>
        <time>2022-06-06T08:48:55Z</time>
      </trkpt>
      <trkpt lat="44.08899" lon="6.3121">
        <ele>972.2</ele>
        <time>2022-06-06T08:49:01Z</time>
      </trkpt>
      <trkpt lat="44.08921" lon="6.31217">
        <ele>973.8</ele>
        <time>2022-06-06T08:49:07Z</time>
      </trkpt>
      <trkpt lat="44.08925" lon="6.31219">
        <ele>974</ele>
        <time>2022-06-06T08:49:08Z</time>
      </trkpt>
      <trkpt lat="44.08931" lon="6.31233">
        <ele>974.6</ele>
        <time>2022-06-06T08:49:11Z</time>
      </trkpt>
      <trkpt lat="44.08938" lon="6.31268">
        <ele>976.4</ele>
        <time>2022-06-06T08:49:18Z</time>
      </trkpt>
      <trkpt lat="44.08941" lon="6.31297">
        <ele>978</ele>
        <time>2022-06-06T08:49:24Z</time>
      </trkpt>
      <trkpt lat="44.08933" lon="6.31318">
        <ele>979.2</ele>
        <time>2022-06-06T08:49:29Z</time>
      </trkpt>
      <trkpt lat="44.08914" lon="6.31341">
        <ele>980.8</ele>
        <time>2022-06-06T08:49:36Z</time>
      </trkpt>
      <trkpt lat="44.08898" lon="6.31347">
        <ele>982</ele>
        <time>2022-06-06T08:49:41Z</time>
      </trkpt>
      <trkpt lat="44.08875" lon="6.31339">
        <ele>983.6</ele>
        <time>2022-06-06T08:49:47Z</time>
      </trkpt>
      <trkpt lat="44.08853" lon="6.31336">
        <ele>985.2</ele>
        <time>2022-06-06T08:49:53Z</time>
      </trkpt>
      <trkpt lat="44.08848" lon="6.31345">
        <ele>985.6</ele>
        <time>2022-06-06T08:49:55Z</time>
      </trkpt>
      <trkpt lat="44.08847" lon="6.3135">
        <ele>985.8</ele>
        <time>2022-06-06T08:49:56Z</time>
      </trkpt>
      <trkpt lat="44.08848" lon="6.31356">
        <ele>986.2</ele>
        <time>2022-06-06T08:49:57Z</time>
      </trkpt>
      <trkpt lat="44.08852" lon="6.31364">
        <ele>986.6</ele>
        <time>2022-06-06T08:49:59Z</time>
      </trkpt>
      <trkpt lat="44.0887" lon="6.31376">
        <ele>988</ele>
        <time>2022-06-06T08:50:04Z</time>
      </trkpt>
      <trkpt lat="44.08889" lon="6.31394">
        <ele>989.6</ele>
        <time>2022-06-06T08:50:10Z</time>
      </trkpt>
      <trkpt lat="44.08912" lon="6.31422">
        <ele>992</ele>
        <time>2022-06-06T08:50:18Z</time>
      </trkpt>
      <trkpt lat="44.0893" lon="6.31428">
        <ele>993.2</ele>
        <time>2022-06-06T08:50:23Z</time>
      </trkpt>
      <trkpt lat="44.08934" lon="6.31429">
        <ele>993.4</ele>
        <time>2022-06-06T08:50:24Z</time>
      </trkpt>
      <trkpt lat="44.0895" lon="6.31428">
        <ele>994.2</ele>
        <time>2022-06-06T08:50:28Z</time>
      </trkpt>
      <trkpt lat="44.08981" lon="6.31422">
        <ele>996</ele>
        <time>2022-06-06T08:50:36Z</time>
      </trkpt>
      <trkpt lat="44.08985" lon="6.31423">
        <ele>996.2</ele>
        <time>2022-06-06T08:50:37Z</time>
      </trkpt>
      <trkpt lat="44.09005" lon="6.31433">
        <ele>997.4</ele>
        <time>2022-06-06T08:50:42Z</time>
      </trkpt>
      <trkpt lat="44.09029" lon="6.3144">
        <ele>998.6</ele>
        <time>2022-06-06T08:50:48Z</time>
      </trkpt>
      <trkpt lat="44.09038" lon="6.31437">
        <ele>999.2</ele>
        <time>2022-06-06T08:50:50Z</time>
      </trkpt>
      <trkpt lat="44.09045" lon="6.31434">
        <ele>999.6</ele>
        <time>2022-06-06T08:50:52Z</time>
      </trkpt>
      <trkpt lat="44.09059" lon="6.31422">
        <ele>1000.4</ele>
        <time>2022-06-06T08:50:57Z</time>
      </trkpt>
      <trkpt lat="44.09063" lon="6.31421">
        <ele>1001.4</ele>
        <time>2022-06-06T08:51:01Z</time>
      </trkpt>
      <trkpt lat="44.09063" lon="6.31421">
        <ele>1002.6</ele>
        <time>2022-06-06T08:51:08Z</time>
      </trkpt>
      <trkpt lat="44.09063" lon="6.31421">
        <ele>1006.4</ele>
        <time>2022-06-06T08:51:35Z</time>
      </trkpt>
      <trkpt lat="44.09063" lon="6.31421">
        <ele>1007.8</ele>
        <time>2022-06-06T08:51:49Z</time>
      </trkpt>
      <trkpt lat="44.09063" lon="6.31421">
        <ele>1009.2</ele>
        <time>2022-06-06T08:52:02Z</time>
      </trkpt>
      <trkpt lat="44.09063" lon="6.3142">
        <ele>1010.4</ele>
        <time>2022-06-06T08:52:18Z</time>
      </trkpt>
      <trkpt lat="44.09063" lon="6.3142">
        <ele>1011.2</ele>
        <time>2022-06-06T08:52:30Z</time>
      </trkpt>
      <trkpt lat="44.09064" lon="6.3142">
        <ele>1011.8</ele>
        <time>2022-06-06T08:52:40Z</time>
      </trkpt>
      <trkpt lat="44.09068" lon="6.31416">
        <ele>1012.2</ele>
        <time>2022-06-06T08:52:45Z</time>
      </trkpt>
      <trkpt lat="44.09078" lon="6.31408">
        <ele>1012.8</ele>
        <time>2022-06-06T08:52:51Z</time>
      </trkpt>
      <trkpt lat="44.09096" lon="6.31397">
        <ele>1013.4</ele>
        <time>2022-06-06T08:52:58Z</time>
      </trkpt>
      <trkpt lat="44.09112" lon="6.31395">
        <ele>1013.8</ele>
        <time>2022-06-06T08:53:04Z</time>
      </trkpt>
      <trkpt lat="44.09127" lon="6.31412">
        <ele>1014</ele>
        <time>2022-06-06T08:53:09Z</time>
      </trkpt>
      <trkpt lat="44.09135" lon="6.31438">
        <ele>1014.4</ele>
        <time>2022-06-06T08:53:15Z</time>
      </trkpt>
      <trkpt lat="44.09146" lon="6.31459">
        <ele>1015</ele>
        <time>2022-06-06T08:53:20Z</time>
      </trkpt>
      <trkpt lat="44.09168" lon="6.31473">
        <ele>1015.4</ele>
        <time>2022-06-06T08:53:26Z</time>
      </trkpt>
      <trkpt lat="44.09187" lon="6.31484">
        <ele>1016.2</ele>
        <time>2022-06-06T08:53:32Z</time>
      </trkpt>
      <trkpt lat="44.09201" lon="6.31487">
        <ele>1016.8</ele>
        <time>2022-06-06T08:53:37Z</time>
      </trkpt>
      <trkpt lat="44.09219" lon="6.31488">
        <ele>1017.2</ele>
        <time>2022-06-06T08:53:42Z</time>
      </trkpt>
      <trkpt lat="44.09236" lon="6.31502">
        <ele>1017.8</ele>
        <time>2022-06-06T08:53:47Z</time>
      </trkpt>
      <trkpt lat="44.0926" lon="6.31534">
        <ele>1018.4</ele>
        <time>2022-06-06T08:53:54Z</time>
      </trkpt>
      <trkpt lat="44.09275" lon="6.31562">
        <ele>1018.8</ele>
        <time>2022-06-06T08:54:00Z</time>
      </trkpt>
      <trkpt lat="44.09293" lon="6.31592">
        <ele>1019.2</ele>
        <time>2022-06-06T08:54:06Z</time>
      </trkpt>
      <trkpt lat="44.09301" lon="6.31601">
        <ele>1019.4</ele>
        <time>2022-06-06T08:54:08Z</time>
      </trkpt>
      <trkpt lat="44.09306" lon="6.31603">
        <ele>1019.4</ele>
        <time>2022-06-06T08:54:09Z</time>
      </trkpt>
      <trkpt lat="44.09317" lon="6.31604">
        <ele>1019.4</ele>
        <time>2022-06-06T08:54:11Z</time>
      </trkpt>
      <trkpt lat="44.09322" lon="6.31601">
        <ele>1019.6</ele>
        <time>2022-06-06T08:54:12Z</time>
      </trkpt>
      <trkpt lat="44.09327" lon="6.31597">
        <ele>1019.6</ele>
        <time>2022-06-06T08:54:13Z</time>
      </trkpt>
      <trkpt lat="44.09342" lon="6.31578">
        <ele>1019.6</ele>
        <time>2022-06-06T08:54:16Z</time>
      </trkpt>
      <trkpt lat="44.09347" lon="6.31573">
        <ele>1019.6</ele>
        <time>2022-06-06T08:54:17Z</time>
      </trkpt>
      <trkpt lat="44.09356" lon="6.31571">
        <ele>1019.6</ele>
        <time>2022-06-06T08:54:19Z</time>
      </trkpt>
      <trkpt lat="44.09365" lon="6.31579">
        <ele>1019.4</ele>
        <time>2022-06-06T08:54:21Z</time>
      </trkpt>
      <trkpt lat="44.09369" lon="6.31585">
        <ele>1020.2</ele>
        <time>2022-06-06T08:54:22Z</time>
      </trkpt>
      <trkpt lat="44.09372" lon="6.31592">
        <ele>1019.4</ele>
        <time>2022-06-06T08:54:23Z</time>
      </trkpt>
      <trkpt lat="44.09373" lon="6.31609">
        <ele>1018.6</ele>
        <time>2022-06-06T08:54:25Z</time>
      </trkpt>
      <trkpt lat="44.0937" lon="6.31625">
        <ele>1018.8</ele>
        <time>2022-06-06T08:54:27Z</time>
      </trkpt>
      <trkpt lat="44.09367" lon="6.31634">
        <ele>1018.6</ele>
        <time>2022-06-06T08:54:28Z</time>
      </trkpt>
      <trkpt lat="44.09362" lon="6.3165">
        <ele>1018.4</ele>
        <time>2022-06-06T08:54:30Z</time>
      </trkpt>
      <trkpt lat="44.09362" lon="6.31667">
        <ele>1018.2</ele>
        <time>2022-06-06T08:54:32Z</time>
      </trkpt>
      <trkpt lat="44.0937" lon="6.31696">
        <ele>1017.6</ele>
        <time>2022-06-06T08:54:35Z</time>
      </trkpt>
      <trkpt lat="44.09377" lon="6.31713">
        <ele>1017.2</ele>
        <time>2022-06-06T08:54:37Z</time>
      </trkpt>
      <trkpt lat="44.09381" lon="6.31719">
        <ele>1017</ele>
        <time>2022-06-06T08:54:38Z</time>
      </trkpt>
      <trkpt lat="44.09386" lon="6.31722">
        <ele>1016.8</ele>
        <time>2022-06-06T08:54:39Z</time>
      </trkpt>
      <trkpt lat="44.09397" lon="6.31722">
        <ele>1016.6</ele>
        <time>2022-06-06T08:54:41Z</time>
      </trkpt>
      <trkpt lat="44.09408" lon="6.31721">
        <ele>1016.2</ele>
        <time>2022-06-06T08:54:43Z</time>
      </trkpt>
      <trkpt lat="44.09413" lon="6.31724">
        <ele>1016</ele>
        <time>2022-06-06T08:54:44Z</time>
      </trkpt>
      <trkpt lat="44.09418" lon="6.31729">
        <ele>1015.8</ele>
        <time>2022-06-06T08:54:45Z</time>
      </trkpt>
      <trkpt lat="44.09429" lon="6.31743">
        <ele>1015.2</ele>
        <time>2022-06-06T08:54:48Z</time>
      </trkpt>
      <trkpt lat="44.09433" lon="6.31747">
        <ele>1015</ele>
        <time>2022-06-06T08:54:49Z</time>
      </trkpt>
      <trkpt lat="44.0944" lon="6.31758">
        <ele>1014.4</ele>
        <time>2022-06-06T08:54:52Z</time>
      </trkpt>
      <trkpt lat="44.09441" lon="6.31764">
        <ele>1013.6</ele>
        <time>2022-06-06T08:54:56Z</time>
      </trkpt>
      <trkpt lat="44.09441" lon="6.31764">
        <ele>1012.8</ele>
        <time>2022-06-06T08:55:03Z</time>
      </trkpt>
      <trkpt lat="44.09441" lon="6.31764">
        <ele>1010</ele>
        <time>2022-06-06T08:55:29Z</time>
      </trkpt>
      <trkpt lat="44.09441" lon="6.31764">
        <ele>1008</ele>
        <time>2022-06-06T08:55:53Z</time>
      </trkpt>
      <trkpt lat="44.09441" lon="6.31764">
        <ele>1007.2</ele>
        <time>2022-06-06T08:56:08Z</time>
      </trkpt>
      <trkpt lat="44.09441" lon="6.31764">
        <ele>1007</ele>
        <time>2022-06-06T08:56:13Z</time>
      </trkpt>
      <trkpt lat="44.0944" lon="6.31766">
        <ele>1006.8</ele>
        <time>2022-06-06T08:56:14Z</time>
      </trkpt>
      <trkpt lat="44.09434" lon="6.31782">
        <ele>1006.8</ele>
        <time>2022-06-06T08:56:18Z</time>
      </trkpt>
      <trkpt lat="44.09427" lon="6.31804">
        <ele>1006.4</ele>
        <time>2022-06-06T08:56:22Z</time>
      </trkpt>
      <trkpt lat="44.09428" lon="6.31817">
        <ele>1006.2</ele>
        <time>2022-06-06T08:56:24Z</time>
      </trkpt>
      <trkpt lat="44.09429" lon="6.31832">
        <ele>1006</ele>
        <time>2022-06-06T08:56:26Z</time>
      </trkpt>
      <trkpt lat="44.09426" lon="6.31849">
        <ele>1005.8</ele>
        <time>2022-06-06T08:56:28Z</time>
      </trkpt>
      <trkpt lat="44.09418" lon="6.31873">
        <ele>1005.4</ele>
        <time>2022-06-06T08:56:31Z</time>
      </trkpt>
      <trkpt lat="44.09417" lon="6.31882">
        <ele>1005.4</ele>
        <time>2022-06-06T08:56:32Z</time>
      </trkpt>
      <trkpt lat="44.09417" lon="6.31899">
        <ele>1005</ele>
        <time>2022-06-06T08:56:34Z</time>
      </trkpt>
      <trkpt lat="44.0942" lon="6.31915">
        <ele>1004.8</ele>
        <time>2022-06-06T08:56:36Z</time>
      </trkpt>
      <trkpt lat="44.09416" lon="6.3193">
        <ele>1004.4</ele>
        <time>2022-06-06T08:56:38Z</time>
      </trkpt>
      <trkpt lat="44.09412" lon="6.31935">
        <ele>1004.2</ele>
        <time>2022-06-06T08:56:39Z</time>
      </trkpt>
      <trkpt lat="44.09408" lon="6.31944">
        <ele>1003.8</ele>
        <time>2022-06-06T08:56:41Z</time>
      </trkpt>
      <trkpt lat="44.09409" lon="6.31948">
        <ele>1003.6</ele>
        <time>2022-06-06T08:56:42Z</time>
      </trkpt>
      <trkpt lat="44.09411" lon="6.31954">
        <ele>1003.4</ele>
        <time>2022-06-06T08:56:43Z</time>
      </trkpt>
      <trkpt lat="44.09417" lon="6.31961">
        <ele>1003</ele>
        <time>2022-06-06T08:56:45Z</time>
      </trkpt>
      <trkpt lat="44.09426" lon="6.31967">
        <ele>1002.6</ele>
        <time>2022-06-06T08:56:47Z</time>
      </trkpt>
      <trkpt lat="44.09433" lon="6.31968">
        <ele>1002.4</ele>
        <time>2022-06-06T08:56:48Z</time>
      </trkpt>
      <trkpt lat="44.09441" lon="6.3197">
        <ele>1002.2</ele>
        <time>2022-06-06T08:56:49Z</time>
      </trkpt>
      <trkpt lat="44.09451" lon="6.3198">
        <ele>1001.6</ele>
        <time>2022-06-06T08:56:51Z</time>
      </trkpt>
      <trkpt lat="44.09461" lon="6.32004">
        <ele>1001.2</ele>
        <time>2022-06-06T08:56:54Z</time>
      </trkpt>
      <trkpt lat="44.09467" lon="6.32022">
        <ele>1000.6</ele>
        <time>2022-06-06T08:56:56Z</time>
      </trkpt>
      <trkpt lat="44.09476" lon="6.32034">
        <ele>1000.2</ele>
        <time>2022-06-06T08:56:58Z</time>
      </trkpt>
      <trkpt lat="44.09501" lon="6.32045">
        <ele>999</ele>
        <time>2022-06-06T08:57:02Z</time>
      </trkpt>
      <trkpt lat="44.09521" lon="6.3205">
        <ele>998.2</ele>
        <time>2022-06-06T08:57:05Z</time>
      </trkpt>
      <trkpt lat="44.09526" lon="6.32049">
        <ele>997.8</ele>
        <time>2022-06-06T08:57:06Z</time>
      </trkpt>
      <trkpt lat="44.09539" lon="6.32049">
        <ele>996.4</ele>
        <time>2022-06-06T08:57:10Z</time>
      </trkpt>
      <trkpt lat="44.09544" lon="6.32048">
        <ele>995.6</ele>
        <time>2022-06-06T08:57:13Z</time>
      </trkpt>
      <trkpt lat="44.09546" lon="6.32049">
        <ele>995.4</ele>
        <time>2022-06-06T08:57:14Z</time>
      </trkpt>
      <trkpt lat="44.0955" lon="6.32049">
        <ele>995</ele>
        <time>2022-06-06T08:57:16Z</time>
      </trkpt>
      <trkpt lat="44.09555" lon="6.3205">
        <ele>994.4</ele>
        <time>2022-06-06T08:57:18Z</time>
      </trkpt>
      <trkpt lat="44.09569" lon="6.32054">
        <ele>992.8</ele>
        <time>2022-06-06T08:57:23Z</time>
      </trkpt>
      <trkpt lat="44.09582" lon="6.32059">
        <ele>990.8</ele>
        <time>2022-06-06T08:57:28Z</time>
      </trkpt>
      <trkpt lat="44.09598" lon="6.32061">
        <ele>988.8</ele>
        <time>2022-06-06T08:57:33Z</time>
      </trkpt>
      <trkpt lat="44.09616" lon="6.32058">
        <ele>986.4</ele>
        <time>2022-06-06T08:57:38Z</time>
      </trkpt>
      <trkpt lat="44.09634" lon="6.32049">
        <ele>984.6</ele>
        <time>2022-06-06T08:57:43Z</time>
      </trkpt>
      <trkpt lat="44.09642" lon="6.32031">
        <ele>983.6</ele>
        <time>2022-06-06T08:57:47Z</time>
      </trkpt>
      <trkpt lat="44.09641" lon="6.32003">
        <ele>982.8</ele>
        <time>2022-06-06T08:57:52Z</time>
      </trkpt>
      <trkpt lat="44.09636" lon="6.31982">
        <ele>982.2</ele>
        <time>2022-06-06T08:57:56Z</time>
      </trkpt>
      <trkpt lat="44.09631" lon="6.31962">
        <ele>981.8</ele>
        <time>2022-06-06T08:58:00Z</time>
      </trkpt>
      <trkpt lat="44.09636" lon="6.31956">
        <ele>981.8</ele>
        <time>2022-06-06T08:58:02Z</time>
      </trkpt>
      <trkpt lat="44.09649" lon="6.31962">
        <ele>981.6</ele>
        <time>2022-06-06T08:58:06Z</time>
      </trkpt>
      <trkpt lat="44.0966" lon="6.31976">
        <ele>981.6</ele>
        <time>2022-06-06T08:58:11Z</time>
      </trkpt>
      <trkpt lat="44.09672" lon="6.31986">
        <ele>981.6</ele>
        <time>2022-06-06T08:58:16Z</time>
      </trkpt>
      <trkpt lat="44.09685" lon="6.32007">
        <ele>981.6</ele>
        <time>2022-06-06T08:58:22Z</time>
      </trkpt>
      <trkpt lat="44.09698" lon="6.32014">
        <ele>981.6</ele>
        <time>2022-06-06T08:58:26Z</time>
      </trkpt>
      <trkpt lat="44.09716" lon="6.32015">
        <ele>981.8</ele>
        <time>2022-06-06T08:58:31Z</time>
      </trkpt>
      <trkpt lat="44.09729" lon="6.32017">
        <ele>982</ele>
        <time>2022-06-06T08:58:35Z</time>
      </trkpt>
      <trkpt lat="44.09746" lon="6.32016">
        <ele>982.8</ele>
        <time>2022-06-06T08:58:40Z</time>
      </trkpt>
      <trkpt lat="44.09765" lon="6.32018">
        <ele>983.2</ele>
        <time>2022-06-06T08:58:46Z</time>
      </trkpt>
      <trkpt lat="44.09783" lon="6.32017">
        <ele>983.8</ele>
        <time>2022-06-06T08:58:51Z</time>
      </trkpt>
      <trkpt lat="44.09788" lon="6.32017">
        <ele>984</ele>
        <time>2022-06-06T08:58:53Z</time>
      </trkpt>
      <trkpt lat="44.0979" lon="6.32017">
        <ele>984.4</ele>
        <time>2022-06-06T08:58:55Z</time>
      </trkpt>
      <trkpt lat="44.09792" lon="6.32014">
        <ele>985</ele>
        <time>2022-06-06T08:59:02Z</time>
      </trkpt>
      <trkpt lat="44.09793" lon="6.32011">
        <ele>985</ele>
        <time>2022-06-06T08:59:03Z</time>
      </trkpt>
      <trkpt lat="44.09793" lon="6.32">
        <ele>985.4</ele>
        <time>2022-06-06T08:59:06Z</time>
      </trkpt>
      <trkpt lat="44.09788" lon="6.31991">
        <ele>985.8</ele>
        <time>2022-06-06T08:59:09Z</time>
      </trkpt>
      <trkpt lat="44.09786" lon="6.31989">
        <ele>985.8</ele>
        <time>2022-06-06T08:59:10Z</time>
      </trkpt>
      <trkpt lat="44.09781" lon="6.31986">
        <ele>986.2</ele>
        <time>2022-06-06T08:59:14Z</time>
      </trkpt>
      <trkpt lat="44.09781" lon="6.31985">
        <ele>986.4</ele>
        <time>2022-06-06T08:59:15Z</time>
      </trkpt>
      <trkpt lat="44.09784" lon="6.3198">
        <ele>986.2</ele>
        <time>2022-06-06T08:59:17Z</time>
      </trkpt>
      <trkpt lat="44.09786" lon="6.31979">
        <ele>986.2</ele>
        <time>2022-06-06T08:59:18Z</time>
      </trkpt>
      <trkpt lat="44.0979" lon="6.3198">
        <ele>986.2</ele>
        <time>2022-06-06T08:59:19Z</time>
      </trkpt>
      <trkpt lat="44.09798" lon="6.31984">
        <ele>986.4</ele>
        <time>2022-06-06T08:59:21Z</time>
      </trkpt>
      <trkpt lat="44.09804" lon="6.31988">
        <ele>986.4</ele>
        <time>2022-06-06T08:59:23Z</time>
      </trkpt>
      <trkpt lat="44.09806" lon="6.31992">
        <ele>986.4</ele>
        <time>2022-06-06T08:59:24Z</time>
      </trkpt>
      <trkpt lat="44.0981" lon="6.32002">
        <ele>986.6</ele>
        <time>2022-06-06T08:59:26Z</time>
      </trkpt>
      <trkpt lat="44.09814" lon="6.32012">
        <ele>986.6</ele>
        <time>2022-06-06T08:59:28Z</time>
      </trkpt>
      <trkpt lat="44.09816" lon="6.32016">
        <ele>986.6</ele>
        <time>2022-06-06T08:59:30Z</time>
      </trkpt>
      <trkpt lat="44.0982" lon="6.32021">
        <ele>986.4</ele>
        <time>2022-06-06T08:59:33Z</time>
      </trkpt>
      <trkpt lat="44.09823" lon="6.32024">
        <ele>986.4</ele>
        <time>2022-06-06T08:59:35Z</time>
      </trkpt>
      <trkpt lat="44.09831" lon="6.32024">
        <ele>986.4</ele>
        <time>2022-06-06T08:59:37Z</time>
      </trkpt>
      <trkpt lat="44.09835" lon="6.32023">
        <ele>986.4</ele>
        <time>2022-06-06T08:59:38Z</time>
      </trkpt>
      <trkpt lat="44.09844" lon="6.32016">
        <ele>986.6</ele>
        <time>2022-06-06T08:59:41Z</time>
      </trkpt>
      <trkpt lat="44.09844" lon="6.32013">
        <ele>986.8</ele>
        <time>2022-06-06T08:59:42Z</time>
      </trkpt>
      <trkpt lat="44.09841" lon="6.32005">
        <ele>988</ele>
        <time>2022-06-06T08:59:46Z</time>
      </trkpt>
      <trkpt lat="44.0984" lon="6.32004">
        <ele>988</ele>
        <time>2022-06-06T08:59:47Z</time>
      </trkpt>
      <trkpt lat="44.09837" lon="6.32001">
        <ele>988</ele>
        <time>2022-06-06T08:59:49Z</time>
      </trkpt>
      <trkpt lat="44.09832" lon="6.31994">
        <ele>988</ele>
        <time>2022-06-06T08:59:53Z</time>
      </trkpt>
      <trkpt lat="44.09831" lon="6.31984">
        <ele>988.2</ele>
        <time>2022-06-06T08:59:56Z</time>
      </trkpt>
      <trkpt lat="44.09833" lon="6.31971">
        <ele>988.6</ele>
        <time>2022-06-06T09:00:01Z</time>
      </trkpt>
      <trkpt lat="44.09832" lon="6.31968">
        <ele>989</ele>
        <time>2022-06-06T09:00:08Z</time>
      </trkpt>
      <trkpt lat="44.09832" lon="6.31968">
        <ele>990</ele>
        <time>2022-06-06T09:00:26Z</time>
      </trkpt>
      <trkpt lat="44.09832" lon="6.31968">
        <ele>990.8</ele>
        <time>2022-06-06T09:00:45Z</time>
      </trkpt>
      <trkpt lat="44.09832" lon="6.31968">
        <ele>990.8</ele>
        <time>2022-06-06T09:00:47Z</time>
      </trkpt>
      <trkpt lat="44.09832" lon="6.31964">
        <ele>990.8</ele>
        <time>2022-06-06T09:00:49Z</time>
      </trkpt>
      <trkpt lat="44.09833" lon="6.31963">
        <ele>990.8</ele>
        <time>2022-06-06T09:00:50Z</time>
      </trkpt>
      <trkpt lat="44.09835" lon="6.31958">
        <ele>991</ele>
        <time>2022-06-06T09:00:52Z</time>
      </trkpt>
      <trkpt lat="44.09835" lon="6.31955">
        <ele>990.8</ele>
        <time>2022-06-06T09:00:53Z</time>
      </trkpt>
      <trkpt lat="44.09836" lon="6.31953">
        <ele>990.8</ele>
        <time>2022-06-06T09:00:54Z</time>
      </trkpt>
      <trkpt lat="44.0984" lon="6.31951">
        <ele>990.8</ele>
        <time>2022-06-06T09:00:57Z</time>
      </trkpt>
      <trkpt lat="44.09845" lon="6.3195">
        <ele>991.2</ele>
        <time>2022-06-06T09:01:00Z</time>
      </trkpt>
      <trkpt lat="44.09847" lon="6.3195">
        <ele>991.2</ele>
        <time>2022-06-06T09:01:01Z</time>
      </trkpt>
      <trkpt lat="44.09853" lon="6.31956">
        <ele>991.6</ele>
        <time>2022-06-06T09:01:05Z</time>
      </trkpt>
      <trkpt lat="44.09857" lon="6.31958">
        <ele>991.8</ele>
        <time>2022-06-06T09:01:07Z</time>
      </trkpt>
      <trkpt lat="44.09861" lon="6.31957">
        <ele>992</ele>
        <time>2022-06-06T09:01:09Z</time>
      </trkpt>
      <trkpt lat="44.09866" lon="6.31952">
        <ele>992.2</ele>
        <time>2022-06-06T09:01:12Z</time>
      </trkpt>
      <trkpt lat="44.09871" lon="6.3195">
        <ele>992.4</ele>
        <time>2022-06-06T09:01:14Z</time>
      </trkpt>
      <trkpt lat="44.09874" lon="6.3195">
        <ele>992.4</ele>
        <time>2022-06-06T09:01:15Z</time>
      </trkpt>
      <trkpt lat="44.0988" lon="6.31955">
        <ele>992.8</ele>
        <time>2022-06-06T09:01:18Z</time>
      </trkpt>
      <trkpt lat="44.0989" lon="6.31972">
        <ele>993.8</ele>
        <time>2022-06-06T09:01:24Z</time>
      </trkpt>
      <trkpt lat="44.09891" lon="6.31975">
        <ele>993.8</ele>
        <time>2022-06-06T09:01:25Z</time>
      </trkpt>
      <trkpt lat="44.09892" lon="6.31982">
        <ele>994.2</ele>
        <time>2022-06-06T09:01:27Z</time>
      </trkpt>
      <trkpt lat="44.09895" lon="6.31987">
        <ele>994.6</ele>
        <time>2022-06-06T09:01:29Z</time>
      </trkpt>
      <trkpt lat="44.09895" lon="6.31989">
        <ele>994.8</ele>
        <time>2022-06-06T09:01:30Z</time>
      </trkpt>
      <trkpt lat="44.09896" lon="6.31996">
        <ele>996</ele>
        <time>2022-06-06T09:01:35Z</time>
      </trkpt>
      <trkpt lat="44.09896" lon="6.31997">
        <ele>996.4</ele>
        <time>2022-06-06T09:01:37Z</time>
      </trkpt>
      <trkpt lat="44.09897" lon="6.31996">
        <ele>996.8</ele>
        <time>2022-06-06T09:01:39Z</time>
      </trkpt>
      <trkpt lat="44.09897" lon="6.31996">
        <ele>998</ele>
        <time>2022-06-06T09:01:50Z</time>
      </trkpt>
      <trkpt lat="44.09898" lon="6.31995">
        <ele>999.4</ele>
        <time>2022-06-06T09:01:58Z</time>
      </trkpt>
      <trkpt lat="44.09898" lon="6.31995">
        <ele>1001.2</ele>
        <time>2022-06-06T09:02:14Z</time>
      </trkpt>
      <trkpt lat="44.09897" lon="6.31994">
        <ele>1002.8</ele>
        <time>2022-06-06T09:02:25Z</time>
      </trkpt>
      <trkpt lat="44.09906" lon="6.31986">
        <ele>1003.6</ele>
        <time>2022-06-06T09:02:31Z</time>
      </trkpt>
      <trkpt lat="44.09921" lon="6.31974">
        <ele>1004.4</ele>
        <time>2022-06-06T09:02:38Z</time>
      </trkpt>
      <trkpt lat="44.09931" lon="6.31961">
        <ele>1004.8</ele>
        <time>2022-06-06T09:02:43Z</time>
      </trkpt>
      <trkpt lat="44.09932" lon="6.31956">
        <ele>1005</ele>
        <time>2022-06-06T09:02:44Z</time>
      </trkpt>
      <trkpt lat="44.09936" lon="6.3193">
        <ele>1006</ele>
        <time>2022-06-06T09:02:51Z</time>
      </trkpt>
      <trkpt lat="44.09938" lon="6.3192">
        <ele>1006.4</ele>
        <time>2022-06-06T09:02:54Z</time>
      </trkpt>
      <trkpt lat="44.09939" lon="6.31919">
        <ele>1006.4</ele>
        <time>2022-06-06T09:02:55Z</time>
      </trkpt>
      <trkpt lat="44.0994" lon="6.31918">
        <ele>1006.8</ele>
        <time>2022-06-06T09:02:59Z</time>
      </trkpt>
      <trkpt lat="44.0994" lon="6.31918">
        <ele>1008.2</ele>
        <time>2022-06-06T09:03:15Z</time>
      </trkpt>
      <trkpt lat="44.09944" lon="6.31917">
        <ele>1008.2</ele>
        <time>2022-06-06T09:03:19Z</time>
      </trkpt>
      <trkpt lat="44.09956" lon="6.31913">
        <ele>1008.6</ele>
        <time>2022-06-06T09:03:23Z</time>
      </trkpt>
      <trkpt lat="44.0997" lon="6.319">
        <ele>1009.6</ele>
        <time>2022-06-06T09:03:30Z</time>
      </trkpt>
      <trkpt lat="44.09984" lon="6.31885">
        <ele>1010.4</ele>
        <time>2022-06-06T09:03:37Z</time>
      </trkpt>
      <trkpt lat="44.09997" lon="6.31873">
        <ele>1011</ele>
        <time>2022-06-06T09:03:43Z</time>
      </trkpt>
      <trkpt lat="44.10006" lon="6.31856">
        <ele>1011.6</ele>
        <time>2022-06-06T09:03:48Z</time>
      </trkpt>
      <trkpt lat="44.10014" lon="6.31832">
        <ele>1012.2</ele>
        <time>2022-06-06T09:03:53Z</time>
      </trkpt>
      <trkpt lat="44.10015" lon="6.31827">
        <ele>1012.2</ele>
        <time>2022-06-06T09:03:54Z</time>
      </trkpt>
      <trkpt lat="44.10019" lon="6.31816">
        <ele>1012.2</ele>
        <time>2022-06-06T09:03:56Z</time>
      </trkpt>
      <trkpt lat="44.10021" lon="6.31804">
        <ele>1012.2</ele>
        <time>2022-06-06T09:03:58Z</time>
      </trkpt>
      <trkpt lat="44.10024" lon="6.31779">
        <ele>1012.4</ele>
        <time>2022-06-06T09:04:02Z</time>
      </trkpt>
      <trkpt lat="44.10025" lon="6.31766">
        <ele>1012.6</ele>
        <time>2022-06-06T09:04:04Z</time>
      </trkpt>
      <trkpt lat="44.10028" lon="6.31754">
        <ele>1012.6</ele>
        <time>2022-06-06T09:04:06Z</time>
      </trkpt>
      <trkpt lat="44.10031" lon="6.31748">
        <ele>1012.8</ele>
        <time>2022-06-06T09:04:07Z</time>
      </trkpt>
      <trkpt lat="44.10033" lon="6.31742">
        <ele>1012.8</ele>
        <time>2022-06-06T09:04:08Z</time>
      </trkpt>
      <trkpt lat="44.1004" lon="6.31717">
        <ele>1012.8</ele>
        <time>2022-06-06T09:04:12Z</time>
      </trkpt>
      <trkpt lat="44.10046" lon="6.31706">
        <ele>1012.8</ele>
        <time>2022-06-06T09:04:14Z</time>
      </trkpt>
      <trkpt lat="44.10054" lon="6.31698">
        <ele>1012.8</ele>
        <time>2022-06-06T09:04:16Z</time>
      </trkpt>
      <trkpt lat="44.10063" lon="6.31698">
        <ele>1012.8</ele>
        <time>2022-06-06T09:04:18Z</time>
      </trkpt>
      <trkpt lat="44.10067" lon="6.317">
        <ele>1012.6</ele>
        <time>2022-06-06T09:04:19Z</time>
      </trkpt>
      <trkpt lat="44.1008" lon="6.31711">
        <ele>1012.4</ele>
        <time>2022-06-06T09:04:23Z</time>
      </trkpt>
      <trkpt lat="44.10083" lon="6.31715">
        <ele>1012.2</ele>
        <time>2022-06-06T09:04:24Z</time>
      </trkpt>
      <trkpt lat="44.10096" lon="6.31739">
        <ele>1012.2</ele>
        <time>2022-06-06T09:04:30Z</time>
      </trkpt>
      <trkpt lat="44.10106" lon="6.31754">
        <ele>1011.8</ele>
        <time>2022-06-06T09:04:35Z</time>
      </trkpt>
      <trkpt lat="44.10115" lon="6.31776">
        <ele>1011.4</ele>
        <time>2022-06-06T09:04:41Z</time>
      </trkpt>
      <trkpt lat="44.10123" lon="6.31797">
        <ele>1011.2</ele>
        <time>2022-06-06T09:04:47Z</time>
      </trkpt>
      <trkpt lat="44.1013" lon="6.31813">
        <ele>1011.2</ele>
        <time>2022-06-06T09:04:51Z</time>
      </trkpt>
      <trkpt lat="44.10151" lon="6.31828">
        <ele>1010.8</ele>
        <time>2022-06-06T09:04:55Z</time>
      </trkpt>
      <trkpt lat="44.10162" lon="6.31833">
        <ele>1010.6</ele>
        <time>2022-06-06T09:04:57Z</time>
      </trkpt>
      <trkpt lat="44.10168" lon="6.31834">
        <ele>1010.4</ele>
        <time>2022-06-06T09:04:58Z</time>
      </trkpt>
      <trkpt lat="44.10192" lon="6.31838">
        <ele>1009.8</ele>
        <time>2022-06-06T09:05:02Z</time>
      </trkpt>
      <trkpt lat="44.10196" lon="6.31842">
        <ele>1009.6</ele>
        <time>2022-06-06T09:05:03Z</time>
      </trkpt>
      <trkpt lat="44.10204" lon="6.31848">
        <ele>1009.6</ele>
        <time>2022-06-06T09:05:05Z</time>
      </trkpt>
      <trkpt lat="44.10208" lon="6.31848">
        <ele>1009.4</ele>
        <time>2022-06-06T09:05:06Z</time>
      </trkpt>
      <trkpt lat="44.1022" lon="6.31836">
        <ele>1008.8</ele>
        <time>2022-06-06T09:05:10Z</time>
      </trkpt>
      <trkpt lat="44.10222" lon="6.3182">
        <ele>1008.6</ele>
        <time>2022-06-06T09:05:14Z</time>
      </trkpt>
      <trkpt lat="44.10219" lon="6.31802">
        <ele>1009</ele>
        <time>2022-06-06T09:05:19Z</time>
      </trkpt>
      <trkpt lat="44.1022" lon="6.31776">
        <ele>1011.2</ele>
        <time>2022-06-06T09:05:26Z</time>
      </trkpt>
      <trkpt lat="44.10216" lon="6.31765">
        <ele>1010.2</ele>
        <time>2022-06-06T09:05:30Z</time>
      </trkpt>
      <trkpt lat="44.10212" lon="6.31753">
        <ele>1010.6</ele>
        <time>2022-06-06T09:05:34Z</time>
      </trkpt>
      <trkpt lat="44.10212" lon="6.31751">
        <ele>1010.6</ele>
        <time>2022-06-06T09:05:35Z</time>
      </trkpt>
      <trkpt lat="44.10214" lon="6.31749">
        <ele>1011</ele>
        <time>2022-06-06T09:05:39Z</time>
      </trkpt>
      <trkpt lat="44.10214" lon="6.31749">
        <ele>1011.8</ele>
        <time>2022-06-06T09:05:55Z</time>
      </trkpt>
      <trkpt lat="44.10216" lon="6.31749">
        <ele>1012.6</ele>
        <time>2022-06-06T09:05:59Z</time>
      </trkpt>
      <trkpt lat="44.10219" lon="6.31748">
        <ele>1012.8</ele>
        <time>2022-06-06T09:06:01Z</time>
      </trkpt>
      <trkpt lat="44.10227" lon="6.31742">
        <ele>1013</ele>
        <time>2022-06-06T09:06:06Z</time>
      </trkpt>
      <trkpt lat="44.1023" lon="6.31738">
        <ele>1013.2</ele>
        <time>2022-06-06T09:06:08Z</time>
      </trkpt>
      <trkpt lat="44.10235" lon="6.31731">
        <ele>1013</ele>
        <time>2022-06-06T09:06:11Z</time>
      </trkpt>
      <trkpt lat="44.10239" lon="6.31727">
        <ele>1013.4</ele>
        <time>2022-06-06T09:06:15Z</time>
      </trkpt>
      <trkpt lat="44.10238" lon="6.31726">
        <ele>1013.8</ele>
        <time>2022-06-06T09:06:20Z</time>
      </trkpt>
      <trkpt lat="44.10235" lon="6.31729">
        <ele>1014</ele>
        <time>2022-06-06T09:06:23Z</time>
      </trkpt>
      <trkpt lat="44.10233" lon="6.31731">
        <ele>1014</ele>
        <time>2022-06-06T09:06:24Z</time>
      </trkpt>
      <trkpt lat="44.10223" lon="6.31742">
        <ele>1014</ele>
        <time>2022-06-06T09:06:28Z</time>
      </trkpt>
      <trkpt lat="44.10217" lon="6.31744">
        <ele>1014.2</ele>
        <time>2022-06-06T09:06:30Z</time>
      </trkpt>
      <trkpt lat="44.10215" lon="6.31744">
        <ele>1014.2</ele>
        <time>2022-06-06T09:06:32Z</time>
      </trkpt>
      <trkpt lat="44.10215" lon="6.31744">
        <ele>1014.6</ele>
        <time>2022-06-06T09:06:45Z</time>
      </trkpt>
      <trkpt lat="44.10215" lon="6.31744">
        <ele>1014.6</ele>
        <time>2022-06-06T09:06:47Z</time>
      </trkpt>
      <trkpt lat="44.10211" lon="6.31738">
        <ele>1014.6</ele>
        <time>2022-06-06T09:06:50Z</time>
      </trkpt>
      <trkpt lat="44.10211" lon="6.31727">
        <ele>1014.4</ele>
        <time>2022-06-06T09:06:53Z</time>
      </trkpt>
      <trkpt lat="44.10215" lon="6.31722">
        <ele>1014</ele>
        <time>2022-06-06T09:06:56Z</time>
      </trkpt>
      <trkpt lat="44.10218" lon="6.3172">
        <ele>1013.8</ele>
        <time>2022-06-06T09:06:58Z</time>
      </trkpt>
      <trkpt lat="44.1022" lon="6.31716">
        <ele>1013.8</ele>
        <time>2022-06-06T09:07:00Z</time>
      </trkpt>
      <trkpt lat="44.10221" lon="6.31711">
        <ele>1013.6</ele>
        <time>2022-06-06T09:07:01Z</time>
      </trkpt>
      <trkpt lat="44.10223" lon="6.31707">
        <ele>1013.6</ele>
        <time>2022-06-06T09:07:02Z</time>
      </trkpt>
      <trkpt lat="44.10228" lon="6.31699">
        <ele>1013.6</ele>
        <time>2022-06-06T09:07:04Z</time>
      </trkpt>
      <trkpt lat="44.10234" lon="6.31693">
        <ele>1013.4</ele>
        <time>2022-06-06T09:07:07Z</time>
      </trkpt>
      <trkpt lat="44.1024" lon="6.31687">
        <ele>1013.2</ele>
        <time>2022-06-06T09:07:10Z</time>
      </trkpt>
      <trkpt lat="44.10253" lon="6.31679">
        <ele>1012.8</ele>
        <time>2022-06-06T09:07:14Z</time>
      </trkpt>
      <trkpt lat="44.10256" lon="6.31671">
        <ele>1012.8</ele>
        <time>2022-06-06T09:07:15Z</time>
      </trkpt>
      <trkpt lat="44.10275" lon="6.31647">
        <ele>1012.6</ele>
        <time>2022-06-06T09:07:19Z</time>
      </trkpt>
      <trkpt lat="44.10279" lon="6.31642">
        <ele>1012.4</ele>
        <time>2022-06-06T09:07:20Z</time>
      </trkpt>
      <trkpt lat="44.10287" lon="6.31632">
        <ele>1012.2</ele>
        <time>2022-06-06T09:07:22Z</time>
      </trkpt>
      <trkpt lat="44.10291" lon="6.31629">
        <ele>1012.2</ele>
        <time>2022-06-06T09:07:23Z</time>
      </trkpt>
      <trkpt lat="44.103" lon="6.31624">
        <ele>1012.2</ele>
        <time>2022-06-06T09:07:25Z</time>
      </trkpt>
      <trkpt lat="44.10304" lon="6.31623">
        <ele>1012.2</ele>
        <time>2022-06-06T09:07:26Z</time>
      </trkpt>
      <trkpt lat="44.1031" lon="6.3162">
        <ele>1012.4</ele>
        <time>2022-06-06T09:07:28Z</time>
      </trkpt>
      <trkpt lat="44.10312" lon="6.31619">
        <ele>1012.4</ele>
        <time>2022-06-06T09:07:29Z</time>
      </trkpt>
      <trkpt lat="44.10312" lon="6.31618">
        <ele>1012</ele>
        <time>2022-06-06T09:07:35Z</time>
      </trkpt>
      <trkpt lat="44.10312" lon="6.31602">
        <ele>1012.2</ele>
        <time>2022-06-06T09:07:39Z</time>
      </trkpt>
      <trkpt lat="44.10313" lon="6.316">
        <ele>1012.2</ele>
        <time>2022-06-06T09:07:42Z</time>
      </trkpt>
      <trkpt lat="44.10313" lon="6.316">
        <ele>1011.8</ele>
        <time>2022-06-06T09:07:57Z</time>
      </trkpt>
      <trkpt lat="44.10313" lon="6.316">
        <ele>1011.6</ele>
        <time>2022-06-06T09:08:20Z</time>
      </trkpt>
      <trkpt lat="44.10311" lon="6.31598">
        <ele>1011.6</ele>
        <time>2022-06-06T09:08:30Z</time>
      </trkpt>
      <trkpt lat="44.1031" lon="6.31597">
        <ele>1011.4</ele>
        <time>2022-06-06T09:08:35Z</time>
      </trkpt>
      <trkpt lat="44.1031" lon="6.31597">
        <ele>1011.4</ele>
        <time>2022-06-06T09:08:48Z</time>
      </trkpt>
      <trkpt lat="44.10308" lon="6.31597">
        <ele>1011.4</ele>
        <time>2022-06-06T09:08:49Z</time>
      </trkpt>
      <trkpt lat="44.10297" lon="6.31594">
        <ele>1011</ele>
        <time>2022-06-06T09:08:52Z</time>
      </trkpt>
      <trkpt lat="44.10277" lon="6.31588">
        <ele>1010.6</ele>
        <time>2022-06-06T09:08:56Z</time>
      </trkpt>
      <trkpt lat="44.10272" lon="6.31587">
        <ele>1010.4</ele>
        <time>2022-06-06T09:08:58Z</time>
      </trkpt>
      <trkpt lat="44.10271" lon="6.31587">
        <ele>1010.2</ele>
        <time>2022-06-06T09:08:59Z</time>
      </trkpt>
      <trkpt lat="44.10271" lon="6.31586">
        <ele>1010</ele>
        <time>2022-06-06T09:09:00Z</time>
      </trkpt>
      <trkpt lat="44.10271" lon="6.31581">
        <ele>1009.4</ele>
        <time>2022-06-06T09:09:02Z</time>
      </trkpt>
      <trkpt lat="44.10262" lon="6.31573">
        <ele>1008.6</ele>
        <time>2022-06-06T09:09:05Z</time>
      </trkpt>
      <trkpt lat="44.10254" lon="6.31567">
        <ele>1007.6</ele>
        <time>2022-06-06T09:09:08Z</time>
      </trkpt>
      <trkpt lat="44.10247" lon="6.31562">
        <ele>1005.8</ele>
        <time>2022-06-06T09:09:13Z</time>
      </trkpt>
      <trkpt lat="44.10239" lon="6.31548">
        <ele>1004.4</ele>
        <time>2022-06-06T09:09:17Z</time>
      </trkpt>
      <trkpt lat="44.10233" lon="6.31537">
        <ele>1003</ele>
        <time>2022-06-06T09:09:20Z</time>
      </trkpt>
      <trkpt lat="44.10237" lon="6.3153">
        <ele>1002</ele>
        <time>2022-06-06T09:09:22Z</time>
      </trkpt>
      <trkpt lat="44.1024" lon="6.31525">
        <ele>1001.4</ele>
        <time>2022-06-06T09:09:23Z</time>
      </trkpt>
      <trkpt lat="44.1025" lon="6.31511">
        <ele>999.6</ele>
        <time>2022-06-06T09:09:27Z</time>
      </trkpt>
      <trkpt lat="44.10258" lon="6.31503">
        <ele>998.4</ele>
        <time>2022-06-06T09:09:30Z</time>
      </trkpt>
      <trkpt lat="44.10259" lon="6.31498">
        <ele>997.6</ele>
        <time>2022-06-06T09:09:32Z</time>
      </trkpt>
      <trkpt lat="44.10258" lon="6.31494">
        <ele>997.2</ele>
        <time>2022-06-06T09:09:33Z</time>
      </trkpt>
      <trkpt lat="44.10255" lon="6.31485">
        <ele>996.2</ele>
        <time>2022-06-06T09:09:35Z</time>
      </trkpt>
      <trkpt lat="44.10253" lon="6.31484">
        <ele>995.6</ele>
        <time>2022-06-06T09:09:36Z</time>
      </trkpt>
      <trkpt lat="44.10249" lon="6.3148">
        <ele>994.4</ele>
        <time>2022-06-06T09:09:38Z</time>
      </trkpt>
      <trkpt lat="44.10247" lon="6.31476">
        <ele>993.8</ele>
        <time>2022-06-06T09:09:39Z</time>
      </trkpt>
      <trkpt lat="44.10244" lon="6.31457">
        <ele>991.8</ele>
        <time>2022-06-06T09:09:43Z</time>
      </trkpt>
      <trkpt lat="44.10245" lon="6.31453">
        <ele>991.4</ele>
        <time>2022-06-06T09:09:44Z</time>
      </trkpt>
      <trkpt lat="44.10249" lon="6.31446">
        <ele>990.2</ele>
        <time>2022-06-06T09:09:46Z</time>
      </trkpt>
      <trkpt lat="44.10251" lon="6.31437">
        <ele>989.4</ele>
        <time>2022-06-06T09:09:48Z</time>
      </trkpt>
      <trkpt lat="44.1025" lon="6.31434">
        <ele>989</ele>
        <time>2022-06-06T09:09:49Z</time>
      </trkpt>
      <trkpt lat="44.10245" lon="6.31419">
        <ele>987.2</ele>
        <time>2022-06-06T09:09:52Z</time>
      </trkpt>
      <trkpt lat="44.10241" lon="6.3141">
        <ele>985.6</ele>
        <time>2022-06-06T09:09:54Z</time>
      </trkpt>
      <trkpt lat="44.10242" lon="6.31407">
        <ele>985.2</ele>
        <time>2022-06-06T09:09:55Z</time>
      </trkpt>
      <trkpt lat="44.10243" lon="6.31402">
        <ele>984.6</ele>
        <time>2022-06-06T09:09:56Z</time>
      </trkpt>
      <trkpt lat="44.1024" lon="6.3139">
        <ele>983</ele>
        <time>2022-06-06T09:09:58Z</time>
      </trkpt>
      <trkpt lat="44.10227" lon="6.31374">
        <ele>982.4</ele>
        <time>2022-06-06T09:10:02Z</time>
      </trkpt>
      <trkpt lat="44.10224" lon="6.3137">
        <ele>982</ele>
        <time>2022-06-06T09:10:03Z</time>
      </trkpt>
      <trkpt lat="44.1022" lon="6.3136">
        <ele>981.8</ele>
        <time>2022-06-06T09:10:05Z</time>
      </trkpt>
      <trkpt lat="44.10218" lon="6.3134">
        <ele>981.2</ele>
        <time>2022-06-06T09:10:08Z</time>
      </trkpt>
      <trkpt lat="44.10217" lon="6.31334">
        <ele>981.2</ele>
        <time>2022-06-06T09:10:09Z</time>
      </trkpt>
      <trkpt lat="44.10216" lon="6.31331">
        <ele>980.8</ele>
        <time>2022-06-06T09:10:10Z</time>
      </trkpt>
      <trkpt lat="44.10215" lon="6.31329">
        <ele>979.2</ele>
        <time>2022-06-06T09:10:16Z</time>
      </trkpt>
      <trkpt lat="44.10213" lon="6.31327">
        <ele>976.6</ele>
        <time>2022-06-06T09:10:25Z</time>
      </trkpt>
      <trkpt lat="44.1021" lon="6.31325">
        <ele>976.4</ele>
        <time>2022-06-06T09:10:26Z</time>
      </trkpt>
      <trkpt lat="44.10206" lon="6.31325">
        <ele>975.8</ele>
        <time>2022-06-06T09:10:29Z</time>
      </trkpt>
      <trkpt lat="44.10207" lon="6.31326">
        <ele>975.6</ele>
        <time>2022-06-06T09:10:30Z</time>
      </trkpt>
      <trkpt lat="44.10202" lon="6.31324">
        <ele>975.2</ele>
        <time>2022-06-06T09:10:32Z</time>
      </trkpt>
      <trkpt lat="44.10199" lon="6.31323">
        <ele>975</ele>
        <time>2022-06-06T09:10:33Z</time>
      </trkpt>
      <trkpt lat="44.10193" lon="6.31317">
        <ele>974.2</ele>
        <time>2022-06-06T09:10:35Z</time>
      </trkpt>
      <trkpt lat="44.10189" lon="6.31306">
        <ele>973.4</ele>
        <time>2022-06-06T09:10:37Z</time>
      </trkpt>
      <trkpt lat="44.10189" lon="6.31302">
        <ele>973</ele>
        <time>2022-06-06T09:10:38Z</time>
      </trkpt>
      <trkpt lat="44.10189" lon="6.31294">
        <ele>972.2</ele>
        <time>2022-06-06T09:10:40Z</time>
      </trkpt>
      <trkpt lat="44.10186" lon="6.31292">
        <ele>972</ele>
        <time>2022-06-06T09:10:41Z</time>
      </trkpt>
      <trkpt lat="44.1018" lon="6.31287">
        <ele>971</ele>
        <time>2022-06-06T09:10:44Z</time>
      </trkpt>
      <trkpt lat="44.10177" lon="6.31286">
        <ele>970.4</ele>
        <time>2022-06-06T09:10:45Z</time>
      </trkpt>
      <trkpt lat="44.10171" lon="6.31284">
        <ele>969.4</ele>
        <time>2022-06-06T09:10:47Z</time>
      </trkpt>
      <trkpt lat="44.1017" lon="6.31281">
        <ele>969</ele>
        <time>2022-06-06T09:10:48Z</time>
      </trkpt>
      <trkpt lat="44.10171" lon="6.31277">
        <ele>968</ele>
        <time>2022-06-06T09:10:50Z</time>
      </trkpt>
      <trkpt lat="44.10169" lon="6.31275">
        <ele>967.8</ele>
        <time>2022-06-06T09:10:51Z</time>
      </trkpt>
      <trkpt lat="44.10163" lon="6.3127">
        <ele>967</ele>
        <time>2022-06-06T09:10:53Z</time>
      </trkpt>
      <trkpt lat="44.10162" lon="6.31266">
        <ele>966.8</ele>
        <time>2022-06-06T09:10:54Z</time>
      </trkpt>
      <trkpt lat="44.10158" lon="6.31256">
        <ele>966.4</ele>
        <time>2022-06-06T09:10:56Z</time>
      </trkpt>
      <trkpt lat="44.10155" lon="6.31253">
        <ele>966.2</ele>
        <time>2022-06-06T09:10:57Z</time>
      </trkpt>
      <trkpt lat="44.10152" lon="6.31249">
        <ele>966</ele>
        <time>2022-06-06T09:10:58Z</time>
      </trkpt>
      <trkpt lat="44.10151" lon="6.31244">
        <ele>965.6</ele>
        <time>2022-06-06T09:10:59Z</time>
      </trkpt>
      <trkpt lat="44.10158" lon="6.31232">
        <ele>965.2</ele>
        <time>2022-06-06T09:11:02Z</time>
      </trkpt>
      <trkpt lat="44.10164" lon="6.31221">
        <ele>964.6</ele>
        <time>2022-06-06T09:11:05Z</time>
      </trkpt>
      <trkpt lat="44.10162" lon="6.3121">
        <ele>963.6</ele>
        <time>2022-06-06T09:11:08Z</time>
      </trkpt>
      <trkpt lat="44.1016" lon="6.31208">
        <ele>963.4</ele>
        <time>2022-06-06T09:11:09Z</time>
      </trkpt>
      <trkpt lat="44.10157" lon="6.31203">
        <ele>962.2</ele>
        <time>2022-06-06T09:11:15Z</time>
      </trkpt>
      <trkpt lat="44.10154" lon="6.312">
        <ele>962</ele>
        <time>2022-06-06T09:11:16Z</time>
      </trkpt>
      <trkpt lat="44.10146" lon="6.3119">
        <ele>961.8</ele>
        <time>2022-06-06T09:11:19Z</time>
      </trkpt>
      <trkpt lat="44.10145" lon="6.31186">
        <ele>961.8</ele>
        <time>2022-06-06T09:11:20Z</time>
      </trkpt>
      <trkpt lat="44.10145" lon="6.31179">
        <ele>961.8</ele>
        <time>2022-06-06T09:11:22Z</time>
      </trkpt>
      <trkpt lat="44.10143" lon="6.31176">
        <ele>961.6</ele>
        <time>2022-06-06T09:11:23Z</time>
      </trkpt>
      <trkpt lat="44.1013" lon="6.31169">
        <ele>961</ele>
        <time>2022-06-06T09:11:27Z</time>
      </trkpt>
      <trkpt lat="44.10117" lon="6.31169">
        <ele>960.6</ele>
        <time>2022-06-06T09:11:31Z</time>
      </trkpt>
      <trkpt lat="44.10117" lon="6.31169">
        <ele>960</ele>
        <time>2022-06-06T09:11:36Z</time>
      </trkpt>
      <trkpt lat="44.10117" lon="6.31169">
        <ele>958.8</ele>
        <time>2022-06-06T09:11:48Z</time>
      </trkpt>
      <trkpt lat="44.10117" lon="6.31169">
        <ele>957.8</ele>
        <time>2022-06-06T09:12:02Z</time>
      </trkpt>
      <trkpt lat="44.10117" lon="6.3117">
        <ele>956.8</ele>
        <time>2022-06-06T09:12:13Z</time>
      </trkpt>
      <trkpt lat="44.10117" lon="6.3117">
        <ele>956</ele>
        <time>2022-06-06T09:12:25Z</time>
      </trkpt>
      <trkpt lat="44.10117" lon="6.3117">
        <ele>955.4</ele>
        <time>2022-06-06T09:12:37Z</time>
      </trkpt>
      <trkpt lat="44.10116" lon="6.31168">
        <ele>955</ele>
        <time>2022-06-06T09:12:44Z</time>
      </trkpt>
      <trkpt lat="44.10113" lon="6.31166">
        <ele>955</ele>
        <time>2022-06-06T09:12:45Z</time>
      </trkpt>
      <trkpt lat="44.10097" lon="6.31159">
        <ele>954.8</ele>
        <time>2022-06-06T09:12:49Z</time>
      </trkpt>
      <trkpt lat="44.10089" lon="6.31154">
        <ele>954.4</ele>
        <time>2022-06-06T09:12:52Z</time>
      </trkpt>
      <trkpt lat="44.10087" lon="6.3114">
        <ele>954</ele>
        <time>2022-06-06T09:12:56Z</time>
      </trkpt>
      <trkpt lat="44.10087" lon="6.31127">
        <ele>953.8</ele>
        <time>2022-06-06T09:12:58Z</time>
      </trkpt>
      <trkpt lat="44.1009" lon="6.31116">
        <ele>953.4</ele>
        <time>2022-06-06T09:13:00Z</time>
      </trkpt>
      <trkpt lat="44.10101" lon="6.31103">
        <ele>953</ele>
        <time>2022-06-06T09:13:04Z</time>
      </trkpt>
      <trkpt lat="44.10105" lon="6.31093">
        <ele>952.4</ele>
        <time>2022-06-06T09:13:08Z</time>
      </trkpt>
      <trkpt lat="44.10104" lon="6.31088">
        <ele>951.8</ele>
        <time>2022-06-06T09:13:12Z</time>
      </trkpt>
      <trkpt lat="44.10103" lon="6.31084">
        <ele>951</ele>
        <time>2022-06-06T09:13:18Z</time>
      </trkpt>
      <trkpt lat="44.10101" lon="6.31073">
        <ele>950.4</ele>
        <time>2022-06-06T09:13:21Z</time>
      </trkpt>
      <trkpt lat="44.10102" lon="6.31066">
        <ele>950</ele>
        <time>2022-06-06T09:13:22Z</time>
      </trkpt>
      <trkpt lat="44.10103" lon="6.31058">
        <ele>949.8</ele>
        <time>2022-06-06T09:13:23Z</time>
      </trkpt>
      <trkpt lat="44.10102" lon="6.31052">
        <ele>949.6</ele>
        <time>2022-06-06T09:13:24Z</time>
      </trkpt>
      <trkpt lat="44.101" lon="6.31044">
        <ele>949.2</ele>
        <time>2022-06-06T09:13:27Z</time>
      </trkpt>
      <trkpt lat="44.101" lon="6.31045">
        <ele>948.6</ele>
        <time>2022-06-06T09:13:32Z</time>
      </trkpt>
      <trkpt lat="44.10101" lon="6.31044">
        <ele>948.2</ele>
        <time>2022-06-06T09:13:35Z</time>
      </trkpt>
      <trkpt lat="44.10102" lon="6.3104">
        <ele>947.8</ele>
        <time>2022-06-06T09:13:37Z</time>
      </trkpt>
      <trkpt lat="44.10102" lon="6.31036">
        <ele>947.6</ele>
        <time>2022-06-06T09:13:38Z</time>
      </trkpt>
      <trkpt lat="44.10102" lon="6.31028">
        <ele>946.8</ele>
        <time>2022-06-06T09:13:41Z</time>
      </trkpt>
      <trkpt lat="44.10102" lon="6.31027">
        <ele>945.8</ele>
        <time>2022-06-06T09:13:48Z</time>
      </trkpt>
      <trkpt lat="44.10102" lon="6.31027">
        <ele>944.2</ele>
        <time>2022-06-06T09:14:01Z</time>
      </trkpt>
      <trkpt lat="44.10102" lon="6.31027">
        <ele>943</ele>
        <time>2022-06-06T09:14:12Z</time>
      </trkpt>
      <trkpt lat="44.10102" lon="6.31027">
        <ele>941.4</ele>
        <time>2022-06-06T09:14:27Z</time>
      </trkpt>
      <trkpt lat="44.10103" lon="6.31026">
        <ele>941.2</ele>
        <time>2022-06-06T09:14:28Z</time>
      </trkpt>
      <trkpt lat="44.10107" lon="6.31021">
        <ele>940.8</ele>
        <time>2022-06-06T09:14:30Z</time>
      </trkpt>
      <trkpt lat="44.10109" lon="6.31018">
        <ele>939.8</ele>
        <time>2022-06-06T09:14:34Z</time>
      </trkpt>
      <trkpt lat="44.10109" lon="6.31018">
        <ele>938.6</ele>
        <time>2022-06-06T09:14:47Z</time>
      </trkpt>
      <trkpt lat="44.10111" lon="6.31015">
        <ele>937.8</ele>
        <time>2022-06-06T09:14:51Z</time>
      </trkpt>
      <trkpt lat="44.10113" lon="6.31013">
        <ele>937.6</ele>
        <time>2022-06-06T09:14:52Z</time>
      </trkpt>
      <trkpt lat="44.10116" lon="6.31009">
        <ele>937.2</ele>
        <time>2022-06-06T09:14:53Z</time>
      </trkpt>
      <trkpt lat="44.10119" lon="6.30999">
        <ele>936.8</ele>
        <time>2022-06-06T09:14:55Z</time>
      </trkpt>
      <trkpt lat="44.10122" lon="6.30987">
        <ele>936.6</ele>
        <time>2022-06-06T09:14:59Z</time>
      </trkpt>
      <trkpt lat="44.10126" lon="6.30979">
        <ele>936.2</ele>
        <time>2022-06-06T09:15:01Z</time>
      </trkpt>
      <trkpt lat="44.10129" lon="6.30977">
        <ele>936.2</ele>
        <time>2022-06-06T09:15:02Z</time>
      </trkpt>
      <trkpt lat="44.1013" lon="6.30975">
        <ele>935.8</ele>
        <time>2022-06-06T09:15:05Z</time>
      </trkpt>
      <trkpt lat="44.1013" lon="6.30975">
        <ele>935.2</ele>
        <time>2022-06-06T09:15:12Z</time>
      </trkpt>
      <trkpt lat="44.10131" lon="6.30976">
        <ele>934.8</ele>
        <time>2022-06-06T09:15:20Z</time>
      </trkpt>
      <trkpt lat="44.10131" lon="6.30976">
        <ele>934.4</ele>
        <time>2022-06-06T09:15:25Z</time>
      </trkpt>
      <trkpt lat="44.10133" lon="6.30974">
        <ele>934.4</ele>
        <time>2022-06-06T09:15:27Z</time>
      </trkpt>
      <trkpt lat="44.1014" lon="6.30974">
        <ele>934.8</ele>
        <time>2022-06-06T09:15:32Z</time>
      </trkpt>
      <trkpt lat="44.1014" lon="6.30973">
        <ele>935</ele>
        <time>2022-06-06T09:15:37Z</time>
      </trkpt>
      <trkpt lat="44.10135" lon="6.30973">
        <ele>935.2</ele>
        <time>2022-06-06T09:15:42Z</time>
      </trkpt>
      <trkpt lat="44.10133" lon="6.30972">
        <ele>935</ele>
        <time>2022-06-06T09:15:48Z</time>
      </trkpt>
      <trkpt lat="44.10131" lon="6.3097">
        <ele>935</ele>
        <time>2022-06-06T09:15:54Z</time>
      </trkpt>
      <trkpt lat="44.10131" lon="6.30968">
        <ele>935</ele>
        <time>2022-06-06T09:15:55Z</time>
      </trkpt>
      <trkpt lat="44.10131" lon="6.30968">
        <ele>934.4</ele>
        <time>2022-06-06T09:15:58Z</time>
      </trkpt>
      <trkpt lat="44.10136" lon="6.30955">
        <ele>934.4</ele>
        <time>2022-06-06T09:16:02Z</time>
      </trkpt>
      <trkpt lat="44.1013" lon="6.30943">
        <ele>933.8</ele>
        <time>2022-06-06T09:16:06Z</time>
      </trkpt>
      <trkpt lat="44.10121" lon="6.30933">
        <ele>933</ele>
        <time>2022-06-06T09:16:10Z</time>
      </trkpt>
      <trkpt lat="44.1012" lon="6.30929">
        <ele>932.6</ele>
        <time>2022-06-06T09:16:13Z</time>
      </trkpt>
      <trkpt lat="44.1012" lon="6.3093">
        <ele>932</ele>
        <time>2022-06-06T09:16:22Z</time>
      </trkpt>
      <trkpt lat="44.1012" lon="6.30928">
        <ele>930.6</ele>
        <time>2022-06-06T09:16:32Z</time>
      </trkpt>
      <trkpt lat="44.10117" lon="6.30924">
        <ele>929.8</ele>
        <time>2022-06-06T09:16:34Z</time>
      </trkpt>
      <trkpt lat="44.10112" lon="6.30917">
        <ele>929.2</ele>
        <time>2022-06-06T09:16:36Z</time>
      </trkpt>
      <trkpt lat="44.10108" lon="6.30908">
        <ele>928.6</ele>
        <time>2022-06-06T09:16:38Z</time>
      </trkpt>
      <trkpt lat="44.10108" lon="6.30903">
        <ele>928.2</ele>
        <time>2022-06-06T09:16:39Z</time>
      </trkpt>
      <trkpt lat="44.10112" lon="6.3089">
        <ele>927.2</ele>
        <time>2022-06-06T09:16:43Z</time>
      </trkpt>
      <trkpt lat="44.10116" lon="6.30872">
        <ele>926.6</ele>
        <time>2022-06-06T09:16:49Z</time>
      </trkpt>
      <trkpt lat="44.10119" lon="6.30866">
        <ele>926.8</ele>
        <time>2022-06-06T09:16:51Z</time>
      </trkpt>
      <trkpt lat="44.10123" lon="6.30863">
        <ele>927</ele>
        <time>2022-06-06T09:16:53Z</time>
      </trkpt>
      <trkpt lat="44.10125" lon="6.30861">
        <ele>927.2</ele>
        <time>2022-06-06T09:16:54Z</time>
      </trkpt>
      <trkpt lat="44.10129" lon="6.30856">
        <ele>927.8</ele>
        <time>2022-06-06T09:16:57Z</time>
      </trkpt>
      <trkpt lat="44.1013" lon="6.30855">
        <ele>926</ele>
        <time>2022-06-06T09:17:01Z</time>
      </trkpt>
      <trkpt lat="44.10132" lon="6.30854">
        <ele>926.4</ele>
        <time>2022-06-06T09:17:09Z</time>
      </trkpt>
      <trkpt lat="44.10135" lon="6.3085">
        <ele>926.4</ele>
        <time>2022-06-06T09:17:10Z</time>
      </trkpt>
      <trkpt lat="44.1014" lon="6.30846">
        <ele>926.4</ele>
        <time>2022-06-06T09:17:11Z</time>
      </trkpt>
      <trkpt lat="44.10148" lon="6.30838">
        <ele>926.6</ele>
        <time>2022-06-06T09:17:13Z</time>
      </trkpt>
      <trkpt lat="44.10154" lon="6.30831">
        <ele>927.2</ele>
        <time>2022-06-06T09:17:15Z</time>
      </trkpt>
      <trkpt lat="44.10159" lon="6.30819">
        <ele>927.4</ele>
        <time>2022-06-06T09:17:17Z</time>
      </trkpt>
      <trkpt lat="44.10164" lon="6.30805">
        <ele>927</ele>
        <time>2022-06-06T09:17:20Z</time>
      </trkpt>
      <trkpt lat="44.10167" lon="6.30801">
        <ele>927.2</ele>
        <time>2022-06-06T09:17:23Z</time>
      </trkpt>
      <trkpt lat="44.10168" lon="6.308">
        <ele>927.2</ele>
        <time>2022-06-06T09:17:31Z</time>
      </trkpt>
      <trkpt lat="44.10168" lon="6.308">
        <ele>927.6</ele>
        <time>2022-06-06T09:17:56Z</time>
      </trkpt>
      <trkpt lat="44.10169" lon="6.30797">
        <ele>927.8</ele>
        <time>2022-06-06T09:18:09Z</time>
      </trkpt>
      <trkpt lat="44.10173" lon="6.30786">
        <ele>928</ele>
        <time>2022-06-06T09:18:13Z</time>
      </trkpt>
      <trkpt lat="44.10173" lon="6.30783">
        <ele>928.2</ele>
        <time>2022-06-06T09:18:14Z</time>
      </trkpt>
      <trkpt lat="44.10172" lon="6.30773">
        <ele>928.2</ele>
        <time>2022-06-06T09:18:17Z</time>
      </trkpt>
      <trkpt lat="44.10172" lon="6.30757">
        <ele>928.8</ele>
        <time>2022-06-06T09:18:23Z</time>
      </trkpt>
      <trkpt lat="44.10171" lon="6.30742">
        <ele>929.4</ele>
        <time>2022-06-06T09:18:28Z</time>
      </trkpt>
      <trkpt lat="44.10172" lon="6.30729">
        <ele>929.8</ele>
        <time>2022-06-06T09:18:32Z</time>
      </trkpt>
      <trkpt lat="44.10171" lon="6.3071">
        <ele>930</ele>
        <time>2022-06-06T09:18:36Z</time>
      </trkpt>
      <trkpt lat="44.10171" lon="6.30693">
        <ele>930</ele>
        <time>2022-06-06T09:18:40Z</time>
      </trkpt>
      <trkpt lat="44.10176" lon="6.30678">
        <ele>930</ele>
        <time>2022-06-06T09:18:44Z</time>
      </trkpt>
      <trkpt lat="44.1018" lon="6.30658">
        <ele>930.8</ele>
        <time>2022-06-06T09:18:48Z</time>
      </trkpt>
      <trkpt lat="44.1018" lon="6.30654">
        <ele>930</ele>
        <time>2022-06-06T09:18:49Z</time>
      </trkpt>
      <trkpt lat="44.10177" lon="6.3065">
        <ele>928.8</ele>
        <time>2022-06-06T09:18:51Z</time>
      </trkpt>
      <trkpt lat="44.1017" lon="6.30645">
        <ele>928.8</ele>
        <time>2022-06-06T09:18:55Z</time>
      </trkpt>
      <trkpt lat="44.10163" lon="6.30639">
        <ele>928.6</ele>
        <time>2022-06-06T09:18:58Z</time>
      </trkpt>
      <trkpt lat="44.10163" lon="6.30638">
        <ele>928.6</ele>
        <time>2022-06-06T09:19:03Z</time>
      </trkpt>
      <trkpt lat="44.10163" lon="6.30638">
        <ele>928.2</ele>
        <time>2022-06-06T09:19:16Z</time>
      </trkpt>
      <trkpt lat="44.10162" lon="6.30638">
        <ele>927.8</ele>
        <time>2022-06-06T09:19:32Z</time>
      </trkpt>
      <trkpt lat="44.10153" lon="6.30636">
        <ele>927.8</ele>
        <time>2022-06-06T09:19:36Z</time>
      </trkpt>
      <trkpt lat="44.10152" lon="6.30635">
        <ele>927.8</ele>
        <time>2022-06-06T09:19:37Z</time>
      </trkpt>
      <trkpt lat="44.10148" lon="6.30631">
        <ele>927.6</ele>
        <time>2022-06-06T09:19:39Z</time>
      </trkpt>
      <trkpt lat="44.10137" lon="6.3063">
        <ele>927.4</ele>
        <time>2022-06-06T09:19:42Z</time>
      </trkpt>
      <trkpt lat="44.10133" lon="6.3063">
        <ele>927.2</ele>
        <time>2022-06-06T09:19:43Z</time>
      </trkpt>
      <trkpt lat="44.10124" lon="6.30627">
        <ele>926.8</ele>
        <time>2022-06-06T09:19:45Z</time>
      </trkpt>
      <trkpt lat="44.10124" lon="6.30621">
        <ele>926.4</ele>
        <time>2022-06-06T09:19:48Z</time>
      </trkpt>
      <trkpt lat="44.1013" lon="6.30616">
        <ele>926.2</ele>
        <time>2022-06-06T09:19:50Z</time>
      </trkpt>
      <trkpt lat="44.10133" lon="6.30613">
        <ele>926</ele>
        <time>2022-06-06T09:19:51Z</time>
      </trkpt>
      <trkpt lat="44.10134" lon="6.30611">
        <ele>925.8</ele>
        <time>2022-06-06T09:19:52Z</time>
      </trkpt>
      <trkpt lat="44.10134" lon="6.30609">
        <ele>925.6</ele>
        <time>2022-06-06T09:19:53Z</time>
      </trkpt>
      <trkpt lat="44.10133" lon="6.30608">
        <ele>925</ele>
        <time>2022-06-06T09:19:59Z</time>
      </trkpt>
      <trkpt lat="44.10131" lon="6.30606">
        <ele>924.8</ele>
        <time>2022-06-06T09:20:01Z</time>
      </trkpt>
      <trkpt lat="44.10128" lon="6.30604">
        <ele>924.8</ele>
        <time>2022-06-06T09:20:02Z</time>
      </trkpt>
      <trkpt lat="44.10125" lon="6.30603">
        <ele>924.6</ele>
        <time>2022-06-06T09:20:03Z</time>
      </trkpt>
      <trkpt lat="44.10124" lon="6.30604">
        <ele>924.2</ele>
        <time>2022-06-06T09:20:05Z</time>
      </trkpt>
      <trkpt lat="44.1012" lon="6.30604">
        <ele>923</ele>
        <time>2022-06-06T09:20:14Z</time>
      </trkpt>
      <trkpt lat="44.10103" lon="6.30602">
        <ele>922</ele>
        <time>2022-06-06T09:20:19Z</time>
      </trkpt>
      <trkpt lat="44.10092" lon="6.30598">
        <ele>921.6</ele>
        <time>2022-06-06T09:20:22Z</time>
      </trkpt>
      <trkpt lat="44.10089" lon="6.30599">
        <ele>921.4</ele>
        <time>2022-06-06T09:20:23Z</time>
      </trkpt>
      <trkpt lat="44.1008" lon="6.30599">
        <ele>920.6</ele>
        <time>2022-06-06T09:20:26Z</time>
      </trkpt>
      <trkpt lat="44.10077" lon="6.306">
        <ele>920.6</ele>
        <time>2022-06-06T09:20:27Z</time>
      </trkpt>
      <trkpt lat="44.10063" lon="6.306">
        <ele>919.4</ele>
        <time>2022-06-06T09:20:31Z</time>
      </trkpt>
      <trkpt lat="44.10052" lon="6.30605">
        <ele>918.6</ele>
        <time>2022-06-06T09:20:34Z</time>
      </trkpt>
      <trkpt lat="44.10049" lon="6.30608">
        <ele>918.4</ele>
        <time>2022-06-06T09:20:35Z</time>
      </trkpt>
      <trkpt lat="44.10046" lon="6.30608">
        <ele>918</ele>
        <time>2022-06-06T09:20:36Z</time>
      </trkpt>
      <trkpt lat="44.10038" lon="6.30608">
        <ele>917.4</ele>
        <time>2022-06-06T09:20:38Z</time>
      </trkpt>
      <trkpt lat="44.10016" lon="6.30617">
        <ele>915.4</ele>
        <time>2022-06-06T09:20:43Z</time>
      </trkpt>
      <trkpt lat="44.1001" lon="6.30623">
        <ele>914.6</ele>
        <time>2022-06-06T09:20:45Z</time>
      </trkpt>
      <trkpt lat="44.10008" lon="6.30627">
        <ele>914.2</ele>
        <time>2022-06-06T09:20:46Z</time>
      </trkpt>
      <trkpt lat="44.10004" lon="6.30632">
        <ele>913.4</ele>
        <time>2022-06-06T09:20:48Z</time>
      </trkpt>
      <trkpt lat="44.10003" lon="6.30633">
        <ele>913</ele>
        <time>2022-06-06T09:20:49Z</time>
      </trkpt>
      <trkpt lat="44.09999" lon="6.3064">
        <ele>911.6</ele>
        <time>2022-06-06T09:20:53Z</time>
      </trkpt>
      <trkpt lat="44.09998" lon="6.30646">
        <ele>911.2</ele>
        <time>2022-06-06T09:20:55Z</time>
      </trkpt>
      <trkpt lat="44.09997" lon="6.30652">
        <ele>910.4</ele>
        <time>2022-06-06T09:20:58Z</time>
      </trkpt>
      <trkpt lat="44.09994" lon="6.3066">
        <ele>909.4</ele>
        <time>2022-06-06T09:21:01Z</time>
      </trkpt>
      <trkpt lat="44.09993" lon="6.30662">
        <ele>909</ele>
        <time>2022-06-06T09:21:02Z</time>
      </trkpt>
      <trkpt lat="44.09986" lon="6.30671">
        <ele>907.6</ele>
        <time>2022-06-06T09:21:07Z</time>
      </trkpt>
      <trkpt lat="44.09983" lon="6.30674">
        <ele>907</ele>
        <time>2022-06-06T09:21:09Z</time>
      </trkpt>
      <trkpt lat="44.09979" lon="6.30675">
        <ele>906.6</ele>
        <time>2022-06-06T09:21:11Z</time>
      </trkpt>
      <trkpt lat="44.09966" lon="6.30678">
        <ele>905.2</ele>
        <time>2022-06-06T09:21:16Z</time>
      </trkpt>
      <trkpt lat="44.09963" lon="6.30681">
        <ele>904.8</ele>
        <time>2022-06-06T09:21:17Z</time>
      </trkpt>
      <trkpt lat="44.09957" lon="6.30691">
        <ele>904.2</ele>
        <time>2022-06-06T09:21:19Z</time>
      </trkpt>
      <trkpt lat="44.09952" lon="6.30692">
        <ele>903.6</ele>
        <time>2022-06-06T09:21:21Z</time>
      </trkpt>
      <trkpt lat="44.09939" lon="6.30691">
        <ele>902</ele>
        <time>2022-06-06T09:21:25Z</time>
      </trkpt>
      <trkpt lat="44.09933" lon="6.30691">
        <ele>901.4</ele>
        <time>2022-06-06T09:21:27Z</time>
      </trkpt>
      <trkpt lat="44.09931" lon="6.3069">
        <ele>901</ele>
        <time>2022-06-06T09:21:28Z</time>
      </trkpt>
      <trkpt lat="44.09929" lon="6.30688">
        <ele>900.6</ele>
        <time>2022-06-06T09:21:29Z</time>
      </trkpt>
      <trkpt lat="44.09928" lon="6.30685">
        <ele>899.8</ele>
        <time>2022-06-06T09:21:31Z</time>
      </trkpt>
      <trkpt lat="44.09925" lon="6.30681">
        <ele>899</ele>
        <time>2022-06-06T09:21:33Z</time>
      </trkpt>
      <trkpt lat="44.09919" lon="6.30685">
        <ele>898.4</ele>
        <time>2022-06-06T09:21:35Z</time>
      </trkpt>
      <trkpt lat="44.0991" lon="6.3069">
        <ele>897</ele>
        <time>2022-06-06T09:21:39Z</time>
      </trkpt>
      <trkpt lat="44.09907" lon="6.30691">
        <ele>896.6</ele>
        <time>2022-06-06T09:21:40Z</time>
      </trkpt>
      <trkpt lat="44.09902" lon="6.30691">
        <ele>895.8</ele>
        <time>2022-06-06T09:21:42Z</time>
      </trkpt>
      <trkpt lat="44.09897" lon="6.30675">
        <ele>894.2</ele>
        <time>2022-06-06T09:21:48Z</time>
      </trkpt>
      <trkpt lat="44.09893" lon="6.30662">
        <ele>893.2</ele>
        <time>2022-06-06T09:21:53Z</time>
      </trkpt>
      <trkpt lat="44.09893" lon="6.30661">
        <ele>892.2</ele>
        <time>2022-06-06T09:21:57Z</time>
      </trkpt>
      <trkpt lat="44.09893" lon="6.30661">
        <ele>888.2</ele>
        <time>2022-06-06T09:22:17Z</time>
      </trkpt>
      <trkpt lat="44.09893" lon="6.3066">
        <ele>884.8</ele>
        <time>2022-06-06T09:22:40Z</time>
      </trkpt>
      <trkpt lat="44.09894" lon="6.3066">
        <ele>883.2</ele>
        <time>2022-06-06T09:22:54Z</time>
      </trkpt>
      <trkpt lat="44.09897" lon="6.30656">
        <ele>882.6</ele>
        <time>2022-06-06T09:22:58Z</time>
      </trkpt>
      <trkpt lat="44.09901" lon="6.30651">
        <ele>882.2</ele>
        <time>2022-06-06T09:23:01Z</time>
      </trkpt>
      <trkpt lat="44.09902" lon="6.30647">
        <ele>882.2</ele>
        <time>2022-06-06T09:23:02Z</time>
      </trkpt>
      <trkpt lat="44.09903" lon="6.30625">
        <ele>882.4</ele>
        <time>2022-06-06T09:23:08Z</time>
      </trkpt>
      <trkpt lat="44.09909" lon="6.30605">
        <ele>882.4</ele>
        <time>2022-06-06T09:23:14Z</time>
      </trkpt>
      <trkpt lat="44.0991" lon="6.306">
        <ele>882.4</ele>
        <time>2022-06-06T09:23:15Z</time>
      </trkpt>
      <trkpt lat="44.09908" lon="6.30593">
        <ele>882.2</ele>
        <time>2022-06-06T09:23:17Z</time>
      </trkpt>
      <trkpt lat="44.09904" lon="6.30581">
        <ele>882.2</ele>
        <time>2022-06-06T09:23:22Z</time>
      </trkpt>
      <trkpt lat="44.09901" lon="6.30567">
        <ele>881.8</ele>
        <time>2022-06-06T09:23:28Z</time>
      </trkpt>
      <trkpt lat="44.099" lon="6.30565">
        <ele>881.8</ele>
        <time>2022-06-06T09:23:29Z</time>
      </trkpt>
      <trkpt lat="44.09899" lon="6.30561">
        <ele>881.8</ele>
        <time>2022-06-06T09:23:32Z</time>
      </trkpt>
      <trkpt lat="44.099" lon="6.30557">
        <ele>881.6</ele>
        <time>2022-06-06T09:23:36Z</time>
      </trkpt>
      <trkpt lat="44.09902" lon="6.30554">
        <ele>881.6</ele>
        <time>2022-06-06T09:23:37Z</time>
      </trkpt>
      <trkpt lat="44.09905" lon="6.30547">
        <ele>881.2</ele>
        <time>2022-06-06T09:23:39Z</time>
      </trkpt>
      <trkpt lat="44.0991" lon="6.30543">
        <ele>880.8</ele>
        <time>2022-06-06T09:23:41Z</time>
      </trkpt>
      <trkpt lat="44.09923" lon="6.30536">
        <ele>880</ele>
        <time>2022-06-06T09:23:45Z</time>
      </trkpt>
      <trkpt lat="44.09926" lon="6.30532">
        <ele>880</ele>
        <time>2022-06-06T09:23:46Z</time>
      </trkpt>
      <trkpt lat="44.0993" lon="6.30522">
        <ele>879.6</ele>
        <time>2022-06-06T09:23:48Z</time>
      </trkpt>
      <trkpt lat="44.09933" lon="6.30506">
        <ele>878.8</ele>
        <time>2022-06-06T09:23:51Z</time>
      </trkpt>
      <trkpt lat="44.09933" lon="6.3049">
        <ele>878.4</ele>
        <time>2022-06-06T09:23:54Z</time>
      </trkpt>
      <trkpt lat="44.09935" lon="6.30477">
        <ele>878</ele>
        <time>2022-06-06T09:23:59Z</time>
      </trkpt>
      <trkpt lat="44.09939" lon="6.30468">
        <ele>878</ele>
        <time>2022-06-06T09:24:03Z</time>
      </trkpt>
      <trkpt lat="44.09942" lon="6.30452">
        <ele>877.6</ele>
        <time>2022-06-06T09:24:09Z</time>
      </trkpt>
      <trkpt lat="44.09943" lon="6.3045">
        <ele>877.4</ele>
        <time>2022-06-06T09:24:10Z</time>
      </trkpt>
      <trkpt lat="44.09947" lon="6.30447">
        <ele>877.4</ele>
        <time>2022-06-06T09:24:13Z</time>
      </trkpt>
      <trkpt lat="44.09953" lon="6.30443">
        <ele>877.4</ele>
        <time>2022-06-06T09:24:17Z</time>
      </trkpt>
      <trkpt lat="44.09953" lon="6.30443">
        <ele>876.8</ele>
        <time>2022-06-06T09:24:29Z</time>
      </trkpt>
      <trkpt lat="44.09953" lon="6.30443">
        <ele>876.6</ele>
        <time>2022-06-06T09:24:39Z</time>
      </trkpt>
      <trkpt lat="44.09953" lon="6.30443">
        <ele>876</ele>
        <time>2022-06-06T09:24:58Z</time>
      </trkpt>
      <trkpt lat="44.09953" lon="6.30443">
        <ele>875.8</ele>
        <time>2022-06-06T09:25:08Z</time>
      </trkpt>
      <trkpt lat="44.09955" lon="6.30437">
        <ele>876</ele>
        <time>2022-06-06T09:25:14Z</time>
      </trkpt>
      <trkpt lat="44.09955" lon="6.30422">
        <ele>876.4</ele>
        <time>2022-06-06T09:25:20Z</time>
      </trkpt>
      <trkpt lat="44.09948" lon="6.30409">
        <ele>877</ele>
        <time>2022-06-06T09:25:26Z</time>
      </trkpt>
      <trkpt lat="44.0994" lon="6.3039">
        <ele>878</ele>
        <time>2022-06-06T09:25:33Z</time>
      </trkpt>
      <trkpt lat="44.09937" lon="6.30374">
        <ele>878.8</ele>
        <time>2022-06-06T09:25:38Z</time>
      </trkpt>
      <trkpt lat="44.09936" lon="6.30365">
        <ele>879.4</ele>
        <time>2022-06-06T09:25:41Z</time>
      </trkpt>
      <trkpt lat="44.09932" lon="6.30361">
        <ele>879.8</ele>
        <time>2022-06-06T09:25:43Z</time>
      </trkpt>
      <trkpt lat="44.09923" lon="6.30351">
        <ele>881.2</ele>
        <time>2022-06-06T09:25:49Z</time>
      </trkpt>
      <trkpt lat="44.09923" lon="6.30353">
        <ele>881.8</ele>
        <time>2022-06-06T09:25:53Z</time>
      </trkpt>
      <trkpt lat="44.09922" lon="6.3036">
        <ele>882.4</ele>
        <time>2022-06-06T09:25:56Z</time>
      </trkpt>
      <trkpt lat="44.09921" lon="6.30362">
        <ele>882.6</ele>
        <time>2022-06-06T09:25:57Z</time>
      </trkpt>
      <trkpt lat="44.09913" lon="6.30365">
        <ele>883.6</ele>
        <time>2022-06-06T09:26:02Z</time>
      </trkpt>
      <trkpt lat="44.09911" lon="6.30366">
        <ele>883.8</ele>
        <time>2022-06-06T09:26:03Z</time>
      </trkpt>
      <trkpt lat="44.09911" lon="6.30366">
        <ele>884.4</ele>
        <time>2022-06-06T09:26:06Z</time>
      </trkpt>
      <trkpt lat="44.09908" lon="6.30364">
        <ele>886.2</ele>
        <time>2022-06-06T09:26:19Z</time>
      </trkpt>
      <trkpt lat="44.09903" lon="6.30359">
        <ele>886.4</ele>
        <time>2022-06-06T09:26:22Z</time>
      </trkpt>
      <trkpt lat="44.099" lon="6.3036">
        <ele>886.4</ele>
        <time>2022-06-06T09:26:23Z</time>
      </trkpt>
      <trkpt lat="44.09883" lon="6.30359">
        <ele>886.6</ele>
        <time>2022-06-06T09:26:28Z</time>
      </trkpt>
      <trkpt lat="44.09872" lon="6.30363">
        <ele>886.6</ele>
        <time>2022-06-06T09:26:31Z</time>
      </trkpt>
      <trkpt lat="44.09868" lon="6.30363">
        <ele>886.8</ele>
        <time>2022-06-06T09:26:32Z</time>
      </trkpt>
      <trkpt lat="44.09853" lon="6.30355">
        <ele>886.8</ele>
        <time>2022-06-06T09:26:37Z</time>
      </trkpt>
      <trkpt lat="44.09851" lon="6.30354">
        <ele>886.8</ele>
        <time>2022-06-06T09:26:40Z</time>
      </trkpt>
      <trkpt lat="44.09851" lon="6.30354">
        <ele>887.4</ele>
        <time>2022-06-06T09:26:56Z</time>
      </trkpt>
      <trkpt lat="44.09849" lon="6.30354">
        <ele>887.4</ele>
        <time>2022-06-06T09:26:57Z</time>
      </trkpt>
      <trkpt lat="44.09843" lon="6.30351">
        <ele>887.2</ele>
        <time>2022-06-06T09:27:00Z</time>
      </trkpt>
      <trkpt lat="44.09824" lon="6.3034">
        <ele>887.4</ele>
        <time>2022-06-06T09:27:06Z</time>
      </trkpt>
      <trkpt lat="44.09811" lon="6.30334">
        <ele>887.6</ele>
        <time>2022-06-06T09:27:11Z</time>
      </trkpt>
      <trkpt lat="44.09808" lon="6.30335">
        <ele>887.6</ele>
        <time>2022-06-06T09:27:13Z</time>
      </trkpt>
      <trkpt lat="44.09806" lon="6.30331">
        <ele>887.6</ele>
        <time>2022-06-06T09:27:15Z</time>
      </trkpt>
      <trkpt lat="44.09805" lon="6.30328">
        <ele>887.6</ele>
        <time>2022-06-06T09:27:16Z</time>
      </trkpt>
      <trkpt lat="44.09805" lon="6.3032">
        <ele>887.6</ele>
        <time>2022-06-06T09:27:19Z</time>
      </trkpt>
      <trkpt lat="44.09807" lon="6.30315">
        <ele>887.6</ele>
        <time>2022-06-06T09:27:21Z</time>
      </trkpt>
      <trkpt lat="44.09806" lon="6.3031">
        <ele>887.8</ele>
        <time>2022-06-06T09:27:23Z</time>
      </trkpt>
      <trkpt lat="44.09802" lon="6.30305">
        <ele>887.4</ele>
        <time>2022-06-06T09:27:25Z</time>
      </trkpt>
      <trkpt lat="44.09796" lon="6.30305">
        <ele>887.2</ele>
        <time>2022-06-06T09:27:27Z</time>
      </trkpt>
      <trkpt lat="44.09794" lon="6.30304">
        <ele>887.2</ele>
        <time>2022-06-06T09:27:28Z</time>
      </trkpt>
      <trkpt lat="44.09792" lon="6.30299">
        <ele>886.8</ele>
        <time>2022-06-06T09:27:30Z</time>
      </trkpt>
      <trkpt lat="44.09786" lon="6.30295">
        <ele>886.2</ele>
        <time>2022-06-06T09:27:33Z</time>
      </trkpt>
      <trkpt lat="44.09784" lon="6.30295">
        <ele>886.2</ele>
        <time>2022-06-06T09:27:34Z</time>
      </trkpt>
      <trkpt lat="44.09778" lon="6.30296">
        <ele>885.8</ele>
        <time>2022-06-06T09:27:37Z</time>
      </trkpt>
      <trkpt lat="44.09776" lon="6.30293">
        <ele>885.4</ele>
        <time>2022-06-06T09:27:39Z</time>
      </trkpt>
      <trkpt lat="44.09772" lon="6.30288">
        <ele>885</ele>
        <time>2022-06-06T09:27:42Z</time>
      </trkpt>
      <trkpt lat="44.09771" lon="6.30286">
        <ele>884.8</ele>
        <time>2022-06-06T09:27:43Z</time>
      </trkpt>
      <trkpt lat="44.0977" lon="6.30282">
        <ele>884.4</ele>
        <time>2022-06-06T09:27:45Z</time>
      </trkpt>
      <trkpt lat="44.09773" lon="6.30278">
        <ele>884.2</ele>
        <time>2022-06-06T09:27:47Z</time>
      </trkpt>
      <trkpt lat="44.09777" lon="6.30279">
        <ele>884</ele>
        <time>2022-06-06T09:27:49Z</time>
      </trkpt>
      <trkpt lat="44.0978" lon="6.30275">
        <ele>883.8</ele>
        <time>2022-06-06T09:27:51Z</time>
      </trkpt>
      <trkpt lat="44.09774" lon="6.30267">
        <ele>883.6</ele>
        <time>2022-06-06T09:27:54Z</time>
      </trkpt>
      <trkpt lat="44.09773" lon="6.30265">
        <ele>883.4</ele>
        <time>2022-06-06T09:27:55Z</time>
      </trkpt>
      <trkpt lat="44.09772" lon="6.30259">
        <ele>883.2</ele>
        <time>2022-06-06T09:27:57Z</time>
      </trkpt>
      <trkpt lat="44.09769" lon="6.30244">
        <ele>882.8</ele>
        <time>2022-06-06T09:28:01Z</time>
      </trkpt>
      <trkpt lat="44.09768" lon="6.30233">
        <ele>882.4</ele>
        <time>2022-06-06T09:28:04Z</time>
      </trkpt>
      <trkpt lat="44.09766" lon="6.30229">
        <ele>882.2</ele>
        <time>2022-06-06T09:28:05Z</time>
      </trkpt>
      <trkpt lat="44.0976" lon="6.30213">
        <ele>881.6</ele>
        <time>2022-06-06T09:28:09Z</time>
      </trkpt>
      <trkpt lat="44.09755" lon="6.30205">
        <ele>881.4</ele>
        <time>2022-06-06T09:28:12Z</time>
      </trkpt>
      <trkpt lat="44.09754" lon="6.30205">
        <ele>881.2</ele>
        <time>2022-06-06T09:28:13Z</time>
      </trkpt>
      <trkpt lat="44.09748" lon="6.3021">
        <ele>880.8</ele>
        <time>2022-06-06T09:28:16Z</time>
      </trkpt>
      <trkpt lat="44.09744" lon="6.30211">
        <ele>880.6</ele>
        <time>2022-06-06T09:28:17Z</time>
      </trkpt>
      <trkpt lat="44.0973" lon="6.30217">
        <ele>879.8</ele>
        <time>2022-06-06T09:28:21Z</time>
      </trkpt>
      <trkpt lat="44.09718" lon="6.3022">
        <ele>879.2</ele>
        <time>2022-06-06T09:28:24Z</time>
      </trkpt>
      <trkpt lat="44.09702" lon="6.30213">
        <ele>878</ele>
        <time>2022-06-06T09:28:28Z</time>
      </trkpt>
      <trkpt lat="44.09695" lon="6.30204">
        <ele>877.2</ele>
        <time>2022-06-06T09:28:31Z</time>
      </trkpt>
      <trkpt lat="44.09695" lon="6.302">
        <ele>876.8</ele>
        <time>2022-06-06T09:28:33Z</time>
      </trkpt>
      <trkpt lat="44.09689" lon="6.30194">
        <ele>876.2</ele>
        <time>2022-06-06T09:28:35Z</time>
      </trkpt>
      <trkpt lat="44.09677" lon="6.30186">
        <ele>875.2</ele>
        <time>2022-06-06T09:28:39Z</time>
      </trkpt>
      <trkpt lat="44.09674" lon="6.30184">
        <ele>874.8</ele>
        <time>2022-06-06T09:28:40Z</time>
      </trkpt>
      <trkpt lat="44.09665" lon="6.30181">
        <ele>874.4</ele>
        <time>2022-06-06T09:28:42Z</time>
      </trkpt>
      <trkpt lat="44.09657" lon="6.30179">
        <ele>873.8</ele>
        <time>2022-06-06T09:28:44Z</time>
      </trkpt>
      <trkpt lat="44.09649" lon="6.30175">
        <ele>873.2</ele>
        <time>2022-06-06T09:28:46Z</time>
      </trkpt>
      <trkpt lat="44.09635" lon="6.30165">
        <ele>871.8</ele>
        <time>2022-06-06T09:28:50Z</time>
      </trkpt>
      <trkpt lat="44.09631" lon="6.30162">
        <ele>871.2</ele>
        <time>2022-06-06T09:28:51Z</time>
      </trkpt>
      <trkpt lat="44.09622" lon="6.30156">
        <ele>870.4</ele>
        <time>2022-06-06T09:28:53Z</time>
      </trkpt>
      <trkpt lat="44.09608" lon="6.30152">
        <ele>869.2</ele>
        <time>2022-06-06T09:28:56Z</time>
      </trkpt>
      <trkpt lat="44.096" lon="6.30151">
        <ele>868.4</ele>
        <time>2022-06-06T09:28:58Z</time>
      </trkpt>
      <trkpt lat="44.09595" lon="6.30151">
        <ele>867.8</ele>
        <time>2022-06-06T09:28:59Z</time>
      </trkpt>
      <trkpt lat="44.09586" lon="6.30148">
        <ele>867</ele>
        <time>2022-06-06T09:29:01Z</time>
      </trkpt>
      <trkpt lat="44.09577" lon="6.30149">
        <ele>865.6</ele>
        <time>2022-06-06T09:29:04Z</time>
      </trkpt>
      <trkpt lat="44.09574" lon="6.30147">
        <ele>865.2</ele>
        <time>2022-06-06T09:29:05Z</time>
      </trkpt>
      <trkpt lat="44.09571" lon="6.30145">
        <ele>864.8</ele>
        <time>2022-06-06T09:29:06Z</time>
      </trkpt>
      <trkpt lat="44.09562" lon="6.30142">
        <ele>863.8</ele>
        <time>2022-06-06T09:29:08Z</time>
      </trkpt>
      <trkpt lat="44.09554" lon="6.30143">
        <ele>862.8</ele>
        <time>2022-06-06T09:29:10Z</time>
      </trkpt>
      <trkpt lat="44.09551" lon="6.30145">
        <ele>862.2</ele>
        <time>2022-06-06T09:29:11Z</time>
      </trkpt>
      <trkpt lat="44.09547" lon="6.30146">
        <ele>861.8</ele>
        <time>2022-06-06T09:29:12Z</time>
      </trkpt>
      <trkpt lat="44.0954" lon="6.30144">
        <ele>860.8</ele>
        <time>2022-06-06T09:29:14Z</time>
      </trkpt>
      <trkpt lat="44.09537" lon="6.30144">
        <ele>860.4</ele>
        <time>2022-06-06T09:29:15Z</time>
      </trkpt>
      <trkpt lat="44.09527" lon="6.30142">
        <ele>859.4</ele>
        <time>2022-06-06T09:29:17Z</time>
      </trkpt>
      <trkpt lat="44.09516" lon="6.30139">
        <ele>858</ele>
        <time>2022-06-06T09:29:20Z</time>
      </trkpt>
      <trkpt lat="44.09513" lon="6.30133">
        <ele>856.4</ele>
        <time>2022-06-06T09:29:23Z</time>
      </trkpt>
      <trkpt lat="44.09511" lon="6.30131">
        <ele>856</ele>
        <time>2022-06-06T09:29:24Z</time>
      </trkpt>
      <trkpt lat="44.09506" lon="6.3013">
        <ele>855.4</ele>
        <time>2022-06-06T09:29:26Z</time>
      </trkpt>
      <trkpt lat="44.09506" lon="6.30125">
        <ele>854</ele>
        <time>2022-06-06T09:29:29Z</time>
      </trkpt>
      <trkpt lat="44.09518" lon="6.30121">
        <ele>852</ele>
        <time>2022-06-06T09:29:33Z</time>
      </trkpt>
      <trkpt lat="44.09526" lon="6.30115">
        <ele>850</ele>
        <time>2022-06-06T09:29:37Z</time>
      </trkpt>
      <trkpt lat="44.09525" lon="6.30114">
        <ele>849.4</ele>
        <time>2022-06-06T09:29:38Z</time>
      </trkpt>
      <trkpt lat="44.0952" lon="6.30108">
        <ele>847.4</ele>
        <time>2022-06-06T09:29:41Z</time>
      </trkpt>
      <trkpt lat="44.09518" lon="6.30106">
        <ele>846.8</ele>
        <time>2022-06-06T09:29:42Z</time>
      </trkpt>
      <trkpt lat="44.09513" lon="6.30101">
        <ele>845.6</ele>
        <time>2022-06-06T09:29:44Z</time>
      </trkpt>
      <trkpt lat="44.09505" lon="6.30095">
        <ele>843.8</ele>
        <time>2022-06-06T09:29:47Z</time>
      </trkpt>
      <trkpt lat="44.09502" lon="6.30096">
        <ele>841.6</ele>
        <time>2022-06-06T09:29:51Z</time>
      </trkpt>
      <trkpt lat="44.09501" lon="6.30096">
        <ele>840.8</ele>
        <time>2022-06-06T09:29:52Z</time>
      </trkpt>
      <trkpt lat="44.09501" lon="6.30096">
        <ele>839.4</ele>
        <time>2022-06-06T09:29:55Z</time>
      </trkpt>
      <trkpt lat="44.095" lon="6.30095">
        <ele>838.6</ele>
        <time>2022-06-06T09:29:56Z</time>
      </trkpt>
      <trkpt lat="44.09499" lon="6.30094">
        <ele>838</ele>
        <time>2022-06-06T09:29:57Z</time>
      </trkpt>
      <trkpt lat="44.09493" lon="6.3009">
        <ele>836</ele>
        <time>2022-06-06T09:30:00Z</time>
      </trkpt>
      <trkpt lat="44.09488" lon="6.30088">
        <ele>834.6</ele>
        <time>2022-06-06T09:30:02Z</time>
      </trkpt>
      <trkpt lat="44.09489" lon="6.30086">
        <ele>834</ele>
        <time>2022-06-06T09:30:03Z</time>
      </trkpt>
      <trkpt lat="44.09489" lon="6.30087">
        <ele>829.2</ele>
        <time>2022-06-06T09:30:13Z</time>
      </trkpt>
      <trkpt lat="44.09496" lon="6.30082">
        <ele>826.6</ele>
        <time>2022-06-06T09:30:17Z</time>
      </trkpt>
      <trkpt lat="44.09499" lon="6.30083">
        <ele>826</ele>
        <time>2022-06-06T09:30:18Z</time>
      </trkpt>
      <trkpt lat="44.09504" lon="6.30083">
        <ele>825</ele>
        <time>2022-06-06T09:30:20Z</time>
      </trkpt>
      <trkpt lat="44.09506" lon="6.30083">
        <ele>822.6</ele>
        <time>2022-06-06T09:30:24Z</time>
      </trkpt>
      <trkpt lat="44.09511" lon="6.30081">
        <ele>821.6</ele>
        <time>2022-06-06T09:30:26Z</time>
      </trkpt>
      <trkpt lat="44.09512" lon="6.3008">
        <ele>821.2</ele>
        <time>2022-06-06T09:30:27Z</time>
      </trkpt>
      <trkpt lat="44.09513" lon="6.3008">
        <ele>819.6</ele>
        <time>2022-06-06T09:30:31Z</time>
      </trkpt>
      <trkpt lat="44.09512" lon="6.3008">
        <ele>819</ele>
        <time>2022-06-06T09:30:32Z</time>
      </trkpt>
      <trkpt lat="44.09509" lon="6.30076">
        <ele>817.4</ele>
        <time>2022-06-06T09:30:35Z</time>
      </trkpt>
      <trkpt lat="44.095" lon="6.3007">
        <ele>816</ele>
        <time>2022-06-06T09:30:38Z</time>
      </trkpt>
      <trkpt lat="44.09487" lon="6.30064">
        <ele>813.6</ele>
        <time>2022-06-06T09:30:42Z</time>
      </trkpt>
      <trkpt lat="44.09481" lon="6.30059">
        <ele>812.4</ele>
        <time>2022-06-06T09:30:44Z</time>
      </trkpt>
      <trkpt lat="44.09477" lon="6.3006">
        <ele>812</ele>
        <time>2022-06-06T09:30:45Z</time>
      </trkpt>
      <trkpt lat="44.09455" lon="6.30063">
        <ele>809.8</ele>
        <time>2022-06-06T09:30:51Z</time>
      </trkpt>
      <trkpt lat="44.09449" lon="6.30065">
        <ele>809</ele>
        <time>2022-06-06T09:30:53Z</time>
      </trkpt>
      <trkpt lat="44.09444" lon="6.30064">
        <ele>808.2</ele>
        <time>2022-06-06T09:30:55Z</time>
      </trkpt>
      <trkpt lat="44.0943" lon="6.30067">
        <ele>806.6</ele>
        <time>2022-06-06T09:30:59Z</time>
      </trkpt>
      <trkpt lat="44.09417" lon="6.30071">
        <ele>804.8</ele>
        <time>2022-06-06T09:31:03Z</time>
      </trkpt>
      <trkpt lat="44.09414" lon="6.30071">
        <ele>804.4</ele>
        <time>2022-06-06T09:31:04Z</time>
      </trkpt>
      <trkpt lat="44.09408" lon="6.30074">
        <ele>803.4</ele>
        <time>2022-06-06T09:31:06Z</time>
      </trkpt>
      <trkpt lat="44.09404" lon="6.30073">
        <ele>802.6</ele>
        <time>2022-06-06T09:31:08Z</time>
      </trkpt>
      <trkpt lat="44.09403" lon="6.30072">
        <ele>802.4</ele>
        <time>2022-06-06T09:31:09Z</time>
      </trkpt>
      <trkpt lat="44.09404" lon="6.30069">
        <ele>800.8</ele>
        <time>2022-06-06T09:31:12Z</time>
      </trkpt>
      <trkpt lat="44.09404" lon="6.30069">
        <ele>796</ele>
        <time>2022-06-06T09:31:28Z</time>
      </trkpt>
      <trkpt lat="44.09404" lon="6.30069">
        <ele>791</ele>
        <time>2022-06-06T09:31:48Z</time>
      </trkpt>
      <trkpt lat="44.09404" lon="6.30069">
        <ele>787</ele>
        <time>2022-06-06T09:32:12Z</time>
      </trkpt>
      <trkpt lat="44.09404" lon="6.30069">
        <ele>785</ele>
        <time>2022-06-06T09:32:30Z</time>
      </trkpt>
      <trkpt lat="44.09404" lon="6.30071">
        <ele>783</ele>
        <time>2022-06-06T09:32:56Z</time>
      </trkpt>
      <trkpt lat="44.09403" lon="6.30071">
        <ele>782.2</ele>
        <time>2022-06-06T09:33:16Z</time>
      </trkpt>
      <trkpt lat="44.09402" lon="6.30071">
        <ele>782</ele>
        <time>2022-06-06T09:33:22Z</time>
      </trkpt>
      <trkpt lat="44.09397" lon="6.30069">
        <ele>782</ele>
        <time>2022-06-06T09:33:25Z</time>
      </trkpt>
      <trkpt lat="44.09381" lon="6.30058">
        <ele>781.6</ele>
        <time>2022-06-06T09:33:31Z</time>
      </trkpt>
      <trkpt lat="44.09367" lon="6.3005">
        <ele>780.4</ele>
        <time>2022-06-06T09:33:37Z</time>
      </trkpt>
      <trkpt lat="44.09362" lon="6.30047">
        <ele>779.6</ele>
        <time>2022-06-06T09:33:40Z</time>
      </trkpt>
      <trkpt lat="44.09361" lon="6.30045">
        <ele>779.4</ele>
        <time>2022-06-06T09:33:41Z</time>
      </trkpt>
      <trkpt lat="44.09353" lon="6.30037">
        <ele>777.6</ele>
        <time>2022-06-06T09:33:46Z</time>
      </trkpt>
      <trkpt lat="44.0935" lon="6.30033">
        <ele>777</ele>
        <time>2022-06-06T09:33:48Z</time>
      </trkpt>
      <trkpt lat="44.09348" lon="6.30029">
        <ele>776.4</ele>
        <time>2022-06-06T09:33:50Z</time>
      </trkpt>
      <trkpt lat="44.09347" lon="6.30027">
        <ele>776</ele>
        <time>2022-06-06T09:33:51Z</time>
      </trkpt>
      <trkpt lat="44.0934" lon="6.30016">
        <ele>774.2</ele>
        <time>2022-06-06T09:33:55Z</time>
      </trkpt>
      <trkpt lat="44.09338" lon="6.30015">
        <ele>773.8</ele>
        <time>2022-06-06T09:33:56Z</time>
      </trkpt>
      <trkpt lat="44.09336" lon="6.30012">
        <ele>773</ele>
        <time>2022-06-06T09:33:58Z</time>
      </trkpt>
      <trkpt lat="44.09337" lon="6.30013">
        <ele>768</ele>
        <time>2022-06-06T09:34:13Z</time>
      </trkpt>
      <trkpt lat="44.09337" lon="6.30013">
        <ele>763</ele>
        <time>2022-06-06T09:34:33Z</time>
      </trkpt>
      <trkpt lat="44.09337" lon="6.30013">
        <ele>762.2</ele>
        <time>2022-06-06T09:34:37Z</time>
      </trkpt>
      <trkpt lat="44.09335" lon="6.30007">
        <ele>761.2</ele>
        <time>2022-06-06T09:34:40Z</time>
      </trkpt>
      <trkpt lat="44.09333" lon="6.30007">
        <ele>759.2</ele>
        <time>2022-06-06T09:34:50Z</time>
      </trkpt>
      <trkpt lat="44.09333" lon="6.30007">
        <ele>757.4</ele>
        <time>2022-06-06T09:35:01Z</time>
      </trkpt>
      <trkpt lat="44.09335" lon="6.30009">
        <ele>756.2</ele>
        <time>2022-06-06T09:35:08Z</time>
      </trkpt>
      <trkpt lat="44.09335" lon="6.30009">
        <ele>754.8</ele>
        <time>2022-06-06T09:35:19Z</time>
      </trkpt>
      <trkpt lat="44.09336" lon="6.30008">
        <ele>753.8</ele>
        <time>2022-06-06T09:35:31Z</time>
      </trkpt>
      <trkpt lat="44.09338" lon="6.30006">
        <ele>753.8</ele>
        <time>2022-06-06T09:35:33Z</time>
      </trkpt>
      <trkpt lat="44.09341" lon="6.30008">
        <ele>753.6</ele>
        <time>2022-06-06T09:35:35Z</time>
      </trkpt>
      <trkpt lat="44.09347" lon="6.30012">
        <ele>753.2</ele>
        <time>2022-06-06T09:35:39Z</time>
      </trkpt>
      <trkpt lat="44.09349" lon="6.30012">
        <ele>752.8</ele>
        <time>2022-06-06T09:35:42Z</time>
      </trkpt>
      <trkpt lat="44.0935" lon="6.30012">
        <ele>752.8</ele>
        <time>2022-06-06T09:35:43Z</time>
      </trkpt>
      <trkpt lat="44.09351" lon="6.30009">
        <ele>752.2</ele>
        <time>2022-06-06T09:35:48Z</time>
      </trkpt>
      <trkpt lat="44.0935" lon="6.30006">
        <ele>752</ele>
        <time>2022-06-06T09:35:50Z</time>
      </trkpt>
      <trkpt lat="44.0935" lon="6.30005">
        <ele>751.4</ele>
        <time>2022-06-06T09:35:57Z</time>
      </trkpt>
      <trkpt lat="44.09349" lon="6.29998">
        <ele>751.2</ele>
        <time>2022-06-06T09:36:04Z</time>
      </trkpt>
      <trkpt lat="44.09354" lon="6.29982">
        <ele>752</ele>
        <time>2022-06-06T09:36:09Z</time>
      </trkpt>
      <trkpt lat="44.09354" lon="6.2998">
        <ele>752.8</ele>
        <time>2022-06-06T09:36:10Z</time>
      </trkpt>
      <trkpt lat="44.09354" lon="6.29975">
        <ele>752.6</ele>
        <time>2022-06-06T09:36:13Z</time>
      </trkpt>
      <trkpt lat="44.09354" lon="6.29973">
        <ele>752.6</ele>
        <time>2022-06-06T09:36:14Z</time>
      </trkpt>
      <trkpt lat="44.09353" lon="6.29954">
        <ele>753</ele>
        <time>2022-06-06T09:36:20Z</time>
      </trkpt>
      <trkpt lat="44.09348" lon="6.2993">
        <ele>753.4</ele>
        <time>2022-06-06T09:36:27Z</time>
      </trkpt>
      <trkpt lat="44.09346" lon="6.29917">
        <ele>753.6</ele>
        <time>2022-06-06T09:36:31Z</time>
      </trkpt>
      <trkpt lat="44.09347" lon="6.29911">
        <ele>753.8</ele>
        <time>2022-06-06T09:36:33Z</time>
      </trkpt>
      <trkpt lat="44.09346" lon="6.29894">
        <ele>754.2</ele>
        <time>2022-06-06T09:36:39Z</time>
      </trkpt>
      <trkpt lat="44.09347" lon="6.29892">
        <ele>754.6</ele>
        <time>2022-06-06T09:36:43Z</time>
      </trkpt>
      <trkpt lat="44.09347" lon="6.29892">
        <ele>754.6</ele>
        <time>2022-06-06T09:36:44Z</time>
      </trkpt>
      <trkpt lat="44.09347" lon="6.29891">
        <ele>754.8</ele>
        <time>2022-06-06T09:36:46Z</time>
      </trkpt>
      <trkpt lat="44.09347" lon="6.29891">
        <ele>755.2</ele>
        <time>2022-06-06T09:36:53Z</time>
      </trkpt>
      <trkpt lat="44.09348" lon="6.29892">
        <ele>756</ele>
        <time>2022-06-06T09:36:57Z</time>
      </trkpt>
      <trkpt lat="44.09351" lon="6.29897">
        <ele>757</ele>
        <time>2022-06-06T09:37:02Z</time>
      </trkpt>
      <trkpt lat="44.09358" lon="6.29905">
        <ele>757.8</ele>
        <time>2022-06-06T09:37:07Z</time>
      </trkpt>
      <trkpt lat="44.09366" lon="6.29913">
        <ele>759</ele>
        <time>2022-06-06T09:37:12Z</time>
      </trkpt>
      <trkpt lat="44.09372" lon="6.29926">
        <ele>760.2</ele>
        <time>2022-06-06T09:37:18Z</time>
      </trkpt>
      <trkpt lat="44.09373" lon="6.29929">
        <ele>760.8</ele>
        <time>2022-06-06T09:37:22Z</time>
      </trkpt>
      <trkpt lat="44.09373" lon="6.29929">
        <ele>762.4</ele>
        <time>2022-06-06T09:37:32Z</time>
      </trkpt>
      <trkpt lat="44.09373" lon="6.29929">
        <ele>764</ele>
        <time>2022-06-06T09:37:43Z</time>
      </trkpt>
      <trkpt lat="44.09374" lon="6.29929">
        <ele>764.4</ele>
        <time>2022-06-06T09:37:45Z</time>
      </trkpt>
      <trkpt lat="44.09378" lon="6.29928">
        <ele>765</ele>
        <time>2022-06-06T09:37:47Z</time>
      </trkpt>
      <trkpt lat="44.09382" lon="6.29914">
        <ele>766.2</ele>
        <time>2022-06-06T09:37:52Z</time>
      </trkpt>
      <trkpt lat="44.09388" lon="6.299">
        <ele>767.6</ele>
        <time>2022-06-06T09:37:57Z</time>
      </trkpt>
      <trkpt lat="44.0939" lon="6.29899">
        <ele>768</ele>
        <time>2022-06-06T09:37:58Z</time>
      </trkpt>
      <trkpt lat="44.09393" lon="6.29896">
        <ele>768.6</ele>
        <time>2022-06-06T09:38:00Z</time>
      </trkpt>
      <trkpt lat="44.09392" lon="6.29892">
        <ele>769.2</ele>
        <time>2022-06-06T09:38:02Z</time>
      </trkpt>
      <trkpt lat="44.09389" lon="6.29888">
        <ele>770.4</ele>
        <time>2022-06-06T09:38:07Z</time>
      </trkpt>
      <trkpt lat="44.09389" lon="6.29888">
        <ele>773.6</ele>
        <time>2022-06-06T09:38:24Z</time>
      </trkpt>
      <trkpt lat="44.09389" lon="6.29888">
        <ele>776.6</ele>
        <time>2022-06-06T09:38:43Z</time>
      </trkpt>
      <trkpt lat="44.09389" lon="6.29888">
        <ele>779.6</ele>
        <time>2022-06-06T09:39:07Z</time>
      </trkpt>
      <trkpt lat="44.09389" lon="6.29888">
        <ele>781.4</ele>
        <time>2022-06-06T09:39:26Z</time>
      </trkpt>
      <trkpt lat="44.09389" lon="6.29888">
        <ele>783</ele>
        <time>2022-06-06T09:39:48Z</time>
      </trkpt>
      <trkpt lat="44.09389" lon="6.29888">
        <ele>784.2</ele>
        <time>2022-06-06T09:40:07Z</time>
      </trkpt>
      <trkpt lat="44.09389" lon="6.29888">
        <ele>785</ele>
        <time>2022-06-06T09:40:26Z</time>
      </trkpt>
      <trkpt lat="44.0939" lon="6.29887">
        <ele>785.8</ele>
        <time>2022-06-06T09:40:46Z</time>
      </trkpt>
      <trkpt lat="44.0939" lon="6.29887">
        <ele>786.6</ele>
        <time>2022-06-06T09:41:09Z</time>
      </trkpt>
      <trkpt lat="44.0939" lon="6.29887">
        <ele>787</ele>
        <time>2022-06-06T09:41:21Z</time>
      </trkpt>
      <trkpt lat="44.0939" lon="6.29887">
        <ele>787</ele>
        <time>2022-06-06T09:41:24Z</time>
      </trkpt>
      <trkpt lat="44.09388" lon="6.29879">
        <ele>787.6</ele>
        <time>2022-06-06T09:41:27Z</time>
      </trkpt>
      <trkpt lat="44.09386" lon="6.2986">
        <ele>788.6</ele>
        <time>2022-06-06T09:41:32Z</time>
      </trkpt>
      <trkpt lat="44.09386" lon="6.29846">
        <ele>789.4</ele>
        <time>2022-06-06T09:41:36Z</time>
      </trkpt>
      <trkpt lat="44.09382" lon="6.29834">
        <ele>790.4</ele>
        <time>2022-06-06T09:41:41Z</time>
      </trkpt>
      <trkpt lat="44.09382" lon="6.29834">
        <ele>791.2</ele>
        <time>2022-06-06T09:41:47Z</time>
      </trkpt>
      <trkpt lat="44.09382" lon="6.29834">
        <ele>792.2</ele>
        <time>2022-06-06T09:41:57Z</time>
      </trkpt>
      <trkpt lat="44.09382" lon="6.29834">
        <ele>794.2</ele>
        <time>2022-06-06T09:42:16Z</time>
      </trkpt>
      <trkpt lat="44.09383" lon="6.29835">
        <ele>795.8</ele>
        <time>2022-06-06T09:42:36Z</time>
      </trkpt>
      <trkpt lat="44.09382" lon="6.29832">
        <ele>796.8</ele>
        <time>2022-06-06T09:42:49Z</time>
      </trkpt>
      <trkpt lat="44.09379" lon="6.29816">
        <ele>797.6</ele>
        <time>2022-06-06T09:42:54Z</time>
      </trkpt>
      <trkpt lat="44.09381" lon="6.29804">
        <ele>798.6</ele>
        <time>2022-06-06T09:42:59Z</time>
      </trkpt>
      <trkpt lat="44.09384" lon="6.29807">
        <ele>798.6</ele>
        <time>2022-06-06T09:43:01Z</time>
      </trkpt>
      <trkpt lat="44.09386" lon="6.29811">
        <ele>799</ele>
        <time>2022-06-06T09:43:03Z</time>
      </trkpt>
      <trkpt lat="44.09393" lon="6.29815">
        <ele>799.6</ele>
        <time>2022-06-06T09:43:08Z</time>
      </trkpt>
      <trkpt lat="44.09398" lon="6.29816">
        <ele>800</ele>
        <time>2022-06-06T09:43:11Z</time>
      </trkpt>
      <trkpt lat="44.094" lon="6.29813">
        <ele>800.2</ele>
        <time>2022-06-06T09:43:13Z</time>
      </trkpt>
      <trkpt lat="44.09402" lon="6.29809">
        <ele>800.4</ele>
        <time>2022-06-06T09:43:17Z</time>
      </trkpt>
      <trkpt lat="44.09405" lon="6.2981">
        <ele>801</ele>
        <time>2022-06-06T09:43:21Z</time>
      </trkpt>
      <trkpt lat="44.09408" lon="6.2981">
        <ele>801.2</ele>
        <time>2022-06-06T09:43:23Z</time>
      </trkpt>
      <trkpt lat="44.09412" lon="6.29808">
        <ele>801.4</ele>
        <time>2022-06-06T09:43:26Z</time>
      </trkpt>
      <trkpt lat="44.09414" lon="6.29808">
        <ele>801.4</ele>
        <time>2022-06-06T09:43:27Z</time>
      </trkpt>
      <trkpt lat="44.09419" lon="6.29807">
        <ele>801.8</ele>
        <time>2022-06-06T09:43:30Z</time>
      </trkpt>
      <trkpt lat="44.09429" lon="6.29808">
        <ele>802.6</ele>
        <time>2022-06-06T09:43:35Z</time>
      </trkpt>
      <trkpt lat="44.09438" lon="6.29812">
        <ele>803</ele>
        <time>2022-06-06T09:43:39Z</time>
      </trkpt>
      <trkpt lat="44.09443" lon="6.29811">
        <ele>803.2</ele>
        <time>2022-06-06T09:43:41Z</time>
      </trkpt>
      <trkpt lat="44.09446" lon="6.29808">
        <ele>803.4</ele>
        <time>2022-06-06T09:43:43Z</time>
      </trkpt>
      <trkpt lat="44.09447" lon="6.29805">
        <ele>803.6</ele>
        <time>2022-06-06T09:43:45Z</time>
      </trkpt>
      <trkpt lat="44.09445" lon="6.29804">
        <ele>803.6</ele>
        <time>2022-06-06T09:43:46Z</time>
      </trkpt>
      <trkpt lat="44.09435" lon="6.29796">
        <ele>804</ele>
        <time>2022-06-06T09:43:51Z</time>
      </trkpt>
      <trkpt lat="44.09433" lon="6.29797">
        <ele>804.2</ele>
        <time>2022-06-06T09:43:55Z</time>
      </trkpt>
      <trkpt lat="44.09432" lon="6.29796">
        <ele>805.4</ele>
        <time>2022-06-06T09:44:11Z</time>
      </trkpt>
      <trkpt lat="44.09431" lon="6.29789">
        <ele>805.6</ele>
        <time>2022-06-06T09:44:15Z</time>
      </trkpt>
      <trkpt lat="44.09429" lon="6.29786">
        <ele>806.2</ele>
        <time>2022-06-06T09:44:18Z</time>
      </trkpt>
      <trkpt lat="44.09426" lon="6.29783">
        <ele>806.6</ele>
        <time>2022-06-06T09:44:20Z</time>
      </trkpt>
      <trkpt lat="44.09425" lon="6.2978">
        <ele>807</ele>
        <time>2022-06-06T09:44:23Z</time>
      </trkpt>
      <trkpt lat="44.09425" lon="6.29779">
        <ele>807</ele>
        <time>2022-06-06T09:44:24Z</time>
      </trkpt>
      <trkpt lat="44.09431" lon="6.29778">
        <ele>807.4</ele>
        <time>2022-06-06T09:44:29Z</time>
      </trkpt>
      <trkpt lat="44.09433" lon="6.29777">
        <ele>807.6</ele>
        <time>2022-06-06T09:44:31Z</time>
      </trkpt>
      <trkpt lat="44.09433" lon="6.29773">
        <ele>807.8</ele>
        <time>2022-06-06T09:44:34Z</time>
      </trkpt>
      <trkpt lat="44.0943" lon="6.2977">
        <ele>808.6</ele>
        <time>2022-06-06T09:44:40Z</time>
      </trkpt>
      <trkpt lat="44.09424" lon="6.2976">
        <ele>809</ele>
        <time>2022-06-06T09:44:45Z</time>
      </trkpt>
      <trkpt lat="44.09422" lon="6.29755">
        <ele>809.2</ele>
        <time>2022-06-06T09:44:47Z</time>
      </trkpt>
      <trkpt lat="44.09423" lon="6.29748">
        <ele>809.4</ele>
        <time>2022-06-06T09:44:49Z</time>
      </trkpt>
      <trkpt lat="44.09423" lon="6.29734">
        <ele>810</ele>
        <time>2022-06-06T09:44:54Z</time>
      </trkpt>
      <trkpt lat="44.09421" lon="6.29728">
        <ele>810.4</ele>
        <time>2022-06-06T09:44:56Z</time>
      </trkpt>
      <trkpt lat="44.09417" lon="6.29722">
        <ele>810.8</ele>
        <time>2022-06-06T09:44:59Z</time>
      </trkpt>
      <trkpt lat="44.09405" lon="6.29712">
        <ele>811.8</ele>
        <time>2022-06-06T09:45:05Z</time>
      </trkpt>
      <trkpt lat="44.09404" lon="6.2971">
        <ele>812.4</ele>
        <time>2022-06-06T09:45:09Z</time>
      </trkpt>
      <trkpt lat="44.09404" lon="6.2971">
        <ele>813.2</ele>
        <time>2022-06-06T09:45:17Z</time>
      </trkpt>
      <trkpt lat="44.09404" lon="6.2971">
        <ele>814.8</ele>
        <time>2022-06-06T09:45:33Z</time>
      </trkpt>
      <trkpt lat="44.094" lon="6.29708">
        <ele>816</ele>
        <time>2022-06-06T09:45:46Z</time>
      </trkpt>
      <trkpt lat="44.09389" lon="6.29697">
        <ele>817</ele>
        <time>2022-06-06T09:45:53Z</time>
      </trkpt>
      <trkpt lat="44.09377" lon="6.29688">
        <ele>818</ele>
        <time>2022-06-06T09:45:59Z</time>
      </trkpt>
      <trkpt lat="44.09372" lon="6.29675">
        <ele>818.6</ele>
        <time>2022-06-06T09:46:04Z</time>
      </trkpt>
      <trkpt lat="44.09374" lon="6.2967">
        <ele>819</ele>
        <time>2022-06-06T09:46:06Z</time>
      </trkpt>
      <trkpt lat="44.09378" lon="6.29671">
        <ele>819.2</ele>
        <time>2022-06-06T09:46:08Z</time>
      </trkpt>
      <trkpt lat="44.09381" lon="6.29671">
        <ele>819.6</ele>
        <time>2022-06-06T09:46:10Z</time>
      </trkpt>
      <trkpt lat="44.09386" lon="6.29671">
        <ele>820</ele>
        <time>2022-06-06T09:46:12Z</time>
      </trkpt>
      <trkpt lat="44.09398" lon="6.29677">
        <ele>820.8</ele>
        <time>2022-06-06T09:46:17Z</time>
      </trkpt>
      <trkpt lat="44.09412" lon="6.29677">
        <ele>821.6</ele>
        <time>2022-06-06T09:46:23Z</time>
      </trkpt>
      <trkpt lat="44.09424" lon="6.29675">
        <ele>822.6</ele>
        <time>2022-06-06T09:46:28Z</time>
      </trkpt>
      <trkpt lat="44.09434" lon="6.29676">
        <ele>823.2</ele>
        <time>2022-06-06T09:46:33Z</time>
      </trkpt>
      <trkpt lat="44.09441" lon="6.29679">
        <ele>823.4</ele>
        <time>2022-06-06T09:46:35Z</time>
      </trkpt>
      <trkpt lat="44.09444" lon="6.29683">
        <ele>823.6</ele>
        <time>2022-06-06T09:46:36Z</time>
      </trkpt>
      <trkpt lat="44.0945" lon="6.29688">
        <ele>824.2</ele>
        <time>2022-06-06T09:46:39Z</time>
      </trkpt>
      <trkpt lat="44.09456" lon="6.29687">
        <ele>824.6</ele>
        <time>2022-06-06T09:46:42Z</time>
      </trkpt>
      <trkpt lat="44.09458" lon="6.29684">
        <ele>824.8</ele>
        <time>2022-06-06T09:46:44Z</time>
      </trkpt>
      <trkpt lat="44.09459" lon="6.29682">
        <ele>825</ele>
        <time>2022-06-06T09:46:45Z</time>
      </trkpt>
      <trkpt lat="44.09457" lon="6.29677">
        <ele>825.4</ele>
        <time>2022-06-06T09:46:47Z</time>
      </trkpt>
      <trkpt lat="44.09456" lon="6.29676">
        <ele>825.6</ele>
        <time>2022-06-06T09:46:48Z</time>
      </trkpt>
      <trkpt lat="44.09453" lon="6.29674">
        <ele>826.6</ele>
        <time>2022-06-06T09:46:55Z</time>
      </trkpt>
      <trkpt lat="44.09448" lon="6.29668">
        <ele>827.4</ele>
        <time>2022-06-06T09:47:02Z</time>
      </trkpt>
      <trkpt lat="44.09445" lon="6.2966">
        <ele>827.8</ele>
        <time>2022-06-06T09:47:05Z</time>
      </trkpt>
      <trkpt lat="44.09442" lon="6.29658">
        <ele>828.2</ele>
        <time>2022-06-06T09:47:07Z</time>
      </trkpt>
      <trkpt lat="44.09436" lon="6.29654">
        <ele>828.6</ele>
        <time>2022-06-06T09:47:10Z</time>
      </trkpt>
      <trkpt lat="44.09436" lon="6.29649">
        <ele>828.8</ele>
        <time>2022-06-06T09:47:12Z</time>
      </trkpt>
      <trkpt lat="44.09436" lon="6.29642">
        <ele>829.4</ele>
        <time>2022-06-06T09:47:16Z</time>
      </trkpt>
      <trkpt lat="44.09429" lon="6.29641">
        <ele>829.8</ele>
        <time>2022-06-06T09:47:20Z</time>
      </trkpt>
      <trkpt lat="44.09428" lon="6.29639">
        <ele>830</ele>
        <time>2022-06-06T09:47:21Z</time>
      </trkpt>
      <trkpt lat="44.09422" lon="6.29628">
        <ele>830.6</ele>
        <time>2022-06-06T09:47:26Z</time>
      </trkpt>
      <trkpt lat="44.0942" lon="6.29625">
        <ele>831</ele>
        <time>2022-06-06T09:47:28Z</time>
      </trkpt>
      <trkpt lat="44.09421" lon="6.29622">
        <ele>831.4</ele>
        <time>2022-06-06T09:47:30Z</time>
      </trkpt>
      <trkpt lat="44.09423" lon="6.29622">
        <ele>831.4</ele>
        <time>2022-06-06T09:47:31Z</time>
      </trkpt>
      <trkpt lat="44.09431" lon="6.29622">
        <ele>832</ele>
        <time>2022-06-06T09:47:35Z</time>
      </trkpt>
      <trkpt lat="44.09435" lon="6.29622">
        <ele>832.2</ele>
        <time>2022-06-06T09:47:37Z</time>
      </trkpt>
      <trkpt lat="44.09439" lon="6.29621">
        <ele>832.6</ele>
        <time>2022-06-06T09:47:39Z</time>
      </trkpt>
      <trkpt lat="44.09441" lon="6.29616">
        <ele>832.8</ele>
        <time>2022-06-06T09:47:41Z</time>
      </trkpt>
      <trkpt lat="44.0944" lon="6.29612">
        <ele>833</ele>
        <time>2022-06-06T09:47:43Z</time>
      </trkpt>
      <trkpt lat="44.0944" lon="6.2961">
        <ele>833.2</ele>
        <time>2022-06-06T09:47:44Z</time>
      </trkpt>
      <trkpt lat="44.09443" lon="6.29607">
        <ele>833.4</ele>
        <time>2022-06-06T09:47:47Z</time>
      </trkpt>
      <trkpt lat="44.09449" lon="6.29598">
        <ele>834</ele>
        <time>2022-06-06T09:47:52Z</time>
      </trkpt>
      <trkpt lat="44.0945" lon="6.29596">
        <ele>834.4</ele>
        <time>2022-06-06T09:47:53Z</time>
      </trkpt>
      <trkpt lat="44.09449" lon="6.2959">
        <ele>835</ele>
        <time>2022-06-06T09:47:56Z</time>
      </trkpt>
      <trkpt lat="44.09452" lon="6.29589">
        <ele>835.2</ele>
        <time>2022-06-06T09:47:58Z</time>
      </trkpt>
      <trkpt lat="44.09456" lon="6.2959">
        <ele>835.8</ele>
        <time>2022-06-06T09:48:00Z</time>
      </trkpt>
      <trkpt lat="44.09459" lon="6.29588">
        <ele>836.4</ele>
        <time>2022-06-06T09:48:02Z</time>
      </trkpt>
      <trkpt lat="44.09459" lon="6.29584">
        <ele>836.8</ele>
        <time>2022-06-06T09:48:04Z</time>
      </trkpt>
      <trkpt lat="44.09457" lon="6.29582">
        <ele>837.8</ele>
        <time>2022-06-06T09:48:09Z</time>
      </trkpt>
      <trkpt lat="44.09457" lon="6.29582">
        <ele>840</ele>
        <time>2022-06-06T09:48:26Z</time>
      </trkpt>
      <trkpt lat="44.09455" lon="6.29581">
        <ele>841</ele>
        <time>2022-06-06T09:48:31Z</time>
      </trkpt>
      <trkpt lat="44.09454" lon="6.29577">
        <ele>841.4</ele>
        <time>2022-06-06T09:48:33Z</time>
      </trkpt>
      <trkpt lat="44.09454" lon="6.2957">
        <ele>842</ele>
        <time>2022-06-06T09:48:36Z</time>
      </trkpt>
      <trkpt lat="44.09461" lon="6.29561">
        <ele>842.8</ele>
        <time>2022-06-06T09:48:41Z</time>
      </trkpt>
      <trkpt lat="44.09465" lon="6.2956">
        <ele>843.2</ele>
        <time>2022-06-06T09:48:43Z</time>
      </trkpt>
      <trkpt lat="44.09471" lon="6.29562">
        <ele>843.6</ele>
        <time>2022-06-06T09:48:46Z</time>
      </trkpt>
      <trkpt lat="44.09483" lon="6.29573">
        <ele>844.6</ele>
        <time>2022-06-06T09:48:52Z</time>
      </trkpt>
      <trkpt lat="44.09492" lon="6.2957">
        <ele>845.2</ele>
        <time>2022-06-06T09:48:56Z</time>
      </trkpt>
      <trkpt lat="44.09495" lon="6.29569">
        <ele>845.4</ele>
        <time>2022-06-06T09:48:58Z</time>
      </trkpt>
      <trkpt lat="44.09499" lon="6.2957">
        <ele>845.8</ele>
        <time>2022-06-06T09:49:00Z</time>
      </trkpt>
      <trkpt lat="44.09499" lon="6.29571">
        <ele>845.8</ele>
        <time>2022-06-06T09:49:01Z</time>
      </trkpt>
      <trkpt lat="44.09504" lon="6.29581">
        <ele>846</ele>
        <time>2022-06-06T09:49:04Z</time>
      </trkpt>
      <trkpt lat="44.09507" lon="6.29584">
        <ele>846</ele>
        <time>2022-06-06T09:49:05Z</time>
      </trkpt>
      <trkpt lat="44.09513" lon="6.29586">
        <ele>846.2</ele>
        <time>2022-06-06T09:49:07Z</time>
      </trkpt>
      <trkpt lat="44.09523" lon="6.2958">
        <ele>846.6</ele>
        <time>2022-06-06T09:49:12Z</time>
      </trkpt>
      <trkpt lat="44.09536" lon="6.29575">
        <ele>847.4</ele>
        <time>2022-06-06T09:49:18Z</time>
      </trkpt>
      <trkpt lat="44.09547" lon="6.29565">
        <ele>848.4</ele>
        <time>2022-06-06T09:49:23Z</time>
      </trkpt>
      <trkpt lat="44.09559" lon="6.29551">
        <ele>849.6</ele>
        <time>2022-06-06T09:49:29Z</time>
      </trkpt>
      <trkpt lat="44.09571" lon="6.29537">
        <ele>851</ele>
        <time>2022-06-06T09:49:35Z</time>
      </trkpt>
      <trkpt lat="44.09582" lon="6.29516">
        <ele>852.8</ele>
        <time>2022-06-06T09:49:42Z</time>
      </trkpt>
      <trkpt lat="44.09591" lon="6.29501">
        <ele>854.6</ele>
        <time>2022-06-06T09:49:49Z</time>
      </trkpt>
      <trkpt lat="44.09596" lon="6.29497">
        <ele>855.8</ele>
        <time>2022-06-06T09:49:54Z</time>
      </trkpt>
      <trkpt lat="44.09596" lon="6.29497">
        <ele>859</ele>
        <time>2022-06-06T09:50:12Z</time>
      </trkpt>
      <trkpt lat="44.09596" lon="6.29497">
        <ele>861.6</ele>
        <time>2022-06-06T09:50:28Z</time>
      </trkpt>
      <trkpt lat="44.09596" lon="6.29497">
        <ele>863.6</ele>
        <time>2022-06-06T09:50:44Z</time>
      </trkpt>
      <trkpt lat="44.09596" lon="6.29497">
        <ele>865</ele>
        <time>2022-06-06T09:50:57Z</time>
      </trkpt>
      <trkpt lat="44.09596" lon="6.29496">
        <ele>866.8</ele>
        <time>2022-06-06T09:51:16Z</time>
      </trkpt>
      <trkpt lat="44.09596" lon="6.29496">
        <ele>867.6</ele>
        <time>2022-06-06T09:51:27Z</time>
      </trkpt>
      <trkpt lat="44.096" lon="6.29494">
        <ele>867.8</ele>
        <time>2022-06-06T09:51:30Z</time>
      </trkpt>
      <trkpt lat="44.09602" lon="6.29493">
        <ele>867.8</ele>
        <time>2022-06-06T09:51:31Z</time>
      </trkpt>
      <trkpt lat="44.0961" lon="6.29489">
        <ele>868.2</ele>
        <time>2022-06-06T09:51:35Z</time>
      </trkpt>
      <trkpt lat="44.09615" lon="6.29491">
        <ele>868.4</ele>
        <time>2022-06-06T09:51:37Z</time>
      </trkpt>
      <trkpt lat="44.09616" lon="6.2949">
        <ele>868.4</ele>
        <time>2022-06-06T09:51:38Z</time>
      </trkpt>
      <trkpt lat="44.09623" lon="6.29489">
        <ele>868.8</ele>
        <time>2022-06-06T09:51:42Z</time>
      </trkpt>
      <trkpt lat="44.09633" lon="6.29486">
        <ele>869.8</ele>
        <time>2022-06-06T09:51:48Z</time>
      </trkpt>
      <trkpt lat="44.09651" lon="6.29477">
        <ele>871</ele>
        <time>2022-06-06T09:51:58Z</time>
      </trkpt>
      <trkpt lat="44.09661" lon="6.29468">
        <ele>872.2</ele>
        <time>2022-06-06T09:52:04Z</time>
      </trkpt>
      <trkpt lat="44.09672" lon="6.29457">
        <ele>873.4</ele>
        <time>2022-06-06T09:52:11Z</time>
      </trkpt>
      <trkpt lat="44.09686" lon="6.29443">
        <ele>874.8</ele>
        <time>2022-06-06T09:52:20Z</time>
      </trkpt>
      <trkpt lat="44.09691" lon="6.29439">
        <ele>875.4</ele>
        <time>2022-06-06T09:52:23Z</time>
      </trkpt>
      <trkpt lat="44.09697" lon="6.29437">
        <ele>875.8</ele>
        <time>2022-06-06T09:52:26Z</time>
      </trkpt>
      <trkpt lat="44.09704" lon="6.29433">
        <ele>876.4</ele>
        <time>2022-06-06T09:52:29Z</time>
      </trkpt>
      <trkpt lat="44.09706" lon="6.29434">
        <ele>876.4</ele>
        <time>2022-06-06T09:52:30Z</time>
      </trkpt>
      <trkpt lat="44.0971" lon="6.29438">
        <ele>876.8</ele>
        <time>2022-06-06T09:52:32Z</time>
      </trkpt>
      <trkpt lat="44.09714" lon="6.2944">
        <ele>877.2</ele>
        <time>2022-06-06T09:52:34Z</time>
      </trkpt>
      <trkpt lat="44.09716" lon="6.29442">
        <ele>877.4</ele>
        <time>2022-06-06T09:52:35Z</time>
      </trkpt>
      <trkpt lat="44.09717" lon="6.29444">
        <ele>877.6</ele>
        <time>2022-06-06T09:52:36Z</time>
      </trkpt>
      <trkpt lat="44.09719" lon="6.29448">
        <ele>878</ele>
        <time>2022-06-06T09:52:38Z</time>
      </trkpt>
      <trkpt lat="44.0972" lon="6.29449">
        <ele>878.2</ele>
        <time>2022-06-06T09:52:39Z</time>
      </trkpt>
      <trkpt lat="44.09727" lon="6.29457">
        <ele>879</ele>
        <time>2022-06-06T09:52:44Z</time>
      </trkpt>
      <trkpt lat="44.09735" lon="6.29469">
        <ele>879.8</ele>
        <time>2022-06-06T09:52:49Z</time>
      </trkpt>
      <trkpt lat="44.09738" lon="6.29473">
        <ele>880.4</ele>
        <time>2022-06-06T09:52:53Z</time>
      </trkpt>
      <trkpt lat="44.09739" lon="6.29473">
        <ele>881.6</ele>
        <time>2022-06-06T09:53:02Z</time>
      </trkpt>
      <trkpt lat="44.09741" lon="6.29474">
        <ele>881.6</ele>
        <time>2022-06-06T09:53:03Z</time>
      </trkpt>
      <trkpt lat="44.09745" lon="6.29475">
        <ele>881.8</ele>
        <time>2022-06-06T09:53:05Z</time>
      </trkpt>
      <trkpt lat="44.09753" lon="6.29474">
        <ele>882.2</ele>
        <time>2022-06-06T09:53:08Z</time>
      </trkpt>
      <trkpt lat="44.09763" lon="6.29469">
        <ele>882.8</ele>
        <time>2022-06-06T09:53:12Z</time>
      </trkpt>
      <trkpt lat="44.09765" lon="6.29468">
        <ele>882.8</ele>
        <time>2022-06-06T09:53:13Z</time>
      </trkpt>
      <trkpt lat="44.09777" lon="6.29464">
        <ele>883</ele>
        <time>2022-06-06T09:53:16Z</time>
      </trkpt>
      <trkpt lat="44.09782" lon="6.29462">
        <ele>883.2</ele>
        <time>2022-06-06T09:53:17Z</time>
      </trkpt>
      <trkpt lat="44.09795" lon="6.29452">
        <ele>883.4</ele>
        <time>2022-06-06T09:53:20Z</time>
      </trkpt>
      <trkpt lat="44.09803" lon="6.29447">
        <ele>883.6</ele>
        <time>2022-06-06T09:53:22Z</time>
      </trkpt>
      <trkpt lat="44.09816" lon="6.29441">
        <ele>884</ele>
        <time>2022-06-06T09:53:26Z</time>
      </trkpt>
      <trkpt lat="44.09834" lon="6.29437">
        <ele>884.4</ele>
        <time>2022-06-06T09:53:31Z</time>
      </trkpt>
      <trkpt lat="44.09837" lon="6.29437">
        <ele>884.6</ele>
        <time>2022-06-06T09:53:32Z</time>
      </trkpt>
      <trkpt lat="44.09846" lon="6.29436">
        <ele>884.6</ele>
        <time>2022-06-06T09:53:34Z</time>
      </trkpt>
      <trkpt lat="44.09851" lon="6.29436">
        <ele>884.6</ele>
        <time>2022-06-06T09:53:35Z</time>
      </trkpt>
      <trkpt lat="44.09856" lon="6.29435">
        <ele>884.8</ele>
        <time>2022-06-06T09:53:36Z</time>
      </trkpt>
      <trkpt lat="44.09865" lon="6.29432">
        <ele>884.8</ele>
        <time>2022-06-06T09:53:38Z</time>
      </trkpt>
      <trkpt lat="44.09873" lon="6.29429">
        <ele>885</ele>
        <time>2022-06-06T09:53:40Z</time>
      </trkpt>
      <trkpt lat="44.09889" lon="6.29428">
        <ele>885.2</ele>
        <time>2022-06-06T09:53:44Z</time>
      </trkpt>
      <trkpt lat="44.099" lon="6.29424">
        <ele>885.6</ele>
        <time>2022-06-06T09:53:47Z</time>
      </trkpt>
      <trkpt lat="44.09903" lon="6.29426">
        <ele>885.6</ele>
        <time>2022-06-06T09:53:48Z</time>
      </trkpt>
      <trkpt lat="44.09908" lon="6.29437">
        <ele>886</ele>
        <time>2022-06-06T09:53:51Z</time>
      </trkpt>
      <trkpt lat="44.09905" lon="6.29453">
        <ele>886.4</ele>
        <time>2022-06-06T09:53:55Z</time>
      </trkpt>
      <trkpt lat="44.09901" lon="6.29479">
        <ele>887</ele>
        <time>2022-06-06T09:54:02Z</time>
      </trkpt>
      <trkpt lat="44.09894" lon="6.295">
        <ele>887.4</ele>
        <time>2022-06-06T09:54:08Z</time>
      </trkpt>
      <trkpt lat="44.09886" lon="6.29518">
        <ele>887.8</ele>
        <time>2022-06-06T09:54:14Z</time>
      </trkpt>
      <trkpt lat="44.09885" lon="6.29532">
        <ele>888.2</ele>
        <time>2022-06-06T09:54:18Z</time>
      </trkpt>
      <trkpt lat="44.09887" lon="6.29547">
        <ele>888.6</ele>
        <time>2022-06-06T09:54:22Z</time>
      </trkpt>
      <trkpt lat="44.09886" lon="6.29559">
        <ele>889.4</ele>
        <time>2022-06-06T09:54:27Z</time>
      </trkpt>
      <trkpt lat="44.09886" lon="6.29559">
        <ele>890</ele>
        <time>2022-06-06T09:54:35Z</time>
      </trkpt>
      <trkpt lat="44.09886" lon="6.29559">
        <ele>890.8</ele>
        <time>2022-06-06T09:54:48Z</time>
      </trkpt>
      <trkpt lat="44.09886" lon="6.29559">
        <ele>891.8</ele>
        <time>2022-06-06T09:55:02Z</time>
      </trkpt>
      <trkpt lat="44.09885" lon="6.29567">
        <ele>892.2</ele>
        <time>2022-06-06T09:55:09Z</time>
      </trkpt>
      <trkpt lat="44.09884" lon="6.29581">
        <ele>892.2</ele>
        <time>2022-06-06T09:55:12Z</time>
      </trkpt>
      <trkpt lat="44.09888" lon="6.2959">
        <ele>892.2</ele>
        <time>2022-06-06T09:55:14Z</time>
      </trkpt>
      <trkpt lat="44.09896" lon="6.29608">
        <ele>892.6</ele>
        <time>2022-06-06T09:55:18Z</time>
      </trkpt>
      <trkpt lat="44.09909" lon="6.29628">
        <ele>893</ele>
        <time>2022-06-06T09:55:24Z</time>
      </trkpt>
      <trkpt lat="44.0992" lon="6.29642">
        <ele>893.2</ele>
        <time>2022-06-06T09:55:29Z</time>
      </trkpt>
      <trkpt lat="44.09922" lon="6.29643">
        <ele>893.2</ele>
        <time>2022-06-06T09:55:30Z</time>
      </trkpt>
      <trkpt lat="44.09928" lon="6.29647">
        <ele>893.2</ele>
        <time>2022-06-06T09:55:33Z</time>
      </trkpt>
      <trkpt lat="44.09935" lon="6.29657">
        <ele>893</ele>
        <time>2022-06-06T09:55:37Z</time>
      </trkpt>
      <trkpt lat="44.0994" lon="6.29669">
        <ele>893</ele>
        <time>2022-06-06T09:55:41Z</time>
      </trkpt>
      <trkpt lat="44.09952" lon="6.29683">
        <ele>893.6</ele>
        <time>2022-06-06T09:55:45Z</time>
      </trkpt>
      <trkpt lat="44.09955" lon="6.29686">
        <ele>893.8</ele>
        <time>2022-06-06T09:55:46Z</time>
      </trkpt>
      <trkpt lat="44.09961" lon="6.29687">
        <ele>894</ele>
        <time>2022-06-06T09:55:48Z</time>
      </trkpt>
      <trkpt lat="44.09963" lon="6.29688">
        <ele>894.2</ele>
        <time>2022-06-06T09:55:49Z</time>
      </trkpt>
      <trkpt lat="44.09969" lon="6.2969">
        <ele>895.2</ele>
        <time>2022-06-06T09:55:54Z</time>
      </trkpt>
      <trkpt lat="44.09969" lon="6.29689">
        <ele>895.6</ele>
        <time>2022-06-06T09:56:03Z</time>
      </trkpt>
      <trkpt lat="44.09977" lon="6.29687">
        <ele>895.8</ele>
        <time>2022-06-06T09:56:07Z</time>
      </trkpt>
      <trkpt lat="44.09987" lon="6.29684">
        <ele>896</ele>
        <time>2022-06-06T09:56:11Z</time>
      </trkpt>
      <trkpt lat="44.09996" lon="6.29687">
        <ele>896.6</ele>
        <time>2022-06-06T09:56:15Z</time>
      </trkpt>
      <trkpt lat="44.1" lon="6.29688">
        <ele>897.6</ele>
        <time>2022-06-06T09:56:20Z</time>
      </trkpt>
      <trkpt lat="44.1" lon="6.29688">
        <ele>898.8</ele>
        <time>2022-06-06T09:56:37Z</time>
      </trkpt>
      <trkpt lat="44.1" lon="6.29688">
        <ele>900.4</ele>
        <time>2022-06-06T09:56:58Z</time>
      </trkpt>
      <trkpt lat="44.10001" lon="6.29688">
        <ele>901.6</ele>
        <time>2022-06-06T09:57:21Z</time>
      </trkpt>
      <trkpt lat="44.10001" lon="6.29688">
        <ele>902.8</ele>
        <time>2022-06-06T09:57:46Z</time>
      </trkpt>
      <trkpt lat="44.10001" lon="6.29688">
        <ele>903.4</ele>
        <time>2022-06-06T09:58:06Z</time>
      </trkpt>
      <trkpt lat="44.10001" lon="6.29688">
        <ele>904</ele>
        <time>2022-06-06T09:58:26Z</time>
      </trkpt>
      <trkpt lat="44.10001" lon="6.29688">
        <ele>904.4</ele>
        <time>2022-06-06T09:58:47Z</time>
      </trkpt>
      <trkpt lat="44.10001" lon="6.29688">
        <ele>904.8</ele>
        <time>2022-06-06T09:59:06Z</time>
      </trkpt>
      <trkpt lat="44.10001" lon="6.29688">
        <ele>905</ele>
        <time>2022-06-06T09:59:23Z</time>
      </trkpt>
      <trkpt lat="44.10001" lon="6.29689">
        <ele>905.2</ele>
        <time>2022-06-06T09:59:43Z</time>
      </trkpt>
      <trkpt lat="44.10001" lon="6.29689">
        <ele>905.4</ele>
        <time>2022-06-06T10:00:03Z</time>
      </trkpt>
      <trkpt lat="44.10001" lon="6.29688">
        <ele>905.6</ele>
        <time>2022-06-06T10:00:27Z</time>
      </trkpt>
      <trkpt lat="44.10001" lon="6.29688">
        <ele>905.8</ele>
        <time>2022-06-06T10:00:48Z</time>
      </trkpt>
      <trkpt lat="44.10002" lon="6.29688">
        <ele>906</ele>
        <time>2022-06-06T10:01:07Z</time>
      </trkpt>
      <trkpt lat="44.10002" lon="6.29688">
        <ele>906.2</ele>
        <time>2022-06-06T10:01:26Z</time>
      </trkpt>
      <trkpt lat="44.10003" lon="6.29689">
        <ele>906.6</ele>
        <time>2022-06-06T10:01:49Z</time>
      </trkpt>
      <trkpt lat="44.10003" lon="6.29689">
        <ele>906.8</ele>
        <time>2022-06-06T10:02:10Z</time>
      </trkpt>
      <trkpt lat="44.10003" lon="6.29688">
        <ele>907.2</ele>
        <time>2022-06-06T10:02:31Z</time>
      </trkpt>
      <trkpt lat="44.10003" lon="6.29688">
        <ele>907.4</ele>
        <time>2022-06-06T10:02:49Z</time>
      </trkpt>
      <trkpt lat="44.10003" lon="6.29688">
        <ele>907.6</ele>
        <time>2022-06-06T10:03:10Z</time>
      </trkpt>
      <trkpt lat="44.10003" lon="6.29688">
        <ele>908</ele>
        <time>2022-06-06T10:03:34Z</time>
      </trkpt>
      <trkpt lat="44.10003" lon="6.29689">
        <ele>908.2</ele>
        <time>2022-06-06T10:03:51Z</time>
      </trkpt>
      <trkpt lat="44.10003" lon="6.29689">
        <ele>908.4</ele>
        <time>2022-06-06T10:04:13Z</time>
      </trkpt>
      <trkpt lat="44.10003" lon="6.29689">
        <ele>908.6</ele>
        <time>2022-06-06T10:04:35Z</time>
      </trkpt>
      <trkpt lat="44.10003" lon="6.29689">
        <ele>908.8</ele>
        <time>2022-06-06T10:04:53Z</time>
      </trkpt>
      <trkpt lat="44.10002" lon="6.29689">
        <ele>909</ele>
        <time>2022-06-06T10:05:13Z</time>
      </trkpt>
      <trkpt lat="44.10002" lon="6.29689">
        <ele>909</ele>
        <time>2022-06-06T10:05:34Z</time>
      </trkpt>
      <trkpt lat="44.10002" lon="6.29689">
        <ele>909.2</ele>
        <time>2022-06-06T10:05:51Z</time>
      </trkpt>
      <trkpt lat="44.10002" lon="6.29689">
        <ele>909.2</ele>
        <time>2022-06-06T10:06:08Z</time>
      </trkpt>
      <trkpt lat="44.10002" lon="6.29689">
        <ele>909.4</ele>
        <time>2022-06-06T10:06:23Z</time>
      </trkpt>
      <trkpt lat="44.10002" lon="6.29689">
        <ele>909.4</ele>
        <time>2022-06-06T10:06:41Z</time>
      </trkpt>
      <trkpt lat="44.10002" lon="6.29689">
        <ele>909.4</ele>
        <time>2022-06-06T10:07:00Z</time>
      </trkpt>
      <trkpt lat="44.10002" lon="6.29689">
        <ele>909.6</ele>
        <time>2022-06-06T10:07:22Z</time>
      </trkpt>
      <trkpt lat="44.10002" lon="6.29689">
        <ele>909.6</ele>
        <time>2022-06-06T10:07:42Z</time>
      </trkpt>
      <trkpt lat="44.10002" lon="6.29689">
        <ele>909.8</ele>
        <time>2022-06-06T10:08:04Z</time>
      </trkpt>
      <trkpt lat="44.10002" lon="6.29689">
        <ele>910</ele>
        <time>2022-06-06T10:08:23Z</time>
      </trkpt>
      <trkpt lat="44.10002" lon="6.29689">
        <ele>910</ele>
        <time>2022-06-06T10:08:40Z</time>
      </trkpt>
      <trkpt lat="44.10003" lon="6.2969">
        <ele>910.2</ele>
        <time>2022-06-06T10:09:00Z</time>
      </trkpt>
      <trkpt lat="44.10003" lon="6.2969">
        <ele>910.2</ele>
        <time>2022-06-06T10:09:20Z</time>
      </trkpt>
      <trkpt lat="44.10004" lon="6.2969">
        <ele>910.4</ele>
        <time>2022-06-06T10:09:39Z</time>
      </trkpt>
      <trkpt lat="44.10004" lon="6.2969">
        <ele>910.6</ele>
        <time>2022-06-06T10:09:59Z</time>
      </trkpt>
      <trkpt lat="44.10003" lon="6.2969">
        <ele>910.6</ele>
        <time>2022-06-06T10:10:19Z</time>
      </trkpt>
      <trkpt lat="44.10003" lon="6.2969">
        <ele>910.6</ele>
        <time>2022-06-06T10:10:38Z</time>
      </trkpt>
      <trkpt lat="44.10003" lon="6.2969">
        <ele>910.8</ele>
        <time>2022-06-06T10:11:03Z</time>
      </trkpt>
      <trkpt lat="44.10003" lon="6.2969">
        <ele>910.8</ele>
        <time>2022-06-06T10:11:19Z</time>
      </trkpt>
      <trkpt lat="44.10003" lon="6.2969">
        <ele>911</ele>
        <time>2022-06-06T10:11:42Z</time>
      </trkpt>
      <trkpt lat="44.10003" lon="6.2969">
        <ele>911.2</ele>
        <time>2022-06-06T10:12:02Z</time>
      </trkpt>
      <trkpt lat="44.10002" lon="6.29689">
        <ele>911.4</ele>
        <time>2022-06-06T10:12:24Z</time>
      </trkpt>
      <trkpt lat="44.10002" lon="6.29689">
        <ele>911.6</ele>
        <time>2022-06-06T10:12:46Z</time>
      </trkpt>
      <trkpt lat="44.10002" lon="6.29689">
        <ele>911.8</ele>
        <time>2022-06-06T10:13:05Z</time>
      </trkpt>
      <trkpt lat="44.10002" lon="6.29689">
        <ele>912</ele>
        <time>2022-06-06T10:13:24Z</time>
      </trkpt>
      <trkpt lat="44.10002" lon="6.29689">
        <ele>912.2</ele>
        <time>2022-06-06T10:13:45Z</time>
      </trkpt>
      <trkpt lat="44.10002" lon="6.29689">
        <ele>912.4</ele>
        <time>2022-06-06T10:14:06Z</time>
      </trkpt>
      <trkpt lat="44.10002" lon="6.29689">
        <ele>912.6</ele>
        <time>2022-06-06T10:14:29Z</time>
      </trkpt>
      <trkpt lat="44.10002" lon="6.29689">
        <ele>912.8</ele>
        <time>2022-06-06T10:14:50Z</time>
      </trkpt>
      <trkpt lat="44.10002" lon="6.29688">
        <ele>912.8</ele>
        <time>2022-06-06T10:15:07Z</time>
      </trkpt>
      <trkpt lat="44.10002" lon="6.29688">
        <ele>913</ele>
        <time>2022-06-06T10:15:27Z</time>
      </trkpt>
      <trkpt lat="44.10002" lon="6.29688">
        <ele>913</ele>
        <time>2022-06-06T10:15:49Z</time>
      </trkpt>
      <trkpt lat="44.10002" lon="6.29688">
        <ele>913.2</ele>
        <time>2022-06-06T10:16:06Z</time>
      </trkpt>
      <trkpt lat="44.10002" lon="6.29688">
        <ele>913.4</ele>
        <time>2022-06-06T10:16:25Z</time>
      </trkpt>
      <trkpt lat="44.10002" lon="6.29688">
        <ele>913.4</ele>
        <time>2022-06-06T10:16:45Z</time>
      </trkpt>
      <trkpt lat="44.10002" lon="6.29689">
        <ele>913.6</ele>
        <time>2022-06-06T10:17:05Z</time>
      </trkpt>
      <trkpt lat="44.10002" lon="6.29689">
        <ele>913.6</ele>
        <time>2022-06-06T10:17:28Z</time>
      </trkpt>
      <trkpt lat="44.10002" lon="6.29688">
        <ele>913.8</ele>
        <time>2022-06-06T10:17:49Z</time>
      </trkpt>
      <trkpt lat="44.10002" lon="6.29688">
        <ele>913.8</ele>
        <time>2022-06-06T10:18:11Z</time>
      </trkpt>
      <trkpt lat="44.10002" lon="6.29689">
        <ele>914</ele>
        <time>2022-06-06T10:18:32Z</time>
      </trkpt>
      <trkpt lat="44.10002" lon="6.29689">
        <ele>914</ele>
        <time>2022-06-06T10:18:51Z</time>
      </trkpt>
      <trkpt lat="44.10002" lon="6.29688">
        <ele>914.2</ele>
        <time>2022-06-06T10:19:09Z</time>
      </trkpt>
      <trkpt lat="44.10002" lon="6.29688">
        <ele>914.4</ele>
        <time>2022-06-06T10:19:26Z</time>
      </trkpt>
      <trkpt lat="44.10002" lon="6.29688">
        <ele>914.4</ele>
        <time>2022-06-06T10:19:44Z</time>
      </trkpt>
      <trkpt lat="44.10002" lon="6.29688">
        <ele>914.6</ele>
        <time>2022-06-06T10:20:04Z</time>
      </trkpt>
      <trkpt lat="44.10002" lon="6.29688">
        <ele>914.6</ele>
        <time>2022-06-06T10:20:21Z</time>
      </trkpt>
      <trkpt lat="44.10002" lon="6.29688">
        <ele>914.8</ele>
        <time>2022-06-06T10:20:39Z</time>
      </trkpt>
      <trkpt lat="44.10002" lon="6.29688">
        <ele>914.8</ele>
        <time>2022-06-06T10:21:00Z</time>
      </trkpt>
      <trkpt lat="44.10002" lon="6.29688">
        <ele>915</ele>
        <time>2022-06-06T10:21:20Z</time>
      </trkpt>
      <trkpt lat="44.10002" lon="6.29688">
        <ele>915</ele>
        <time>2022-06-06T10:21:41Z</time>
      </trkpt>
      <trkpt lat="44.10002" lon="6.29688">
        <ele>915.2</ele>
        <time>2022-06-06T10:22:02Z</time>
      </trkpt>
      <trkpt lat="44.10002" lon="6.29688">
        <ele>915.4</ele>
        <time>2022-06-06T10:22:19Z</time>
      </trkpt>
      <trkpt lat="44.10002" lon="6.29688">
        <ele>915.4</ele>
        <time>2022-06-06T10:22:40Z</time>
      </trkpt>
      <trkpt lat="44.10003" lon="6.29687">
        <ele>916</ele>
        <time>2022-06-06T10:22:52Z</time>
      </trkpt>
      <trkpt lat="44.10003" lon="6.29687">
        <ele>916.2</ele>
        <time>2022-06-06T10:23:08Z</time>
      </trkpt>
      <trkpt lat="44.10005" lon="6.29688">
        <ele>916.4</ele>
        <time>2022-06-06T10:23:17Z</time>
      </trkpt>
      <trkpt lat="44.10011" lon="6.2969">
        <ele>916.2</ele>
        <time>2022-06-06T10:23:21Z</time>
      </trkpt>
      <trkpt lat="44.10011" lon="6.2969">
        <ele>916.2</ele>
        <time>2022-06-06T10:23:32Z</time>
      </trkpt>
      <trkpt lat="44.10011" lon="6.2969">
        <ele>916.4</ele>
        <time>2022-06-06T10:23:48Z</time>
      </trkpt>
      <trkpt lat="44.10011" lon="6.2969">
        <ele>916.4</ele>
        <time>2022-06-06T10:24:00Z</time>
      </trkpt>
      <trkpt lat="44.10011" lon="6.2969">
        <ele>916.4</ele>
        <time>2022-06-06T10:24:18Z</time>
      </trkpt>
      <trkpt lat="44.10011" lon="6.2969">
        <ele>916.6</ele>
        <time>2022-06-06T10:24:31Z</time>
      </trkpt>
      <trkpt lat="44.10011" lon="6.29691">
        <ele>916.6</ele>
        <time>2022-06-06T10:24:51Z</time>
      </trkpt>
      <trkpt lat="44.10011" lon="6.29691">
        <ele>916.6</ele>
        <time>2022-06-06T10:25:05Z</time>
      </trkpt>
      <trkpt lat="44.10011" lon="6.2969">
        <ele>916.6</ele>
        <time>2022-06-06T10:25:21Z</time>
      </trkpt>
      <trkpt lat="44.10011" lon="6.2969">
        <ele>916.6</ele>
        <time>2022-06-06T10:25:38Z</time>
      </trkpt>
      <trkpt lat="44.10013" lon="6.29689">
        <ele>916.6</ele>
        <time>2022-06-06T10:25:43Z</time>
      </trkpt>
      <trkpt lat="44.10014" lon="6.29689">
        <ele>916.6</ele>
        <time>2022-06-06T10:25:50Z</time>
      </trkpt>
      <trkpt lat="44.10015" lon="6.2969">
        <ele>916.4</ele>
        <time>2022-06-06T10:25:58Z</time>
      </trkpt>
      <trkpt lat="44.10018" lon="6.29692">
        <ele>916.4</ele>
        <time>2022-06-06T10:26:00Z</time>
      </trkpt>
      <trkpt lat="44.10026" lon="6.29695">
        <ele>915.8</ele>
        <time>2022-06-06T10:26:03Z</time>
      </trkpt>
      <trkpt lat="44.10027" lon="6.29694">
        <ele>915.6</ele>
        <time>2022-06-06T10:26:04Z</time>
      </trkpt>
      <trkpt lat="44.10033" lon="6.2969">
        <ele>915</ele>
        <time>2022-06-06T10:26:07Z</time>
      </trkpt>
      <trkpt lat="44.10044" lon="6.29688">
        <ele>913.8</ele>
        <time>2022-06-06T10:26:11Z</time>
      </trkpt>
      <trkpt lat="44.10048" lon="6.29687">
        <ele>913.4</ele>
        <time>2022-06-06T10:26:13Z</time>
      </trkpt>
      <trkpt lat="44.10054" lon="6.29689">
        <ele>912.8</ele>
        <time>2022-06-06T10:26:15Z</time>
      </trkpt>
      <trkpt lat="44.10057" lon="6.2969">
        <ele>912.6</ele>
        <time>2022-06-06T10:26:16Z</time>
      </trkpt>
      <trkpt lat="44.10062" lon="6.29688">
        <ele>912</ele>
        <time>2022-06-06T10:26:19Z</time>
      </trkpt>
      <trkpt lat="44.10065" lon="6.29685">
        <ele>911.6</ele>
        <time>2022-06-06T10:26:21Z</time>
      </trkpt>
      <trkpt lat="44.10067" lon="6.29682">
        <ele>911.4</ele>
        <time>2022-06-06T10:26:22Z</time>
      </trkpt>
      <trkpt lat="44.10069" lon="6.2968">
        <ele>911.4</ele>
        <time>2022-06-06T10:26:23Z</time>
      </trkpt>
      <trkpt lat="44.10073" lon="6.29677">
        <ele>911</ele>
        <time>2022-06-06T10:26:25Z</time>
      </trkpt>
      <trkpt lat="44.10075" lon="6.29677">
        <ele>910.6</ele>
        <time>2022-06-06T10:26:26Z</time>
      </trkpt>
      <trkpt lat="44.10081" lon="6.29676">
        <ele>909.6</ele>
        <time>2022-06-06T10:26:29Z</time>
      </trkpt>
      <trkpt lat="44.10085" lon="6.29676">
        <ele>908.8</ele>
        <time>2022-06-06T10:26:31Z</time>
      </trkpt>
      <trkpt lat="44.10086" lon="6.29678">
        <ele>908.2</ele>
        <time>2022-06-06T10:26:33Z</time>
      </trkpt>
      <trkpt lat="44.10087" lon="6.29678">
        <ele>907.4</ele>
        <time>2022-06-06T10:26:37Z</time>
      </trkpt>
      <trkpt lat="44.10088" lon="6.29678">
        <ele>906.8</ele>
        <time>2022-06-06T10:26:41Z</time>
      </trkpt>
      <trkpt lat="44.10089" lon="6.29679">
        <ele>906.6</ele>
        <time>2022-06-06T10:26:42Z</time>
      </trkpt>
      <trkpt lat="44.1009" lon="6.2968">
        <ele>906</ele>
        <time>2022-06-06T10:26:47Z</time>
      </trkpt>
      <trkpt lat="44.10092" lon="6.29681">
        <ele>904.8</ele>
        <time>2022-06-06T10:26:55Z</time>
      </trkpt>
      <trkpt lat="44.10092" lon="6.29684">
        <ele>904.8</ele>
        <time>2022-06-06T10:26:56Z</time>
      </trkpt>
      <trkpt lat="44.1009" lon="6.29691">
        <ele>904.6</ele>
        <time>2022-06-06T10:26:59Z</time>
      </trkpt>
      <trkpt lat="44.1009" lon="6.29696">
        <ele>904.6</ele>
        <time>2022-06-06T10:27:01Z</time>
      </trkpt>
      <trkpt lat="44.10092" lon="6.29702">
        <ele>905</ele>
        <time>2022-06-06T10:27:03Z</time>
      </trkpt>
      <trkpt lat="44.10097" lon="6.2971">
        <ele>904.4</ele>
        <time>2022-06-06T10:27:07Z</time>
      </trkpt>
      <trkpt lat="44.10097" lon="6.29712">
        <ele>905</ele>
        <time>2022-06-06T10:27:08Z</time>
      </trkpt>
      <trkpt lat="44.101" lon="6.2972">
        <ele>905.6</ele>
        <time>2022-06-06T10:27:11Z</time>
      </trkpt>
      <trkpt lat="44.101" lon="6.29722">
        <ele>905.8</ele>
        <time>2022-06-06T10:27:12Z</time>
      </trkpt>
      <trkpt lat="44.10099" lon="6.29726">
        <ele>905.8</ele>
        <time>2022-06-06T10:27:14Z</time>
      </trkpt>
      <trkpt lat="44.10101" lon="6.29731">
        <ele>906</ele>
        <time>2022-06-06T10:27:16Z</time>
      </trkpt>
      <trkpt lat="44.10107" lon="6.29738">
        <ele>905.6</ele>
        <time>2022-06-06T10:27:20Z</time>
      </trkpt>
      <trkpt lat="44.10107" lon="6.2974">
        <ele>905.8</ele>
        <time>2022-06-06T10:27:21Z</time>
      </trkpt>
      <trkpt lat="44.10108" lon="6.29743">
        <ele>905.8</ele>
        <time>2022-06-06T10:27:22Z</time>
      </trkpt>
      <trkpt lat="44.1011" lon="6.29746">
        <ele>906</ele>
        <time>2022-06-06T10:27:24Z</time>
      </trkpt>
      <trkpt lat="44.10111" lon="6.29747">
        <ele>906</ele>
        <time>2022-06-06T10:27:25Z</time>
      </trkpt>
      <trkpt lat="44.10114" lon="6.29751">
        <ele>906</ele>
        <time>2022-06-06T10:27:27Z</time>
      </trkpt>
      <trkpt lat="44.10116" lon="6.29755">
        <ele>906.2</ele>
        <time>2022-06-06T10:27:29Z</time>
      </trkpt>
      <trkpt lat="44.10124" lon="6.29763">
        <ele>906.6</ele>
        <time>2022-06-06T10:27:34Z</time>
      </trkpt>
      <trkpt lat="44.10135" lon="6.29776">
        <ele>906.8</ele>
        <time>2022-06-06T10:27:41Z</time>
      </trkpt>
      <trkpt lat="44.10138" lon="6.29781">
        <ele>907</ele>
        <time>2022-06-06T10:27:43Z</time>
      </trkpt>
      <trkpt lat="44.1014" lon="6.29785">
        <ele>907.4</ele>
        <time>2022-06-06T10:27:45Z</time>
      </trkpt>
      <trkpt lat="44.10149" lon="6.29793">
        <ele>907.6</ele>
        <time>2022-06-06T10:27:50Z</time>
      </trkpt>
      <trkpt lat="44.10151" lon="6.29793">
        <ele>907.6</ele>
        <time>2022-06-06T10:27:51Z</time>
      </trkpt>
      <trkpt lat="44.10159" lon="6.29796">
        <ele>908.2</ele>
        <time>2022-06-06T10:27:56Z</time>
      </trkpt>
      <trkpt lat="44.10166" lon="6.29799">
        <ele>908.2</ele>
        <time>2022-06-06T10:28:00Z</time>
      </trkpt>
      <trkpt lat="44.10171" lon="6.29797">
        <ele>908.4</ele>
        <time>2022-06-06T10:28:02Z</time>
      </trkpt>
      <trkpt lat="44.10174" lon="6.29798">
        <ele>908.6</ele>
        <time>2022-06-06T10:28:04Z</time>
      </trkpt>
      <trkpt lat="44.10178" lon="6.29799">
        <ele>908.6</ele>
        <time>2022-06-06T10:28:06Z</time>
      </trkpt>
      <trkpt lat="44.10188" lon="6.298">
        <ele>908.8</ele>
        <time>2022-06-06T10:28:10Z</time>
      </trkpt>
      <trkpt lat="44.10196" lon="6.29802">
        <ele>908.8</ele>
        <time>2022-06-06T10:28:13Z</time>
      </trkpt>
      <trkpt lat="44.102" lon="6.29807">
        <ele>908.8</ele>
        <time>2022-06-06T10:28:15Z</time>
      </trkpt>
      <trkpt lat="44.10208" lon="6.29816">
        <ele>909</ele>
        <time>2022-06-06T10:28:19Z</time>
      </trkpt>
      <trkpt lat="44.10213" lon="6.29828">
        <ele>909.2</ele>
        <time>2022-06-06T10:28:22Z</time>
      </trkpt>
      <trkpt lat="44.10215" lon="6.29831">
        <ele>909.2</ele>
        <time>2022-06-06T10:28:23Z</time>
      </trkpt>
      <trkpt lat="44.10222" lon="6.29849">
        <ele>909.8</ele>
        <time>2022-06-06T10:28:28Z</time>
      </trkpt>
      <trkpt lat="44.10229" lon="6.29862">
        <ele>910.4</ele>
        <time>2022-06-06T10:28:33Z</time>
      </trkpt>
      <trkpt lat="44.1024" lon="6.29874">
        <ele>911</ele>
        <time>2022-06-06T10:28:39Z</time>
      </trkpt>
      <trkpt lat="44.1025" lon="6.29889">
        <ele>911.8</ele>
        <time>2022-06-06T10:28:45Z</time>
      </trkpt>
      <trkpt lat="44.10252" lon="6.29894">
        <ele>912</ele>
        <time>2022-06-06T10:28:47Z</time>
      </trkpt>
      <trkpt lat="44.10255" lon="6.29896">
        <ele>912</ele>
        <time>2022-06-06T10:28:49Z</time>
      </trkpt>
      <trkpt lat="44.10261" lon="6.29903">
        <ele>912.4</ele>
        <time>2022-06-06T10:28:52Z</time>
      </trkpt>
      <trkpt lat="44.10272" lon="6.2991">
        <ele>913</ele>
        <time>2022-06-06T10:28:56Z</time>
      </trkpt>
      <trkpt lat="44.10281" lon="6.29919">
        <ele>913.4</ele>
        <time>2022-06-06T10:29:00Z</time>
      </trkpt>
      <trkpt lat="44.10295" lon="6.29928">
        <ele>913.4</ele>
        <time>2022-06-06T10:29:04Z</time>
      </trkpt>
      <trkpt lat="44.10307" lon="6.29935">
        <ele>913.6</ele>
        <time>2022-06-06T10:29:08Z</time>
      </trkpt>
      <trkpt lat="44.1031" lon="6.29936">
        <ele>913.6</ele>
        <time>2022-06-06T10:29:09Z</time>
      </trkpt>
      <trkpt lat="44.10317" lon="6.29944">
        <ele>913.8</ele>
        <time>2022-06-06T10:29:12Z</time>
      </trkpt>
      <trkpt lat="44.10321" lon="6.2995">
        <ele>913.8</ele>
        <time>2022-06-06T10:29:15Z</time>
      </trkpt>
      <trkpt lat="44.10321" lon="6.2995">
        <ele>914.4</ele>
        <time>2022-06-06T10:29:26Z</time>
      </trkpt>
      <trkpt lat="44.10323" lon="6.29951">
        <ele>914.4</ele>
        <time>2022-06-06T10:29:31Z</time>
      </trkpt>
      <trkpt lat="44.10323" lon="6.29951">
        <ele>915</ele>
        <time>2022-06-06T10:29:46Z</time>
      </trkpt>
      <trkpt lat="44.10323" lon="6.29951">
        <ele>915.2</ele>
        <time>2022-06-06T10:29:56Z</time>
      </trkpt>
      <trkpt lat="44.10323" lon="6.29951">
        <ele>915.4</ele>
        <time>2022-06-06T10:30:06Z</time>
      </trkpt>
      <trkpt lat="44.10323" lon="6.29949">
        <ele>915.8</ele>
        <time>2022-06-06T10:30:21Z</time>
      </trkpt>
      <trkpt lat="44.10328" lon="6.29958">
        <ele>916</ele>
        <time>2022-06-06T10:30:25Z</time>
      </trkpt>
      <trkpt lat="44.10331" lon="6.29978">
        <ele>916</ele>
        <time>2022-06-06T10:30:29Z</time>
      </trkpt>
      <trkpt lat="44.10332" lon="6.29984">
        <ele>916.2</ele>
        <time>2022-06-06T10:30:30Z</time>
      </trkpt>
      <trkpt lat="44.10335" lon="6.30001">
        <ele>916.2</ele>
        <time>2022-06-06T10:30:33Z</time>
      </trkpt>
      <trkpt lat="44.10344" lon="6.30016">
        <ele>916.2</ele>
        <time>2022-06-06T10:30:37Z</time>
      </trkpt>
      <trkpt lat="44.10356" lon="6.30032">
        <ele>916</ele>
        <time>2022-06-06T10:30:42Z</time>
      </trkpt>
      <trkpt lat="44.10364" lon="6.30034">
        <ele>916.2</ele>
        <time>2022-06-06T10:30:45Z</time>
      </trkpt>
      <trkpt lat="44.10375" lon="6.30045">
        <ele>917</ele>
        <time>2022-06-06T10:30:51Z</time>
      </trkpt>
      <trkpt lat="44.1038" lon="6.30048">
        <ele>917.4</ele>
        <time>2022-06-06T10:30:54Z</time>
      </trkpt>
      <trkpt lat="44.10381" lon="6.30051">
        <ele>917.6</ele>
        <time>2022-06-06T10:30:57Z</time>
      </trkpt>
      <trkpt lat="44.10382" lon="6.30052">
        <ele>918.2</ele>
        <time>2022-06-06T10:31:12Z</time>
      </trkpt>
      <trkpt lat="44.10385" lon="6.30057">
        <ele>918.2</ele>
        <time>2022-06-06T10:31:15Z</time>
      </trkpt>
      <trkpt lat="44.10386" lon="6.3006">
        <ele>918.2</ele>
        <time>2022-06-06T10:31:16Z</time>
      </trkpt>
      <trkpt lat="44.10388" lon="6.30062">
        <ele>918.2</ele>
        <time>2022-06-06T10:31:17Z</time>
      </trkpt>
      <trkpt lat="44.10391" lon="6.30069">
        <ele>918.4</ele>
        <time>2022-06-06T10:31:20Z</time>
      </trkpt>
      <trkpt lat="44.10405" lon="6.30087">
        <ele>918.8</ele>
        <time>2022-06-06T10:31:27Z</time>
      </trkpt>
      <trkpt lat="44.10413" lon="6.30091">
        <ele>919</ele>
        <time>2022-06-06T10:31:30Z</time>
      </trkpt>
      <trkpt lat="44.10422" lon="6.30093">
        <ele>919.4</ele>
        <time>2022-06-06T10:31:34Z</time>
      </trkpt>
      <trkpt lat="44.10428" lon="6.30097">
        <ele>919.8</ele>
        <time>2022-06-06T10:31:38Z</time>
      </trkpt>
      <trkpt lat="44.10438" lon="6.30102">
        <ele>920.2</ele>
        <time>2022-06-06T10:31:43Z</time>
      </trkpt>
      <trkpt lat="44.10443" lon="6.30102">
        <ele>920.4</ele>
        <time>2022-06-06T10:31:44Z</time>
      </trkpt>
      <trkpt lat="44.10446" lon="6.30103">
        <ele>920.6</ele>
        <time>2022-06-06T10:31:46Z</time>
      </trkpt>
      <trkpt lat="44.10452" lon="6.30104">
        <ele>920.8</ele>
        <time>2022-06-06T10:31:48Z</time>
      </trkpt>
      <trkpt lat="44.10464" lon="6.3011">
        <ele>921.4</ele>
        <time>2022-06-06T10:31:53Z</time>
      </trkpt>
      <trkpt lat="44.10467" lon="6.3011">
        <ele>921.6</ele>
        <time>2022-06-06T10:31:54Z</time>
      </trkpt>
      <trkpt lat="44.10481" lon="6.30112">
        <ele>922.2</ele>
        <time>2022-06-06T10:32:01Z</time>
      </trkpt>
      <trkpt lat="44.10493" lon="6.30115">
        <ele>922.6</ele>
        <time>2022-06-06T10:32:06Z</time>
      </trkpt>
      <trkpt lat="44.10495" lon="6.30115">
        <ele>922.6</ele>
        <time>2022-06-06T10:32:07Z</time>
      </trkpt>
      <trkpt lat="44.10501" lon="6.30114">
        <ele>923</ele>
        <time>2022-06-06T10:32:11Z</time>
      </trkpt>
      <trkpt lat="44.1051" lon="6.30113">
        <ele>923.6</ele>
        <time>2022-06-06T10:32:17Z</time>
      </trkpt>
      <trkpt lat="44.1052" lon="6.30115">
        <ele>924.4</ele>
        <time>2022-06-06T10:32:23Z</time>
      </trkpt>
      <trkpt lat="44.10529" lon="6.30117">
        <ele>924.4</ele>
        <time>2022-06-06T10:32:27Z</time>
      </trkpt>
      <trkpt lat="44.10536" lon="6.3012">
        <ele>924.8</ele>
        <time>2022-06-06T10:32:30Z</time>
      </trkpt>
      <trkpt lat="44.1054" lon="6.3012">
        <ele>924.8</ele>
        <time>2022-06-06T10:32:31Z</time>
      </trkpt>
      <trkpt lat="44.10545" lon="6.30118">
        <ele>925.2</ele>
        <time>2022-06-06T10:32:33Z</time>
      </trkpt>
      <trkpt lat="44.1055" lon="6.30119">
        <ele>925.6</ele>
        <time>2022-06-06T10:32:35Z</time>
      </trkpt>
      <trkpt lat="44.10566" lon="6.30123">
        <ele>926.4</ele>
        <time>2022-06-06T10:32:40Z</time>
      </trkpt>
      <trkpt lat="44.10569" lon="6.30122">
        <ele>926.6</ele>
        <time>2022-06-06T10:32:41Z</time>
      </trkpt>
      <trkpt lat="44.10572" lon="6.30123">
        <ele>926.8</ele>
        <time>2022-06-06T10:32:43Z</time>
      </trkpt>
      <trkpt lat="44.10576" lon="6.30127">
        <ele>927.2</ele>
        <time>2022-06-06T10:32:45Z</time>
      </trkpt>
      <trkpt lat="44.10579" lon="6.30134">
        <ele>927.6</ele>
        <time>2022-06-06T10:32:47Z</time>
      </trkpt>
      <trkpt lat="44.10588" lon="6.3015">
        <ele>928.4</ele>
        <time>2022-06-06T10:32:52Z</time>
      </trkpt>
      <trkpt lat="44.10597" lon="6.30166">
        <ele>929.6</ele>
        <time>2022-06-06T10:32:58Z</time>
      </trkpt>
      <trkpt lat="44.10604" lon="6.30179">
        <ele>930.6</ele>
        <time>2022-06-06T10:33:03Z</time>
      </trkpt>
      <trkpt lat="44.1061" lon="6.30184">
        <ele>931.4</ele>
        <time>2022-06-06T10:33:06Z</time>
      </trkpt>
      <trkpt lat="44.10612" lon="6.30183">
        <ele>931.4</ele>
        <time>2022-06-06T10:33:07Z</time>
      </trkpt>
      <trkpt lat="44.10622" lon="6.30176">
        <ele>932.6</ele>
        <time>2022-06-06T10:33:12Z</time>
      </trkpt>
      <trkpt lat="44.10639" lon="6.30166">
        <ele>934.8</ele>
        <time>2022-06-06T10:33:20Z</time>
      </trkpt>
      <trkpt lat="44.10649" lon="6.30165">
        <ele>936.2</ele>
        <time>2022-06-06T10:33:25Z</time>
      </trkpt>
      <trkpt lat="44.10651" lon="6.30167">
        <ele>936.4</ele>
        <time>2022-06-06T10:33:26Z</time>
      </trkpt>
      <trkpt lat="44.10657" lon="6.3018">
        <ele>937.6</ele>
        <time>2022-06-06T10:33:31Z</time>
      </trkpt>
      <trkpt lat="44.10657" lon="6.30181">
        <ele>938.4</ele>
        <time>2022-06-06T10:33:35Z</time>
      </trkpt>
      <trkpt lat="44.10657" lon="6.30181">
        <ele>940.2</ele>
        <time>2022-06-06T10:33:45Z</time>
      </trkpt>
      <trkpt lat="44.10659" lon="6.30183">
        <ele>941.8</ele>
        <time>2022-06-06T10:33:54Z</time>
      </trkpt>
      <trkpt lat="44.10667" lon="6.30193">
        <ele>943</ele>
        <time>2022-06-06T10:33:59Z</time>
      </trkpt>
      <trkpt lat="44.1067" lon="6.30202">
        <ele>943.4</ele>
        <time>2022-06-06T10:34:01Z</time>
      </trkpt>
      <trkpt lat="44.10676" lon="6.30211">
        <ele>943.6</ele>
        <time>2022-06-06T10:34:03Z</time>
      </trkpt>
      <trkpt lat="44.10686" lon="6.30221">
        <ele>943.8</ele>
        <time>2022-06-06T10:34:06Z</time>
      </trkpt>
      <trkpt lat="44.10687" lon="6.30226">
        <ele>943.8</ele>
        <time>2022-06-06T10:34:07Z</time>
      </trkpt>
      <trkpt lat="44.10698" lon="6.30246">
        <ele>943.8</ele>
        <time>2022-06-06T10:34:11Z</time>
      </trkpt>
      <trkpt lat="44.10706" lon="6.3026">
        <ele>943.8</ele>
        <time>2022-06-06T10:34:13Z</time>
      </trkpt>
      <trkpt lat="44.1071" lon="6.30267">
        <ele>943.8</ele>
        <time>2022-06-06T10:34:14Z</time>
      </trkpt>
      <trkpt lat="44.10716" lon="6.30279">
        <ele>943.8</ele>
        <time>2022-06-06T10:34:16Z</time>
      </trkpt>
      <trkpt lat="44.10717" lon="6.30286">
        <ele>943.8</ele>
        <time>2022-06-06T10:34:17Z</time>
      </trkpt>
      <trkpt lat="44.10718" lon="6.30293">
        <ele>943.8</ele>
        <time>2022-06-06T10:34:18Z</time>
      </trkpt>
      <trkpt lat="44.10723" lon="6.30307">
        <ele>943.6</ele>
        <time>2022-06-06T10:34:20Z</time>
      </trkpt>
      <trkpt lat="44.10729" lon="6.30319">
        <ele>943.4</ele>
        <time>2022-06-06T10:34:22Z</time>
      </trkpt>
      <trkpt lat="44.10731" lon="6.30333">
        <ele>944.2</ele>
        <time>2022-06-06T10:34:24Z</time>
      </trkpt>
      <trkpt lat="44.10737" lon="6.30351">
        <ele>942.2</ele>
        <time>2022-06-06T10:34:27Z</time>
      </trkpt>
      <trkpt lat="44.10739" lon="6.30371">
        <ele>942.6</ele>
        <time>2022-06-06T10:34:30Z</time>
      </trkpt>
      <trkpt lat="44.1074" lon="6.30377">
        <ele>942.4</ele>
        <time>2022-06-06T10:34:31Z</time>
      </trkpt>
      <trkpt lat="44.10743" lon="6.30391">
        <ele>941.6</ele>
        <time>2022-06-06T10:34:35Z</time>
      </trkpt>
      <trkpt lat="44.10748" lon="6.30409">
        <ele>941</ele>
        <time>2022-06-06T10:34:40Z</time>
      </trkpt>
      <trkpt lat="44.1075" lon="6.30425">
        <ele>940.6</ele>
        <time>2022-06-06T10:34:44Z</time>
      </trkpt>
      <trkpt lat="44.10749" lon="6.30435">
        <ele>940.2</ele>
        <time>2022-06-06T10:34:47Z</time>
      </trkpt>
      <trkpt lat="44.10748" lon="6.30439">
        <ele>940.2</ele>
        <time>2022-06-06T10:34:48Z</time>
      </trkpt>
      <trkpt lat="44.1075" lon="6.30448">
        <ele>939.8</ele>
        <time>2022-06-06T10:34:50Z</time>
      </trkpt>
      <trkpt lat="44.10751" lon="6.30454">
        <ele>939.6</ele>
        <time>2022-06-06T10:34:51Z</time>
      </trkpt>
      <trkpt lat="44.10754" lon="6.30471">
        <ele>939.4</ele>
        <time>2022-06-06T10:34:54Z</time>
      </trkpt>
      <trkpt lat="44.10757" lon="6.30481">
        <ele>938.8</ele>
        <time>2022-06-06T10:34:57Z</time>
      </trkpt>
      <trkpt lat="44.10757" lon="6.30481">
        <ele>937.6</ele>
        <time>2022-06-06T10:35:11Z</time>
      </trkpt>
      <trkpt lat="44.10758" lon="6.30485">
        <ele>936.6</ele>
        <time>2022-06-06T10:35:22Z</time>
      </trkpt>
      <trkpt lat="44.10761" lon="6.30502">
        <ele>936.6</ele>
        <time>2022-06-06T10:35:26Z</time>
      </trkpt>
      <trkpt lat="44.10762" lon="6.30507">
        <ele>936.6</ele>
        <time>2022-06-06T10:35:27Z</time>
      </trkpt>
      <trkpt lat="44.10769" lon="6.30528">
        <ele>936.6</ele>
        <time>2022-06-06T10:35:32Z</time>
      </trkpt>
      <trkpt lat="44.10768" lon="6.30543">
        <ele>936.6</ele>
        <time>2022-06-06T10:35:36Z</time>
      </trkpt>
      <trkpt lat="44.10763" lon="6.30557">
        <ele>936.6</ele>
        <time>2022-06-06T10:35:40Z</time>
      </trkpt>
      <trkpt lat="44.10763" lon="6.30569">
        <ele>936.6</ele>
        <time>2022-06-06T10:35:43Z</time>
      </trkpt>
      <trkpt lat="44.10762" lon="6.30582">
        <ele>937</ele>
        <time>2022-06-06T10:35:47Z</time>
      </trkpt>
      <trkpt lat="44.10763" lon="6.30587">
        <ele>937</ele>
        <time>2022-06-06T10:35:49Z</time>
      </trkpt>
      <trkpt lat="44.10765" lon="6.30595">
        <ele>937.2</ele>
        <time>2022-06-06T10:35:52Z</time>
      </trkpt>
      <trkpt lat="44.10765" lon="6.30609">
        <ele>937.6</ele>
        <time>2022-06-06T10:35:57Z</time>
      </trkpt>
      <trkpt lat="44.10761" lon="6.30623">
        <ele>938.2</ele>
        <time>2022-06-06T10:36:02Z</time>
      </trkpt>
      <trkpt lat="44.10764" lon="6.30633">
        <ele>938.6</ele>
        <time>2022-06-06T10:36:06Z</time>
      </trkpt>
      <trkpt lat="44.10765" lon="6.30636">
        <ele>938.8</ele>
        <time>2022-06-06T10:36:08Z</time>
      </trkpt>
      <trkpt lat="44.10767" lon="6.30636">
        <ele>938.8</ele>
        <time>2022-06-06T10:36:09Z</time>
      </trkpt>
      <trkpt lat="44.10769" lon="6.30636">
        <ele>939.2</ele>
        <time>2022-06-06T10:36:14Z</time>
      </trkpt>
      <trkpt lat="44.10769" lon="6.30636">
        <ele>939.8</ele>
        <time>2022-06-06T10:36:24Z</time>
      </trkpt>
      <trkpt lat="44.10769" lon="6.30637">
        <ele>940.8</ele>
        <time>2022-06-06T10:36:36Z</time>
      </trkpt>
      <trkpt lat="44.10769" lon="6.30637">
        <ele>941.2</ele>
        <time>2022-06-06T10:36:43Z</time>
      </trkpt>
      <trkpt lat="44.10769" lon="6.30638">
        <ele>941.6</ele>
        <time>2022-06-06T10:36:51Z</time>
      </trkpt>
      <trkpt lat="44.10769" lon="6.30641">
        <ele>941.6</ele>
        <time>2022-06-06T10:36:52Z</time>
      </trkpt>
      <trkpt lat="44.10769" lon="6.30645">
        <ele>941.8</ele>
        <time>2022-06-06T10:36:54Z</time>
      </trkpt>
      <trkpt lat="44.10766" lon="6.30649">
        <ele>942</ele>
        <time>2022-06-06T10:36:56Z</time>
      </trkpt>
      <trkpt lat="44.1076" lon="6.30658">
        <ele>942.4</ele>
        <time>2022-06-06T10:37:01Z</time>
      </trkpt>
      <trkpt lat="44.1076" lon="6.3066">
        <ele>942.4</ele>
        <time>2022-06-06T10:37:02Z</time>
      </trkpt>
      <trkpt lat="44.1076" lon="6.30661">
        <ele>942.6</ele>
        <time>2022-06-06T10:37:06Z</time>
      </trkpt>
      <trkpt lat="44.10763" lon="6.30662">
        <ele>942.8</ele>
        <time>2022-06-06T10:37:08Z</time>
      </trkpt>
      <trkpt lat="44.10772" lon="6.30669">
        <ele>943.4</ele>
        <time>2022-06-06T10:37:13Z</time>
      </trkpt>
      <trkpt lat="44.10772" lon="6.30671">
        <ele>943.6</ele>
        <time>2022-06-06T10:37:14Z</time>
      </trkpt>
      <trkpt lat="44.10772" lon="6.30674">
        <ele>943.6</ele>
        <time>2022-06-06T10:37:15Z</time>
      </trkpt>
      <trkpt lat="44.10771" lon="6.30679">
        <ele>944</ele>
        <time>2022-06-06T10:37:17Z</time>
      </trkpt>
      <trkpt lat="44.10771" lon="6.30681">
        <ele>944</ele>
        <time>2022-06-06T10:37:18Z</time>
      </trkpt>
      <trkpt lat="44.10774" lon="6.30685">
        <ele>944.2</ele>
        <time>2022-06-06T10:37:20Z</time>
      </trkpt>
      <trkpt lat="44.10777" lon="6.30687">
        <ele>944.6</ele>
        <time>2022-06-06T10:37:22Z</time>
      </trkpt>
      <trkpt lat="44.10778" lon="6.30687">
        <ele>944.8</ele>
        <time>2022-06-06T10:37:26Z</time>
      </trkpt>
      <trkpt lat="44.1078" lon="6.30688">
        <ele>946</ele>
        <time>2022-06-06T10:37:39Z</time>
      </trkpt>
      <trkpt lat="44.10786" lon="6.307">
        <ele>946.2</ele>
        <time>2022-06-06T10:37:44Z</time>
      </trkpt>
      <trkpt lat="44.10796" lon="6.30718">
        <ele>947</ele>
        <time>2022-06-06T10:37:50Z</time>
      </trkpt>
      <trkpt lat="44.10808" lon="6.30729">
        <ele>947.6</ele>
        <time>2022-06-06T10:37:55Z</time>
      </trkpt>
      <trkpt lat="44.10821" lon="6.30738">
        <ele>948.2</ele>
        <time>2022-06-06T10:38:00Z</time>
      </trkpt>
      <trkpt lat="44.10839" lon="6.30747">
        <ele>948.8</ele>
        <time>2022-06-06T10:38:06Z</time>
      </trkpt>
      <trkpt lat="44.10852" lon="6.30755">
        <ele>949.2</ele>
        <time>2022-06-06T10:38:11Z</time>
      </trkpt>
      <trkpt lat="44.10868" lon="6.30768">
        <ele>949.6</ele>
        <time>2022-06-06T10:38:17Z</time>
      </trkpt>
      <trkpt lat="44.10877" lon="6.30777">
        <ele>949.8</ele>
        <time>2022-06-06T10:38:20Z</time>
      </trkpt>
      <trkpt lat="44.10883" lon="6.30785">
        <ele>950</ele>
        <time>2022-06-06T10:38:22Z</time>
      </trkpt>
      <trkpt lat="44.10886" lon="6.30787">
        <ele>950</ele>
        <time>2022-06-06T10:38:23Z</time>
      </trkpt>
      <trkpt lat="44.10893" lon="6.30796">
        <ele>950</ele>
        <time>2022-06-06T10:38:25Z</time>
      </trkpt>
      <trkpt lat="44.10906" lon="6.30819">
        <ele>949.8</ele>
        <time>2022-06-06T10:38:29Z</time>
      </trkpt>
      <trkpt lat="44.1091" lon="6.30823">
        <ele>949.8</ele>
        <time>2022-06-06T10:38:30Z</time>
      </trkpt>
      <trkpt lat="44.10918" lon="6.30831">
        <ele>949.8</ele>
        <time>2022-06-06T10:38:32Z</time>
      </trkpt>
      <trkpt lat="44.10924" lon="6.30843">
        <ele>949.6</ele>
        <time>2022-06-06T10:38:36Z</time>
      </trkpt>
      <trkpt lat="44.10928" lon="6.30852">
        <ele>949.2</ele>
        <time>2022-06-06T10:38:39Z</time>
      </trkpt>
      <trkpt lat="44.1093" lon="6.30855">
        <ele>949.2</ele>
        <time>2022-06-06T10:38:40Z</time>
      </trkpt>
      <trkpt lat="44.10941" lon="6.30871">
        <ele>948.8</ele>
        <time>2022-06-06T10:38:44Z</time>
      </trkpt>
      <trkpt lat="44.10946" lon="6.30877">
        <ele>948.6</ele>
        <time>2022-06-06T10:38:46Z</time>
      </trkpt>
      <trkpt lat="44.10948" lon="6.30877">
        <ele>948.4</ele>
        <time>2022-06-06T10:38:47Z</time>
      </trkpt>
      <trkpt lat="44.10949" lon="6.30877">
        <ele>948.4</ele>
        <time>2022-06-06T10:38:48Z</time>
      </trkpt>
      <trkpt lat="44.10951" lon="6.30876">
        <ele>948.2</ele>
        <time>2022-06-06T10:38:51Z</time>
      </trkpt>
      <trkpt lat="44.10954" lon="6.30875">
        <ele>948.2</ele>
        <time>2022-06-06T10:38:52Z</time>
      </trkpt>
      <trkpt lat="44.10968" lon="6.30877">
        <ele>947.8</ele>
        <time>2022-06-06T10:38:56Z</time>
      </trkpt>
      <trkpt lat="44.10976" lon="6.30884">
        <ele>947.6</ele>
        <time>2022-06-06T10:38:58Z</time>
      </trkpt>
      <trkpt lat="44.1098" lon="6.30888">
        <ele>947.6</ele>
        <time>2022-06-06T10:38:59Z</time>
      </trkpt>
      <trkpt lat="44.10989" lon="6.30904">
        <ele>947.4</ele>
        <time>2022-06-06T10:39:02Z</time>
      </trkpt>
      <trkpt lat="44.10995" lon="6.30914">
        <ele>947</ele>
        <time>2022-06-06T10:39:04Z</time>
      </trkpt>
      <trkpt lat="44.11003" lon="6.30921">
        <ele>946.8</ele>
        <time>2022-06-06T10:39:06Z</time>
      </trkpt>
      <trkpt lat="44.11011" lon="6.30926">
        <ele>946.4</ele>
        <time>2022-06-06T10:39:08Z</time>
      </trkpt>
      <trkpt lat="44.11014" lon="6.30928">
        <ele>946.2</ele>
        <time>2022-06-06T10:39:09Z</time>
      </trkpt>
      <trkpt lat="44.11017" lon="6.30933">
        <ele>945.8</ele>
        <time>2022-06-06T10:39:11Z</time>
      </trkpt>
      <trkpt lat="44.11022" lon="6.30944">
        <ele>945</ele>
        <time>2022-06-06T10:39:14Z</time>
      </trkpt>
      <trkpt lat="44.11025" lon="6.30946">
        <ele>944.8</ele>
        <time>2022-06-06T10:39:15Z</time>
      </trkpt>
      <trkpt lat="44.11029" lon="6.30954">
        <ele>944</ele>
        <time>2022-06-06T10:39:18Z</time>
      </trkpt>
      <trkpt lat="44.11035" lon="6.30959">
        <ele>943.2</ele>
        <time>2022-06-06T10:39:21Z</time>
      </trkpt>
      <trkpt lat="44.11035" lon="6.30959">
        <ele>942.2</ele>
        <time>2022-06-06T10:39:30Z</time>
      </trkpt>
      <trkpt lat="44.11036" lon="6.30958">
        <ele>941.6</ele>
        <time>2022-06-06T10:39:31Z</time>
      </trkpt>
      <trkpt lat="44.11043" lon="6.30961">
        <ele>940.8</ele>
        <time>2022-06-06T10:39:33Z</time>
      </trkpt>
      <trkpt lat="44.11051" lon="6.30964">
        <ele>940.2</ele>
        <time>2022-06-06T10:39:35Z</time>
      </trkpt>
      <trkpt lat="44.11055" lon="6.30966">
        <ele>939.8</ele>
        <time>2022-06-06T10:39:36Z</time>
      </trkpt>
      <trkpt lat="44.11057" lon="6.30969">
        <ele>939.6</ele>
        <time>2022-06-06T10:39:37Z</time>
      </trkpt>
      <trkpt lat="44.11061" lon="6.30972">
        <ele>938.8</ele>
        <time>2022-06-06T10:39:39Z</time>
      </trkpt>
      <trkpt lat="44.11064" lon="6.30972">
        <ele>938.4</ele>
        <time>2022-06-06T10:39:40Z</time>
      </trkpt>
      <trkpt lat="44.1107" lon="6.30971">
        <ele>937.6</ele>
        <time>2022-06-06T10:39:43Z</time>
      </trkpt>
      <trkpt lat="44.11073" lon="6.30969">
        <ele>937.4</ele>
        <time>2022-06-06T10:39:44Z</time>
      </trkpt>
      <trkpt lat="44.1108" lon="6.30969">
        <ele>937</ele>
        <time>2022-06-06T10:39:47Z</time>
      </trkpt>
      <trkpt lat="44.11092" lon="6.3097">
        <ele>935.8</ele>
        <time>2022-06-06T10:39:52Z</time>
      </trkpt>
      <trkpt lat="44.11105" lon="6.30973">
        <ele>935.4</ele>
        <time>2022-06-06T10:39:57Z</time>
      </trkpt>
      <trkpt lat="44.11118" lon="6.30975">
        <ele>935.2</ele>
        <time>2022-06-06T10:40:02Z</time>
      </trkpt>
      <trkpt lat="44.11126" lon="6.30978">
        <ele>935.4</ele>
        <time>2022-06-06T10:40:05Z</time>
      </trkpt>
      <trkpt lat="44.11135" lon="6.30976">
        <ele>935.8</ele>
        <time>2022-06-06T10:40:08Z</time>
      </trkpt>
      <trkpt lat="44.11146" lon="6.30976">
        <ele>937.8</ele>
        <time>2022-06-06T10:40:13Z</time>
      </trkpt>
      <trkpt lat="44.11152" lon="6.30984">
        <ele>937.8</ele>
        <time>2022-06-06T10:40:19Z</time>
      </trkpt>
      <trkpt lat="44.11152" lon="6.30984">
        <ele>938.2</ele>
        <time>2022-06-06T10:40:28Z</time>
      </trkpt>
      <trkpt lat="44.11152" lon="6.30984">
        <ele>939</ele>
        <time>2022-06-06T10:40:39Z</time>
      </trkpt>
      <trkpt lat="44.11153" lon="6.30985">
        <ele>939.8</ele>
        <time>2022-06-06T10:40:47Z</time>
      </trkpt>
      <trkpt lat="44.11156" lon="6.30988">
        <ele>939.8</ele>
        <time>2022-06-06T10:40:49Z</time>
      </trkpt>
      <trkpt lat="44.11161" lon="6.30996">
        <ele>940.2</ele>
        <time>2022-06-06T10:40:52Z</time>
      </trkpt>
      <trkpt lat="44.11164" lon="6.30998">
        <ele>940.2</ele>
        <time>2022-06-06T10:40:53Z</time>
      </trkpt>
      <trkpt lat="44.11166" lon="6.31002">
        <ele>940.2</ele>
        <time>2022-06-06T10:40:54Z</time>
      </trkpt>
      <trkpt lat="44.11173" lon="6.31011">
        <ele>940.2</ele>
        <time>2022-06-06T10:40:56Z</time>
      </trkpt>
      <trkpt lat="44.11176" lon="6.31016">
        <ele>940.4</ele>
        <time>2022-06-06T10:40:57Z</time>
      </trkpt>
      <trkpt lat="44.11184" lon="6.31029">
        <ele>940.4</ele>
        <time>2022-06-06T10:41:00Z</time>
      </trkpt>
      <trkpt lat="44.11191" lon="6.31038">
        <ele>940.2</ele>
        <time>2022-06-06T10:41:02Z</time>
      </trkpt>
      <trkpt lat="44.11197" lon="6.31051">
        <ele>940.2</ele>
        <time>2022-06-06T10:41:04Z</time>
      </trkpt>
      <trkpt lat="44.11206" lon="6.31071">
        <ele>940</ele>
        <time>2022-06-06T10:41:07Z</time>
      </trkpt>
      <trkpt lat="44.1121" lon="6.31077">
        <ele>940</ele>
        <time>2022-06-06T10:41:08Z</time>
      </trkpt>
      <trkpt lat="44.11219" lon="6.31098">
        <ele>940.2</ele>
        <time>2022-06-06T10:41:11Z</time>
      </trkpt>
      <trkpt lat="44.11221" lon="6.31102">
        <ele>939.6</ele>
        <time>2022-06-06T10:41:12Z</time>
      </trkpt>
      <trkpt lat="44.11223" lon="6.31105">
        <ele>939.6</ele>
        <time>2022-06-06T10:41:13Z</time>
      </trkpt>
      <trkpt lat="44.11228" lon="6.31107">
        <ele>939.4</ele>
        <time>2022-06-06T10:41:15Z</time>
      </trkpt>
      <trkpt lat="44.11238" lon="6.3111">
        <ele>938.8</ele>
        <time>2022-06-06T10:41:19Z</time>
      </trkpt>
      <trkpt lat="44.11239" lon="6.31113">
        <ele>938.8</ele>
        <time>2022-06-06T10:41:20Z</time>
      </trkpt>
      <trkpt lat="44.11242" lon="6.31115">
        <ele>938.6</ele>
        <time>2022-06-06T10:41:22Z</time>
      </trkpt>
      <trkpt lat="44.11249" lon="6.31126">
        <ele>938.2</ele>
        <time>2022-06-06T10:41:27Z</time>
      </trkpt>
      <trkpt lat="44.11251" lon="6.31131">
        <ele>938.2</ele>
        <time>2022-06-06T10:41:29Z</time>
      </trkpt>
      <trkpt lat="44.11255" lon="6.31135">
        <ele>938</ele>
        <time>2022-06-06T10:41:32Z</time>
      </trkpt>
      <trkpt lat="44.11262" lon="6.31144">
        <ele>938</ele>
        <time>2022-06-06T10:41:37Z</time>
      </trkpt>
      <trkpt lat="44.11272" lon="6.31153">
        <ele>938.2</ele>
        <time>2022-06-06T10:41:43Z</time>
      </trkpt>
      <trkpt lat="44.11277" lon="6.31163">
        <ele>937.8</ele>
        <time>2022-06-06T10:41:47Z</time>
      </trkpt>
      <trkpt lat="44.11285" lon="6.31176">
        <ele>938</ele>
        <time>2022-06-06T10:41:51Z</time>
      </trkpt>
      <trkpt lat="44.11288" lon="6.31197">
        <ele>938.4</ele>
        <time>2022-06-06T10:41:56Z</time>
      </trkpt>
      <trkpt lat="44.11289" lon="6.31208">
        <ele>938.2</ele>
        <time>2022-06-06T10:41:59Z</time>
      </trkpt>
      <trkpt lat="44.11291" lon="6.31211">
        <ele>938.2</ele>
        <time>2022-06-06T10:42:00Z</time>
      </trkpt>
      <trkpt lat="44.11295" lon="6.3122">
        <ele>938.6</ele>
        <time>2022-06-06T10:42:05Z</time>
      </trkpt>
      <trkpt lat="44.11296" lon="6.3122">
        <ele>938.8</ele>
        <time>2022-06-06T10:42:12Z</time>
      </trkpt>
      <trkpt lat="44.11302" lon="6.31225">
        <ele>938.6</ele>
        <time>2022-06-06T10:42:16Z</time>
      </trkpt>
      <trkpt lat="44.11308" lon="6.31231">
        <ele>939</ele>
        <time>2022-06-06T10:42:19Z</time>
      </trkpt>
      <trkpt lat="44.11316" lon="6.31248">
        <ele>939.6</ele>
        <time>2022-06-06T10:42:24Z</time>
      </trkpt>
      <trkpt lat="44.11324" lon="6.31259">
        <ele>939.6</ele>
        <time>2022-06-06T10:42:27Z</time>
      </trkpt>
      <trkpt lat="44.11327" lon="6.31265">
        <ele>939.6</ele>
        <time>2022-06-06T10:42:28Z</time>
      </trkpt>
      <trkpt lat="44.11333" lon="6.31276">
        <ele>939.6</ele>
        <time>2022-06-06T10:42:30Z</time>
      </trkpt>
      <trkpt lat="44.11334" lon="6.31284">
        <ele>939.6</ele>
        <time>2022-06-06T10:42:31Z</time>
      </trkpt>
      <trkpt lat="44.11334" lon="6.3129">
        <ele>939.4</ele>
        <time>2022-06-06T10:42:32Z</time>
      </trkpt>
      <trkpt lat="44.11335" lon="6.31305">
        <ele>939.4</ele>
        <time>2022-06-06T10:42:34Z</time>
      </trkpt>
      <trkpt lat="44.1134" lon="6.31324">
        <ele>939.2</ele>
        <time>2022-06-06T10:42:36Z</time>
      </trkpt>
      <trkpt lat="44.11344" lon="6.3133">
        <ele>938.4</ele>
        <time>2022-06-06T10:42:37Z</time>
      </trkpt>
      <trkpt lat="44.11352" lon="6.3134">
        <ele>938.4</ele>
        <time>2022-06-06T10:42:39Z</time>
      </trkpt>
      <trkpt lat="44.1136" lon="6.31343">
        <ele>938</ele>
        <time>2022-06-06T10:42:41Z</time>
      </trkpt>
      <trkpt lat="44.11369" lon="6.31344">
        <ele>937.4</ele>
        <time>2022-06-06T10:42:44Z</time>
      </trkpt>
      <trkpt lat="44.11388" lon="6.31339">
        <ele>937.8</ele>
        <time>2022-06-06T10:42:50Z</time>
      </trkpt>
      <trkpt lat="44.11394" lon="6.31338">
        <ele>938</ele>
        <time>2022-06-06T10:42:53Z</time>
      </trkpt>
      <trkpt lat="44.11398" lon="6.3134">
        <ele>937.4</ele>
        <time>2022-06-06T10:42:55Z</time>
      </trkpt>
      <trkpt lat="44.11402" lon="6.31351">
        <ele>937.8</ele>
        <time>2022-06-06T10:42:59Z</time>
      </trkpt>
      <trkpt lat="44.11404" lon="6.31358">
        <ele>937.6</ele>
        <time>2022-06-06T10:43:01Z</time>
      </trkpt>
      <trkpt lat="44.11407" lon="6.31359">
        <ele>937.4</ele>
        <time>2022-06-06T10:43:02Z</time>
      </trkpt>
      <trkpt lat="44.11409" lon="6.31359">
        <ele>937.2</ele>
        <time>2022-06-06T10:43:03Z</time>
      </trkpt>
      <trkpt lat="44.11411" lon="6.31355">
        <ele>937.2</ele>
        <time>2022-06-06T10:43:05Z</time>
      </trkpt>
      <trkpt lat="44.1142" lon="6.31344">
        <ele>938.4</ele>
        <time>2022-06-06T10:43:11Z</time>
      </trkpt>
      <trkpt lat="44.11421" lon="6.31344">
        <ele>938.6</ele>
        <time>2022-06-06T10:43:15Z</time>
      </trkpt>
      <trkpt lat="44.11421" lon="6.31344">
        <ele>939</ele>
        <time>2022-06-06T10:43:34Z</time>
      </trkpt>
      <trkpt lat="44.1142" lon="6.31345">
        <ele>939.4</ele>
        <time>2022-06-06T10:43:53Z</time>
      </trkpt>
      <trkpt lat="44.11422" lon="6.31343">
        <ele>940</ele>
        <time>2022-06-06T10:44:12Z</time>
      </trkpt>
      <trkpt lat="44.11423" lon="6.31342">
        <ele>940.2</ele>
        <time>2022-06-06T10:44:13Z</time>
      </trkpt>
      <trkpt lat="44.11423" lon="6.31339">
        <ele>940.4</ele>
        <time>2022-06-06T10:44:16Z</time>
      </trkpt>
      <trkpt lat="44.11423" lon="6.31337">
        <ele>940.6</ele>
        <time>2022-06-06T10:44:24Z</time>
      </trkpt>
      <trkpt lat="44.1143" lon="6.31329">
        <ele>940.8</ele>
        <time>2022-06-06T10:44:29Z</time>
      </trkpt>
      <trkpt lat="44.11443" lon="6.31323">
        <ele>940.6</ele>
        <time>2022-06-06T10:44:34Z</time>
      </trkpt>
      <trkpt lat="44.11445" lon="6.31321">
        <ele>941</ele>
        <time>2022-06-06T10:44:35Z</time>
      </trkpt>
      <trkpt lat="44.11452" lon="6.31317">
        <ele>940</ele>
        <time>2022-06-06T10:44:37Z</time>
      </trkpt>
      <trkpt lat="44.1146" lon="6.31318">
        <ele>939.6</ele>
        <time>2022-06-06T10:44:39Z</time>
      </trkpt>
      <trkpt lat="44.11465" lon="6.31319">
        <ele>939.4</ele>
        <time>2022-06-06T10:44:40Z</time>
      </trkpt>
      <trkpt lat="44.11478" lon="6.31315">
        <ele>938.8</ele>
        <time>2022-06-06T10:44:44Z</time>
      </trkpt>
      <trkpt lat="44.11489" lon="6.31312">
        <ele>938.8</ele>
        <time>2022-06-06T10:44:48Z</time>
      </trkpt>
      <trkpt lat="44.11491" lon="6.31309">
        <ele>938.8</ele>
        <time>2022-06-06T10:44:49Z</time>
      </trkpt>
      <trkpt lat="44.11498" lon="6.313">
        <ele>938.6</ele>
        <time>2022-06-06T10:44:52Z</time>
      </trkpt>
      <trkpt lat="44.11505" lon="6.31296">
        <ele>938.6</ele>
        <time>2022-06-06T10:44:56Z</time>
      </trkpt>
      <trkpt lat="44.11518" lon="6.31299">
        <ele>938</ele>
        <time>2022-06-06T10:45:03Z</time>
      </trkpt>
      <trkpt lat="44.11526" lon="6.31303">
        <ele>940.2</ele>
        <time>2022-06-06T10:45:07Z</time>
      </trkpt>
      <trkpt lat="44.11529" lon="6.31307">
        <ele>939.6</ele>
        <time>2022-06-06T10:45:09Z</time>
      </trkpt>
      <trkpt lat="44.11545" lon="6.31317">
        <ele>939.8</ele>
        <time>2022-06-06T10:45:16Z</time>
      </trkpt>
      <trkpt lat="44.11558" lon="6.31327">
        <ele>939.8</ele>
        <time>2022-06-06T10:45:20Z</time>
      </trkpt>
      <trkpt lat="44.1157" lon="6.31332">
        <ele>939.6</ele>
        <time>2022-06-06T10:45:23Z</time>
      </trkpt>
      <trkpt lat="44.11579" lon="6.31335">
        <ele>939.6</ele>
        <time>2022-06-06T10:45:26Z</time>
      </trkpt>
      <trkpt lat="44.11583" lon="6.31335">
        <ele>940</ele>
        <time>2022-06-06T10:45:27Z</time>
      </trkpt>
      <trkpt lat="44.11587" lon="6.31336">
        <ele>939.8</ele>
        <time>2022-06-06T10:45:28Z</time>
      </trkpt>
      <trkpt lat="44.11592" lon="6.31339">
        <ele>939.6</ele>
        <time>2022-06-06T10:45:30Z</time>
      </trkpt>
      <trkpt lat="44.11604" lon="6.31344">
        <ele>939.2</ele>
        <time>2022-06-06T10:45:35Z</time>
      </trkpt>
      <trkpt lat="44.11615" lon="6.31349">
        <ele>938.8</ele>
        <time>2022-06-06T10:45:39Z</time>
      </trkpt>
      <trkpt lat="44.11621" lon="6.31346">
        <ele>938.8</ele>
        <time>2022-06-06T10:45:42Z</time>
      </trkpt>
      <trkpt lat="44.11626" lon="6.3134">
        <ele>939</ele>
        <time>2022-06-06T10:45:44Z</time>
      </trkpt>
      <trkpt lat="44.11636" lon="6.31326">
        <ele>939.8</ele>
        <time>2022-06-06T10:45:50Z</time>
      </trkpt>
      <trkpt lat="44.11648" lon="6.31327">
        <ele>940.8</ele>
        <time>2022-06-06T10:45:55Z</time>
      </trkpt>
      <trkpt lat="44.11667" lon="6.31335">
        <ele>941.8</ele>
        <time>2022-06-06T10:46:03Z</time>
      </trkpt>
      <trkpt lat="44.1168" lon="6.31342">
        <ele>942.8</ele>
        <time>2022-06-06T10:46:09Z</time>
      </trkpt>
      <trkpt lat="44.11692" lon="6.31348">
        <ele>943.6</ele>
        <time>2022-06-06T10:46:14Z</time>
      </trkpt>
      <trkpt lat="44.11704" lon="6.31362">
        <ele>944.6</ele>
        <time>2022-06-06T10:46:20Z</time>
      </trkpt>
      <trkpt lat="44.11705" lon="6.31365">
        <ele>944.8</ele>
        <time>2022-06-06T10:46:21Z</time>
      </trkpt>
      <trkpt lat="44.11703" lon="6.31369">
        <ele>945</ele>
        <time>2022-06-06T10:46:23Z</time>
      </trkpt>
      <trkpt lat="44.11687" lon="6.31371">
        <ele>946</ele>
        <time>2022-06-06T10:46:29Z</time>
      </trkpt>
      <trkpt lat="44.11675" lon="6.31391">
        <ele>946.8</ele>
        <time>2022-06-06T10:46:35Z</time>
      </trkpt>
      <trkpt lat="44.11665" lon="6.31421">
        <ele>947.8</ele>
        <time>2022-06-06T10:46:42Z</time>
      </trkpt>
      <trkpt lat="44.11649" lon="6.3144">
        <ele>948.6</ele>
        <time>2022-06-06T10:46:48Z</time>
      </trkpt>
      <trkpt lat="44.1163" lon="6.3146">
        <ele>949.6</ele>
        <time>2022-06-06T10:46:54Z</time>
      </trkpt>
      <trkpt lat="44.11621" lon="6.31461">
        <ele>950</ele>
        <time>2022-06-06T10:46:56Z</time>
      </trkpt>
      <trkpt lat="44.11617" lon="6.31459">
        <ele>950</ele>
        <time>2022-06-06T10:46:57Z</time>
      </trkpt>
      <trkpt lat="44.11613" lon="6.31455">
        <ele>950.2</ele>
        <time>2022-06-06T10:46:58Z</time>
      </trkpt>
      <trkpt lat="44.11605" lon="6.31448">
        <ele>950.6</ele>
        <time>2022-06-06T10:47:00Z</time>
      </trkpt>
      <trkpt lat="44.11602" lon="6.31445">
        <ele>950.6</ele>
        <time>2022-06-06T10:47:01Z</time>
      </trkpt>
      <trkpt lat="44.11598" lon="6.3144">
        <ele>950.8</ele>
        <time>2022-06-06T10:47:02Z</time>
      </trkpt>
      <trkpt lat="44.11589" lon="6.31428">
        <ele>951</ele>
        <time>2022-06-06T10:47:05Z</time>
      </trkpt>
      <trkpt lat="44.11585" lon="6.31419">
        <ele>951.4</ele>
        <time>2022-06-06T10:47:07Z</time>
      </trkpt>
      <trkpt lat="44.1157" lon="6.31399">
        <ele>952.2</ele>
        <time>2022-06-06T10:47:12Z</time>
      </trkpt>
      <trkpt lat="44.11551" lon="6.31388">
        <ele>952.4</ele>
        <time>2022-06-06T10:47:17Z</time>
      </trkpt>
      <trkpt lat="44.11543" lon="6.31386">
        <ele>952.6</ele>
        <time>2022-06-06T10:47:19Z</time>
      </trkpt>
      <trkpt lat="44.11527" lon="6.31383">
        <ele>953</ele>
        <time>2022-06-06T10:47:23Z</time>
      </trkpt>
      <trkpt lat="44.11507" lon="6.31383">
        <ele>953.2</ele>
        <time>2022-06-06T10:47:28Z</time>
      </trkpt>
      <trkpt lat="44.11503" lon="6.31384">
        <ele>953.4</ele>
        <time>2022-06-06T10:47:29Z</time>
      </trkpt>
      <trkpt lat="44.11499" lon="6.31385">
        <ele>953.4</ele>
        <time>2022-06-06T10:47:30Z</time>
      </trkpt>
      <trkpt lat="44.11492" lon="6.31389">
        <ele>953.6</ele>
        <time>2022-06-06T10:47:32Z</time>
      </trkpt>
      <trkpt lat="44.11485" lon="6.31396">
        <ele>953.6</ele>
        <time>2022-06-06T10:47:34Z</time>
      </trkpt>
      <trkpt lat="44.11478" lon="6.31409">
        <ele>953.8</ele>
        <time>2022-06-06T10:47:37Z</time>
      </trkpt>
      <trkpt lat="44.11474" lon="6.31418">
        <ele>954</ele>
        <time>2022-06-06T10:47:39Z</time>
      </trkpt>
      <trkpt lat="44.11461" lon="6.31448">
        <ele>954.6</ele>
        <time>2022-06-06T10:47:45Z</time>
      </trkpt>
      <trkpt lat="44.11452" lon="6.3146">
        <ele>954.8</ele>
        <time>2022-06-06T10:47:48Z</time>
      </trkpt>
      <trkpt lat="44.11433" lon="6.31483">
        <ele>955.4</ele>
        <time>2022-06-06T10:47:54Z</time>
      </trkpt>
      <trkpt lat="44.11427" lon="6.31492">
        <ele>955.6</ele>
        <time>2022-06-06T10:47:56Z</time>
      </trkpt>
      <trkpt lat="44.11417" lon="6.31501">
        <ele>955.8</ele>
        <time>2022-06-06T10:47:59Z</time>
      </trkpt>
      <trkpt lat="44.11389" lon="6.31525">
        <ele>957</ele>
        <time>2022-06-06T10:48:07Z</time>
      </trkpt>
      <trkpt lat="44.11381" lon="6.3153">
        <ele>957.2</ele>
        <time>2022-06-06T10:48:09Z</time>
      </trkpt>
      <trkpt lat="44.11372" lon="6.31532">
        <ele>957.6</ele>
        <time>2022-06-06T10:48:11Z</time>
      </trkpt>
      <trkpt lat="44.11348" lon="6.31528">
        <ele>958.2</ele>
        <time>2022-06-06T10:48:16Z</time>
      </trkpt>
      <trkpt lat="44.11331" lon="6.31525">
        <ele>958.4</ele>
        <time>2022-06-06T10:48:19Z</time>
      </trkpt>
      <trkpt lat="44.11318" lon="6.31529">
        <ele>958.4</ele>
        <time>2022-06-06T10:48:21Z</time>
      </trkpt>
      <trkpt lat="44.11302" lon="6.31539">
        <ele>958.6</ele>
        <time>2022-06-06T10:48:24Z</time>
      </trkpt>
      <trkpt lat="44.11296" lon="6.31538">
        <ele>958.8</ele>
        <time>2022-06-06T10:48:25Z</time>
      </trkpt>
      <trkpt lat="44.11291" lon="6.31536">
        <ele>958.8</ele>
        <time>2022-06-06T10:48:26Z</time>
      </trkpt>
      <trkpt lat="44.11282" lon="6.31527">
        <ele>959</ele>
        <time>2022-06-06T10:48:28Z</time>
      </trkpt>
      <trkpt lat="44.11268" lon="6.31506">
        <ele>959.4</ele>
        <time>2022-06-06T10:48:33Z</time>
      </trkpt>
      <trkpt lat="44.11261" lon="6.31501">
        <ele>959.6</ele>
        <time>2022-06-06T10:48:35Z</time>
      </trkpt>
      <trkpt lat="44.11253" lon="6.31499">
        <ele>959.8</ele>
        <time>2022-06-06T10:48:37Z</time>
      </trkpt>
      <trkpt lat="44.1123" lon="6.31498">
        <ele>960.2</ele>
        <time>2022-06-06T10:48:42Z</time>
      </trkpt>
      <trkpt lat="44.11225" lon="6.31496">
        <ele>960.4</ele>
        <time>2022-06-06T10:48:43Z</time>
      </trkpt>
      <trkpt lat="44.11219" lon="6.31484">
        <ele>960.4</ele>
        <time>2022-06-06T10:48:45Z</time>
      </trkpt>
      <trkpt lat="44.11222" lon="6.3147">
        <ele>960.4</ele>
        <time>2022-06-06T10:48:47Z</time>
      </trkpt>
      <trkpt lat="44.11229" lon="6.31462">
        <ele>960.6</ele>
        <time>2022-06-06T10:48:49Z</time>
      </trkpt>
      <trkpt lat="44.11234" lon="6.31449">
        <ele>960.8</ele>
        <time>2022-06-06T10:48:52Z</time>
      </trkpt>
      <trkpt lat="44.11231" lon="6.31432">
        <ele>961.2</ele>
        <time>2022-06-06T10:48:56Z</time>
      </trkpt>
      <trkpt lat="44.11222" lon="6.3142">
        <ele>961.6</ele>
        <time>2022-06-06T10:48:59Z</time>
      </trkpt>
      <trkpt lat="44.11212" lon="6.31412">
        <ele>961.8</ele>
        <time>2022-06-06T10:49:02Z</time>
      </trkpt>
      <trkpt lat="44.11196" lon="6.31395">
        <ele>962.4</ele>
        <time>2022-06-06T10:49:07Z</time>
      </trkpt>
      <trkpt lat="44.11191" lon="6.31386">
        <ele>962.6</ele>
        <time>2022-06-06T10:49:09Z</time>
      </trkpt>
      <trkpt lat="44.11181" lon="6.31368">
        <ele>963</ele>
        <time>2022-06-06T10:49:13Z</time>
      </trkpt>
      <trkpt lat="44.11167" lon="6.31345">
        <ele>963.6</ele>
        <time>2022-06-06T10:49:19Z</time>
      </trkpt>
      <trkpt lat="44.11164" lon="6.31342">
        <ele>963.8</ele>
        <time>2022-06-06T10:49:20Z</time>
      </trkpt>
      <trkpt lat="44.11152" lon="6.31341">
        <ele>964.2</ele>
        <time>2022-06-06T10:49:23Z</time>
      </trkpt>
      <trkpt lat="44.11135" lon="6.31333">
        <ele>965</ele>
        <time>2022-06-06T10:49:28Z</time>
      </trkpt>
      <trkpt lat="44.11125" lon="6.31312">
        <ele>965.6</ele>
        <time>2022-06-06T10:49:33Z</time>
      </trkpt>
      <trkpt lat="44.11122" lon="6.31302">
        <ele>965.8</ele>
        <time>2022-06-06T10:49:35Z</time>
      </trkpt>
      <trkpt lat="44.11115" lon="6.31288">
        <ele>966.2</ele>
        <time>2022-06-06T10:49:38Z</time>
      </trkpt>
      <trkpt lat="44.11113" lon="6.31283">
        <ele>966.4</ele>
        <time>2022-06-06T10:49:39Z</time>
      </trkpt>
      <trkpt lat="44.11112" lon="6.31277">
        <ele>966.4</ele>
        <time>2022-06-06T10:49:40Z</time>
      </trkpt>
      <trkpt lat="44.11111" lon="6.31261">
        <ele>966.8</ele>
        <time>2022-06-06T10:49:43Z</time>
      </trkpt>
      <trkpt lat="44.1111" lon="6.31233">
        <ele>968</ele>
        <time>2022-06-06T10:49:49Z</time>
      </trkpt>
      <trkpt lat="44.11105" lon="6.31204">
        <ele>969.2</ele>
        <time>2022-06-06T10:49:55Z</time>
      </trkpt>
      <trkpt lat="44.11096" lon="6.31192">
        <ele>970.2</ele>
        <time>2022-06-06T10:49:59Z</time>
      </trkpt>
      <trkpt lat="44.11086" lon="6.31192">
        <ele>971</ele>
        <time>2022-06-06T10:50:02Z</time>
      </trkpt>
      <trkpt lat="44.11073" lon="6.31206">
        <ele>972</ele>
        <time>2022-06-06T10:50:07Z</time>
      </trkpt>
      <trkpt lat="44.1106" lon="6.31221">
        <ele>973</ele>
        <time>2022-06-06T10:50:12Z</time>
      </trkpt>
      <trkpt lat="44.11039" lon="6.31236">
        <ele>974.4</ele>
        <time>2022-06-06T10:50:19Z</time>
      </trkpt>
      <trkpt lat="44.11024" lon="6.31242">
        <ele>975.6</ele>
        <time>2022-06-06T10:50:24Z</time>
      </trkpt>
      <trkpt lat="44.11004" lon="6.3125">
        <ele>977.2</ele>
        <time>2022-06-06T10:50:30Z</time>
      </trkpt>
      <trkpt lat="44.1099" lon="6.31247">
        <ele>978.4</ele>
        <time>2022-06-06T10:50:34Z</time>
      </trkpt>
      <trkpt lat="44.10976" lon="6.31235">
        <ele>979.6</ele>
        <time>2022-06-06T10:50:39Z</time>
      </trkpt>
      <trkpt lat="44.10961" lon="6.31217">
        <ele>981.2</ele>
        <time>2022-06-06T10:50:45Z</time>
      </trkpt>
      <trkpt lat="44.10946" lon="6.31191">
        <ele>983.2</ele>
        <time>2022-06-06T10:50:52Z</time>
      </trkpt>
      <trkpt lat="44.10933" lon="6.31168">
        <ele>985</ele>
        <time>2022-06-06T10:50:58Z</time>
      </trkpt>
      <trkpt lat="44.10919" lon="6.31135">
        <ele>987.4</ele>
        <time>2022-06-06T10:51:06Z</time>
      </trkpt>
      <trkpt lat="44.10906" lon="6.31106">
        <ele>989.4</ele>
        <time>2022-06-06T10:51:13Z</time>
      </trkpt>
      <trkpt lat="44.10891" lon="6.31079">
        <ele>991.6</ele>
        <time>2022-06-06T10:51:20Z</time>
      </trkpt>
      <trkpt lat="44.10885" lon="6.31063">
        <ele>993.2</ele>
        <time>2022-06-06T10:51:25Z</time>
      </trkpt>
      <trkpt lat="44.10885" lon="6.31063">
        <ele>994</ele>
        <time>2022-06-06T10:51:29Z</time>
      </trkpt>
      <trkpt lat="44.10885" lon="6.31063">
        <ele>995.6</ele>
        <time>2022-06-06T10:51:36Z</time>
      </trkpt>
      <trkpt lat="44.10885" lon="6.31063">
        <ele>999.8</ele>
        <time>2022-06-06T10:51:56Z</time>
      </trkpt>
      <trkpt lat="44.10885" lon="6.31063">
        <ele>1001.8</ele>
        <time>2022-06-06T10:52:08Z</time>
      </trkpt>
      <trkpt lat="44.10885" lon="6.31063">
        <ele>1003.8</ele>
        <time>2022-06-06T10:52:21Z</time>
      </trkpt>
      <trkpt lat="44.10885" lon="6.31063">
        <ele>1005.8</ele>
        <time>2022-06-06T10:52:37Z</time>
      </trkpt>
      <trkpt lat="44.10885" lon="6.31063">
        <ele>1007.6</ele>
        <time>2022-06-06T10:52:54Z</time>
      </trkpt>
      <trkpt lat="44.10885" lon="6.31063">
        <ele>1008.8</ele>
        <time>2022-06-06T10:53:09Z</time>
      </trkpt>
      <trkpt lat="44.10885" lon="6.31063">
        <ele>1010.4</ele>
        <time>2022-06-06T10:53:32Z</time>
      </trkpt>
      <trkpt lat="44.10885" lon="6.31063">
        <ele>1011.6</ele>
        <time>2022-06-06T10:53:57Z</time>
      </trkpt>
      <trkpt lat="44.10885" lon="6.31063">
        <ele>1012.8</ele>
        <time>2022-06-06T10:54:27Z</time>
      </trkpt>
      <trkpt lat="44.10885" lon="6.31063">
        <ele>1013.6</ele>
        <time>2022-06-06T10:54:52Z</time>
      </trkpt>
      <trkpt lat="44.10885" lon="6.31063">
        <ele>1014.2</ele>
        <time>2022-06-06T10:55:16Z</time>
      </trkpt>
      <trkpt lat="44.10885" lon="6.31063">
        <ele>1014.4</ele>
        <time>2022-06-06T10:55:38Z</time>
      </trkpt>
      <trkpt lat="44.10885" lon="6.31063">
        <ele>1014.8</ele>
        <time>2022-06-06T10:56:03Z</time>
      </trkpt>
      <trkpt lat="44.10885" lon="6.31063">
        <ele>1015.2</ele>
        <time>2022-06-06T10:56:31Z</time>
      </trkpt>
      <trkpt lat="44.10885" lon="6.31063">
        <ele>1015.4</ele>
        <time>2022-06-06T10:56:54Z</time>
      </trkpt>
      <trkpt lat="44.10885" lon="6.31063">
        <ele>1015.6</ele>
        <time>2022-06-06T10:57:18Z</time>
      </trkpt>
      <trkpt lat="44.10885" lon="6.31063">
        <ele>1015.6</ele>
        <time>2022-06-06T10:57:43Z</time>
      </trkpt>
      <trkpt lat="44.10885" lon="6.31063">
        <ele>1015.8</ele>
        <time>2022-06-06T10:58:06Z</time>
      </trkpt>
      <trkpt lat="44.10886" lon="6.31063">
        <ele>1015.8</ele>
        <time>2022-06-06T10:58:30Z</time>
      </trkpt>
      <trkpt lat="44.10886" lon="6.31063">
        <ele>1016</ele>
        <time>2022-06-06T10:58:37Z</time>
      </trkpt>
      <trkpt lat="44.10886" lon="6.31063">
        <ele>1016</ele>
        <time>2022-06-06T10:58:39Z</time>
      </trkpt>
      <trkpt lat="44.10884" lon="6.31056">
        <ele>1016.2</ele>
        <time>2022-06-06T10:58:42Z</time>
      </trkpt>
      <trkpt lat="44.10877" lon="6.31038">
        <ele>1016.6</ele>
        <time>2022-06-06T10:58:48Z</time>
      </trkpt>
      <trkpt lat="44.10868" lon="6.31029">
        <ele>1016.6</ele>
        <time>2022-06-06T10:58:52Z</time>
      </trkpt>
      <trkpt lat="44.10865" lon="6.31028">
        <ele>1016.4</ele>
        <time>2022-06-06T10:58:53Z</time>
      </trkpt>
      <trkpt lat="44.10859" lon="6.31028">
        <ele>1016.4</ele>
        <time>2022-06-06T10:58:55Z</time>
      </trkpt>
      <trkpt lat="44.10855" lon="6.31033">
        <ele>1016.2</ele>
        <time>2022-06-06T10:58:57Z</time>
      </trkpt>
      <trkpt lat="44.10854" lon="6.31041">
        <ele>1016.2</ele>
        <time>2022-06-06T10:58:59Z</time>
      </trkpt>
      <trkpt lat="44.10855" lon="6.3105">
        <ele>1016.4</ele>
        <time>2022-06-06T10:59:01Z</time>
      </trkpt>
      <trkpt lat="44.10862" lon="6.31073">
        <ele>1016.6</ele>
        <time>2022-06-06T10:59:06Z</time>
      </trkpt>
      <trkpt lat="44.10866" lon="6.31105">
        <ele>1017</ele>
        <time>2022-06-06T10:59:13Z</time>
      </trkpt>
      <trkpt lat="44.10865" lon="6.31126">
        <ele>1017.2</ele>
        <time>2022-06-06T10:59:18Z</time>
      </trkpt>
      <trkpt lat="44.10865" lon="6.31157">
        <ele>1017.4</ele>
        <time>2022-06-06T10:59:25Z</time>
      </trkpt>
      <trkpt lat="44.10873" lon="6.31187">
        <ele>1018</ele>
        <time>2022-06-06T10:59:32Z</time>
      </trkpt>
      <trkpt lat="44.10881" lon="6.31213">
        <ele>1018.8</ele>
        <time>2022-06-06T10:59:38Z</time>
      </trkpt>
      <trkpt lat="44.10882" lon="6.31249">
        <ele>1020.2</ele>
        <time>2022-06-06T10:59:46Z</time>
      </trkpt>
      <trkpt lat="44.10883" lon="6.31283">
        <ele>1021.6</ele>
        <time>2022-06-06T10:59:53Z</time>
      </trkpt>
      <trkpt lat="44.10882" lon="6.31321">
        <ele>1023.2</ele>
        <time>2022-06-06T11:00:01Z</time>
      </trkpt>
      <trkpt lat="44.10878" lon="6.31364">
        <ele>1025</ele>
        <time>2022-06-06T11:00:10Z</time>
      </trkpt>
      <trkpt lat="44.10873" lon="6.31403">
        <ele>1026.8</ele>
        <time>2022-06-06T11:00:18Z</time>
      </trkpt>
      <trkpt lat="44.10875" lon="6.31435">
        <ele>1028.6</ele>
        <time>2022-06-06T11:00:25Z</time>
      </trkpt>
      <trkpt lat="44.10873" lon="6.31472">
        <ele>1030.8</ele>
        <time>2022-06-06T11:00:33Z</time>
      </trkpt>
      <trkpt lat="44.10864" lon="6.31495">
        <ele>1032.6</ele>
        <time>2022-06-06T11:00:39Z</time>
      </trkpt>
      <trkpt lat="44.10858" lon="6.31494">
        <ele>1033.2</ele>
        <time>2022-06-06T11:00:41Z</time>
      </trkpt>
      <trkpt lat="44.10856" lon="6.3149">
        <ele>1033.4</ele>
        <time>2022-06-06T11:00:42Z</time>
      </trkpt>
      <trkpt lat="44.10844" lon="6.31473">
        <ele>1034.8</ele>
        <time>2022-06-06T11:00:47Z</time>
      </trkpt>
      <trkpt lat="44.10828" lon="6.31472">
        <ele>1036.2</ele>
        <time>2022-06-06T11:00:52Z</time>
      </trkpt>
      <trkpt lat="44.10813" lon="6.31483">
        <ele>1037.4</ele>
        <time>2022-06-06T11:00:57Z</time>
      </trkpt>
      <trkpt lat="44.10803" lon="6.31504">
        <ele>1038.6</ele>
        <time>2022-06-06T11:01:02Z</time>
      </trkpt>
      <trkpt lat="44.10794" lon="6.31529">
        <ele>1039.8</ele>
        <time>2022-06-06T11:01:08Z</time>
      </trkpt>
      <trkpt lat="44.10782" lon="6.31558">
        <ele>1041.2</ele>
        <time>2022-06-06T11:01:15Z</time>
      </trkpt>
      <trkpt lat="44.10772" lon="6.31584">
        <ele>1042.4</ele>
        <time>2022-06-06T11:01:21Z</time>
      </trkpt>
      <trkpt lat="44.10761" lon="6.31602">
        <ele>1043.4</ele>
        <time>2022-06-06T11:01:26Z</time>
      </trkpt>
      <trkpt lat="44.10746" lon="6.31625">
        <ele>1044.6</ele>
        <time>2022-06-06T11:01:32Z</time>
      </trkpt>
      <trkpt lat="44.1073" lon="6.31656">
        <ele>1046.4</ele>
        <time>2022-06-06T11:01:40Z</time>
      </trkpt>
      <trkpt lat="44.10711" lon="6.31691">
        <ele>1048.8</ele>
        <time>2022-06-06T11:01:49Z</time>
      </trkpt>
      <trkpt lat="44.10703" lon="6.31704">
        <ele>1050</ele>
        <time>2022-06-06T11:01:54Z</time>
      </trkpt>
      <trkpt lat="44.10691" lon="6.31725">
        <ele>1051</ele>
        <time>2022-06-06T11:02:00Z</time>
      </trkpt>
      <trkpt lat="44.10678" lon="6.31746">
        <ele>1051.8</ele>
        <time>2022-06-06T11:02:04Z</time>
      </trkpt>
      <trkpt lat="44.10673" lon="6.31752">
        <ele>1052</ele>
        <time>2022-06-06T11:02:05Z</time>
      </trkpt>
      <trkpt lat="44.10667" lon="6.31757">
        <ele>1052</ele>
        <time>2022-06-06T11:02:06Z</time>
      </trkpt>
      <trkpt lat="44.10655" lon="6.31768">
        <ele>1052.4</ele>
        <time>2022-06-06T11:02:08Z</time>
      </trkpt>
      <trkpt lat="44.1065" lon="6.31774">
        <ele>1052.4</ele>
        <time>2022-06-06T11:02:09Z</time>
      </trkpt>
      <trkpt lat="44.1063" lon="6.31803">
        <ele>1053</ele>
        <time>2022-06-06T11:02:13Z</time>
      </trkpt>
      <trkpt lat="44.10614" lon="6.31816">
        <ele>1053.4</ele>
        <time>2022-06-06T11:02:16Z</time>
      </trkpt>
      <trkpt lat="44.10608" lon="6.3182">
        <ele>1053.6</ele>
        <time>2022-06-06T11:02:17Z</time>
      </trkpt>
      <trkpt lat="44.10597" lon="6.31827">
        <ele>1053.8</ele>
        <time>2022-06-06T11:02:19Z</time>
      </trkpt>
      <trkpt lat="44.10577" lon="6.31834">
        <ele>1054.2</ele>
        <time>2022-06-06T11:02:22Z</time>
      </trkpt>
      <trkpt lat="44.10555" lon="6.31834">
        <ele>1054.4</ele>
        <time>2022-06-06T11:02:25Z</time>
      </trkpt>
      <trkpt lat="44.10547" lon="6.31833">
        <ele>1054.4</ele>
        <time>2022-06-06T11:02:26Z</time>
      </trkpt>
      <trkpt lat="44.10539" lon="6.31831">
        <ele>1054.4</ele>
        <time>2022-06-06T11:02:27Z</time>
      </trkpt>
      <trkpt lat="44.10524" lon="6.31826">
        <ele>1054.6</ele>
        <time>2022-06-06T11:02:29Z</time>
      </trkpt>
      <trkpt lat="44.10517" lon="6.31825">
        <ele>1054.6</ele>
        <time>2022-06-06T11:02:31Z</time>
      </trkpt>
      <trkpt lat="44.10516" lon="6.31826">
        <ele>1054.6</ele>
        <time>2022-06-06T11:02:32Z</time>
      </trkpt>
      <trkpt lat="44.10516" lon="6.3183">
        <ele>1054.6</ele>
        <time>2022-06-06T11:02:34Z</time>
      </trkpt>
      <trkpt lat="44.10525" lon="6.31834">
        <ele>1055</ele>
        <time>2022-06-06T11:02:39Z</time>
      </trkpt>
      <trkpt lat="44.10529" lon="6.31836">
        <ele>1055.2</ele>
        <time>2022-06-06T11:02:41Z</time>
      </trkpt>
      <trkpt lat="44.10532" lon="6.31841">
        <ele>1055.4</ele>
        <time>2022-06-06T11:02:43Z</time>
      </trkpt>
      <trkpt lat="44.10534" lon="6.31844">
        <ele>1055.6</ele>
        <time>2022-06-06T11:02:44Z</time>
      </trkpt>
      <trkpt lat="44.10541" lon="6.31848">
        <ele>1055.8</ele>
        <time>2022-06-06T11:02:47Z</time>
      </trkpt>
      <trkpt lat="44.10553" lon="6.31846">
        <ele>1056.2</ele>
        <time>2022-06-06T11:02:52Z</time>
      </trkpt>
      <trkpt lat="44.10566" lon="6.31846">
        <ele>1056.4</ele>
        <time>2022-06-06T11:02:57Z</time>
      </trkpt>
      <trkpt lat="44.10577" lon="6.31848">
        <ele>1056.6</ele>
        <time>2022-06-06T11:03:02Z</time>
      </trkpt>
      <trkpt lat="44.10587" lon="6.31845">
        <ele>1056.8</ele>
        <time>2022-06-06T11:03:06Z</time>
      </trkpt>
      <trkpt lat="44.10596" lon="6.31841">
        <ele>1057</ele>
        <time>2022-06-06T11:03:10Z</time>
      </trkpt>
      <trkpt lat="44.10612" lon="6.31843">
        <ele>1057.8</ele>
        <time>2022-06-06T11:03:16Z</time>
      </trkpt>
      <trkpt lat="44.10622" lon="6.31838">
        <ele>1058.2</ele>
        <time>2022-06-06T11:03:20Z</time>
      </trkpt>
      <trkpt lat="44.10634" lon="6.31836">
        <ele>1058.6</ele>
        <time>2022-06-06T11:03:25Z</time>
      </trkpt>
      <trkpt lat="44.1065" lon="6.3183">
        <ele>1059.6</ele>
        <time>2022-06-06T11:03:32Z</time>
      </trkpt>
      <trkpt lat="44.10663" lon="6.31818">
        <ele>1060.4</ele>
        <time>2022-06-06T11:03:38Z</time>
      </trkpt>
      <trkpt lat="44.1067" lon="6.31813">
        <ele>1060.6</ele>
        <time>2022-06-06T11:03:41Z</time>
      </trkpt>
      <trkpt lat="44.10675" lon="6.3181">
        <ele>1061</ele>
        <time>2022-06-06T11:03:43Z</time>
      </trkpt>
      <trkpt lat="44.10685" lon="6.31803">
        <ele>1061.6</ele>
        <time>2022-06-06T11:03:48Z</time>
      </trkpt>
      <trkpt lat="44.1069" lon="6.31803">
        <ele>1061.8</ele>
        <time>2022-06-06T11:03:50Z</time>
      </trkpt>
      <trkpt lat="44.10704" lon="6.31807">
        <ele>1062.8</ele>
        <time>2022-06-06T11:03:56Z</time>
      </trkpt>
      <trkpt lat="44.10713" lon="6.31806">
        <ele>1063.6</ele>
        <time>2022-06-06T11:04:01Z</time>
      </trkpt>
      <trkpt lat="44.10725" lon="6.31799">
        <ele>1064.2</ele>
        <time>2022-06-06T11:04:07Z</time>
      </trkpt>
      <trkpt lat="44.10736" lon="6.31789">
        <ele>1065</ele>
        <time>2022-06-06T11:04:13Z</time>
      </trkpt>
      <trkpt lat="44.10742" lon="6.31786">
        <ele>1065.4</ele>
        <time>2022-06-06T11:04:16Z</time>
      </trkpt>
      <trkpt lat="44.10743" lon="6.31784">
        <ele>1065.4</ele>
        <time>2022-06-06T11:04:17Z</time>
      </trkpt>
      <trkpt lat="44.1075" lon="6.31784">
        <ele>1065.8</ele>
        <time>2022-06-06T11:04:20Z</time>
      </trkpt>
      <trkpt lat="44.10751" lon="6.31786">
        <ele>1065.8</ele>
        <time>2022-06-06T11:04:21Z</time>
      </trkpt>
      <trkpt lat="44.1076" lon="6.31793">
        <ele>1066.2</ele>
        <time>2022-06-06T11:04:26Z</time>
      </trkpt>
      <trkpt lat="44.10769" lon="6.31799">
        <ele>1066.4</ele>
        <time>2022-06-06T11:04:31Z</time>
      </trkpt>
      <trkpt lat="44.10776" lon="6.31806">
        <ele>1066.8</ele>
        <time>2022-06-06T11:04:35Z</time>
      </trkpt>
      <trkpt lat="44.10785" lon="6.31818">
        <ele>1067.4</ele>
        <time>2022-06-06T11:04:40Z</time>
      </trkpt>
      <trkpt lat="44.10794" lon="6.31833">
        <ele>1067.8</ele>
        <time>2022-06-06T11:04:46Z</time>
      </trkpt>
      <trkpt lat="44.10795" lon="6.31834">
        <ele>1068.2</ele>
        <time>2022-06-06T11:04:51Z</time>
      </trkpt>
      <trkpt lat="44.10795" lon="6.31834">
        <ele>1069.2</ele>
        <time>2022-06-06T11:05:11Z</time>
      </trkpt>
      <trkpt lat="44.10795" lon="6.31835">
        <ele>1070</ele>
        <time>2022-06-06T11:05:29Z</time>
      </trkpt>
      <trkpt lat="44.10795" lon="6.31835">
        <ele>1070.6</ele>
        <time>2022-06-06T11:05:43Z</time>
      </trkpt>
      <trkpt lat="44.10795" lon="6.31835">
        <ele>1071</ele>
        <time>2022-06-06T11:05:53Z</time>
      </trkpt>
      <trkpt lat="44.10796" lon="6.31835">
        <ele>1071.6</ele>
        <time>2022-06-06T11:06:10Z</time>
      </trkpt>
      <trkpt lat="44.10796" lon="6.31835">
        <ele>1072</ele>
        <time>2022-06-06T11:06:27Z</time>
      </trkpt>
      <trkpt lat="44.10801" lon="6.31839">
        <ele>1073.2</ele>
        <time>2022-06-06T11:06:40Z</time>
      </trkpt>
      <trkpt lat="44.10804" lon="6.31856">
        <ele>1074.8</ele>
        <time>2022-06-06T11:06:46Z</time>
      </trkpt>
      <trkpt lat="44.10808" lon="6.31873">
        <ele>1075.6</ele>
        <time>2022-06-06T11:06:51Z</time>
      </trkpt>
      <trkpt lat="44.10811" lon="6.31892">
        <ele>1076</ele>
        <time>2022-06-06T11:06:57Z</time>
      </trkpt>
      <trkpt lat="44.10815" lon="6.3191">
        <ele>1076.2</ele>
        <time>2022-06-06T11:07:02Z</time>
      </trkpt>
      <trkpt lat="44.10818" lon="6.31928">
        <ele>1077</ele>
        <time>2022-06-06T11:07:07Z</time>
      </trkpt>
      <trkpt lat="44.10822" lon="6.31945">
        <ele>1077.8</ele>
        <time>2022-06-06T11:07:12Z</time>
      </trkpt>
      <trkpt lat="44.10824" lon="6.31968">
        <ele>1078.6</ele>
        <time>2022-06-06T11:07:18Z</time>
      </trkpt>
      <trkpt lat="44.10826" lon="6.3199">
        <ele>1079.2</ele>
        <time>2022-06-06T11:07:24Z</time>
      </trkpt>
      <trkpt lat="44.10827" lon="6.32008">
        <ele>1079.2</ele>
        <time>2022-06-06T11:07:29Z</time>
      </trkpt>
      <trkpt lat="44.1083" lon="6.3203">
        <ele>1079.4</ele>
        <time>2022-06-06T11:07:35Z</time>
      </trkpt>
      <trkpt lat="44.10833" lon="6.32052">
        <ele>1079.4</ele>
        <time>2022-06-06T11:07:41Z</time>
      </trkpt>
      <trkpt lat="44.10832" lon="6.32072">
        <ele>1080</ele>
        <time>2022-06-06T11:07:46Z</time>
      </trkpt>
      <trkpt lat="44.10837" lon="6.3209">
        <ele>1080.8</ele>
        <time>2022-06-06T11:07:51Z</time>
      </trkpt>
      <trkpt lat="44.10838" lon="6.32094">
        <ele>1081</ele>
        <time>2022-06-06T11:07:52Z</time>
      </trkpt>
      <trkpt lat="44.1084" lon="6.32098">
        <ele>1081.4</ele>
        <time>2022-06-06T11:07:54Z</time>
      </trkpt>
      <trkpt lat="44.10847" lon="6.32105">
        <ele>1081.8</ele>
        <time>2022-06-06T11:07:59Z</time>
      </trkpt>
      <trkpt lat="44.10848" lon="6.32107">
        <ele>1082</ele>
        <time>2022-06-06T11:08:00Z</time>
      </trkpt>
      <trkpt lat="44.10852" lon="6.32109">
        <ele>1082.2</ele>
        <time>2022-06-06T11:08:02Z</time>
      </trkpt>
      <trkpt lat="44.10866" lon="6.32111">
        <ele>1083</ele>
        <time>2022-06-06T11:08:07Z</time>
      </trkpt>
      <trkpt lat="44.10867" lon="6.32111">
        <ele>1083</ele>
        <time>2022-06-06T11:08:08Z</time>
      </trkpt>
      <trkpt lat="44.10874" lon="6.32108">
        <ele>1083.6</ele>
        <time>2022-06-06T11:08:12Z</time>
      </trkpt>
      <trkpt lat="44.10886" lon="6.32097">
        <ele>1084.8</ele>
        <time>2022-06-06T11:08:17Z</time>
      </trkpt>
      <trkpt lat="44.10894" lon="6.32089">
        <ele>1085.2</ele>
        <time>2022-06-06T11:08:21Z</time>
      </trkpt>
      <trkpt lat="44.10898" lon="6.32088">
        <ele>1085.4</ele>
        <time>2022-06-06T11:08:22Z</time>
      </trkpt>
      <trkpt lat="44.10911" lon="6.32078">
        <ele>1085.6</ele>
        <time>2022-06-06T11:08:26Z</time>
      </trkpt>
      <trkpt lat="44.10922" lon="6.32061">
        <ele>1086.2</ele>
        <time>2022-06-06T11:08:30Z</time>
      </trkpt>
      <trkpt lat="44.10925" lon="6.32058">
        <ele>1086.4</ele>
        <time>2022-06-06T11:08:31Z</time>
      </trkpt>
      <trkpt lat="44.10936" lon="6.3207">
        <ele>1086.8</ele>
        <time>2022-06-06T11:08:34Z</time>
      </trkpt>
      <trkpt lat="44.10939" lon="6.32075">
        <ele>1087</ele>
        <time>2022-06-06T11:08:35Z</time>
      </trkpt>
      <trkpt lat="44.10947" lon="6.32086">
        <ele>1087.2</ele>
        <time>2022-06-06T11:08:37Z</time>
      </trkpt>
      <trkpt lat="44.1097" lon="6.32105">
        <ele>1087.6</ele>
        <time>2022-06-06T11:08:41Z</time>
      </trkpt>
      <trkpt lat="44.10976" lon="6.32108">
        <ele>1087.8</ele>
        <time>2022-06-06T11:08:42Z</time>
      </trkpt>
      <trkpt lat="44.10998" lon="6.32118">
        <ele>1088</ele>
        <time>2022-06-06T11:08:46Z</time>
      </trkpt>
      <trkpt lat="44.11017" lon="6.32121">
        <ele>1088.4</ele>
        <time>2022-06-06T11:08:50Z</time>
      </trkpt>
      <trkpt lat="44.11026" lon="6.32121">
        <ele>1088.6</ele>
        <time>2022-06-06T11:08:52Z</time>
      </trkpt>
      <trkpt lat="44.11035" lon="6.32117">
        <ele>1088.8</ele>
        <time>2022-06-06T11:08:54Z</time>
      </trkpt>
      <trkpt lat="44.11056" lon="6.32106">
        <ele>1089.2</ele>
        <time>2022-06-06T11:08:58Z</time>
      </trkpt>
      <trkpt lat="44.1106" lon="6.32106">
        <ele>1089.2</ele>
        <time>2022-06-06T11:08:59Z</time>
      </trkpt>
      <trkpt lat="44.11062" lon="6.32109">
        <ele>1089.2</ele>
        <time>2022-06-06T11:09:00Z</time>
      </trkpt>
      <trkpt lat="44.11065" lon="6.32118">
        <ele>1089.2</ele>
        <time>2022-06-06T11:09:02Z</time>
      </trkpt>
      <trkpt lat="44.11065" lon="6.32128">
        <ele>1089.2</ele>
        <time>2022-06-06T11:09:06Z</time>
      </trkpt>
      <trkpt lat="44.11065" lon="6.32128">
        <ele>1090</ele>
        <time>2022-06-06T11:09:17Z</time>
      </trkpt>
      <trkpt lat="44.11065" lon="6.32128">
        <ele>1090.6</ele>
        <time>2022-06-06T11:09:32Z</time>
      </trkpt>
      <trkpt lat="44.11067" lon="6.32132">
        <ele>1090.8</ele>
        <time>2022-06-06T11:09:34Z</time>
      </trkpt>
      <trkpt lat="44.11067" lon="6.32135">
        <ele>1090.8</ele>
        <time>2022-06-06T11:09:35Z</time>
      </trkpt>
      <trkpt lat="44.11066" lon="6.32137">
        <ele>1090.8</ele>
        <time>2022-06-06T11:09:38Z</time>
      </trkpt>
      <trkpt lat="44.11065" lon="6.32143">
        <ele>1090.8</ele>
        <time>2022-06-06T11:09:41Z</time>
      </trkpt>
      <trkpt lat="44.11063" lon="6.32151">
        <ele>1090.8</ele>
        <time>2022-06-06T11:09:43Z</time>
      </trkpt>
      <trkpt lat="44.11062" lon="6.32155">
        <ele>1090.8</ele>
        <time>2022-06-06T11:09:44Z</time>
      </trkpt>
      <trkpt lat="44.11061" lon="6.3216">
        <ele>1090.8</ele>
        <time>2022-06-06T11:09:45Z</time>
      </trkpt>
      <trkpt lat="44.11059" lon="6.32173">
        <ele>1091</ele>
        <time>2022-06-06T11:09:47Z</time>
      </trkpt>
      <trkpt lat="44.1106" lon="6.3219">
        <ele>1089.8</ele>
        <time>2022-06-06T11:09:49Z</time>
      </trkpt>
      <trkpt lat="44.1106" lon="6.32209">
        <ele>1090</ele>
        <time>2022-06-06T11:09:51Z</time>
      </trkpt>
      <trkpt lat="44.11059" lon="6.32219">
        <ele>1089.8</ele>
        <time>2022-06-06T11:09:52Z</time>
      </trkpt>
      <trkpt lat="44.1106" lon="6.32232">
        <ele>1089.6</ele>
        <time>2022-06-06T11:09:54Z</time>
      </trkpt>
      <trkpt lat="44.11053" lon="6.3225">
        <ele>1089.2</ele>
        <time>2022-06-06T11:09:57Z</time>
      </trkpt>
      <trkpt lat="44.11054" lon="6.32259">
        <ele>1089</ele>
        <time>2022-06-06T11:09:59Z</time>
      </trkpt>
      <trkpt lat="44.11066" lon="6.32271">
        <ele>1088.4</ele>
        <time>2022-06-06T11:10:03Z</time>
      </trkpt>
      <trkpt lat="44.11073" lon="6.32276">
        <ele>1088</ele>
        <time>2022-06-06T11:10:05Z</time>
      </trkpt>
      <trkpt lat="44.11079" lon="6.32288">
        <ele>1087.6</ele>
        <time>2022-06-06T11:10:07Z</time>
      </trkpt>
      <trkpt lat="44.11087" lon="6.32294">
        <ele>1087.4</ele>
        <time>2022-06-06T11:10:09Z</time>
      </trkpt>
      <trkpt lat="44.11097" lon="6.32288">
        <ele>1086.8</ele>
        <time>2022-06-06T11:10:12Z</time>
      </trkpt>
      <trkpt lat="44.11114" lon="6.32292">
        <ele>1086.4</ele>
        <time>2022-06-06T11:10:17Z</time>
      </trkpt>
      <trkpt lat="44.11125" lon="6.323">
        <ele>1086.2</ele>
        <time>2022-06-06T11:10:22Z</time>
      </trkpt>
      <trkpt lat="44.11128" lon="6.32302">
        <ele>1086</ele>
        <time>2022-06-06T11:10:24Z</time>
      </trkpt>
      <trkpt lat="44.1113" lon="6.32304">
        <ele>1086</ele>
        <time>2022-06-06T11:10:27Z</time>
      </trkpt>
      <trkpt lat="44.1113" lon="6.32304">
        <ele>1085</ele>
        <time>2022-06-06T11:10:40Z</time>
      </trkpt>
      <trkpt lat="44.1113" lon="6.32304">
        <ele>1083.8</ele>
        <time>2022-06-06T11:11:01Z</time>
      </trkpt>
      <trkpt lat="44.1113" lon="6.32304">
        <ele>1083</ele>
        <time>2022-06-06T11:11:23Z</time>
      </trkpt>
      <trkpt lat="44.1113" lon="6.32304">
        <ele>1082.6</ele>
        <time>2022-06-06T11:11:38Z</time>
      </trkpt>
      <trkpt lat="44.11132" lon="6.32303">
        <ele>1082.6</ele>
        <time>2022-06-06T11:11:46Z</time>
      </trkpt>
      <trkpt lat="44.11135" lon="6.32304">
        <ele>1082.6</ele>
        <time>2022-06-06T11:11:48Z</time>
      </trkpt>
      <trkpt lat="44.11144" lon="6.32313">
        <ele>1082</ele>
        <time>2022-06-06T11:11:52Z</time>
      </trkpt>
      <trkpt lat="44.11147" lon="6.32317">
        <ele>1081.8</ele>
        <time>2022-06-06T11:11:53Z</time>
      </trkpt>
      <trkpt lat="44.11151" lon="6.32327">
        <ele>1081.4</ele>
        <time>2022-06-06T11:11:55Z</time>
      </trkpt>
      <trkpt lat="44.11159" lon="6.32348">
        <ele>1080.6</ele>
        <time>2022-06-06T11:12:00Z</time>
      </trkpt>
      <trkpt lat="44.1116" lon="6.32362">
        <ele>1080</ele>
        <time>2022-06-06T11:12:04Z</time>
      </trkpt>
      <trkpt lat="44.11162" lon="6.32364">
        <ele>1079.4</ele>
        <time>2022-06-06T11:12:11Z</time>
      </trkpt>
      <trkpt lat="44.11173" lon="6.32368">
        <ele>1078.6</ele>
        <time>2022-06-06T11:12:15Z</time>
      </trkpt>
      <trkpt lat="44.11183" lon="6.32366">
        <ele>1077.8</ele>
        <time>2022-06-06T11:12:19Z</time>
      </trkpt>
      <trkpt lat="44.11186" lon="6.32367">
        <ele>1077.6</ele>
        <time>2022-06-06T11:12:20Z</time>
      </trkpt>
      <trkpt lat="44.11191" lon="6.32372">
        <ele>1077.2</ele>
        <time>2022-06-06T11:12:23Z</time>
      </trkpt>
      <trkpt lat="44.11199" lon="6.32374">
        <ele>1076.6</ele>
        <time>2022-06-06T11:12:26Z</time>
      </trkpt>
      <trkpt lat="44.11202" lon="6.32375">
        <ele>1076.4</ele>
        <time>2022-06-06T11:12:27Z</time>
      </trkpt>
      <trkpt lat="44.11213" lon="6.32373">
        <ele>1075.6</ele>
        <time>2022-06-06T11:12:32Z</time>
      </trkpt>
      <trkpt lat="44.1122" lon="6.32375">
        <ele>1075.2</ele>
        <time>2022-06-06T11:12:35Z</time>
      </trkpt>
      <trkpt lat="44.11222" lon="6.32374">
        <ele>1075</ele>
        <time>2022-06-06T11:12:36Z</time>
      </trkpt>
      <trkpt lat="44.11232" lon="6.32374">
        <ele>1074.6</ele>
        <time>2022-06-06T11:12:40Z</time>
      </trkpt>
      <trkpt lat="44.11239" lon="6.32374">
        <ele>1074.6</ele>
        <time>2022-06-06T11:12:42Z</time>
      </trkpt>
      <trkpt lat="44.11244" lon="6.32372">
        <ele>1074.2</ele>
        <time>2022-06-06T11:12:44Z</time>
      </trkpt>
      <trkpt lat="44.11256" lon="6.32365">
        <ele>1074</ele>
        <time>2022-06-06T11:12:48Z</time>
      </trkpt>
      <trkpt lat="44.11265" lon="6.3236">
        <ele>1073.8</ele>
        <time>2022-06-06T11:12:51Z</time>
      </trkpt>
      <trkpt lat="44.11268" lon="6.3236">
        <ele>1073.6</ele>
        <time>2022-06-06T11:12:52Z</time>
      </trkpt>
      <trkpt lat="44.11273" lon="6.32361">
        <ele>1073.4</ele>
        <time>2022-06-06T11:12:54Z</time>
      </trkpt>
      <trkpt lat="44.11279" lon="6.32358">
        <ele>1073.4</ele>
        <time>2022-06-06T11:12:56Z</time>
      </trkpt>
      <trkpt lat="44.11286" lon="6.32358">
        <ele>1073.4</ele>
        <time>2022-06-06T11:12:58Z</time>
      </trkpt>
      <trkpt lat="44.1129" lon="6.32355">
        <ele>1073.6</ele>
        <time>2022-06-06T11:13:00Z</time>
      </trkpt>
      <trkpt lat="44.11297" lon="6.32349">
        <ele>1073.4</ele>
        <time>2022-06-06T11:13:03Z</time>
      </trkpt>
      <trkpt lat="44.113" lon="6.32348">
        <ele>1073.4</ele>
        <time>2022-06-06T11:13:04Z</time>
      </trkpt>
      <trkpt lat="44.11307" lon="6.32346">
        <ele>1073.2</ele>
        <time>2022-06-06T11:13:06Z</time>
      </trkpt>
      <trkpt lat="44.11313" lon="6.32348">
        <ele>1073.2</ele>
        <time>2022-06-06T11:13:08Z</time>
      </trkpt>
      <trkpt lat="44.11319" lon="6.32348">
        <ele>1073.2</ele>
        <time>2022-06-06T11:13:10Z</time>
      </trkpt>
      <trkpt lat="44.11323" lon="6.32338">
        <ele>1073.2</ele>
        <time>2022-06-06T11:13:12Z</time>
      </trkpt>
      <trkpt lat="44.11333" lon="6.32326">
        <ele>1073.6</ele>
        <time>2022-06-06T11:13:17Z</time>
      </trkpt>
      <trkpt lat="44.11341" lon="6.32319">
        <ele>1073.8</ele>
        <time>2022-06-06T11:13:21Z</time>
      </trkpt>
      <trkpt lat="44.11342" lon="6.32317">
        <ele>1074</ele>
        <time>2022-06-06T11:13:22Z</time>
      </trkpt>
      <trkpt lat="44.11346" lon="6.3231">
        <ele>1073.8</ele>
        <time>2022-06-06T11:13:24Z</time>
      </trkpt>
      <trkpt lat="44.11348" lon="6.32308">
        <ele>1073.8</ele>
        <time>2022-06-06T11:13:25Z</time>
      </trkpt>
      <trkpt lat="44.1136" lon="6.32309">
        <ele>1074.4</ele>
        <time>2022-06-06T11:13:30Z</time>
      </trkpt>
      <trkpt lat="44.11374" lon="6.32307">
        <ele>1075.4</ele>
        <time>2022-06-06T11:13:36Z</time>
      </trkpt>
      <trkpt lat="44.1138" lon="6.32308">
        <ele>1075.8</ele>
        <time>2022-06-06T11:13:39Z</time>
      </trkpt>
      <trkpt lat="44.11382" lon="6.32306">
        <ele>1076</ele>
        <time>2022-06-06T11:13:40Z</time>
      </trkpt>
      <trkpt lat="44.11383" lon="6.32305">
        <ele>1076.2</ele>
        <time>2022-06-06T11:13:43Z</time>
      </trkpt>
      <trkpt lat="44.11383" lon="6.32304">
        <ele>1076.8</ele>
        <time>2022-06-06T11:13:49Z</time>
      </trkpt>
      <trkpt lat="44.11383" lon="6.32304">
        <ele>1077.4</ele>
        <time>2022-06-06T11:13:58Z</time>
      </trkpt>
      <trkpt lat="44.11383" lon="6.32304">
        <ele>1078</ele>
        <time>2022-06-06T11:14:05Z</time>
      </trkpt>
      <trkpt lat="44.11381" lon="6.32304">
        <ele>1078.6</ele>
        <time>2022-06-06T11:14:07Z</time>
      </trkpt>
      <trkpt lat="44.1138" lon="6.32301">
        <ele>1079</ele>
        <time>2022-06-06T11:14:09Z</time>
      </trkpt>
      <trkpt lat="44.11379" lon="6.32295">
        <ele>1079.6</ele>
        <time>2022-06-06T11:14:12Z</time>
      </trkpt>
      <trkpt lat="44.11386" lon="6.32288">
        <ele>1079.8</ele>
        <time>2022-06-06T11:14:15Z</time>
      </trkpt>
      <trkpt lat="44.11393" lon="6.3229">
        <ele>1079.8</ele>
        <time>2022-06-06T11:14:17Z</time>
      </trkpt>
      <trkpt lat="44.114" lon="6.32298">
        <ele>1079.8</ele>
        <time>2022-06-06T11:14:20Z</time>
      </trkpt>
      <trkpt lat="44.11406" lon="6.32308">
        <ele>1079.8</ele>
        <time>2022-06-06T11:14:24Z</time>
      </trkpt>
      <trkpt lat="44.11407" lon="6.32308">
        <ele>1080</ele>
        <time>2022-06-06T11:14:28Z</time>
      </trkpt>
      <trkpt lat="44.11407" lon="6.32308">
        <ele>1081</ele>
        <time>2022-06-06T11:14:49Z</time>
      </trkpt>
      <trkpt lat="44.11407" lon="6.32308">
        <ele>1081.6</ele>
        <time>2022-06-06T11:15:03Z</time>
      </trkpt>
      <trkpt lat="44.11406" lon="6.3231">
        <ele>1082</ele>
        <time>2022-06-06T11:15:16Z</time>
      </trkpt>
      <trkpt lat="44.11406" lon="6.3231">
        <ele>1082.2</ele>
        <time>2022-06-06T11:15:25Z</time>
      </trkpt>
      <trkpt lat="44.11406" lon="6.32314">
        <ele>1082.4</ele>
        <time>2022-06-06T11:15:28Z</time>
      </trkpt>
      <trkpt lat="44.11405" lon="6.32317">
        <ele>1082.4</ele>
        <time>2022-06-06T11:15:29Z</time>
      </trkpt>
      <trkpt lat="44.114" lon="6.32331">
        <ele>1082.2</ele>
        <time>2022-06-06T11:15:33Z</time>
      </trkpt>
      <trkpt lat="44.11397" lon="6.32342">
        <ele>1082.4</ele>
        <time>2022-06-06T11:15:36Z</time>
      </trkpt>
      <trkpt lat="44.11395" lon="6.32344">
        <ele>1081.6</ele>
        <time>2022-06-06T11:15:37Z</time>
      </trkpt>
      <trkpt lat="44.11394" lon="6.32347">
        <ele>1081.8</ele>
        <time>2022-06-06T11:15:38Z</time>
      </trkpt>
      <trkpt lat="44.11394" lon="6.32352">
        <ele>1081.6</ele>
        <time>2022-06-06T11:15:39Z</time>
      </trkpt>
      <trkpt lat="44.11394" lon="6.32356">
        <ele>1081.4</ele>
        <time>2022-06-06T11:15:40Z</time>
      </trkpt>
      <trkpt lat="44.11393" lon="6.32358">
        <ele>1081.4</ele>
        <time>2022-06-06T11:15:42Z</time>
      </trkpt>
      <trkpt lat="44.11393" lon="6.32359">
        <ele>1081.2</ele>
        <time>2022-06-06T11:15:49Z</time>
      </trkpt>
      <trkpt lat="44.11394" lon="6.3236">
        <ele>1081</ele>
        <time>2022-06-06T11:15:50Z</time>
      </trkpt>
      <trkpt lat="44.11397" lon="6.32364">
        <ele>1080.6</ele>
        <time>2022-06-06T11:15:52Z</time>
      </trkpt>
      <trkpt lat="44.11399" lon="6.3237">
        <ele>1080.4</ele>
        <time>2022-06-06T11:15:53Z</time>
      </trkpt>
      <trkpt lat="44.11402" lon="6.32376">
        <ele>1080.2</ele>
        <time>2022-06-06T11:15:54Z</time>
      </trkpt>
      <trkpt lat="44.11409" lon="6.32386">
        <ele>1079.8</ele>
        <time>2022-06-06T11:15:56Z</time>
      </trkpt>
      <trkpt lat="44.11411" lon="6.32389">
        <ele>1079.2</ele>
        <time>2022-06-06T11:15:58Z</time>
      </trkpt>
      <trkpt lat="44.1141" lon="6.32389">
        <ele>1078.8</ele>
        <time>2022-06-06T11:16:05Z</time>
      </trkpt>
      <trkpt lat="44.11411" lon="6.32389">
        <ele>1077.6</ele>
        <time>2022-06-06T11:16:19Z</time>
      </trkpt>
      <trkpt lat="44.11413" lon="6.32388">
        <ele>1077.2</ele>
        <time>2022-06-06T11:16:22Z</time>
      </trkpt>
      <trkpt lat="44.11416" lon="6.32388">
        <ele>1077</ele>
        <time>2022-06-06T11:16:23Z</time>
      </trkpt>
      <trkpt lat="44.1142" lon="6.32389">
        <ele>1076.6</ele>
        <time>2022-06-06T11:16:24Z</time>
      </trkpt>
      <trkpt lat="44.11427" lon="6.32394">
        <ele>1076.2</ele>
        <time>2022-06-06T11:16:26Z</time>
      </trkpt>
      <trkpt lat="44.11427" lon="6.32395">
        <ele>1075.8</ele>
        <time>2022-06-06T11:16:29Z</time>
      </trkpt>
      <trkpt lat="44.11427" lon="6.32395">
        <ele>1075</ele>
        <time>2022-06-06T11:16:38Z</time>
      </trkpt>
      <trkpt lat="44.11431" lon="6.32401">
        <ele>1074.6</ele>
        <time>2022-06-06T11:16:40Z</time>
      </trkpt>
      <trkpt lat="44.11436" lon="6.32409">
        <ele>1073.6</ele>
        <time>2022-06-06T11:16:43Z</time>
      </trkpt>
      <trkpt lat="44.11438" lon="6.32411">
        <ele>1073.2</ele>
        <time>2022-06-06T11:16:44Z</time>
      </trkpt>
      <trkpt lat="44.11448" lon="6.32423">
        <ele>1071.8</ele>
        <time>2022-06-06T11:16:49Z</time>
      </trkpt>
      <trkpt lat="44.11457" lon="6.32431">
        <ele>1070.8</ele>
        <time>2022-06-06T11:16:54Z</time>
      </trkpt>
      <trkpt lat="44.11459" lon="6.32432">
        <ele>1070.8</ele>
        <time>2022-06-06T11:16:55Z</time>
      </trkpt>
      <trkpt lat="44.11471" lon="6.32436">
        <ele>1070</ele>
        <time>2022-06-06T11:16:59Z</time>
      </trkpt>
      <trkpt lat="44.11478" lon="6.32442">
        <ele>1069.4</ele>
        <time>2022-06-06T11:17:02Z</time>
      </trkpt>
      <trkpt lat="44.11479" lon="6.32445">
        <ele>1069.4</ele>
        <time>2022-06-06T11:17:03Z</time>
      </trkpt>
      <trkpt lat="44.1148" lon="6.3245">
        <ele>1069</ele>
        <time>2022-06-06T11:17:05Z</time>
      </trkpt>
      <trkpt lat="44.11482" lon="6.32451">
        <ele>1068.4</ele>
        <time>2022-06-06T11:17:07Z</time>
      </trkpt>
      <trkpt lat="44.11488" lon="6.32447">
        <ele>1067.4</ele>
        <time>2022-06-06T11:17:11Z</time>
      </trkpt>
      <trkpt lat="44.11492" lon="6.3244">
        <ele>1066.4</ele>
        <time>2022-06-06T11:17:14Z</time>
      </trkpt>
      <trkpt lat="44.11494" lon="6.32438">
        <ele>1066</ele>
        <time>2022-06-06T11:17:15Z</time>
      </trkpt>
      <trkpt lat="44.11495" lon="6.32436">
        <ele>1065.4</ele>
        <time>2022-06-06T11:17:16Z</time>
      </trkpt>
      <trkpt lat="44.11496" lon="6.32437">
        <ele>1064.2</ele>
        <time>2022-06-06T11:17:18Z</time>
      </trkpt>
      <trkpt lat="44.11502" lon="6.32453">
        <ele>1061.2</ele>
        <time>2022-06-06T11:17:24Z</time>
      </trkpt>
      <trkpt lat="44.11504" lon="6.32457">
        <ele>1060.2</ele>
        <time>2022-06-06T11:17:27Z</time>
      </trkpt>
      <trkpt lat="44.11504" lon="6.32455">
        <ele>1059</ele>
        <time>2022-06-06T11:17:32Z</time>
      </trkpt>
      <trkpt lat="44.11503" lon="6.32454">
        <ele>1057.8</ele>
        <time>2022-06-06T11:17:36Z</time>
      </trkpt>
      <trkpt lat="44.11504" lon="6.32454">
        <ele>1057.6</ele>
        <time>2022-06-06T11:17:37Z</time>
      </trkpt>
      <trkpt lat="44.11508" lon="6.32454">
        <ele>1056.4</ele>
        <time>2022-06-06T11:17:40Z</time>
      </trkpt>
      <trkpt lat="44.11509" lon="6.32454">
        <ele>1056</ele>
        <time>2022-06-06T11:17:41Z</time>
      </trkpt>
      <trkpt lat="44.11515" lon="6.32455">
        <ele>1055</ele>
        <time>2022-06-06T11:17:43Z</time>
      </trkpt>
      <trkpt lat="44.11518" lon="6.32456">
        <ele>1054.4</ele>
        <time>2022-06-06T11:17:44Z</time>
      </trkpt>
      <trkpt lat="44.11521" lon="6.32457">
        <ele>1053.6</ele>
        <time>2022-06-06T11:17:46Z</time>
      </trkpt>
      <trkpt lat="44.11522" lon="6.32456">
        <ele>1051.4</ele>
        <time>2022-06-06T11:17:52Z</time>
      </trkpt>
      <trkpt lat="44.11522" lon="6.32456">
        <ele>1048.2</ele>
        <time>2022-06-06T11:18:03Z</time>
      </trkpt>
      <trkpt lat="44.11522" lon="6.32456">
        <ele>1045</ele>
        <time>2022-06-06T11:18:16Z</time>
      </trkpt>
      <trkpt lat="44.11522" lon="6.32456">
        <ele>1041.6</ele>
        <time>2022-06-06T11:18:33Z</time>
      </trkpt>
      <trkpt lat="44.11523" lon="6.32457">
        <ele>1040</ele>
        <time>2022-06-06T11:18:40Z</time>
      </trkpt>
      <trkpt lat="44.11524" lon="6.32453">
        <ele>1039.4</ele>
        <time>2022-06-06T11:18:41Z</time>
      </trkpt>
      <trkpt lat="44.11544" lon="6.32441">
        <ele>1038.8</ele>
        <time>2022-06-06T11:18:46Z</time>
      </trkpt>
      <trkpt lat="44.11556" lon="6.32436">
        <ele>1038.4</ele>
        <time>2022-06-06T11:18:50Z</time>
      </trkpt>
      <trkpt lat="44.11566" lon="6.32433">
        <ele>1037.8</ele>
        <time>2022-06-06T11:18:56Z</time>
      </trkpt>
      <trkpt lat="44.11572" lon="6.32422">
        <ele>1037.2</ele>
        <time>2022-06-06T11:19:00Z</time>
      </trkpt>
      <trkpt lat="44.11577" lon="6.32407">
        <ele>1036.4</ele>
        <time>2022-06-06T11:19:04Z</time>
      </trkpt>
      <trkpt lat="44.11578" lon="6.32402">
        <ele>1035.8</ele>
        <time>2022-06-06T11:19:07Z</time>
      </trkpt>
      <trkpt lat="44.11578" lon="6.32402">
        <ele>1034.4</ele>
        <time>2022-06-06T11:19:19Z</time>
      </trkpt>
      <trkpt lat="44.11578" lon="6.32402">
        <ele>1032.6</ele>
        <time>2022-06-06T11:19:37Z</time>
      </trkpt>
      <trkpt lat="44.11578" lon="6.32403">
        <ele>1031.2</ele>
        <time>2022-06-06T11:19:57Z</time>
      </trkpt>
      <trkpt lat="44.11578" lon="6.32403">
        <ele>1031.2</ele>
        <time>2022-06-06T11:20:01Z</time>
      </trkpt>
      <trkpt lat="44.11579" lon="6.32402">
        <ele>1031.2</ele>
        <time>2022-06-06T11:20:05Z</time>
      </trkpt>
      <trkpt lat="44.1158" lon="6.32401">
        <ele>1031</ele>
        <time>2022-06-06T11:20:07Z</time>
      </trkpt>
      <trkpt lat="44.11585" lon="6.32396">
        <ele>1030.6</ele>
        <time>2022-06-06T11:20:09Z</time>
      </trkpt>
      <trkpt lat="44.11592" lon="6.32395">
        <ele>1030.4</ele>
        <time>2022-06-06T11:20:11Z</time>
      </trkpt>
      <trkpt lat="44.11594" lon="6.32396">
        <ele>1030.2</ele>
        <time>2022-06-06T11:20:12Z</time>
      </trkpt>
      <trkpt lat="44.11595" lon="6.32398">
        <ele>1030</ele>
        <time>2022-06-06T11:20:13Z</time>
      </trkpt>
      <trkpt lat="44.11596" lon="6.32397">
        <ele>1029.6</ele>
        <time>2022-06-06T11:20:16Z</time>
      </trkpt>
      <trkpt lat="44.116" lon="6.32398">
        <ele>1028.8</ele>
        <time>2022-06-06T11:20:20Z</time>
      </trkpt>
      <trkpt lat="44.11603" lon="6.324">
        <ele>1028.6</ele>
        <time>2022-06-06T11:20:21Z</time>
      </trkpt>
      <trkpt lat="44.11619" lon="6.32403">
        <ele>1027.8</ele>
        <time>2022-06-06T11:20:24Z</time>
      </trkpt>
      <trkpt lat="44.11624" lon="6.32403">
        <ele>1027.6</ele>
        <time>2022-06-06T11:20:25Z</time>
      </trkpt>
      <trkpt lat="44.11635" lon="6.32399">
        <ele>1026.8</ele>
        <time>2022-06-06T11:20:29Z</time>
      </trkpt>
      <trkpt lat="44.11649" lon="6.32388">
        <ele>1025.8</ele>
        <time>2022-06-06T11:20:34Z</time>
      </trkpt>
      <trkpt lat="44.11657" lon="6.32382">
        <ele>1025</ele>
        <time>2022-06-06T11:20:39Z</time>
      </trkpt>
      <trkpt lat="44.11661" lon="6.32374">
        <ele>1024.6</ele>
        <time>2022-06-06T11:20:41Z</time>
      </trkpt>
      <trkpt lat="44.11662" lon="6.32368">
        <ele>1024.4</ele>
        <time>2022-06-06T11:20:42Z</time>
      </trkpt>
      <trkpt lat="44.11664" lon="6.32363">
        <ele>1024.2</ele>
        <time>2022-06-06T11:20:44Z</time>
      </trkpt>
      <trkpt lat="44.11669" lon="6.32361">
        <ele>1024</ele>
        <time>2022-06-06T11:20:46Z</time>
      </trkpt>
      <trkpt lat="44.11679" lon="6.3236">
        <ele>1023.6</ele>
        <time>2022-06-06T11:20:50Z</time>
      </trkpt>
      <trkpt lat="44.11693" lon="6.32352">
        <ele>1023</ele>
        <time>2022-06-06T11:20:55Z</time>
      </trkpt>
      <trkpt lat="44.11703" lon="6.32342">
        <ele>1022.6</ele>
        <time>2022-06-06T11:20:58Z</time>
      </trkpt>
      <trkpt lat="44.11707" lon="6.32339">
        <ele>1022.4</ele>
        <time>2022-06-06T11:20:59Z</time>
      </trkpt>
      <trkpt lat="44.11717" lon="6.32335">
        <ele>1022.2</ele>
        <time>2022-06-06T11:21:01Z</time>
      </trkpt>
      <trkpt lat="44.1173" lon="6.32331">
        <ele>1021.8</ele>
        <time>2022-06-06T11:21:03Z</time>
      </trkpt>
      <trkpt lat="44.11743" lon="6.32326">
        <ele>1021.4</ele>
        <time>2022-06-06T11:21:05Z</time>
      </trkpt>
      <trkpt lat="44.11747" lon="6.32324">
        <ele>1021.4</ele>
        <time>2022-06-06T11:21:06Z</time>
      </trkpt>
      <trkpt lat="44.11751" lon="6.32323">
        <ele>1021.2</ele>
        <time>2022-06-06T11:21:07Z</time>
      </trkpt>
      <trkpt lat="44.1176" lon="6.32325">
        <ele>1021</ele>
        <time>2022-06-06T11:21:09Z</time>
      </trkpt>
      <trkpt lat="44.1177" lon="6.32325">
        <ele>1020.6</ele>
        <time>2022-06-06T11:21:11Z</time>
      </trkpt>
      <trkpt lat="44.11768" lon="6.32316">
        <ele>1020.2</ele>
        <time>2022-06-06T11:21:13Z</time>
      </trkpt>
      <trkpt lat="44.1176" lon="6.32303">
        <ele>1019.6</ele>
        <time>2022-06-06T11:21:15Z</time>
      </trkpt>
      <trkpt lat="44.11758" lon="6.32298">
        <ele>1019.4</ele>
        <time>2022-06-06T11:21:16Z</time>
      </trkpt>
      <trkpt lat="44.11763" lon="6.32293">
        <ele>1018.6</ele>
        <time>2022-06-06T11:21:19Z</time>
      </trkpt>
      <trkpt lat="44.11769" lon="6.32283">
        <ele>1017.6</ele>
        <time>2022-06-06T11:21:21Z</time>
      </trkpt>
      <trkpt lat="44.11772" lon="6.32281">
        <ele>1017.4</ele>
        <time>2022-06-06T11:21:22Z</time>
      </trkpt>
      <trkpt lat="44.11777" lon="6.32281">
        <ele>1016.8</ele>
        <time>2022-06-06T11:21:24Z</time>
      </trkpt>
      <trkpt lat="44.11786" lon="6.32285">
        <ele>1015.8</ele>
        <time>2022-06-06T11:21:28Z</time>
      </trkpt>
      <trkpt lat="44.11799" lon="6.32289">
        <ele>1015</ele>
        <time>2022-06-06T11:21:33Z</time>
      </trkpt>
      <trkpt lat="44.11813" lon="6.32291">
        <ele>1014.2</ele>
        <time>2022-06-06T11:21:38Z</time>
      </trkpt>
      <trkpt lat="44.11823" lon="6.32289">
        <ele>1013.8</ele>
        <time>2022-06-06T11:21:43Z</time>
      </trkpt>
      <trkpt lat="44.11827" lon="6.32274">
        <ele>1013</ele>
        <time>2022-06-06T11:21:47Z</time>
      </trkpt>
      <trkpt lat="44.11832" lon="6.32259">
        <ele>1012.6</ele>
        <time>2022-06-06T11:21:50Z</time>
      </trkpt>
      <trkpt lat="44.11839" lon="6.32247">
        <ele>1012</ele>
        <time>2022-06-06T11:21:53Z</time>
      </trkpt>
      <trkpt lat="44.11845" lon="6.32238">
        <ele>1011.4</ele>
        <time>2022-06-06T11:21:55Z</time>
      </trkpt>
      <trkpt lat="44.11854" lon="6.3223">
        <ele>1010.8</ele>
        <time>2022-06-06T11:21:58Z</time>
      </trkpt>
      <trkpt lat="44.11868" lon="6.3222">
        <ele>1010.2</ele>
        <time>2022-06-06T11:22:03Z</time>
      </trkpt>
      <trkpt lat="44.11882" lon="6.32208">
        <ele>1010.2</ele>
        <time>2022-06-06T11:22:09Z</time>
      </trkpt>
      <trkpt lat="44.1189" lon="6.32204">
        <ele>1010.2</ele>
        <time>2022-06-06T11:22:12Z</time>
      </trkpt>
      <trkpt lat="44.11893" lon="6.32201">
        <ele>1010.2</ele>
        <time>2022-06-06T11:22:13Z</time>
      </trkpt>
      <trkpt lat="44.11894" lon="6.32199">
        <ele>1010.2</ele>
        <time>2022-06-06T11:22:14Z</time>
      </trkpt>
      <trkpt lat="44.11894" lon="6.32193">
        <ele>1010.2</ele>
        <time>2022-06-06T11:22:16Z</time>
      </trkpt>
      <trkpt lat="44.11894" lon="6.32191">
        <ele>1010.2</ele>
        <time>2022-06-06T11:22:19Z</time>
      </trkpt>
      <trkpt lat="44.11894" lon="6.32191">
        <ele>1010</ele>
        <time>2022-06-06T11:22:23Z</time>
      </trkpt>
      <trkpt lat="44.11891" lon="6.32188">
        <ele>1010</ele>
        <time>2022-06-06T11:22:26Z</time>
      </trkpt>
      <trkpt lat="44.11883" lon="6.32178">
        <ele>1009.8</ele>
        <time>2022-06-06T11:22:30Z</time>
      </trkpt>
      <trkpt lat="44.11876" lon="6.32165">
        <ele>1009.6</ele>
        <time>2022-06-06T11:22:34Z</time>
      </trkpt>
      <trkpt lat="44.11874" lon="6.32159">
        <ele>1009.6</ele>
        <time>2022-06-06T11:22:35Z</time>
      </trkpt>
      <trkpt lat="44.1187" lon="6.32144">
        <ele>1009.6</ele>
        <time>2022-06-06T11:22:39Z</time>
      </trkpt>
      <trkpt lat="44.11864" lon="6.32122">
        <ele>1009.8</ele>
        <time>2022-06-06T11:22:45Z</time>
      </trkpt>
      <trkpt lat="44.11862" lon="6.32112">
        <ele>1010.2</ele>
        <time>2022-06-06T11:22:48Z</time>
      </trkpt>
      <trkpt lat="44.11861" lon="6.3211">
        <ele>1010.2</ele>
        <time>2022-06-06T11:22:49Z</time>
      </trkpt>
      <trkpt lat="44.11857" lon="6.32105">
        <ele>1010</ele>
        <time>2022-06-06T11:22:53Z</time>
      </trkpt>
      <trkpt lat="44.11857" lon="6.32105">
        <ele>1010</ele>
        <time>2022-06-06T11:23:04Z</time>
      </trkpt>
      <trkpt lat="44.11856" lon="6.32105">
        <ele>1010.4</ele>
        <time>2022-06-06T11:23:14Z</time>
      </trkpt>
      <trkpt lat="44.11856" lon="6.32108">
        <ele>1010.4</ele>
        <time>2022-06-06T11:23:15Z</time>
      </trkpt>
      <trkpt lat="44.11856" lon="6.32115">
        <ele>1010.4</ele>
        <time>2022-06-06T11:23:18Z</time>
      </trkpt>
      <trkpt lat="44.11855" lon="6.32118">
        <ele>1010.2</ele>
        <time>2022-06-06T11:23:19Z</time>
      </trkpt>
      <trkpt lat="44.1185" lon="6.32122">
        <ele>1010.2</ele>
        <time>2022-06-06T11:23:21Z</time>
      </trkpt>
      <trkpt lat="44.11847" lon="6.32122">
        <ele>1010.2</ele>
        <time>2022-06-06T11:23:23Z</time>
      </trkpt>
      <trkpt lat="44.11842" lon="6.32124">
        <ele>1009.8</ele>
        <time>2022-06-06T11:23:29Z</time>
      </trkpt>
      <trkpt lat="44.11842" lon="6.32124">
        <ele>1009.8</ele>
        <time>2022-06-06T11:23:41Z</time>
      </trkpt>
      <trkpt lat="44.11842" lon="6.32126">
        <ele>1009.4</ele>
        <time>2022-06-06T11:23:49Z</time>
      </trkpt>
      <trkpt lat="44.11843" lon="6.32128">
        <ele>1009.4</ele>
        <time>2022-06-06T11:23:50Z</time>
      </trkpt>
      <trkpt lat="44.11848" lon="6.32137">
        <ele>1009.2</ele>
        <time>2022-06-06T11:23:55Z</time>
      </trkpt>
      <trkpt lat="44.11855" lon="6.32145">
        <ele>1009</ele>
        <time>2022-06-06T11:23:59Z</time>
      </trkpt>
      <trkpt lat="44.11869" lon="6.3216">
        <ele>1009.2</ele>
        <time>2022-06-06T11:24:06Z</time>
      </trkpt>
      <trkpt lat="44.11879" lon="6.32173">
        <ele>1009</ele>
        <time>2022-06-06T11:24:11Z</time>
      </trkpt>
      <trkpt lat="44.11889" lon="6.3219">
        <ele>1009</ele>
        <time>2022-06-06T11:24:17Z</time>
      </trkpt>
      <trkpt lat="44.11892" lon="6.32204">
        <ele>1008.8</ele>
        <time>2022-06-06T11:24:21Z</time>
      </trkpt>
      <trkpt lat="44.11893" lon="6.32205">
        <ele>1008.8</ele>
        <time>2022-06-06T11:24:25Z</time>
      </trkpt>
      <trkpt lat="44.11894" lon="6.32203">
        <ele>1008.6</ele>
        <time>2022-06-06T11:24:29Z</time>
      </trkpt>
      <trkpt lat="44.11895" lon="6.32199">
        <ele>1008.6</ele>
        <time>2022-06-06T11:24:31Z</time>
      </trkpt>
      <trkpt lat="44.11896" lon="6.32197">
        <ele>1008.6</ele>
        <time>2022-06-06T11:24:36Z</time>
      </trkpt>
      <trkpt lat="44.11895" lon="6.32195">
        <ele>1008.8</ele>
        <time>2022-06-06T11:24:46Z</time>
      </trkpt>
      <trkpt lat="44.11895" lon="6.32195">
        <ele>1008.8</ele>
        <time>2022-06-06T11:24:58Z</time>
      </trkpt>
      <trkpt lat="44.11895" lon="6.32195">
        <ele>1008.8</ele>
        <time>2022-06-06T11:24:59Z</time>
      </trkpt>
      <trkpt lat="44.1189" lon="6.32189">
        <ele>1009</ele>
        <time>2022-06-06T11:25:02Z</time>
      </trkpt>
      <trkpt lat="44.11878" lon="6.32171">
        <ele>1009</ele>
        <time>2022-06-06T11:25:08Z</time>
      </trkpt>
      <trkpt lat="44.11873" lon="6.32153">
        <ele>1009</ele>
        <time>2022-06-06T11:25:12Z</time>
      </trkpt>
      <trkpt lat="44.11869" lon="6.3214">
        <ele>1009</ele>
        <time>2022-06-06T11:25:16Z</time>
      </trkpt>
      <trkpt lat="44.11869" lon="6.32138">
        <ele>1008.8</ele>
        <time>2022-06-06T11:25:18Z</time>
      </trkpt>
      <trkpt lat="44.11872" lon="6.32136">
        <ele>1008.8</ele>
        <time>2022-06-06T11:25:20Z</time>
      </trkpt>
      <trkpt lat="44.11883" lon="6.32131">
        <ele>1008.2</ele>
        <time>2022-06-06T11:25:24Z</time>
      </trkpt>
      <trkpt lat="44.11885" lon="6.32132">
        <ele>1008.2</ele>
        <time>2022-06-06T11:25:27Z</time>
      </trkpt>
      <trkpt lat="44.11885" lon="6.32132">
        <ele>1008</ele>
        <time>2022-06-06T11:25:41Z</time>
      </trkpt>
      <trkpt lat="44.11885" lon="6.32132">
        <ele>1007.8</ele>
        <time>2022-06-06T11:25:53Z</time>
      </trkpt>
      <trkpt lat="44.11886" lon="6.32137">
        <ele>1007.6</ele>
        <time>2022-06-06T11:25:55Z</time>
      </trkpt>
      <trkpt lat="44.11888" lon="6.32141">
        <ele>1007.4</ele>
        <time>2022-06-06T11:25:57Z</time>
      </trkpt>
      <trkpt lat="44.11891" lon="6.32141">
        <ele>1007</ele>
        <time>2022-06-06T11:25:59Z</time>
      </trkpt>
      <trkpt lat="44.11892" lon="6.32141">
        <ele>1006.8</ele>
        <time>2022-06-06T11:26:00Z</time>
      </trkpt>
      <trkpt lat="44.11896" lon="6.32138">
        <ele>1006.4</ele>
        <time>2022-06-06T11:26:02Z</time>
      </trkpt>
      <trkpt lat="44.1191" lon="6.32133">
        <ele>1005.6</ele>
        <time>2022-06-06T11:26:06Z</time>
      </trkpt>
      <trkpt lat="44.11916" lon="6.32131">
        <ele>1005</ele>
        <time>2022-06-06T11:26:08Z</time>
      </trkpt>
      <trkpt lat="44.11916" lon="6.32132">
        <ele>1004.8</ele>
        <time>2022-06-06T11:26:09Z</time>
      </trkpt>
      <trkpt lat="44.11916" lon="6.32132">
        <ele>1003.4</ele>
        <time>2022-06-06T11:26:25Z</time>
      </trkpt>
      <trkpt lat="44.11916" lon="6.3213">
        <ele>1001.2</ele>
        <time>2022-06-06T11:26:49Z</time>
      </trkpt>
      <trkpt lat="44.11916" lon="6.3213">
        <ele>1000</ele>
        <time>2022-06-06T11:27:06Z</time>
      </trkpt>
      <trkpt lat="44.11916" lon="6.3213">
        <ele>999.4</ele>
        <time>2022-06-06T11:27:17Z</time>
      </trkpt>
      <trkpt lat="44.11915" lon="6.32129">
        <ele>999.2</ele>
        <time>2022-06-06T11:27:23Z</time>
      </trkpt>
      <trkpt lat="44.11915" lon="6.32129">
        <ele>998.6</ele>
        <time>2022-06-06T11:27:36Z</time>
      </trkpt>
      <trkpt lat="44.11917" lon="6.32131">
        <ele>998.4</ele>
        <time>2022-06-06T11:27:41Z</time>
      </trkpt>
      <trkpt lat="44.11925" lon="6.32131">
        <ele>997.6</ele>
        <time>2022-06-06T11:27:45Z</time>
      </trkpt>
      <trkpt lat="44.1193" lon="6.32127">
        <ele>996.6</ele>
        <time>2022-06-06T11:27:49Z</time>
      </trkpt>
      <trkpt lat="44.11928" lon="6.32122">
        <ele>996.2</ele>
        <time>2022-06-06T11:27:51Z</time>
      </trkpt>
      <trkpt lat="44.11924" lon="6.32117">
        <ele>995.8</ele>
        <time>2022-06-06T11:27:53Z</time>
      </trkpt>
      <trkpt lat="44.11917" lon="6.32115">
        <ele>995.2</ele>
        <time>2022-06-06T11:27:55Z</time>
      </trkpt>
      <trkpt lat="44.1191" lon="6.32107">
        <ele>994.6</ele>
        <time>2022-06-06T11:27:57Z</time>
      </trkpt>
      <trkpt lat="44.11903" lon="6.32096">
        <ele>993.8</ele>
        <time>2022-06-06T11:28:00Z</time>
      </trkpt>
      <trkpt lat="44.11905" lon="6.32084">
        <ele>993</ele>
        <time>2022-06-06T11:28:04Z</time>
      </trkpt>
      <trkpt lat="44.11907" lon="6.32081">
        <ele>992.6</ele>
        <time>2022-06-06T11:28:06Z</time>
      </trkpt>
      <trkpt lat="44.11909" lon="6.3208">
        <ele>992.6</ele>
        <time>2022-06-06T11:28:08Z</time>
      </trkpt>
      <trkpt lat="44.1191" lon="6.3208">
        <ele>992.4</ele>
        <time>2022-06-06T11:28:09Z</time>
      </trkpt>
      <trkpt lat="44.11914" lon="6.32075">
        <ele>991.8</ele>
        <time>2022-06-06T11:28:12Z</time>
      </trkpt>
      <trkpt lat="44.11917" lon="6.3207">
        <ele>991.2</ele>
        <time>2022-06-06T11:28:14Z</time>
      </trkpt>
      <trkpt lat="44.11921" lon="6.32066">
        <ele>990.6</ele>
        <time>2022-06-06T11:28:16Z</time>
      </trkpt>
      <trkpt lat="44.11923" lon="6.32065">
        <ele>990.4</ele>
        <time>2022-06-06T11:28:17Z</time>
      </trkpt>
      <trkpt lat="44.11931" lon="6.32067">
        <ele>989.6</ele>
        <time>2022-06-06T11:28:19Z</time>
      </trkpt>
      <trkpt lat="44.11936" lon="6.32067">
        <ele>989.2</ele>
        <time>2022-06-06T11:28:20Z</time>
      </trkpt>
      <trkpt lat="44.11945" lon="6.32069">
        <ele>988.6</ele>
        <time>2022-06-06T11:28:22Z</time>
      </trkpt>
      <trkpt lat="44.11958" lon="6.3208">
        <ele>987.6</ele>
        <time>2022-06-06T11:28:25Z</time>
      </trkpt>
      <trkpt lat="44.11963" lon="6.32082">
        <ele>987.4</ele>
        <time>2022-06-06T11:28:26Z</time>
      </trkpt>
      <trkpt lat="44.1197" lon="6.32087">
        <ele>986.4</ele>
        <time>2022-06-06T11:28:29Z</time>
      </trkpt>
      <trkpt lat="44.1197" lon="6.32087">
        <ele>984.2</ele>
        <time>2022-06-06T11:28:42Z</time>
      </trkpt>
      <trkpt lat="44.11972" lon="6.3209">
        <ele>982.4</ele>
        <time>2022-06-06T11:28:48Z</time>
      </trkpt>
      <trkpt lat="44.11976" lon="6.32094">
        <ele>981.6</ele>
        <time>2022-06-06T11:28:51Z</time>
      </trkpt>
      <trkpt lat="44.11978" lon="6.32096">
        <ele>981.2</ele>
        <time>2022-06-06T11:28:52Z</time>
      </trkpt>
      <trkpt lat="44.1198" lon="6.32099">
        <ele>980.2</ele>
        <time>2022-06-06T11:28:54Z</time>
      </trkpt>
      <trkpt lat="44.11983" lon="6.32101">
        <ele>979.2</ele>
        <time>2022-06-06T11:28:56Z</time>
      </trkpt>
      <trkpt lat="44.1199" lon="6.32107">
        <ele>977.4</ele>
        <time>2022-06-06T11:29:00Z</time>
      </trkpt>
      <trkpt lat="44.11992" lon="6.32107">
        <ele>976.8</ele>
        <time>2022-06-06T11:29:01Z</time>
      </trkpt>
      <trkpt lat="44.12" lon="6.32107">
        <ele>975.4</ele>
        <time>2022-06-06T11:29:04Z</time>
      </trkpt>
      <trkpt lat="44.12004" lon="6.32104">
        <ele>974.8</ele>
        <time>2022-06-06T11:29:06Z</time>
      </trkpt>
      <trkpt lat="44.12007" lon="6.32104">
        <ele>974.4</ele>
        <time>2022-06-06T11:29:08Z</time>
      </trkpt>
      <trkpt lat="44.12012" lon="6.32105">
        <ele>974</ele>
        <time>2022-06-06T11:29:10Z</time>
      </trkpt>
      <trkpt lat="44.12019" lon="6.32109">
        <ele>973.4</ele>
        <time>2022-06-06T11:29:12Z</time>
      </trkpt>
      <trkpt lat="44.12023" lon="6.32115">
        <ele>972.8</ele>
        <time>2022-06-06T11:29:14Z</time>
      </trkpt>
      <trkpt lat="44.12029" lon="6.32128">
        <ele>971.8</ele>
        <time>2022-06-06T11:29:17Z</time>
      </trkpt>
      <trkpt lat="44.12031" lon="6.32132">
        <ele>971.6</ele>
        <time>2022-06-06T11:29:18Z</time>
      </trkpt>
      <trkpt lat="44.12036" lon="6.32141">
        <ele>970.4</ele>
        <time>2022-06-06T11:29:22Z</time>
      </trkpt>
      <trkpt lat="44.12037" lon="6.32143">
        <ele>970.2</ele>
        <time>2022-06-06T11:29:23Z</time>
      </trkpt>
      <trkpt lat="44.12044" lon="6.32147">
        <ele>969.2</ele>
        <time>2022-06-06T11:29:26Z</time>
      </trkpt>
      <trkpt lat="44.12052" lon="6.3215">
        <ele>968</ele>
        <time>2022-06-06T11:29:29Z</time>
      </trkpt>
      <trkpt lat="44.12056" lon="6.32153">
        <ele>967.6</ele>
        <time>2022-06-06T11:29:30Z</time>
      </trkpt>
      <trkpt lat="44.12062" lon="6.32161">
        <ele>966.6</ele>
        <time>2022-06-06T11:29:32Z</time>
      </trkpt>
      <trkpt lat="44.12067" lon="6.32166">
        <ele>966.2</ele>
        <time>2022-06-06T11:29:33Z</time>
      </trkpt>
      <trkpt lat="44.12078" lon="6.32173">
        <ele>965.4</ele>
        <time>2022-06-06T11:29:35Z</time>
      </trkpt>
      <trkpt lat="44.12083" lon="6.32174">
        <ele>965</ele>
        <time>2022-06-06T11:29:36Z</time>
      </trkpt>
      <trkpt lat="44.12092" lon="6.32173">
        <ele>964.2</ele>
        <time>2022-06-06T11:29:38Z</time>
      </trkpt>
      <trkpt lat="44.121" lon="6.32178">
        <ele>963.2</ele>
        <time>2022-06-06T11:29:40Z</time>
      </trkpt>
      <trkpt lat="44.12111" lon="6.32181">
        <ele>962</ele>
        <time>2022-06-06T11:29:43Z</time>
      </trkpt>
      <trkpt lat="44.12122" lon="6.32186">
        <ele>960.8</ele>
        <time>2022-06-06T11:29:47Z</time>
      </trkpt>
      <trkpt lat="44.12133" lon="6.32182">
        <ele>959.2</ele>
        <time>2022-06-06T11:29:51Z</time>
      </trkpt>
      <trkpt lat="44.12136" lon="6.32181">
        <ele>958.8</ele>
        <time>2022-06-06T11:29:53Z</time>
      </trkpt>
      <trkpt lat="44.1214" lon="6.32178">
        <ele>958.2</ele>
        <time>2022-06-06T11:29:55Z</time>
      </trkpt>
      <trkpt lat="44.1215" lon="6.3217">
        <ele>957</ele>
        <time>2022-06-06T11:29:58Z</time>
      </trkpt>
      <trkpt lat="44.12155" lon="6.32166">
        <ele>956.6</ele>
        <time>2022-06-06T11:30:00Z</time>
      </trkpt>
      <trkpt lat="44.12157" lon="6.32164">
        <ele>956.6</ele>
        <time>2022-06-06T11:30:01Z</time>
      </trkpt>
      <trkpt lat="44.12157" lon="6.32163">
        <ele>954.8</ele>
        <time>2022-06-06T11:30:08Z</time>
      </trkpt>
      <trkpt lat="44.12158" lon="6.32158">
        <ele>952.6</ele>
        <time>2022-06-06T11:30:22Z</time>
      </trkpt>
      <trkpt lat="44.12155" lon="6.32146">
        <ele>953</ele>
        <time>2022-06-06T11:30:25Z</time>
      </trkpt>
      <trkpt lat="44.12154" lon="6.32141">
        <ele>953.2</ele>
        <time>2022-06-06T11:30:26Z</time>
      </trkpt>
      <trkpt lat="44.12148" lon="6.32132">
        <ele>953.2</ele>
        <time>2022-06-06T11:30:28Z</time>
      </trkpt>
      <trkpt lat="44.12143" lon="6.32119">
        <ele>952.8</ele>
        <time>2022-06-06T11:30:30Z</time>
      </trkpt>
      <trkpt lat="44.12137" lon="6.32107">
        <ele>952.4</ele>
        <time>2022-06-06T11:30:32Z</time>
      </trkpt>
      <trkpt lat="44.1213" lon="6.32096">
        <ele>952</ele>
        <time>2022-06-06T11:30:34Z</time>
      </trkpt>
      <trkpt lat="44.12126" lon="6.32088">
        <ele>952</ele>
        <time>2022-06-06T11:30:35Z</time>
      </trkpt>
      <trkpt lat="44.12121" lon="6.3208">
        <ele>951.8</ele>
        <time>2022-06-06T11:30:36Z</time>
      </trkpt>
      <trkpt lat="44.12113" lon="6.32068">
        <ele>951.2</ele>
        <time>2022-06-06T11:30:38Z</time>
      </trkpt>
      <trkpt lat="44.12103" lon="6.32048">
        <ele>950.4</ele>
        <time>2022-06-06T11:30:41Z</time>
      </trkpt>
      <trkpt lat="44.12097" lon="6.32036">
        <ele>950</ele>
        <time>2022-06-06T11:30:43Z</time>
      </trkpt>
      <trkpt lat="44.12096" lon="6.32029">
        <ele>949.8</ele>
        <time>2022-06-06T11:30:44Z</time>
      </trkpt>
      <trkpt lat="44.12095" lon="6.32019">
        <ele>949.4</ele>
        <time>2022-06-06T11:30:46Z</time>
      </trkpt>
      <trkpt lat="44.12092" lon="6.32008">
        <ele>949.2</ele>
        <time>2022-06-06T11:30:48Z</time>
      </trkpt>
      <trkpt lat="44.12084" lon="6.31982">
        <ele>949.8</ele>
        <time>2022-06-06T11:30:55Z</time>
      </trkpt>
      <trkpt lat="44.12079" lon="6.31961">
        <ele>951.8</ele>
        <time>2022-06-06T11:31:01Z</time>
      </trkpt>
      <trkpt lat="44.12071" lon="6.31942">
        <ele>951.6</ele>
        <time>2022-06-06T11:31:07Z</time>
      </trkpt>
      <trkpt lat="44.12064" lon="6.3194">
        <ele>951.6</ele>
        <time>2022-06-06T11:31:10Z</time>
      </trkpt>
      <trkpt lat="44.12062" lon="6.3194">
        <ele>951.6</ele>
        <time>2022-06-06T11:31:11Z</time>
      </trkpt>
      <trkpt lat="44.1206" lon="6.3194">
        <ele>951.6</ele>
        <time>2022-06-06T11:31:12Z</time>
      </trkpt>
      <trkpt lat="44.12051" lon="6.31935">
        <ele>951.6</ele>
        <time>2022-06-06T11:31:15Z</time>
      </trkpt>
      <trkpt lat="44.12037" lon="6.31927">
        <ele>951.4</ele>
        <time>2022-06-06T11:31:19Z</time>
      </trkpt>
      <trkpt lat="44.12031" lon="6.31922">
        <ele>951.4</ele>
        <time>2022-06-06T11:31:21Z</time>
      </trkpt>
      <trkpt lat="44.12028" lon="6.31916">
        <ele>951.4</ele>
        <time>2022-06-06T11:31:22Z</time>
      </trkpt>
      <trkpt lat="44.1202" lon="6.31897">
        <ele>951.8</ele>
        <time>2022-06-06T11:31:27Z</time>
      </trkpt>
      <trkpt lat="44.12008" lon="6.31879">
        <ele>951.6</ele>
        <time>2022-06-06T11:31:32Z</time>
      </trkpt>
      <trkpt lat="44.11996" lon="6.31863">
        <ele>951.4</ele>
        <time>2022-06-06T11:31:37Z</time>
      </trkpt>
      <trkpt lat="44.11988" lon="6.31858">
        <ele>951.4</ele>
        <time>2022-06-06T11:31:39Z</time>
      </trkpt>
      <trkpt lat="44.11984" lon="6.31849">
        <ele>951.2</ele>
        <time>2022-06-06T11:31:41Z</time>
      </trkpt>
      <trkpt lat="44.11984" lon="6.31845">
        <ele>951.2</ele>
        <time>2022-06-06T11:31:42Z</time>
      </trkpt>
      <trkpt lat="44.11985" lon="6.3184">
        <ele>951.2</ele>
        <time>2022-06-06T11:31:44Z</time>
      </trkpt>
      <trkpt lat="44.11985" lon="6.31838">
        <ele>951.4</ele>
        <time>2022-06-06T11:31:48Z</time>
      </trkpt>
      <trkpt lat="44.11985" lon="6.31837">
        <ele>951.6</ele>
        <time>2022-06-06T11:31:58Z</time>
      </trkpt>
      <trkpt lat="44.11985" lon="6.31837">
        <ele>951.8</ele>
        <time>2022-06-06T11:32:05Z</time>
      </trkpt>
      <trkpt lat="44.11986" lon="6.31835">
        <ele>951.6</ele>
        <time>2022-06-06T11:32:10Z</time>
      </trkpt>
      <trkpt lat="44.11986" lon="6.31831">
        <ele>951.6</ele>
        <time>2022-06-06T11:32:11Z</time>
      </trkpt>
      <trkpt lat="44.1199" lon="6.31817">
        <ele>951.8</ele>
        <time>2022-06-06T11:32:15Z</time>
      </trkpt>
      <trkpt lat="44.1199" lon="6.31805">
        <ele>951.4</ele>
        <time>2022-06-06T11:32:17Z</time>
      </trkpt>
      <trkpt lat="44.1199" lon="6.31797">
        <ele>951.6</ele>
        <time>2022-06-06T11:32:19Z</time>
      </trkpt>
      <trkpt lat="44.11987" lon="6.31778">
        <ele>951.8</ele>
        <time>2022-06-06T11:32:24Z</time>
      </trkpt>
      <trkpt lat="44.1198" lon="6.31754">
        <ele>952.2</ele>
        <time>2022-06-06T11:32:30Z</time>
      </trkpt>
      <trkpt lat="44.11966" lon="6.31735">
        <ele>952.2</ele>
        <time>2022-06-06T11:32:35Z</time>
      </trkpt>
      <trkpt lat="44.11963" lon="6.31732">
        <ele>952.2</ele>
        <time>2022-06-06T11:32:36Z</time>
      </trkpt>
      <trkpt lat="44.11958" lon="6.31729">
        <ele>952.2</ele>
        <time>2022-06-06T11:32:37Z</time>
      </trkpt>
      <trkpt lat="44.11945" lon="6.31722">
        <ele>952</ele>
        <time>2022-06-06T11:32:39Z</time>
      </trkpt>
      <trkpt lat="44.11929" lon="6.31716">
        <ele>951.4</ele>
        <time>2022-06-06T11:32:42Z</time>
      </trkpt>
      <trkpt lat="44.11916" lon="6.31716">
        <ele>950.6</ele>
        <time>2022-06-06T11:32:46Z</time>
      </trkpt>
      <trkpt lat="44.11915" lon="6.31715">
        <ele>950.4</ele>
        <time>2022-06-06T11:32:47Z</time>
      </trkpt>
      <trkpt lat="44.11913" lon="6.31712">
        <ele>950</ele>
        <time>2022-06-06T11:32:49Z</time>
      </trkpt>
      <trkpt lat="44.1191" lon="6.31711">
        <ele>949.6</ele>
        <time>2022-06-06T11:32:50Z</time>
      </trkpt>
      <trkpt lat="44.11901" lon="6.31707">
        <ele>949</ele>
        <time>2022-06-06T11:32:53Z</time>
      </trkpt>
      <trkpt lat="44.11901" lon="6.31708">
        <ele>948.6</ele>
        <time>2022-06-06T11:32:54Z</time>
      </trkpt>
      <trkpt lat="44.11901" lon="6.31709">
        <ele>948.4</ele>
        <time>2022-06-06T11:32:56Z</time>
      </trkpt>
      <trkpt lat="44.11901" lon="6.31709">
        <ele>947.6</ele>
        <time>2022-06-06T11:33:04Z</time>
      </trkpt>
      <trkpt lat="44.11902" lon="6.31712">
        <ele>946.2</ele>
        <time>2022-06-06T11:33:16Z</time>
      </trkpt>
      <trkpt lat="44.11903" lon="6.31715">
        <ele>945.8</ele>
        <time>2022-06-06T11:33:21Z</time>
      </trkpt>
      <trkpt lat="44.11903" lon="6.31717">
        <ele>945.2</ele>
        <time>2022-06-06T11:33:29Z</time>
      </trkpt>
      <trkpt lat="44.11903" lon="6.31718">
        <ele>945</ele>
        <time>2022-06-06T11:33:30Z</time>
      </trkpt>
      <trkpt lat="44.11901" lon="6.31718">
        <ele>945.2</ele>
        <time>2022-06-06T11:33:33Z</time>
      </trkpt>
      <trkpt lat="44.119" lon="6.31718">
        <ele>945</ele>
        <time>2022-06-06T11:33:38Z</time>
      </trkpt>
      <trkpt lat="44.11899" lon="6.31719">
        <ele>944.8</ele>
        <time>2022-06-06T11:33:43Z</time>
      </trkpt>
      <trkpt lat="44.11899" lon="6.3172">
        <ele>944</ele>
        <time>2022-06-06T11:33:57Z</time>
      </trkpt>
      <trkpt lat="44.11897" lon="6.31721">
        <ele>944</ele>
        <time>2022-06-06T11:33:58Z</time>
      </trkpt>
      <trkpt lat="44.11895" lon="6.31721">
        <ele>944</ele>
        <time>2022-06-06T11:34:01Z</time>
      </trkpt>
      <trkpt lat="44.11893" lon="6.31716">
        <ele>943.8</ele>
        <time>2022-06-06T11:34:07Z</time>
      </trkpt>
      <trkpt lat="44.11892" lon="6.31712">
        <ele>945</ele>
        <time>2022-06-06T11:34:09Z</time>
      </trkpt>
      <trkpt lat="44.11891" lon="6.31701">
        <ele>944.8</ele>
        <time>2022-06-06T11:34:12Z</time>
      </trkpt>
      <trkpt lat="44.11891" lon="6.31686">
        <ele>945.2</ele>
        <time>2022-06-06T11:34:16Z</time>
      </trkpt>
      <trkpt lat="44.11889" lon="6.3167">
        <ele>945.8</ele>
        <time>2022-06-06T11:34:21Z</time>
      </trkpt>
      <trkpt lat="44.1188" lon="6.3166">
        <ele>946.6</ele>
        <time>2022-06-06T11:34:26Z</time>
      </trkpt>
      <trkpt lat="44.11873" lon="6.31652">
        <ele>947.2</ele>
        <time>2022-06-06T11:34:30Z</time>
      </trkpt>
      <trkpt lat="44.11872" lon="6.3165">
        <ele>947.4</ele>
        <time>2022-06-06T11:34:31Z</time>
      </trkpt>
      <trkpt lat="44.11868" lon="6.31652">
        <ele>947.6</ele>
        <time>2022-06-06T11:34:33Z</time>
      </trkpt>
      <trkpt lat="44.11865" lon="6.31652">
        <ele>948.2</ele>
        <time>2022-06-06T11:34:35Z</time>
      </trkpt>
      <trkpt lat="44.11865" lon="6.3165">
        <ele>948.4</ele>
        <time>2022-06-06T11:34:37Z</time>
      </trkpt>
      <trkpt lat="44.11868" lon="6.3164">
        <ele>949</ele>
        <time>2022-06-06T11:34:41Z</time>
      </trkpt>
      <trkpt lat="44.11868" lon="6.31637">
        <ele>949.2</ele>
        <time>2022-06-06T11:34:42Z</time>
      </trkpt>
      <trkpt lat="44.11868" lon="6.31632">
        <ele>949.6</ele>
        <time>2022-06-06T11:34:44Z</time>
      </trkpt>
      <trkpt lat="44.11874" lon="6.31621">
        <ele>950.6</ele>
        <time>2022-06-06T11:34:48Z</time>
      </trkpt>
      <trkpt lat="44.11876" lon="6.31602">
        <ele>951.8</ele>
        <time>2022-06-06T11:34:54Z</time>
      </trkpt>
      <trkpt lat="44.11873" lon="6.31588">
        <ele>953</ele>
        <time>2022-06-06T11:34:59Z</time>
      </trkpt>
      <trkpt lat="44.11866" lon="6.31579">
        <ele>953.6</ele>
        <time>2022-06-06T11:35:03Z</time>
      </trkpt>
      <trkpt lat="44.11855" lon="6.31573">
        <ele>954.2</ele>
        <time>2022-06-06T11:35:07Z</time>
      </trkpt>
      <trkpt lat="44.11838" lon="6.31569">
        <ele>954.6</ele>
        <time>2022-06-06T11:35:12Z</time>
      </trkpt>
      <trkpt lat="44.11828" lon="6.31565">
        <ele>954.6</ele>
        <time>2022-06-06T11:35:14Z</time>
      </trkpt>
      <trkpt lat="44.11817" lon="6.31564">
        <ele>954.8</ele>
        <time>2022-06-06T11:35:16Z</time>
      </trkpt>
      <trkpt lat="44.11813" lon="6.31562">
        <ele>954.8</ele>
        <time>2022-06-06T11:35:17Z</time>
      </trkpt>
      <trkpt lat="44.11811" lon="6.31557">
        <ele>954.8</ele>
        <time>2022-06-06T11:35:18Z</time>
      </trkpt>
      <trkpt lat="44.1181" lon="6.31545">
        <ele>954.8</ele>
        <time>2022-06-06T11:35:21Z</time>
      </trkpt>
      <trkpt lat="44.11811" lon="6.31536">
        <ele>954.8</ele>
        <time>2022-06-06T11:35:24Z</time>
      </trkpt>
      <trkpt lat="44.11811" lon="6.31532">
        <ele>954.8</ele>
        <time>2022-06-06T11:35:25Z</time>
      </trkpt>
      <trkpt lat="44.11811" lon="6.3152">
        <ele>954.8</ele>
        <time>2022-06-06T11:35:28Z</time>
      </trkpt>
      <trkpt lat="44.11812" lon="6.31516">
        <ele>954.8</ele>
        <time>2022-06-06T11:35:29Z</time>
      </trkpt>
      <trkpt lat="44.11815" lon="6.31493">
        <ele>954.8</ele>
        <time>2022-06-06T11:35:34Z</time>
      </trkpt>
      <trkpt lat="44.11808" lon="6.3148">
        <ele>955</ele>
        <time>2022-06-06T11:35:38Z</time>
      </trkpt>
      <trkpt lat="44.11802" lon="6.31471">
        <ele>955</ele>
        <time>2022-06-06T11:35:40Z</time>
      </trkpt>
      <trkpt lat="44.11794" lon="6.31467">
        <ele>955</ele>
        <time>2022-06-06T11:35:42Z</time>
      </trkpt>
      <trkpt lat="44.11789" lon="6.31466">
        <ele>954.8</ele>
        <time>2022-06-06T11:35:43Z</time>
      </trkpt>
      <trkpt lat="44.11783" lon="6.3146">
        <ele>954.6</ele>
        <time>2022-06-06T11:35:45Z</time>
      </trkpt>
      <trkpt lat="44.1178" lon="6.31457">
        <ele>954.6</ele>
        <time>2022-06-06T11:35:46Z</time>
      </trkpt>
      <trkpt lat="44.11772" lon="6.3145">
        <ele>954.4</ele>
        <time>2022-06-06T11:35:48Z</time>
      </trkpt>
      <trkpt lat="44.11768" lon="6.31438">
        <ele>954.2</ele>
        <time>2022-06-06T11:35:50Z</time>
      </trkpt>
      <trkpt lat="44.11769" lon="6.31427">
        <ele>954.2</ele>
        <time>2022-06-06T11:35:53Z</time>
      </trkpt>
      <trkpt lat="44.1177" lon="6.31425">
        <ele>954.2</ele>
        <time>2022-06-06T11:35:54Z</time>
      </trkpt>
      <trkpt lat="44.1177" lon="6.31415">
        <ele>954.2</ele>
        <time>2022-06-06T11:35:57Z</time>
      </trkpt>
      <trkpt lat="44.11764" lon="6.31394">
        <ele>954.4</ele>
        <time>2022-06-06T11:36:03Z</time>
      </trkpt>
      <trkpt lat="44.11754" lon="6.31381">
        <ele>954.4</ele>
        <time>2022-06-06T11:36:08Z</time>
      </trkpt>
      <trkpt lat="44.11748" lon="6.31371">
        <ele>954.8</ele>
        <time>2022-06-06T11:36:12Z</time>
      </trkpt>
      <trkpt lat="44.11748" lon="6.31369">
        <ele>955</ele>
        <time>2022-06-06T11:36:14Z</time>
      </trkpt>
      <trkpt lat="44.11748" lon="6.31369">
        <ele>955</ele>
        <time>2022-06-06T11:36:28Z</time>
      </trkpt>
      <trkpt lat="44.11748" lon="6.31369">
        <ele>955</ele>
        <time>2022-06-06T11:36:43Z</time>
      </trkpt>
      <trkpt lat="44.11748" lon="6.31369">
        <ele>955</ele>
        <time>2022-06-06T11:37:01Z</time>
      </trkpt>
      <trkpt lat="44.11748" lon="6.31369">
        <ele>955</ele>
        <time>2022-06-06T11:37:10Z</time>
      </trkpt>
      <trkpt lat="44.11748" lon="6.31369">
        <ele>955</ele>
        <time>2022-06-06T11:37:25Z</time>
      </trkpt>
      <trkpt lat="44.11748" lon="6.3137">
        <ele>955.2</ele>
        <time>2022-06-06T11:37:39Z</time>
      </trkpt>
      <trkpt lat="44.11748" lon="6.31368">
        <ele>955.2</ele>
        <time>2022-06-06T11:37:44Z</time>
      </trkpt>
      <trkpt lat="44.11751" lon="6.31359">
        <ele>955.2</ele>
        <time>2022-06-06T11:37:46Z</time>
      </trkpt>
      <trkpt lat="44.11753" lon="6.31354">
        <ele>955</ele>
        <time>2022-06-06T11:37:47Z</time>
      </trkpt>
      <trkpt lat="44.11761" lon="6.31341">
        <ele>955</ele>
        <time>2022-06-06T11:37:50Z</time>
      </trkpt>
      <trkpt lat="44.11767" lon="6.31328">
        <ele>955.2</ele>
        <time>2022-06-06T11:37:54Z</time>
      </trkpt>
      <trkpt lat="44.11772" lon="6.3131">
        <ele>955.4</ele>
        <time>2022-06-06T11:37:59Z</time>
      </trkpt>
      <trkpt lat="44.11774" lon="6.31278">
        <ele>955.8</ele>
        <time>2022-06-06T11:38:07Z</time>
      </trkpt>
      <trkpt lat="44.11783" lon="6.31257">
        <ele>956.4</ele>
        <time>2022-06-06T11:38:13Z</time>
      </trkpt>
      <trkpt lat="44.11804" lon="6.31245">
        <ele>956.8</ele>
        <time>2022-06-06T11:38:19Z</time>
      </trkpt>
      <trkpt lat="44.11814" lon="6.31246">
        <ele>957</ele>
        <time>2022-06-06T11:38:21Z</time>
      </trkpt>
      <trkpt lat="44.11821" lon="6.31251">
        <ele>957.2</ele>
        <time>2022-06-06T11:38:23Z</time>
      </trkpt>
      <trkpt lat="44.11827" lon="6.31253">
        <ele>957.2</ele>
        <time>2022-06-06T11:38:25Z</time>
      </trkpt>
      <trkpt lat="44.11828" lon="6.31252">
        <ele>957.4</ele>
        <time>2022-06-06T11:38:26Z</time>
      </trkpt>
      <trkpt lat="44.11829" lon="6.3125">
        <ele>957.4</ele>
        <time>2022-06-06T11:38:27Z</time>
      </trkpt>
      <trkpt lat="44.11827" lon="6.31246">
        <ele>957.8</ele>
        <time>2022-06-06T11:38:30Z</time>
      </trkpt>
      <trkpt lat="44.11826" lon="6.31245">
        <ele>958</ele>
        <time>2022-06-06T11:38:32Z</time>
      </trkpt>
      <trkpt lat="44.11824" lon="6.31241">
        <ele>958.2</ele>
        <time>2022-06-06T11:38:34Z</time>
      </trkpt>
      <trkpt lat="44.11816" lon="6.31217">
        <ele>959.2</ele>
        <time>2022-06-06T11:38:40Z</time>
      </trkpt>
      <trkpt lat="44.11808" lon="6.31192">
        <ele>960</ele>
        <time>2022-06-06T11:38:47Z</time>
      </trkpt>
      <trkpt lat="44.11806" lon="6.31177">
        <ele>960.6</ele>
        <time>2022-06-06T11:38:51Z</time>
      </trkpt>
      <trkpt lat="44.11807" lon="6.3117">
        <ele>961</ele>
        <time>2022-06-06T11:38:53Z</time>
      </trkpt>
      <trkpt lat="44.1181" lon="6.3116">
        <ele>961.4</ele>
        <time>2022-06-06T11:38:56Z</time>
      </trkpt>
      <trkpt lat="44.11811" lon="6.31153">
        <ele>961.6</ele>
        <time>2022-06-06T11:38:58Z</time>
      </trkpt>
      <trkpt lat="44.11816" lon="6.31152">
        <ele>961.8</ele>
        <time>2022-06-06T11:39:00Z</time>
      </trkpt>
      <trkpt lat="44.11819" lon="6.31157">
        <ele>962.2</ele>
        <time>2022-06-06T11:39:02Z</time>
      </trkpt>
      <trkpt lat="44.11819" lon="6.31163">
        <ele>962.4</ele>
        <time>2022-06-06T11:39:04Z</time>
      </trkpt>
      <trkpt lat="44.11821" lon="6.31178">
        <ele>963</ele>
        <time>2022-06-06T11:39:09Z</time>
      </trkpt>
      <trkpt lat="44.11822" lon="6.31185">
        <ele>963</ele>
        <time>2022-06-06T11:39:11Z</time>
      </trkpt>
      <trkpt lat="44.11823" lon="6.3119">
        <ele>963</ele>
        <time>2022-06-06T11:39:13Z</time>
      </trkpt>
      <trkpt lat="44.11831" lon="6.31202">
        <ele>963.2</ele>
        <time>2022-06-06T11:39:17Z</time>
      </trkpt>
      <trkpt lat="44.11841" lon="6.31209">
        <ele>963</ele>
        <time>2022-06-06T11:39:22Z</time>
      </trkpt>
      <trkpt lat="44.11848" lon="6.31216">
        <ele>963.2</ele>
        <time>2022-06-06T11:39:26Z</time>
      </trkpt>
      <trkpt lat="44.11856" lon="6.3122">
        <ele>961.8</ele>
        <time>2022-06-06T11:39:30Z</time>
      </trkpt>
      <trkpt lat="44.11868" lon="6.31226">
        <ele>960.4</ele>
        <time>2022-06-06T11:39:35Z</time>
      </trkpt>
      <trkpt lat="44.11878" lon="6.31231">
        <ele>959</ele>
        <time>2022-06-06T11:39:39Z</time>
      </trkpt>
      <trkpt lat="44.11894" lon="6.31235">
        <ele>956.4</ele>
        <time>2022-06-06T11:39:45Z</time>
      </trkpt>
      <trkpt lat="44.11896" lon="6.31236">
        <ele>956</ele>
        <time>2022-06-06T11:39:46Z</time>
      </trkpt>
      <trkpt lat="44.11901" lon="6.31235">
        <ele>955</ele>
        <time>2022-06-06T11:39:48Z</time>
      </trkpt>
      <trkpt lat="44.11903" lon="6.31234">
        <ele>954.6</ele>
        <time>2022-06-06T11:39:49Z</time>
      </trkpt>
      <trkpt lat="44.1192" lon="6.31232">
        <ele>952.6</ele>
        <time>2022-06-06T11:39:55Z</time>
      </trkpt>
      <trkpt lat="44.11923" lon="6.31234">
        <ele>952.4</ele>
        <time>2022-06-06T11:39:56Z</time>
      </trkpt>
      <trkpt lat="44.1193" lon="6.31241">
        <ele>952</ele>
        <time>2022-06-06T11:39:59Z</time>
      </trkpt>
      <trkpt lat="44.11945" lon="6.31254">
        <ele>950.8</ele>
        <time>2022-06-06T11:40:06Z</time>
      </trkpt>
      <trkpt lat="44.11957" lon="6.31257">
        <ele>950.4</ele>
        <time>2022-06-06T11:40:11Z</time>
      </trkpt>
      <trkpt lat="44.11972" lon="6.31265">
        <ele>949.2</ele>
        <time>2022-06-06T11:40:17Z</time>
      </trkpt>
      <trkpt lat="44.11982" lon="6.31268">
        <ele>948.2</ele>
        <time>2022-06-06T11:40:21Z</time>
      </trkpt>
      <trkpt lat="44.11995" lon="6.31269">
        <ele>947.6</ele>
        <time>2022-06-06T11:40:26Z</time>
      </trkpt>
      <trkpt lat="44.12002" lon="6.31271">
        <ele>947.2</ele>
        <time>2022-06-06T11:40:30Z</time>
      </trkpt>
      <trkpt lat="44.12004" lon="6.31274">
        <ele>947.2</ele>
        <time>2022-06-06T11:40:31Z</time>
      </trkpt>
      <trkpt lat="44.12015" lon="6.31285">
        <ele>946.8</ele>
        <time>2022-06-06T11:40:35Z</time>
      </trkpt>
      <trkpt lat="44.12018" lon="6.31287">
        <ele>946.6</ele>
        <time>2022-06-06T11:40:36Z</time>
      </trkpt>
      <trkpt lat="44.12023" lon="6.31285">
        <ele>946.6</ele>
        <time>2022-06-06T11:40:38Z</time>
      </trkpt>
      <trkpt lat="44.12025" lon="6.31283">
        <ele>946.6</ele>
        <time>2022-06-06T11:40:39Z</time>
      </trkpt>
      <trkpt lat="44.12024" lon="6.31277">
        <ele>946.8</ele>
        <time>2022-06-06T11:40:41Z</time>
      </trkpt>
      <trkpt lat="44.12025" lon="6.31271">
        <ele>947.2</ele>
        <time>2022-06-06T11:40:43Z</time>
      </trkpt>
      <trkpt lat="44.12023" lon="6.31266">
        <ele>946.4</ele>
        <time>2022-06-06T11:40:45Z</time>
      </trkpt>
      <trkpt lat="44.12023" lon="6.31264">
        <ele>947.2</ele>
        <time>2022-06-06T11:40:46Z</time>
      </trkpt>
      <trkpt lat="44.12024" lon="6.31262">
        <ele>948.2</ele>
        <time>2022-06-06T11:40:48Z</time>
      </trkpt>
      <trkpt lat="44.12025" lon="6.31263">
        <ele>948.4</ele>
        <time>2022-06-06T11:40:49Z</time>
      </trkpt>
      <trkpt lat="44.12026" lon="6.31266">
        <ele>948.8</ele>
        <time>2022-06-06T11:40:51Z</time>
      </trkpt>
      <trkpt lat="44.12028" lon="6.31268">
        <ele>949</ele>
        <time>2022-06-06T11:40:52Z</time>
      </trkpt>
      <trkpt lat="44.12038" lon="6.31271">
        <ele>949.8</ele>
        <time>2022-06-06T11:40:57Z</time>
      </trkpt>
      <trkpt lat="44.12038" lon="6.31263">
        <ele>950.6</ele>
        <time>2022-06-06T11:41:01Z</time>
      </trkpt>
      <trkpt lat="44.12034" lon="6.31253">
        <ele>952</ele>
        <time>2022-06-06T11:41:06Z</time>
      </trkpt>
      <trkpt lat="44.12025" lon="6.31243">
        <ele>953.4</ele>
        <time>2022-06-06T11:41:11Z</time>
      </trkpt>
      <trkpt lat="44.12016" lon="6.3123">
        <ele>955</ele>
        <time>2022-06-06T11:41:16Z</time>
      </trkpt>
      <trkpt lat="44.12014" lon="6.31225">
        <ele>955.6</ele>
        <time>2022-06-06T11:41:18Z</time>
      </trkpt>
      <trkpt lat="44.12016" lon="6.31222">
        <ele>956.2</ele>
        <time>2022-06-06T11:41:20Z</time>
      </trkpt>
      <trkpt lat="44.12019" lon="6.31223">
        <ele>956.8</ele>
        <time>2022-06-06T11:41:22Z</time>
      </trkpt>
      <trkpt lat="44.12023" lon="6.31225">
        <ele>957.4</ele>
        <time>2022-06-06T11:41:24Z</time>
      </trkpt>
      <trkpt lat="44.12036" lon="6.31233">
        <ele>959.2</ele>
        <time>2022-06-06T11:41:30Z</time>
      </trkpt>
      <trkpt lat="44.12049" lon="6.31242">
        <ele>961.2</ele>
        <time>2022-06-06T11:41:36Z</time>
      </trkpt>
      <trkpt lat="44.12055" lon="6.31244">
        <ele>962.4</ele>
        <time>2022-06-06T11:41:39Z</time>
      </trkpt>
      <trkpt lat="44.12056" lon="6.31242">
        <ele>962.8</ele>
        <time>2022-06-06T11:41:40Z</time>
      </trkpt>
      <trkpt lat="44.12051" lon="6.31228">
        <ele>964.8</ele>
        <time>2022-06-06T11:41:45Z</time>
      </trkpt>
      <trkpt lat="44.12048" lon="6.3122">
        <ele>966</ele>
        <time>2022-06-06T11:41:48Z</time>
      </trkpt>
      <trkpt lat="44.12047" lon="6.31218">
        <ele>966.4</ele>
        <time>2022-06-06T11:41:49Z</time>
      </trkpt>
      <trkpt lat="44.1204" lon="6.312">
        <ele>969</ele>
        <time>2022-06-06T11:41:55Z</time>
      </trkpt>
      <trkpt lat="44.12039" lon="6.31194">
        <ele>969.8</ele>
        <time>2022-06-06T11:41:57Z</time>
      </trkpt>
      <trkpt lat="44.12036" lon="6.31189">
        <ele>970.4</ele>
        <time>2022-06-06T11:41:59Z</time>
      </trkpt>
      <trkpt lat="44.12025" lon="6.31182">
        <ele>972.4</ele>
        <time>2022-06-06T11:42:04Z</time>
      </trkpt>
      <trkpt lat="44.12017" lon="6.31178">
        <ele>973.4</ele>
        <time>2022-06-06T11:42:07Z</time>
      </trkpt>
      <trkpt lat="44.12009" lon="6.31172">
        <ele>974.2</ele>
        <time>2022-06-06T11:42:10Z</time>
      </trkpt>
      <trkpt lat="44.11999" lon="6.31159">
        <ele>975.8</ele>
        <time>2022-06-06T11:42:15Z</time>
      </trkpt>
      <trkpt lat="44.11989" lon="6.31152">
        <ele>976.8</ele>
        <time>2022-06-06T11:42:19Z</time>
      </trkpt>
      <trkpt lat="44.11981" lon="6.31141">
        <ele>977.8</ele>
        <time>2022-06-06T11:42:23Z</time>
      </trkpt>
      <trkpt lat="44.11979" lon="6.31139">
        <ele>978.2</ele>
        <time>2022-06-06T11:42:24Z</time>
      </trkpt>
      <trkpt lat="44.11978" lon="6.3113">
        <ele>979</ele>
        <time>2022-06-06T11:42:27Z</time>
      </trkpt>
      <trkpt lat="44.11975" lon="6.31116">
        <ele>980.6</ele>
        <time>2022-06-06T11:42:32Z</time>
      </trkpt>
      <trkpt lat="44.11964" lon="6.31105">
        <ele>982.4</ele>
        <time>2022-06-06T11:42:37Z</time>
      </trkpt>
      <trkpt lat="44.11953" lon="6.31093">
        <ele>984</ele>
        <time>2022-06-06T11:42:42Z</time>
      </trkpt>
      <trkpt lat="44.11953" lon="6.31093">
        <ele>985.2</ele>
        <time>2022-06-06T11:42:47Z</time>
      </trkpt>
      <trkpt lat="44.11953" lon="6.31093">
        <ele>989</ele>
        <time>2022-06-06T11:43:04Z</time>
      </trkpt>
      <trkpt lat="44.11953" lon="6.31093">
        <ele>993.2</ele>
        <time>2022-06-06T11:43:26Z</time>
      </trkpt>
      <trkpt lat="44.11953" lon="6.31093">
        <ele>996</ele>
        <time>2022-06-06T11:43:46Z</time>
      </trkpt>
      <trkpt lat="44.11954" lon="6.31093">
        <ele>998.8</ele>
        <time>2022-06-06T11:44:11Z</time>
      </trkpt>
      <trkpt lat="44.11954" lon="6.31093">
        <ele>1000.6</ele>
        <time>2022-06-06T11:44:33Z</time>
      </trkpt>
      <trkpt lat="44.11954" lon="6.31093">
        <ele>1002.4</ele>
        <time>2022-06-06T11:45:03Z</time>
      </trkpt>
      <trkpt lat="44.11954" lon="6.31093">
        <ele>1003.8</ele>
        <time>2022-06-06T11:45:30Z</time>
      </trkpt>
      <trkpt lat="44.11954" lon="6.31094">
        <ele>1004.2</ele>
        <time>2022-06-06T11:45:44Z</time>
      </trkpt>
      <trkpt lat="44.11952" lon="6.31093">
        <ele>1004.8</ele>
        <time>2022-06-06T11:45:53Z</time>
      </trkpt>
      <trkpt lat="44.11952" lon="6.31093">
        <ele>1005.2</ele>
        <time>2022-06-06T11:46:03Z</time>
      </trkpt>
      <trkpt lat="44.11952" lon="6.31093">
        <ele>1005.6</ele>
        <time>2022-06-06T11:46:19Z</time>
      </trkpt>
      <trkpt lat="44.11952" lon="6.31093">
        <ele>1006</ele>
        <time>2022-06-06T11:46:30Z</time>
      </trkpt>
      <trkpt lat="44.11952" lon="6.31092">
        <ele>1006.4</ele>
        <time>2022-06-06T11:46:41Z</time>
      </trkpt>
      <trkpt lat="44.11952" lon="6.31092">
        <ele>1006.6</ele>
        <time>2022-06-06T11:46:51Z</time>
      </trkpt>
      <trkpt lat="44.11952" lon="6.31092">
        <ele>1007</ele>
        <time>2022-06-06T11:47:07Z</time>
      </trkpt>
      <trkpt lat="44.11952" lon="6.31092">
        <ele>1007.2</ele>
        <time>2022-06-06T11:47:16Z</time>
      </trkpt>
      <trkpt lat="44.11952" lon="6.31092">
        <ele>1007.4</ele>
        <time>2022-06-06T11:47:33Z</time>
      </trkpt>
      <trkpt lat="44.11948" lon="6.31089">
        <ele>1007.6</ele>
        <time>2022-06-06T11:47:39Z</time>
      </trkpt>
      <trkpt lat="44.1194" lon="6.31081">
        <ele>1007.4</ele>
        <time>2022-06-06T11:47:44Z</time>
      </trkpt>
      <trkpt lat="44.11932" lon="6.3107">
        <ele>1007.4</ele>
        <time>2022-06-06T11:47:49Z</time>
      </trkpt>
      <trkpt lat="44.11928" lon="6.31059">
        <ele>1007.6</ele>
        <time>2022-06-06T11:47:53Z</time>
      </trkpt>
      <trkpt lat="44.11928" lon="6.31058">
        <ele>1007.6</ele>
        <time>2022-06-06T11:47:54Z</time>
      </trkpt>
      <trkpt lat="44.11931" lon="6.31057">
        <ele>1007.6</ele>
        <time>2022-06-06T11:47:56Z</time>
      </trkpt>
      <trkpt lat="44.11932" lon="6.31058">
        <ele>1007.6</ele>
        <time>2022-06-06T11:47:58Z</time>
      </trkpt>
      <trkpt lat="44.11935" lon="6.31061">
        <ele>1007.8</ele>
        <time>2022-06-06T11:48:04Z</time>
      </trkpt>
      <trkpt lat="44.11946" lon="6.31064">
        <ele>1007.6</ele>
        <time>2022-06-06T11:48:09Z</time>
      </trkpt>
      <trkpt lat="44.11959" lon="6.31067">
        <ele>1007.8</ele>
        <time>2022-06-06T11:48:15Z</time>
      </trkpt>
      <trkpt lat="44.1197" lon="6.3107">
        <ele>1007.8</ele>
        <time>2022-06-06T11:48:20Z</time>
      </trkpt>
      <trkpt lat="44.11984" lon="6.31082">
        <ele>1008</ele>
        <time>2022-06-06T11:48:26Z</time>
      </trkpt>
      <trkpt lat="44.11996" lon="6.3109">
        <ele>1008</ele>
        <time>2022-06-06T11:48:31Z</time>
      </trkpt>
      <trkpt lat="44.12005" lon="6.3109">
        <ele>1008</ele>
        <time>2022-06-06T11:48:35Z</time>
      </trkpt>
      <trkpt lat="44.12018" lon="6.31093">
        <ele>1008.2</ele>
        <time>2022-06-06T11:48:40Z</time>
      </trkpt>
      <trkpt lat="44.12028" lon="6.31092">
        <ele>1008.2</ele>
        <time>2022-06-06T11:48:44Z</time>
      </trkpt>
      <trkpt lat="44.12029" lon="6.3109">
        <ele>1008.2</ele>
        <time>2022-06-06T11:48:45Z</time>
      </trkpt>
      <trkpt lat="44.12022" lon="6.31076">
        <ele>1008.8</ele>
        <time>2022-06-06T11:48:50Z</time>
      </trkpt>
      <trkpt lat="44.12014" lon="6.31068">
        <ele>1009.2</ele>
        <time>2022-06-06T11:48:54Z</time>
      </trkpt>
      <trkpt lat="44.12014" lon="6.31059">
        <ele>1009.4</ele>
        <time>2022-06-06T11:48:57Z</time>
      </trkpt>
      <trkpt lat="44.12015" lon="6.31058">
        <ele>1009.6</ele>
        <time>2022-06-06T11:48:58Z</time>
      </trkpt>
      <trkpt lat="44.12025" lon="6.31059">
        <ele>1010</ele>
        <time>2022-06-06T11:49:03Z</time>
      </trkpt>
      <trkpt lat="44.12031" lon="6.3106">
        <ele>1010.2</ele>
        <time>2022-06-06T11:49:06Z</time>
      </trkpt>
      <trkpt lat="44.12033" lon="6.31058">
        <ele>1010.4</ele>
        <time>2022-06-06T11:49:07Z</time>
      </trkpt>
      <trkpt lat="44.12034" lon="6.31055">
        <ele>1010.4</ele>
        <time>2022-06-06T11:49:08Z</time>
      </trkpt>
      <trkpt lat="44.12033" lon="6.31048">
        <ele>1010.6</ele>
        <time>2022-06-06T11:49:10Z</time>
      </trkpt>
      <trkpt lat="44.12032" lon="6.31042">
        <ele>1011</ele>
        <time>2022-06-06T11:49:12Z</time>
      </trkpt>
      <trkpt lat="44.1203" lon="6.31037">
        <ele>1011.2</ele>
        <time>2022-06-06T11:49:14Z</time>
      </trkpt>
      <trkpt lat="44.12023" lon="6.31032">
        <ele>1011.6</ele>
        <time>2022-06-06T11:49:17Z</time>
      </trkpt>
      <trkpt lat="44.12021" lon="6.31031">
        <ele>1011.6</ele>
        <time>2022-06-06T11:49:18Z</time>
      </trkpt>
      <trkpt lat="44.12019" lon="6.31029">
        <ele>1011.8</ele>
        <time>2022-06-06T11:49:19Z</time>
      </trkpt>
      <trkpt lat="44.12013" lon="6.31023">
        <ele>1012.2</ele>
        <time>2022-06-06T11:49:22Z</time>
      </trkpt>
      <trkpt lat="44.12006" lon="6.31014">
        <ele>1012.6</ele>
        <time>2022-06-06T11:49:26Z</time>
      </trkpt>
      <trkpt lat="44.12" lon="6.30994">
        <ele>1013.4</ele>
        <time>2022-06-06T11:49:32Z</time>
      </trkpt>
      <trkpt lat="44.11996" lon="6.30984">
        <ele>1014.2</ele>
        <time>2022-06-06T11:49:35Z</time>
      </trkpt>
      <trkpt lat="44.11995" lon="6.30978">
        <ele>1014.6</ele>
        <time>2022-06-06T11:49:37Z</time>
      </trkpt>
      <trkpt lat="44.11993" lon="6.30963">
        <ele>1015.8</ele>
        <time>2022-06-06T11:49:42Z</time>
      </trkpt>
      <trkpt lat="44.11993" lon="6.30948">
        <ele>1017.2</ele>
        <time>2022-06-06T11:49:48Z</time>
      </trkpt>
      <trkpt lat="44.11989" lon="6.30939">
        <ele>1018</ele>
        <time>2022-06-06T11:49:51Z</time>
      </trkpt>
      <trkpt lat="44.11989" lon="6.30936">
        <ele>1018.2</ele>
        <time>2022-06-06T11:49:52Z</time>
      </trkpt>
      <trkpt lat="44.1199" lon="6.3093">
        <ele>1018.8</ele>
        <time>2022-06-06T11:49:54Z</time>
      </trkpt>
      <trkpt lat="44.11988" lon="6.30924">
        <ele>1019.2</ele>
        <time>2022-06-06T11:49:56Z</time>
      </trkpt>
      <trkpt lat="44.11982" lon="6.3091">
        <ele>1020.6</ele>
        <time>2022-06-06T11:50:01Z</time>
      </trkpt>
      <trkpt lat="44.11974" lon="6.30891">
        <ele>1022</ele>
        <time>2022-06-06T11:50:07Z</time>
      </trkpt>
      <trkpt lat="44.11967" lon="6.3088">
        <ele>1022.6</ele>
        <time>2022-06-06T11:50:11Z</time>
      </trkpt>
      <trkpt lat="44.11966" lon="6.30877">
        <ele>1022.8</ele>
        <time>2022-06-06T11:50:12Z</time>
      </trkpt>
      <trkpt lat="44.11962" lon="6.30862">
        <ele>1023.8</ele>
        <time>2022-06-06T11:50:16Z</time>
      </trkpt>
      <trkpt lat="44.1196" lon="6.3086">
        <ele>1024</ele>
        <time>2022-06-06T11:50:17Z</time>
      </trkpt>
      <trkpt lat="44.1195" lon="6.30846">
        <ele>1025</ele>
        <time>2022-06-06T11:50:21Z</time>
      </trkpt>
      <trkpt lat="44.11934" lon="6.30827">
        <ele>1026.2</ele>
        <time>2022-06-06T11:50:27Z</time>
      </trkpt>
      <trkpt lat="44.11927" lon="6.30822">
        <ele>1026.4</ele>
        <time>2022-06-06T11:50:29Z</time>
      </trkpt>
      <trkpt lat="44.11923" lon="6.30817">
        <ele>1026.8</ele>
        <time>2022-06-06T11:50:31Z</time>
      </trkpt>
      <trkpt lat="44.11915" lon="6.30803">
        <ele>1027.6</ele>
        <time>2022-06-06T11:50:36Z</time>
      </trkpt>
      <trkpt lat="44.11909" lon="6.30789">
        <ele>1028.6</ele>
        <time>2022-06-06T11:50:40Z</time>
      </trkpt>
      <trkpt lat="44.11899" lon="6.30778">
        <ele>1029.6</ele>
        <time>2022-06-06T11:50:45Z</time>
      </trkpt>
      <trkpt lat="44.11894" lon="6.30774">
        <ele>1030</ele>
        <time>2022-06-06T11:50:47Z</time>
      </trkpt>
      <trkpt lat="44.11891" lon="6.30767">
        <ele>1030.2</ele>
        <time>2022-06-06T11:50:49Z</time>
      </trkpt>
      <trkpt lat="44.11889" lon="6.30761">
        <ele>1031</ele>
        <time>2022-06-06T11:50:53Z</time>
      </trkpt>
      <trkpt lat="44.11889" lon="6.30761">
        <ele>1032.6</ele>
        <time>2022-06-06T11:51:03Z</time>
      </trkpt>
      <trkpt lat="44.11889" lon="6.30761">
        <ele>1034.4</ele>
        <time>2022-06-06T11:51:17Z</time>
      </trkpt>
      <trkpt lat="44.11882" lon="6.30748">
        <ele>1035</ele>
        <time>2022-06-06T11:51:21Z</time>
      </trkpt>
      <trkpt lat="44.11876" lon="6.30733">
        <ele>1035.6</ele>
        <time>2022-06-06T11:51:25Z</time>
      </trkpt>
      <trkpt lat="44.11873" lon="6.30724">
        <ele>1036</ele>
        <time>2022-06-06T11:51:28Z</time>
      </trkpt>
      <trkpt lat="44.11878" lon="6.30725">
        <ele>1036.2</ele>
        <time>2022-06-06T11:51:31Z</time>
      </trkpt>
      <trkpt lat="44.11886" lon="6.30733">
        <ele>1036.6</ele>
        <time>2022-06-06T11:51:35Z</time>
      </trkpt>
      <trkpt lat="44.11889" lon="6.30734">
        <ele>1036.6</ele>
        <time>2022-06-06T11:51:36Z</time>
      </trkpt>
      <trkpt lat="44.11896" lon="6.30737">
        <ele>1037.2</ele>
        <time>2022-06-06T11:51:39Z</time>
      </trkpt>
      <trkpt lat="44.11897" lon="6.30741">
        <ele>1037.2</ele>
        <time>2022-06-06T11:51:40Z</time>
      </trkpt>
      <trkpt lat="44.11909" lon="6.30758">
        <ele>1037.8</ele>
        <time>2022-06-06T11:51:45Z</time>
      </trkpt>
      <trkpt lat="44.11922" lon="6.30771">
        <ele>1038.2</ele>
        <time>2022-06-06T11:51:50Z</time>
      </trkpt>
      <trkpt lat="44.11934" lon="6.30777">
        <ele>1038.4</ele>
        <time>2022-06-06T11:51:54Z</time>
      </trkpt>
      <trkpt lat="44.11938" lon="6.30782">
        <ele>1038.6</ele>
        <time>2022-06-06T11:51:56Z</time>
      </trkpt>
      <trkpt lat="44.11948" lon="6.30784">
        <ele>1038.6</ele>
        <time>2022-06-06T11:51:59Z</time>
      </trkpt>
      <trkpt lat="44.1195" lon="6.30784">
        <ele>1038.8</ele>
        <time>2022-06-06T11:52:00Z</time>
      </trkpt>
      <trkpt lat="44.11954" lon="6.30785">
        <ele>1038.8</ele>
        <time>2022-06-06T11:52:02Z</time>
      </trkpt>
      <trkpt lat="44.11964" lon="6.30784">
        <ele>1039.2</ele>
        <time>2022-06-06T11:52:06Z</time>
      </trkpt>
      <trkpt lat="44.11977" lon="6.30775">
        <ele>1039.8</ele>
        <time>2022-06-06T11:52:12Z</time>
      </trkpt>
      <trkpt lat="44.1198" lon="6.30769">
        <ele>1040.2</ele>
        <time>2022-06-06T11:52:15Z</time>
      </trkpt>
      <trkpt lat="44.1198" lon="6.30767">
        <ele>1040.4</ele>
        <time>2022-06-06T11:52:16Z</time>
      </trkpt>
      <trkpt lat="44.11977" lon="6.30751">
        <ele>1041.4</ele>
        <time>2022-06-06T11:52:22Z</time>
      </trkpt>
      <trkpt lat="44.11975" lon="6.30734">
        <ele>1042.8</ele>
        <time>2022-06-06T11:52:28Z</time>
      </trkpt>
      <trkpt lat="44.11972" lon="6.30717">
        <ele>1044.2</ele>
        <time>2022-06-06T11:52:34Z</time>
      </trkpt>
      <trkpt lat="44.11966" lon="6.30707">
        <ele>1045.2</ele>
        <time>2022-06-06T11:52:38Z</time>
      </trkpt>
      <trkpt lat="44.11951" lon="6.30693">
        <ele>1046.6</ele>
        <time>2022-06-06T11:52:44Z</time>
      </trkpt>
      <trkpt lat="44.11942" lon="6.3068">
        <ele>1047.8</ele>
        <time>2022-06-06T11:52:49Z</time>
      </trkpt>
      <trkpt lat="44.11929" lon="6.30665">
        <ele>1048.8</ele>
        <time>2022-06-06T11:52:54Z</time>
      </trkpt>
      <trkpt lat="44.11919" lon="6.30648">
        <ele>1049.8</ele>
        <time>2022-06-06T11:52:59Z</time>
      </trkpt>
      <trkpt lat="44.1192" lon="6.30642">
        <ele>1050.2</ele>
        <time>2022-06-06T11:53:01Z</time>
      </trkpt>
      <trkpt lat="44.11921" lon="6.30641">
        <ele>1050.4</ele>
        <time>2022-06-06T11:53:02Z</time>
      </trkpt>
      <trkpt lat="44.1193" lon="6.30648">
        <ele>1051.4</ele>
        <time>2022-06-06T11:53:06Z</time>
      </trkpt>
      <trkpt lat="44.11944" lon="6.3066">
        <ele>1052.4</ele>
        <time>2022-06-06T11:53:12Z</time>
      </trkpt>
      <trkpt lat="44.11946" lon="6.3066">
        <ele>1052.6</ele>
        <time>2022-06-06T11:53:13Z</time>
      </trkpt>
      <trkpt lat="44.11948" lon="6.3066">
        <ele>1052.6</ele>
        <time>2022-06-06T11:53:14Z</time>
      </trkpt>
      <trkpt lat="44.11955" lon="6.30664">
        <ele>1053.2</ele>
        <time>2022-06-06T11:53:17Z</time>
      </trkpt>
      <trkpt lat="44.1196" lon="6.30663">
        <ele>1053.4</ele>
        <time>2022-06-06T11:53:19Z</time>
      </trkpt>
      <trkpt lat="44.11963" lon="6.30658">
        <ele>1053.8</ele>
        <time>2022-06-06T11:53:21Z</time>
      </trkpt>
      <trkpt lat="44.11964" lon="6.30654">
        <ele>1054.2</ele>
        <time>2022-06-06T11:53:23Z</time>
      </trkpt>
      <trkpt lat="44.11962" lon="6.3065">
        <ele>1054.6</ele>
        <time>2022-06-06T11:53:25Z</time>
      </trkpt>
      <trkpt lat="44.1196" lon="6.30648">
        <ele>1054.8</ele>
        <time>2022-06-06T11:53:26Z</time>
      </trkpt>
      <trkpt lat="44.11958" lon="6.30644">
        <ele>1055.2</ele>
        <time>2022-06-06T11:53:28Z</time>
      </trkpt>
      <trkpt lat="44.11957" lon="6.30641">
        <ele>1055.4</ele>
        <time>2022-06-06T11:53:29Z</time>
      </trkpt>
      <trkpt lat="44.1196" lon="6.30637">
        <ele>1056</ele>
        <time>2022-06-06T11:53:31Z</time>
      </trkpt>
      <trkpt lat="44.11963" lon="6.30636">
        <ele>1056.2</ele>
        <time>2022-06-06T11:53:33Z</time>
      </trkpt>
      <trkpt lat="44.11965" lon="6.30635">
        <ele>1056.4</ele>
        <time>2022-06-06T11:53:34Z</time>
      </trkpt>
      <trkpt lat="44.1197" lon="6.30629">
        <ele>1057</ele>
        <time>2022-06-06T11:53:37Z</time>
      </trkpt>
      <trkpt lat="44.11975" lon="6.30614">
        <ele>1058.2</ele>
        <time>2022-06-06T11:53:42Z</time>
      </trkpt>
      <trkpt lat="44.11971" lon="6.30609">
        <ele>1059</ele>
        <time>2022-06-06T11:53:45Z</time>
      </trkpt>
      <trkpt lat="44.1196" lon="6.30601">
        <ele>1060</ele>
        <time>2022-06-06T11:53:50Z</time>
      </trkpt>
      <trkpt lat="44.11949" lon="6.30584">
        <ele>1061.4</ele>
        <time>2022-06-06T11:53:56Z</time>
      </trkpt>
      <trkpt lat="44.11947" lon="6.3058">
        <ele>1062</ele>
        <time>2022-06-06T11:53:58Z</time>
      </trkpt>
      <trkpt lat="44.11949" lon="6.30575">
        <ele>1062.6</ele>
        <time>2022-06-06T11:54:00Z</time>
      </trkpt>
      <trkpt lat="44.11952" lon="6.30573">
        <ele>1063</ele>
        <time>2022-06-06T11:54:02Z</time>
      </trkpt>
      <trkpt lat="44.11953" lon="6.30569">
        <ele>1063.4</ele>
        <time>2022-06-06T11:54:04Z</time>
      </trkpt>
      <trkpt lat="44.11949" lon="6.30559">
        <ele>1064.2</ele>
        <time>2022-06-06T11:54:08Z</time>
      </trkpt>
      <trkpt lat="44.11943" lon="6.30545">
        <ele>1065</ele>
        <time>2022-06-06T11:54:12Z</time>
      </trkpt>
      <trkpt lat="44.1194" lon="6.30529">
        <ele>1066.2</ele>
        <time>2022-06-06T11:54:17Z</time>
      </trkpt>
      <trkpt lat="44.11938" lon="6.30517">
        <ele>1066.8</ele>
        <time>2022-06-06T11:54:21Z</time>
      </trkpt>
      <trkpt lat="44.11937" lon="6.30514">
        <ele>1067.2</ele>
        <time>2022-06-06T11:54:22Z</time>
      </trkpt>
      <trkpt lat="44.11929" lon="6.30499">
        <ele>1067.8</ele>
        <time>2022-06-06T11:54:26Z</time>
      </trkpt>
      <trkpt lat="44.1192" lon="6.30483">
        <ele>1068.6</ele>
        <time>2022-06-06T11:54:30Z</time>
      </trkpt>
      <trkpt lat="44.11912" lon="6.30473">
        <ele>1069.2</ele>
        <time>2022-06-06T11:54:34Z</time>
      </trkpt>
      <trkpt lat="44.11903" lon="6.30463">
        <ele>1070</ele>
        <time>2022-06-06T11:54:38Z</time>
      </trkpt>
      <trkpt lat="44.11902" lon="6.3046">
        <ele>1070</ele>
        <time>2022-06-06T11:54:39Z</time>
      </trkpt>
      <trkpt lat="44.11905" lon="6.30456">
        <ele>1070.4</ele>
        <time>2022-06-06T11:54:41Z</time>
      </trkpt>
      <trkpt lat="44.11907" lon="6.30455">
        <ele>1070.6</ele>
        <time>2022-06-06T11:54:42Z</time>
      </trkpt>
      <trkpt lat="44.11912" lon="6.30456">
        <ele>1071</ele>
        <time>2022-06-06T11:54:45Z</time>
      </trkpt>
      <trkpt lat="44.11915" lon="6.30456">
        <ele>1071.4</ele>
        <time>2022-06-06T11:54:49Z</time>
      </trkpt>
      <trkpt lat="44.11915" lon="6.30456">
        <ele>1073</ele>
        <time>2022-06-06T11:55:01Z</time>
      </trkpt>
      <trkpt lat="44.11915" lon="6.30456">
        <ele>1074.8</ele>
        <time>2022-06-06T11:55:17Z</time>
      </trkpt>
      <trkpt lat="44.11915" lon="6.30457">
        <ele>1076</ele>
        <time>2022-06-06T11:55:32Z</time>
      </trkpt>
      <trkpt lat="44.11915" lon="6.30457">
        <ele>1077.2</ele>
        <time>2022-06-06T11:55:46Z</time>
      </trkpt>
      <trkpt lat="44.11926" lon="6.30462">
        <ele>1078</ele>
        <time>2022-06-06T11:55:51Z</time>
      </trkpt>
      <trkpt lat="44.11937" lon="6.3046">
        <ele>1078.4</ele>
        <time>2022-06-06T11:55:56Z</time>
      </trkpt>
      <trkpt lat="44.11951" lon="6.30464">
        <ele>1079</ele>
        <time>2022-06-06T11:56:02Z</time>
      </trkpt>
      <trkpt lat="44.11965" lon="6.30467">
        <ele>1079.8</ele>
        <time>2022-06-06T11:56:08Z</time>
      </trkpt>
      <trkpt lat="44.11972" lon="6.30465">
        <ele>1080</ele>
        <time>2022-06-06T11:56:11Z</time>
      </trkpt>
      <trkpt lat="44.11983" lon="6.30456">
        <ele>1080.6</ele>
        <time>2022-06-06T11:56:16Z</time>
      </trkpt>
      <trkpt lat="44.11992" lon="6.30451">
        <ele>1081</ele>
        <time>2022-06-06T11:56:20Z</time>
      </trkpt>
      <trkpt lat="44.11993" lon="6.30449">
        <ele>1081</ele>
        <time>2022-06-06T11:56:21Z</time>
      </trkpt>
      <trkpt lat="44.12001" lon="6.30437">
        <ele>1081.8</ele>
        <time>2022-06-06T11:56:26Z</time>
      </trkpt>
      <trkpt lat="44.12002" lon="6.30434">
        <ele>1081.8</ele>
        <time>2022-06-06T11:56:27Z</time>
      </trkpt>
      <trkpt lat="44.12001" lon="6.30425">
        <ele>1082.4</ele>
        <time>2022-06-06T11:56:30Z</time>
      </trkpt>
      <trkpt lat="44.12002" lon="6.30419">
        <ele>1082.8</ele>
        <time>2022-06-06T11:56:32Z</time>
      </trkpt>
      <trkpt lat="44.12003" lon="6.30417">
        <ele>1083</ele>
        <time>2022-06-06T11:56:33Z</time>
      </trkpt>
      <trkpt lat="44.12006" lon="6.30411">
        <ele>1083.4</ele>
        <time>2022-06-06T11:56:37Z</time>
      </trkpt>
      <trkpt lat="44.12004" lon="6.3041">
        <ele>1084.2</ele>
        <time>2022-06-06T11:56:43Z</time>
      </trkpt>
      <trkpt lat="44.12001" lon="6.30408">
        <ele>1085.4</ele>
        <time>2022-06-06T11:56:53Z</time>
      </trkpt>
      <trkpt lat="44.11999" lon="6.30406">
        <ele>1085.4</ele>
        <time>2022-06-06T11:56:54Z</time>
      </trkpt>
      <trkpt lat="44.11997" lon="6.30402">
        <ele>1085.8</ele>
        <time>2022-06-06T11:56:56Z</time>
      </trkpt>
      <trkpt lat="44.11998" lon="6.30399">
        <ele>1085.8</ele>
        <time>2022-06-06T11:56:57Z</time>
      </trkpt>
      <trkpt lat="44.11997" lon="6.30385">
        <ele>1086.2</ele>
        <time>2022-06-06T11:57:01Z</time>
      </trkpt>
      <trkpt lat="44.11995" lon="6.30373">
        <ele>1086.2</ele>
        <time>2022-06-06T11:57:05Z</time>
      </trkpt>
      <trkpt lat="44.11994" lon="6.30372">
        <ele>1086.2</ele>
        <time>2022-06-06T11:57:06Z</time>
      </trkpt>
      <trkpt lat="44.11992" lon="6.30364">
        <ele>1086.2</ele>
        <time>2022-06-06T11:57:09Z</time>
      </trkpt>
      <trkpt lat="44.11992" lon="6.30353">
        <ele>1086.2</ele>
        <time>2022-06-06T11:57:12Z</time>
      </trkpt>
      <trkpt lat="44.11994" lon="6.30349">
        <ele>1086.2</ele>
        <time>2022-06-06T11:57:13Z</time>
      </trkpt>
      <trkpt lat="44.11998" lon="6.30334">
        <ele>1086</ele>
        <time>2022-06-06T11:57:17Z</time>
      </trkpt>
      <trkpt lat="44.11999" lon="6.30329">
        <ele>1086.6</ele>
        <time>2022-06-06T11:57:19Z</time>
      </trkpt>
      <trkpt lat="44.12002" lon="6.30324">
        <ele>1085.2</ele>
        <time>2022-06-06T11:57:21Z</time>
      </trkpt>
      <trkpt lat="44.12009" lon="6.30305">
        <ele>1085</ele>
        <time>2022-06-06T11:57:26Z</time>
      </trkpt>
      <trkpt lat="44.12009" lon="6.30301">
        <ele>1084.6</ele>
        <time>2022-06-06T11:57:30Z</time>
      </trkpt>
      <trkpt lat="44.12009" lon="6.30298">
        <ele>1083.8</ele>
        <time>2022-06-06T11:57:44Z</time>
      </trkpt>
      <trkpt lat="44.12003" lon="6.30274">
        <ele>1083.2</ele>
        <time>2022-06-06T11:57:49Z</time>
      </trkpt>
      <trkpt lat="44.11999" lon="6.30262">
        <ele>1083</ele>
        <time>2022-06-06T11:57:51Z</time>
      </trkpt>
      <trkpt lat="44.11999" lon="6.30257">
        <ele>1082.8</ele>
        <time>2022-06-06T11:57:52Z</time>
      </trkpt>
      <trkpt lat="44.12001" lon="6.30248">
        <ele>1082.6</ele>
        <time>2022-06-06T11:57:54Z</time>
      </trkpt>
      <trkpt lat="44.12001" lon="6.30245">
        <ele>1082.4</ele>
        <time>2022-06-06T11:57:55Z</time>
      </trkpt>
      <trkpt lat="44.11998" lon="6.30228">
        <ele>1082</ele>
        <time>2022-06-06T11:57:59Z</time>
      </trkpt>
      <trkpt lat="44.11995" lon="6.30219">
        <ele>1081.8</ele>
        <time>2022-06-06T11:58:01Z</time>
      </trkpt>
      <trkpt lat="44.11995" lon="6.30209">
        <ele>1081.6</ele>
        <time>2022-06-06T11:58:03Z</time>
      </trkpt>
      <trkpt lat="44.11993" lon="6.30205">
        <ele>1081.6</ele>
        <time>2022-06-06T11:58:04Z</time>
      </trkpt>
      <trkpt lat="44.11989" lon="6.30197">
        <ele>1081.4</ele>
        <time>2022-06-06T11:58:06Z</time>
      </trkpt>
      <trkpt lat="44.11983" lon="6.30179">
        <ele>1081</ele>
        <time>2022-06-06T11:58:10Z</time>
      </trkpt>
      <trkpt lat="44.11979" lon="6.30164">
        <ele>1080.8</ele>
        <time>2022-06-06T11:58:14Z</time>
      </trkpt>
      <trkpt lat="44.1198" lon="6.30151">
        <ele>1080.6</ele>
        <time>2022-06-06T11:58:18Z</time>
      </trkpt>
      <trkpt lat="44.11982" lon="6.30142">
        <ele>1080.4</ele>
        <time>2022-06-06T11:58:22Z</time>
      </trkpt>
      <trkpt lat="44.11981" lon="6.30124">
        <ele>1080.2</ele>
        <time>2022-06-06T11:58:26Z</time>
      </trkpt>
      <trkpt lat="44.11981" lon="6.30104">
        <ele>1080</ele>
        <time>2022-06-06T11:58:31Z</time>
      </trkpt>
      <trkpt lat="44.11974" lon="6.30088">
        <ele>1079.6</ele>
        <time>2022-06-06T11:58:35Z</time>
      </trkpt>
      <trkpt lat="44.11965" lon="6.30075">
        <ele>1079.2</ele>
        <time>2022-06-06T11:58:38Z</time>
      </trkpt>
      <trkpt lat="44.11963" lon="6.3007">
        <ele>1079</ele>
        <time>2022-06-06T11:58:39Z</time>
      </trkpt>
      <trkpt lat="44.11957" lon="6.30055">
        <ele>1078.6</ele>
        <time>2022-06-06T11:58:42Z</time>
      </trkpt>
      <trkpt lat="44.11954" lon="6.3004">
        <ele>1078.2</ele>
        <time>2022-06-06T11:58:46Z</time>
      </trkpt>
      <trkpt lat="44.11944" lon="6.30025">
        <ele>1078</ele>
        <time>2022-06-06T11:58:51Z</time>
      </trkpt>
      <trkpt lat="44.11941" lon="6.30015">
        <ele>1078.2</ele>
        <time>2022-06-06T11:58:54Z</time>
      </trkpt>
      <trkpt lat="44.11939" lon="6.30012">
        <ele>1078.2</ele>
        <time>2022-06-06T11:58:55Z</time>
      </trkpt>
      <trkpt lat="44.11934" lon="6.29998">
        <ele>1078.4</ele>
        <time>2022-06-06T11:58:59Z</time>
      </trkpt>
      <trkpt lat="44.11933" lon="6.29982">
        <ele>1078.2</ele>
        <time>2022-06-06T11:59:03Z</time>
      </trkpt>
      <trkpt lat="44.11941" lon="6.29967">
        <ele>1077.8</ele>
        <time>2022-06-06T11:59:08Z</time>
      </trkpt>
      <trkpt lat="44.11951" lon="6.29953">
        <ele>1077</ele>
        <time>2022-06-06T11:59:13Z</time>
      </trkpt>
      <trkpt lat="44.11958" lon="6.29942">
        <ele>1076.6</ele>
        <time>2022-06-06T11:59:16Z</time>
      </trkpt>
      <trkpt lat="44.11963" lon="6.29926">
        <ele>1076</ele>
        <time>2022-06-06T11:59:19Z</time>
      </trkpt>
      <trkpt lat="44.11965" lon="6.29922">
        <ele>1075.6</ele>
        <time>2022-06-06T11:59:20Z</time>
      </trkpt>
      <trkpt lat="44.11973" lon="6.29901">
        <ele>1074</ele>
        <time>2022-06-06T11:59:25Z</time>
      </trkpt>
      <trkpt lat="44.11976" lon="6.29893">
        <ele>1073.4</ele>
        <time>2022-06-06T11:59:27Z</time>
      </trkpt>
      <trkpt lat="44.11978" lon="6.29883">
        <ele>1072.8</ele>
        <time>2022-06-06T11:59:29Z</time>
      </trkpt>
      <trkpt lat="44.11986" lon="6.29864">
        <ele>1071.6</ele>
        <time>2022-06-06T11:59:33Z</time>
      </trkpt>
      <trkpt lat="44.11985" lon="6.29847">
        <ele>1071</ele>
        <time>2022-06-06T11:59:36Z</time>
      </trkpt>
      <trkpt lat="44.11982" lon="6.29806">
        <ele>1069.8</ele>
        <time>2022-06-06T11:59:42Z</time>
      </trkpt>
      <trkpt lat="44.11979" lon="6.29793">
        <ele>1069.4</ele>
        <time>2022-06-06T11:59:44Z</time>
      </trkpt>
      <trkpt lat="44.11979" lon="6.29781">
        <ele>1068.8</ele>
        <time>2022-06-06T11:59:46Z</time>
      </trkpt>
      <trkpt lat="44.11981" lon="6.29768">
        <ele>1068</ele>
        <time>2022-06-06T11:59:50Z</time>
      </trkpt>
      <trkpt lat="44.11979" lon="6.29758">
        <ele>1067.2</ele>
        <time>2022-06-06T11:59:54Z</time>
      </trkpt>
      <trkpt lat="44.11976" lon="6.29737">
        <ele>1066.2</ele>
        <time>2022-06-06T11:59:58Z</time>
      </trkpt>
      <trkpt lat="44.11972" lon="6.29727">
        <ele>1065.6</ele>
        <time>2022-06-06T12:00:00Z</time>
      </trkpt>
      <trkpt lat="44.11972" lon="6.29723">
        <ele>1065.2</ele>
        <time>2022-06-06T12:00:01Z</time>
      </trkpt>
      <trkpt lat="44.11971" lon="6.29719">
        <ele>1065</ele>
        <time>2022-06-06T12:00:02Z</time>
      </trkpt>
      <trkpt lat="44.11968" lon="6.29712">
        <ele>1064.2</ele>
        <time>2022-06-06T12:00:04Z</time>
      </trkpt>
      <trkpt lat="44.11968" lon="6.29706">
        <ele>1064</ele>
        <time>2022-06-06T12:00:05Z</time>
      </trkpt>
      <trkpt lat="44.11967" lon="6.29699">
        <ele>1063.6</ele>
        <time>2022-06-06T12:00:06Z</time>
      </trkpt>
      <trkpt lat="44.11963" lon="6.29684">
        <ele>1062.8</ele>
        <time>2022-06-06T12:00:08Z</time>
      </trkpt>
      <trkpt lat="44.1196" lon="6.29671">
        <ele>1062</ele>
        <time>2022-06-06T12:00:10Z</time>
      </trkpt>
      <trkpt lat="44.11959" lon="6.29666">
        <ele>1061.6</ele>
        <time>2022-06-06T12:00:11Z</time>
      </trkpt>
      <trkpt lat="44.1196" lon="6.29663">
        <ele>1061.2</ele>
        <time>2022-06-06T12:00:12Z</time>
      </trkpt>
      <trkpt lat="44.11963" lon="6.29659">
        <ele>1060.4</ele>
        <time>2022-06-06T12:00:14Z</time>
      </trkpt>
      <trkpt lat="44.1197" lon="6.29651">
        <ele>1059.2</ele>
        <time>2022-06-06T12:00:17Z</time>
      </trkpt>
      <trkpt lat="44.11972" lon="6.29647">
        <ele>1059</ele>
        <time>2022-06-06T12:00:18Z</time>
      </trkpt>
      <trkpt lat="44.11974" lon="6.29642">
        <ele>1058.6</ele>
        <time>2022-06-06T12:00:19Z</time>
      </trkpt>
      <trkpt lat="44.11973" lon="6.2963">
        <ele>1057.8</ele>
        <time>2022-06-06T12:00:21Z</time>
      </trkpt>
      <trkpt lat="44.1197" lon="6.29618">
        <ele>1057.2</ele>
        <time>2022-06-06T12:00:23Z</time>
      </trkpt>
      <trkpt lat="44.11965" lon="6.29605">
        <ele>1056.6</ele>
        <time>2022-06-06T12:00:25Z</time>
      </trkpt>
      <trkpt lat="44.11962" lon="6.29594">
        <ele>1055.8</ele>
        <time>2022-06-06T12:00:28Z</time>
      </trkpt>
      <trkpt lat="44.11959" lon="6.29587">
        <ele>1055.2</ele>
        <time>2022-06-06T12:00:30Z</time>
      </trkpt>
      <trkpt lat="44.11955" lon="6.29578">
        <ele>1054.4</ele>
        <time>2022-06-06T12:00:32Z</time>
      </trkpt>
      <trkpt lat="44.1195" lon="6.29566">
        <ele>1053.4</ele>
        <time>2022-06-06T12:00:35Z</time>
      </trkpt>
      <trkpt lat="44.11948" lon="6.29561">
        <ele>1052.8</ele>
        <time>2022-06-06T12:00:36Z</time>
      </trkpt>
      <trkpt lat="44.11942" lon="6.2955">
        <ele>1052</ele>
        <time>2022-06-06T12:00:38Z</time>
      </trkpt>
      <trkpt lat="44.11935" lon="6.29537">
        <ele>1050.8</ele>
        <time>2022-06-06T12:00:41Z</time>
      </trkpt>
      <trkpt lat="44.11933" lon="6.2953">
        <ele>1050.2</ele>
        <time>2022-06-06T12:00:42Z</time>
      </trkpt>
      <trkpt lat="44.11931" lon="6.29524">
        <ele>1049.8</ele>
        <time>2022-06-06T12:00:43Z</time>
      </trkpt>
      <trkpt lat="44.1193" lon="6.29515">
        <ele>1049</ele>
        <time>2022-06-06T12:00:45Z</time>
      </trkpt>
      <trkpt lat="44.1193" lon="6.295">
        <ele>1047.2</ele>
        <time>2022-06-06T12:00:49Z</time>
      </trkpt>
      <trkpt lat="44.11928" lon="6.29489">
        <ele>1046.2</ele>
        <time>2022-06-06T12:00:51Z</time>
      </trkpt>
      <trkpt lat="44.11924" lon="6.29479">
        <ele>1045.2</ele>
        <time>2022-06-06T12:00:53Z</time>
      </trkpt>
      <trkpt lat="44.11921" lon="6.29471">
        <ele>1044.2</ele>
        <time>2022-06-06T12:00:55Z</time>
      </trkpt>
      <trkpt lat="44.11918" lon="6.29468">
        <ele>1043.8</ele>
        <time>2022-06-06T12:00:56Z</time>
      </trkpt>
      <trkpt lat="44.11918" lon="6.29466">
        <ele>1043.2</ele>
        <time>2022-06-06T12:00:57Z</time>
      </trkpt>
      <trkpt lat="44.11919" lon="6.29464">
        <ele>1042.2</ele>
        <time>2022-06-06T12:00:59Z</time>
      </trkpt>
      <trkpt lat="44.11922" lon="6.29463">
        <ele>1041</ele>
        <time>2022-06-06T12:01:01Z</time>
      </trkpt>
      <trkpt lat="44.11922" lon="6.2946">
        <ele>1040</ele>
        <time>2022-06-06T12:01:03Z</time>
      </trkpt>
      <trkpt lat="44.1192" lon="6.29459">
        <ele>1039.6</ele>
        <time>2022-06-06T12:01:04Z</time>
      </trkpt>
      <trkpt lat="44.11916" lon="6.29458">
        <ele>1038.4</ele>
        <time>2022-06-06T12:01:06Z</time>
      </trkpt>
      <trkpt lat="44.11915" lon="6.29457">
        <ele>1038</ele>
        <time>2022-06-06T12:01:07Z</time>
      </trkpt>
      <trkpt lat="44.11917" lon="6.29453">
        <ele>1036.6</ele>
        <time>2022-06-06T12:01:10Z</time>
      </trkpt>
      <trkpt lat="44.11919" lon="6.29452">
        <ele>1036.2</ele>
        <time>2022-06-06T12:01:11Z</time>
      </trkpt>
      <trkpt lat="44.11923" lon="6.29454">
        <ele>1035.2</ele>
        <time>2022-06-06T12:01:13Z</time>
      </trkpt>
      <trkpt lat="44.11924" lon="6.29451">
        <ele>1034</ele>
        <time>2022-06-06T12:01:15Z</time>
      </trkpt>
      <trkpt lat="44.11924" lon="6.29448">
        <ele>1033.6</ele>
        <time>2022-06-06T12:01:16Z</time>
      </trkpt>
      <trkpt lat="44.11918" lon="6.29439">
        <ele>1032</ele>
        <time>2022-06-06T12:01:19Z</time>
      </trkpt>
      <trkpt lat="44.11914" lon="6.29437">
        <ele>1031.4</ele>
        <time>2022-06-06T12:01:20Z</time>
      </trkpt>
      <trkpt lat="44.11906" lon="6.29436">
        <ele>1029.8</ele>
        <time>2022-06-06T12:01:23Z</time>
      </trkpt>
      <trkpt lat="44.11903" lon="6.29435">
        <ele>1028.8</ele>
        <time>2022-06-06T12:01:25Z</time>
      </trkpt>
      <trkpt lat="44.11902" lon="6.29432">
        <ele>1028.2</ele>
        <time>2022-06-06T12:01:27Z</time>
      </trkpt>
      <trkpt lat="44.11905" lon="6.29428">
        <ele>1027.4</ele>
        <time>2022-06-06T12:01:29Z</time>
      </trkpt>
      <trkpt lat="44.11908" lon="6.29427">
        <ele>1026.8</ele>
        <time>2022-06-06T12:01:30Z</time>
      </trkpt>
      <trkpt lat="44.11919" lon="6.29422">
        <ele>1024.6</ele>
        <time>2022-06-06T12:01:34Z</time>
      </trkpt>
      <trkpt lat="44.11925" lon="6.29424">
        <ele>1023.2</ele>
        <time>2022-06-06T12:01:36Z</time>
      </trkpt>
      <trkpt lat="44.11927" lon="6.29424">
        <ele>1022.6</ele>
        <time>2022-06-06T12:01:37Z</time>
      </trkpt>
      <trkpt lat="44.11928" lon="6.29421">
        <ele>1021.2</ele>
        <time>2022-06-06T12:01:39Z</time>
      </trkpt>
      <trkpt lat="44.11926" lon="6.2942">
        <ele>1020.6</ele>
        <time>2022-06-06T12:01:40Z</time>
      </trkpt>
      <trkpt lat="44.11922" lon="6.29415">
        <ele>1019.4</ele>
        <time>2022-06-06T12:01:42Z</time>
      </trkpt>
      <trkpt lat="44.11923" lon="6.29414">
        <ele>1018.6</ele>
        <time>2022-06-06T12:01:43Z</time>
      </trkpt>
      <trkpt lat="44.11926" lon="6.2941">
        <ele>1017.2</ele>
        <time>2022-06-06T12:01:46Z</time>
      </trkpt>
      <trkpt lat="44.11928" lon="6.29411">
        <ele>1016.6</ele>
        <time>2022-06-06T12:01:47Z</time>
      </trkpt>
      <trkpt lat="44.11934" lon="6.29409">
        <ele>1014.8</ele>
        <time>2022-06-06T12:01:50Z</time>
      </trkpt>
      <trkpt lat="44.11933" lon="6.29406">
        <ele>1014.2</ele>
        <time>2022-06-06T12:01:51Z</time>
      </trkpt>
      <trkpt lat="44.11925" lon="6.29394">
        <ele>1011.8</ele>
        <time>2022-06-06T12:01:55Z</time>
      </trkpt>
      <trkpt lat="44.11917" lon="6.29386">
        <ele>1009.4</ele>
        <time>2022-06-06T12:01:59Z</time>
      </trkpt>
      <trkpt lat="44.1191" lon="6.2938">
        <ele>1007</ele>
        <time>2022-06-06T12:02:03Z</time>
      </trkpt>
      <trkpt lat="44.1191" lon="6.29381">
        <ele>1003.8</ele>
        <time>2022-06-06T12:02:10Z</time>
      </trkpt>
      <trkpt lat="44.1191" lon="6.29383">
        <ele>1000.2</ele>
        <time>2022-06-06T12:02:18Z</time>
      </trkpt>
      <trkpt lat="44.1191" lon="6.29383">
        <ele>996.4</ele>
        <time>2022-06-06T12:02:28Z</time>
      </trkpt>
      <trkpt lat="44.1191" lon="6.2938">
        <ele>993.6</ele>
        <time>2022-06-06T12:02:36Z</time>
      </trkpt>
      <trkpt lat="44.1191" lon="6.2938">
        <ele>988.8</ele>
        <time>2022-06-06T12:02:53Z</time>
      </trkpt>
      <trkpt lat="44.1191" lon="6.2938">
        <ele>986.8</ele>
        <time>2022-06-06T12:03:01Z</time>
      </trkpt>
      <trkpt lat="44.1191" lon="6.29379">
        <ele>984.8</ele>
        <time>2022-06-06T12:03:12Z</time>
      </trkpt>
      <trkpt lat="44.1191" lon="6.29379">
        <ele>983.2</ele>
        <time>2022-06-06T12:03:21Z</time>
      </trkpt>
      <trkpt lat="44.1191" lon="6.29379">
        <ele>981</ele>
        <time>2022-06-06T12:03:37Z</time>
      </trkpt>
      <trkpt lat="44.1191" lon="6.29379">
        <ele>979.6</ele>
        <time>2022-06-06T12:03:50Z</time>
      </trkpt>
      <trkpt lat="44.11909" lon="6.29379">
        <ele>978</ele>
        <time>2022-06-06T12:04:08Z</time>
      </trkpt>
      <trkpt lat="44.11909" lon="6.29379">
        <ele>976.8</ele>
        <time>2022-06-06T12:04:26Z</time>
      </trkpt>
      <trkpt lat="44.11909" lon="6.29379">
        <ele>976.2</ele>
        <time>2022-06-06T12:04:47Z</time>
      </trkpt>
      <trkpt lat="44.11909" lon="6.29379">
        <ele>975.4</ele>
        <time>2022-06-06T12:05:11Z</time>
      </trkpt>
      <trkpt lat="44.1191" lon="6.29379">
        <ele>975</ele>
        <time>2022-06-06T12:05:33Z</time>
      </trkpt>
      <trkpt lat="44.1191" lon="6.29379">
        <ele>974.8</ele>
        <time>2022-06-06T12:05:47Z</time>
      </trkpt>
      <trkpt lat="44.1191" lon="6.29379">
        <ele>974.8</ele>
        <time>2022-06-06T12:05:58Z</time>
      </trkpt>
      <trkpt lat="44.1191" lon="6.29379">
        <ele>974.8</ele>
        <time>2022-06-06T12:06:13Z</time>
      </trkpt>
      <trkpt lat="44.1191" lon="6.29379">
        <ele>974.8</ele>
        <time>2022-06-06T12:06:30Z</time>
      </trkpt>
      <trkpt lat="44.1191" lon="6.29379">
        <ele>975</ele>
        <time>2022-06-06T12:06:52Z</time>
      </trkpt>
      <trkpt lat="44.1191" lon="6.29379">
        <ele>975</ele>
        <time>2022-06-06T12:07:01Z</time>
      </trkpt>
      <trkpt lat="44.11913" lon="6.29378">
        <ele>975</ele>
        <time>2022-06-06T12:07:05Z</time>
      </trkpt>
      <trkpt lat="44.11916" lon="6.29379">
        <ele>975</ele>
        <time>2022-06-06T12:07:06Z</time>
      </trkpt>
      <trkpt lat="44.11928" lon="6.29373">
        <ele>974.6</ele>
        <time>2022-06-06T12:07:11Z</time>
      </trkpt>
      <trkpt lat="44.11939" lon="6.29373">
        <ele>973.8</ele>
        <time>2022-06-06T12:07:16Z</time>
      </trkpt>
      <trkpt lat="44.11941" lon="6.29373">
        <ele>973.8</ele>
        <time>2022-06-06T12:07:17Z</time>
      </trkpt>
      <trkpt lat="44.11948" lon="6.2937">
        <ele>973</ele>
        <time>2022-06-06T12:07:20Z</time>
      </trkpt>
      <trkpt lat="44.11947" lon="6.29368">
        <ele>972.6</ele>
        <time>2022-06-06T12:07:21Z</time>
      </trkpt>
      <trkpt lat="44.11944" lon="6.29362">
        <ele>972</ele>
        <time>2022-06-06T12:07:23Z</time>
      </trkpt>
      <trkpt lat="44.11939" lon="6.29353">
        <ele>971.2</ele>
        <time>2022-06-06T12:07:26Z</time>
      </trkpt>
      <trkpt lat="44.11937" lon="6.29352">
        <ele>971</ele>
        <time>2022-06-06T12:07:27Z</time>
      </trkpt>
      <trkpt lat="44.11937" lon="6.2935">
        <ele>970.6</ele>
        <time>2022-06-06T12:07:28Z</time>
      </trkpt>
      <trkpt lat="44.11939" lon="6.29349">
        <ele>969.8</ele>
        <time>2022-06-06T12:07:30Z</time>
      </trkpt>
      <trkpt lat="44.11944" lon="6.29343">
        <ele>968.4</ele>
        <time>2022-06-06T12:07:34Z</time>
      </trkpt>
      <trkpt lat="44.11949" lon="6.29337">
        <ele>967</ele>
        <time>2022-06-06T12:07:37Z</time>
      </trkpt>
      <trkpt lat="44.1195" lon="6.29334">
        <ele>966.6</ele>
        <time>2022-06-06T12:07:38Z</time>
      </trkpt>
      <trkpt lat="44.11951" lon="6.29333">
        <ele>966.2</ele>
        <time>2022-06-06T12:07:39Z</time>
      </trkpt>
      <trkpt lat="44.11953" lon="6.29328">
        <ele>965.4</ele>
        <time>2022-06-06T12:07:41Z</time>
      </trkpt>
      <trkpt lat="44.11949" lon="6.29317">
        <ele>963.8</ele>
        <time>2022-06-06T12:07:45Z</time>
      </trkpt>
      <trkpt lat="44.11939" lon="6.29299">
        <ele>961.4</ele>
        <time>2022-06-06T12:07:50Z</time>
      </trkpt>
      <trkpt lat="44.11934" lon="6.29287">
        <ele>959.4</ele>
        <time>2022-06-06T12:07:54Z</time>
      </trkpt>
      <trkpt lat="44.11934" lon="6.29287">
        <ele>956</ele>
        <time>2022-06-06T12:08:05Z</time>
      </trkpt>
      <trkpt lat="44.11934" lon="6.29287">
        <ele>951.6</ele>
        <time>2022-06-06T12:08:21Z</time>
      </trkpt>
      <trkpt lat="44.11934" lon="6.29287">
        <ele>949</ele>
        <time>2022-06-06T12:08:33Z</time>
      </trkpt>
      <trkpt lat="44.11935" lon="6.29286">
        <ele>946</ele>
        <time>2022-06-06T12:08:46Z</time>
      </trkpt>
      <trkpt lat="44.11935" lon="6.29286">
        <ele>943.4</ele>
        <time>2022-06-06T12:09:02Z</time>
      </trkpt>
      <trkpt lat="44.11934" lon="6.29284">
        <ele>941.4</ele>
        <time>2022-06-06T12:09:14Z</time>
      </trkpt>
      <trkpt lat="44.11931" lon="6.29286">
        <ele>941.2</ele>
        <time>2022-06-06T12:09:15Z</time>
      </trkpt>
      <trkpt lat="44.11927" lon="6.29287">
        <ele>941.2</ele>
        <time>2022-06-06T12:09:16Z</time>
      </trkpt>
      <trkpt lat="44.11912" lon="6.29288">
        <ele>940.8</ele>
        <time>2022-06-06T12:09:19Z</time>
      </trkpt>
      <trkpt lat="44.1191" lon="6.29286">
        <ele>940.6</ele>
        <time>2022-06-06T12:09:20Z</time>
      </trkpt>
      <trkpt lat="44.11907" lon="6.29283">
        <ele>940.6</ele>
        <time>2022-06-06T12:09:22Z</time>
      </trkpt>
      <trkpt lat="44.11901" lon="6.29273">
        <ele>940.2</ele>
        <time>2022-06-06T12:09:26Z</time>
      </trkpt>
      <trkpt lat="44.11896" lon="6.29262">
        <ele>939.6</ele>
        <time>2022-06-06T12:09:29Z</time>
      </trkpt>
      <trkpt lat="44.11893" lon="6.29257">
        <ele>939.4</ele>
        <time>2022-06-06T12:09:30Z</time>
      </trkpt>
      <trkpt lat="44.11887" lon="6.29252">
        <ele>939</ele>
        <time>2022-06-06T12:09:32Z</time>
      </trkpt>
      <trkpt lat="44.11886" lon="6.29252">
        <ele>938.8</ele>
        <time>2022-06-06T12:09:33Z</time>
      </trkpt>
      <trkpt lat="44.11883" lon="6.29252">
        <ele>937.8</ele>
        <time>2022-06-06T12:09:41Z</time>
      </trkpt>
      <trkpt lat="44.11876" lon="6.29251">
        <ele>937.2</ele>
        <time>2022-06-06T12:09:43Z</time>
      </trkpt>
      <trkpt lat="44.11871" lon="6.29249">
        <ele>937</ele>
        <time>2022-06-06T12:09:44Z</time>
      </trkpt>
      <trkpt lat="44.11856" lon="6.29243">
        <ele>936.2</ele>
        <time>2022-06-06T12:09:47Z</time>
      </trkpt>
      <trkpt lat="44.11851" lon="6.2924">
        <ele>935.8</ele>
        <time>2022-06-06T12:09:48Z</time>
      </trkpt>
      <trkpt lat="44.11841" lon="6.29232">
        <ele>935</ele>
        <time>2022-06-06T12:09:51Z</time>
      </trkpt>
      <trkpt lat="44.11833" lon="6.29218">
        <ele>933.8</ele>
        <time>2022-06-06T12:09:54Z</time>
      </trkpt>
      <trkpt lat="44.11829" lon="6.29213">
        <ele>933.4</ele>
        <time>2022-06-06T12:09:55Z</time>
      </trkpt>
      <trkpt lat="44.11825" lon="6.2921">
        <ele>933</ele>
        <time>2022-06-06T12:09:56Z</time>
      </trkpt>
      <trkpt lat="44.11814" lon="6.29205">
        <ele>932.2</ele>
        <time>2022-06-06T12:09:58Z</time>
      </trkpt>
      <trkpt lat="44.11808" lon="6.292">
        <ele>931.4</ele>
        <time>2022-06-06T12:10:00Z</time>
      </trkpt>
      <trkpt lat="44.11807" lon="6.29196">
        <ele>931</ele>
        <time>2022-06-06T12:10:01Z</time>
      </trkpt>
      <trkpt lat="44.11806" lon="6.29189">
        <ele>930.2</ele>
        <time>2022-06-06T12:10:03Z</time>
      </trkpt>
      <trkpt lat="44.11803" lon="6.29187">
        <ele>929.8</ele>
        <time>2022-06-06T12:10:04Z</time>
      </trkpt>
      <trkpt lat="44.11794" lon="6.29184">
        <ele>928.2</ele>
        <time>2022-06-06T12:10:08Z</time>
      </trkpt>
      <trkpt lat="44.11782" lon="6.29177">
        <ele>925.8</ele>
        <time>2022-06-06T12:10:13Z</time>
      </trkpt>
      <trkpt lat="44.11772" lon="6.29171">
        <ele>923.6</ele>
        <time>2022-06-06T12:10:17Z</time>
      </trkpt>
      <trkpt lat="44.11765" lon="6.29163">
        <ele>922</ele>
        <time>2022-06-06T12:10:20Z</time>
      </trkpt>
      <trkpt lat="44.11764" lon="6.29161">
        <ele>921.4</ele>
        <time>2022-06-06T12:10:21Z</time>
      </trkpt>
      <trkpt lat="44.1176" lon="6.29146">
        <ele>919.2</ele>
        <time>2022-06-06T12:10:25Z</time>
      </trkpt>
      <trkpt lat="44.11753" lon="6.29135">
        <ele>917.8</ele>
        <time>2022-06-06T12:10:27Z</time>
      </trkpt>
      <trkpt lat="44.11741" lon="6.29126">
        <ele>916.2</ele>
        <time>2022-06-06T12:10:30Z</time>
      </trkpt>
      <trkpt lat="44.1173" lon="6.29111">
        <ele>913.6</ele>
        <time>2022-06-06T12:10:34Z</time>
      </trkpt>
      <trkpt lat="44.11719" lon="6.29088">
        <ele>911.2</ele>
        <time>2022-06-06T12:10:38Z</time>
      </trkpt>
      <trkpt lat="44.11714" lon="6.29079">
        <ele>909.8</ele>
        <time>2022-06-06T12:10:40Z</time>
      </trkpt>
      <trkpt lat="44.11709" lon="6.29069">
        <ele>908.6</ele>
        <time>2022-06-06T12:10:42Z</time>
      </trkpt>
      <trkpt lat="44.11707" lon="6.29068">
        <ele>907</ele>
        <time>2022-06-06T12:10:45Z</time>
      </trkpt>
      <trkpt lat="44.11707" lon="6.29068">
        <ele>901.6</ele>
        <time>2022-06-06T12:10:58Z</time>
      </trkpt>
      <trkpt lat="44.11707" lon="6.29068">
        <ele>896</ele>
        <time>2022-06-06T12:11:13Z</time>
      </trkpt>
      <trkpt lat="44.11709" lon="6.29069">
        <ele>890.6</ele>
        <time>2022-06-06T12:11:31Z</time>
      </trkpt>
      <trkpt lat="44.11708" lon="6.29069">
        <ele>888.6</ele>
        <time>2022-06-06T12:11:39Z</time>
      </trkpt>
      <trkpt lat="44.11703" lon="6.29065">
        <ele>887.8</ele>
        <time>2022-06-06T12:11:41Z</time>
      </trkpt>
      <trkpt lat="44.11696" lon="6.29058">
        <ele>887.2</ele>
        <time>2022-06-06T12:11:43Z</time>
      </trkpt>
      <trkpt lat="44.11691" lon="6.29057">
        <ele>886.8</ele>
        <time>2022-06-06T12:11:44Z</time>
      </trkpt>
      <trkpt lat="44.11686" lon="6.29057">
        <ele>886.6</ele>
        <time>2022-06-06T12:11:45Z</time>
      </trkpt>
      <trkpt lat="44.11673" lon="6.29056">
        <ele>885.6</ele>
        <time>2022-06-06T12:11:48Z</time>
      </trkpt>
      <trkpt lat="44.1167" lon="6.2904">
        <ele>884.4</ele>
        <time>2022-06-06T12:11:52Z</time>
      </trkpt>
      <trkpt lat="44.1167" lon="6.29034">
        <ele>884</ele>
        <time>2022-06-06T12:11:53Z</time>
      </trkpt>
      <trkpt lat="44.11669" lon="6.29022">
        <ele>883.6</ele>
        <time>2022-06-06T12:11:55Z</time>
      </trkpt>
      <trkpt lat="44.11667" lon="6.29017">
        <ele>882.8</ele>
        <time>2022-06-06T12:11:58Z</time>
      </trkpt>
      <trkpt lat="44.11667" lon="6.29017">
        <ele>880.2</ele>
        <time>2022-06-06T12:12:10Z</time>
      </trkpt>
      <trkpt lat="44.11661" lon="6.29008">
        <ele>879.4</ele>
        <time>2022-06-06T12:12:13Z</time>
      </trkpt>
      <trkpt lat="44.11655" lon="6.29">
        <ele>878.8</ele>
        <time>2022-06-06T12:12:15Z</time>
      </trkpt>
      <trkpt lat="44.11646" lon="6.28989">
        <ele>878.2</ele>
        <time>2022-06-06T12:12:18Z</time>
      </trkpt>
      <trkpt lat="44.11636" lon="6.28977">
        <ele>877.4</ele>
        <time>2022-06-06T12:12:21Z</time>
      </trkpt>
      <trkpt lat="44.11633" lon="6.28973">
        <ele>877.2</ele>
        <time>2022-06-06T12:12:22Z</time>
      </trkpt>
      <trkpt lat="44.11633" lon="6.28969">
        <ele>876.8</ele>
        <time>2022-06-06T12:12:23Z</time>
      </trkpt>
      <trkpt lat="44.11633" lon="6.28966">
        <ele>876.6</ele>
        <time>2022-06-06T12:12:24Z</time>
      </trkpt>
      <trkpt lat="44.11632" lon="6.28963">
        <ele>876.4</ele>
        <time>2022-06-06T12:12:25Z</time>
      </trkpt>
      <trkpt lat="44.11629" lon="6.28958">
        <ele>876</ele>
        <time>2022-06-06T12:12:27Z</time>
      </trkpt>
      <trkpt lat="44.1162" lon="6.28939">
        <ele>874.8</ele>
        <time>2022-06-06T12:12:33Z</time>
      </trkpt>
      <trkpt lat="44.11614" lon="6.28928">
        <ele>874.4</ele>
        <time>2022-06-06T12:12:36Z</time>
      </trkpt>
      <trkpt lat="44.11613" lon="6.28923">
        <ele>874.2</ele>
        <time>2022-06-06T12:12:37Z</time>
      </trkpt>
      <trkpt lat="44.11605" lon="6.28902">
        <ele>873.2</ele>
        <time>2022-06-06T12:12:42Z</time>
      </trkpt>
      <trkpt lat="44.11604" lon="6.28892">
        <ele>872.8</ele>
        <time>2022-06-06T12:12:44Z</time>
      </trkpt>
      <trkpt lat="44.11604" lon="6.28886">
        <ele>872.6</ele>
        <time>2022-06-06T12:12:45Z</time>
      </trkpt>
      <trkpt lat="44.11603" lon="6.2888">
        <ele>872.4</ele>
        <time>2022-06-06T12:12:46Z</time>
      </trkpt>
      <trkpt lat="44.11599" lon="6.28869">
        <ele>872</ele>
        <time>2022-06-06T12:12:48Z</time>
      </trkpt>
      <trkpt lat="44.11598" lon="6.28863">
        <ele>871.8</ele>
        <time>2022-06-06T12:12:49Z</time>
      </trkpt>
      <trkpt lat="44.11592" lon="6.28834">
        <ele>871</ele>
        <time>2022-06-06T12:12:55Z</time>
      </trkpt>
      <trkpt lat="44.11586" lon="6.28806">
        <ele>870.6</ele>
        <time>2022-06-06T12:13:01Z</time>
      </trkpt>
      <trkpt lat="44.11587" lon="6.28802">
        <ele>870.4</ele>
        <time>2022-06-06T12:13:02Z</time>
      </trkpt>
      <trkpt lat="44.11587" lon="6.28799">
        <ele>870.4</ele>
        <time>2022-06-06T12:13:03Z</time>
      </trkpt>
      <trkpt lat="44.11586" lon="6.28793">
        <ele>870.2</ele>
        <time>2022-06-06T12:13:05Z</time>
      </trkpt>
      <trkpt lat="44.11589" lon="6.28786">
        <ele>869.6</ele>
        <time>2022-06-06T12:13:08Z</time>
      </trkpt>
      <trkpt lat="44.11587" lon="6.28768">
        <ele>869</ele>
        <time>2022-06-06T12:13:12Z</time>
      </trkpt>
      <trkpt lat="44.11587" lon="6.28753">
        <ele>868.4</ele>
        <time>2022-06-06T12:13:16Z</time>
      </trkpt>
      <trkpt lat="44.11585" lon="6.28739">
        <ele>867.8</ele>
        <time>2022-06-06T12:13:20Z</time>
      </trkpt>
      <trkpt lat="44.11581" lon="6.28725">
        <ele>867.4</ele>
        <time>2022-06-06T12:13:24Z</time>
      </trkpt>
      <trkpt lat="44.11581" lon="6.28724">
        <ele>867.4</ele>
        <time>2022-06-06T12:13:25Z</time>
      </trkpt>
      <trkpt lat="44.11583" lon="6.2872">
        <ele>867.4</ele>
        <time>2022-06-06T12:13:27Z</time>
      </trkpt>
      <trkpt lat="44.11582" lon="6.28717">
        <ele>867.4</ele>
        <time>2022-06-06T12:13:29Z</time>
      </trkpt>
      <trkpt lat="44.1158" lon="6.28711">
        <ele>867.2</ele>
        <time>2022-06-06T12:13:31Z</time>
      </trkpt>
      <trkpt lat="44.1158" lon="6.28707">
        <ele>867</ele>
        <time>2022-06-06T12:13:32Z</time>
      </trkpt>
      <trkpt lat="44.11577" lon="6.28693">
        <ele>867</ele>
        <time>2022-06-06T12:13:36Z</time>
      </trkpt>
      <trkpt lat="44.11573" lon="6.28677">
        <ele>867.2</ele>
        <time>2022-06-06T12:13:41Z</time>
      </trkpt>
      <trkpt lat="44.11568" lon="6.28657">
        <ele>867</ele>
        <time>2022-06-06T12:13:47Z</time>
      </trkpt>
      <trkpt lat="44.11568" lon="6.28655">
        <ele>867</ele>
        <time>2022-06-06T12:13:48Z</time>
      </trkpt>
      <trkpt lat="44.11563" lon="6.28651">
        <ele>867</ele>
        <time>2022-06-06T12:13:50Z</time>
      </trkpt>
      <trkpt lat="44.11553" lon="6.28647">
        <ele>866.6</ele>
        <time>2022-06-06T12:13:53Z</time>
      </trkpt>
      <trkpt lat="44.11549" lon="6.28644">
        <ele>867</ele>
        <time>2022-06-06T12:13:54Z</time>
      </trkpt>
      <trkpt lat="44.11545" lon="6.28639">
        <ele>866.8</ele>
        <time>2022-06-06T12:13:55Z</time>
      </trkpt>
      <trkpt lat="44.11537" lon="6.28628">
        <ele>866.6</ele>
        <time>2022-06-06T12:13:57Z</time>
      </trkpt>
      <trkpt lat="44.11521" lon="6.28616">
        <ele>866.2</ele>
        <time>2022-06-06T12:14:00Z</time>
      </trkpt>
      <trkpt lat="44.11515" lon="6.28616">
        <ele>866</ele>
        <time>2022-06-06T12:14:01Z</time>
      </trkpt>
      <trkpt lat="44.1151" lon="6.28614">
        <ele>865.8</ele>
        <time>2022-06-06T12:14:02Z</time>
      </trkpt>
      <trkpt lat="44.11506" lon="6.2861">
        <ele>865.6</ele>
        <time>2022-06-06T12:14:03Z</time>
      </trkpt>
      <trkpt lat="44.11504" lon="6.28606">
        <ele>865.4</ele>
        <time>2022-06-06T12:14:04Z</time>
      </trkpt>
      <trkpt lat="44.11502" lon="6.28593">
        <ele>865</ele>
        <time>2022-06-06T12:14:06Z</time>
      </trkpt>
      <trkpt lat="44.11491" lon="6.2858">
        <ele>864.2</ele>
        <time>2022-06-06T12:14:09Z</time>
      </trkpt>
      <trkpt lat="44.11486" lon="6.28576">
        <ele>864</ele>
        <time>2022-06-06T12:14:10Z</time>
      </trkpt>
      <trkpt lat="44.11478" lon="6.28565">
        <ele>863.4</ele>
        <time>2022-06-06T12:14:12Z</time>
      </trkpt>
      <trkpt lat="44.11473" lon="6.28561">
        <ele>863.2</ele>
        <time>2022-06-06T12:14:13Z</time>
      </trkpt>
      <trkpt lat="44.1147" lon="6.28557">
        <ele>863</ele>
        <time>2022-06-06T12:14:14Z</time>
      </trkpt>
      <trkpt lat="44.11471" lon="6.28554">
        <ele>862.8</ele>
        <time>2022-06-06T12:14:15Z</time>
      </trkpt>
      <trkpt lat="44.11465" lon="6.28547">
        <ele>861.8</ele>
        <time>2022-06-06T12:14:18Z</time>
      </trkpt>
      <trkpt lat="44.11457" lon="6.2854">
        <ele>861</ele>
        <time>2022-06-06T12:14:20Z</time>
      </trkpt>
      <trkpt lat="44.11449" lon="6.28531">
        <ele>860.2</ele>
        <time>2022-06-06T12:14:22Z</time>
      </trkpt>
      <trkpt lat="44.1144" lon="6.28522">
        <ele>859.6</ele>
        <time>2022-06-06T12:14:24Z</time>
      </trkpt>
      <trkpt lat="44.1143" lon="6.28518">
        <ele>858.8</ele>
        <time>2022-06-06T12:14:26Z</time>
      </trkpt>
      <trkpt lat="44.11425" lon="6.28516">
        <ele>858.4</ele>
        <time>2022-06-06T12:14:27Z</time>
      </trkpt>
      <trkpt lat="44.1141" lon="6.28507">
        <ele>857.4</ele>
        <time>2022-06-06T12:14:30Z</time>
      </trkpt>
      <trkpt lat="44.11402" lon="6.28499">
        <ele>856.6</ele>
        <time>2022-06-06T12:14:32Z</time>
      </trkpt>
      <trkpt lat="44.11392" lon="6.28491">
        <ele>856</ele>
        <time>2022-06-06T12:14:34Z</time>
      </trkpt>
      <trkpt lat="44.11373" lon="6.28469">
        <ele>854.8</ele>
        <time>2022-06-06T12:14:38Z</time>
      </trkpt>
      <trkpt lat="44.11369" lon="6.28463">
        <ele>854.6</ele>
        <time>2022-06-06T12:14:39Z</time>
      </trkpt>
      <trkpt lat="44.11357" lon="6.28447">
        <ele>854</ele>
        <time>2022-06-06T12:14:42Z</time>
      </trkpt>
      <trkpt lat="44.11348" lon="6.28439">
        <ele>853.6</ele>
        <time>2022-06-06T12:14:44Z</time>
      </trkpt>
      <trkpt lat="44.11345" lon="6.28435">
        <ele>853.4</ele>
        <time>2022-06-06T12:14:45Z</time>
      </trkpt>
      <trkpt lat="44.11337" lon="6.28429">
        <ele>852.6</ele>
        <time>2022-06-06T12:14:47Z</time>
      </trkpt>
      <trkpt lat="44.11331" lon="6.28426">
        <ele>852</ele>
        <time>2022-06-06T12:14:49Z</time>
      </trkpt>
      <trkpt lat="44.11329" lon="6.28428">
        <ele>851.4</ele>
        <time>2022-06-06T12:14:50Z</time>
      </trkpt>
      <trkpt lat="44.11318" lon="6.28437">
        <ele>850.2</ele>
        <time>2022-06-06T12:14:53Z</time>
      </trkpt>
      <trkpt lat="44.11315" lon="6.28439">
        <ele>849.8</ele>
        <time>2022-06-06T12:14:54Z</time>
      </trkpt>
      <trkpt lat="44.11313" lon="6.28438">
        <ele>849.4</ele>
        <time>2022-06-06T12:14:55Z</time>
      </trkpt>
      <trkpt lat="44.1131" lon="6.28434">
        <ele>848.8</ele>
        <time>2022-06-06T12:14:57Z</time>
      </trkpt>
      <trkpt lat="44.11307" lon="6.28432">
        <ele>848.4</ele>
        <time>2022-06-06T12:14:58Z</time>
      </trkpt>
      <trkpt lat="44.11298" lon="6.2843">
        <ele>847.6</ele>
        <time>2022-06-06T12:15:00Z</time>
      </trkpt>
      <trkpt lat="44.11287" lon="6.2843">
        <ele>846.8</ele>
        <time>2022-06-06T12:15:02Z</time>
      </trkpt>
      <trkpt lat="44.11275" lon="6.28429">
        <ele>846</ele>
        <time>2022-06-06T12:15:04Z</time>
      </trkpt>
      <trkpt lat="44.11267" lon="6.28422">
        <ele>845.2</ele>
        <time>2022-06-06T12:15:06Z</time>
      </trkpt>
      <trkpt lat="44.11261" lon="6.28415">
        <ele>844.4</ele>
        <time>2022-06-06T12:15:08Z</time>
      </trkpt>
      <trkpt lat="44.11256" lon="6.28414">
        <ele>844.2</ele>
        <time>2022-06-06T12:15:09Z</time>
      </trkpt>
      <trkpt lat="44.11252" lon="6.28413">
        <ele>843.8</ele>
        <time>2022-06-06T12:15:10Z</time>
      </trkpt>
      <trkpt lat="44.11247" lon="6.28411">
        <ele>842.8</ele>
        <time>2022-06-06T12:15:12Z</time>
      </trkpt>
      <trkpt lat="44.11248" lon="6.28412">
        <ele>842</ele>
        <time>2022-06-06T12:15:15Z</time>
      </trkpt>
      <trkpt lat="44.11248" lon="6.28412">
        <ele>838.2</ele>
        <time>2022-06-06T12:15:29Z</time>
      </trkpt>
      <trkpt lat="44.11248" lon="6.28412">
        <ele>834.4</ele>
        <time>2022-06-06T12:15:47Z</time>
      </trkpt>
      <trkpt lat="44.11247" lon="6.28414">
        <ele>831</ele>
        <time>2022-06-06T12:16:08Z</time>
      </trkpt>
      <trkpt lat="44.11247" lon="6.28414">
        <ele>829</ele>
        <time>2022-06-06T12:16:25Z</time>
      </trkpt>
      <trkpt lat="44.11247" lon="6.28411">
        <ele>828.4</ele>
        <time>2022-06-06T12:16:32Z</time>
      </trkpt>
      <trkpt lat="44.11245" lon="6.28408">
        <ele>828.2</ele>
        <time>2022-06-06T12:16:34Z</time>
      </trkpt>
      <trkpt lat="44.11243" lon="6.28405">
        <ele>828.2</ele>
        <time>2022-06-06T12:16:35Z</time>
      </trkpt>
      <trkpt lat="44.11236" lon="6.28398">
        <ele>828</ele>
        <time>2022-06-06T12:16:37Z</time>
      </trkpt>
      <trkpt lat="44.11232" lon="6.28395">
        <ele>827.8</ele>
        <time>2022-06-06T12:16:38Z</time>
      </trkpt>
      <trkpt lat="44.1123" lon="6.28391">
        <ele>827.6</ele>
        <time>2022-06-06T12:16:39Z</time>
      </trkpt>
      <trkpt lat="44.11219" lon="6.28377">
        <ele>827.2</ele>
        <time>2022-06-06T12:16:42Z</time>
      </trkpt>
      <trkpt lat="44.11212" lon="6.28371">
        <ele>826.8</ele>
        <time>2022-06-06T12:16:44Z</time>
      </trkpt>
      <trkpt lat="44.11207" lon="6.28372">
        <ele>826.6</ele>
        <time>2022-06-06T12:16:45Z</time>
      </trkpt>
      <trkpt lat="44.11197" lon="6.28374">
        <ele>826.2</ele>
        <time>2022-06-06T12:16:47Z</time>
      </trkpt>
      <trkpt lat="44.11188" lon="6.28375">
        <ele>826.2</ele>
        <time>2022-06-06T12:16:49Z</time>
      </trkpt>
      <trkpt lat="44.11184" lon="6.28374">
        <ele>826</ele>
        <time>2022-06-06T12:16:50Z</time>
      </trkpt>
      <trkpt lat="44.11165" lon="6.28365">
        <ele>825.8</ele>
        <time>2022-06-06T12:16:55Z</time>
      </trkpt>
      <trkpt lat="44.11154" lon="6.2836">
        <ele>825.6</ele>
        <time>2022-06-06T12:16:57Z</time>
      </trkpt>
      <trkpt lat="44.11149" lon="6.28356">
        <ele>825.6</ele>
        <time>2022-06-06T12:16:58Z</time>
      </trkpt>
      <trkpt lat="44.11131" lon="6.28339">
        <ele>825.2</ele>
        <time>2022-06-06T12:17:02Z</time>
      </trkpt>
      <trkpt lat="44.11128" lon="6.28334">
        <ele>825.2</ele>
        <time>2022-06-06T12:17:04Z</time>
      </trkpt>
      <trkpt lat="44.11128" lon="6.28333">
        <ele>825</ele>
        <time>2022-06-06T12:17:05Z</time>
      </trkpt>
      <trkpt lat="44.11126" lon="6.28326">
        <ele>824.8</ele>
        <time>2022-06-06T12:17:13Z</time>
      </trkpt>
      <trkpt lat="44.11124" lon="6.28321">
        <ele>824.8</ele>
        <time>2022-06-06T12:17:14Z</time>
      </trkpt>
      <trkpt lat="44.11117" lon="6.28312">
        <ele>824.4</ele>
        <time>2022-06-06T12:17:16Z</time>
      </trkpt>
      <trkpt lat="44.11111" lon="6.28304">
        <ele>824.2</ele>
        <time>2022-06-06T12:17:18Z</time>
      </trkpt>
      <trkpt lat="44.11108" lon="6.28302">
        <ele>823.8</ele>
        <time>2022-06-06T12:17:19Z</time>
      </trkpt>
      <trkpt lat="44.11106" lon="6.28301">
        <ele>823.6</ele>
        <time>2022-06-06T12:17:20Z</time>
      </trkpt>
      <trkpt lat="44.11104" lon="6.28296">
        <ele>823.2</ele>
        <time>2022-06-06T12:17:22Z</time>
      </trkpt>
      <trkpt lat="44.11102" lon="6.28283">
        <ele>822.2</ele>
        <time>2022-06-06T12:17:27Z</time>
      </trkpt>
      <trkpt lat="44.11101" lon="6.2828">
        <ele>822</ele>
        <time>2022-06-06T12:17:28Z</time>
      </trkpt>
      <trkpt lat="44.11094" lon="6.28266">
        <ele>821.2</ele>
        <time>2022-06-06T12:17:31Z</time>
      </trkpt>
      <trkpt lat="44.11091" lon="6.28261">
        <ele>820.8</ele>
        <time>2022-06-06T12:17:32Z</time>
      </trkpt>
      <trkpt lat="44.11087" lon="6.28256">
        <ele>820.6</ele>
        <time>2022-06-06T12:17:33Z</time>
      </trkpt>
      <trkpt lat="44.11082" lon="6.28246">
        <ele>820.2</ele>
        <time>2022-06-06T12:17:35Z</time>
      </trkpt>
      <trkpt lat="44.11078" lon="6.28239">
        <ele>819.4</ele>
        <time>2022-06-06T12:17:38Z</time>
      </trkpt>
      <trkpt lat="44.11078" lon="6.28236">
        <ele>819.2</ele>
        <time>2022-06-06T12:17:39Z</time>
      </trkpt>
      <trkpt lat="44.11084" lon="6.28221">
        <ele>818.6</ele>
        <time>2022-06-06T12:17:44Z</time>
      </trkpt>
      <trkpt lat="44.11092" lon="6.28201">
        <ele>819</ele>
        <time>2022-06-06T12:17:49Z</time>
      </trkpt>
      <trkpt lat="44.11102" lon="6.28187">
        <ele>817.2</ele>
        <time>2022-06-06T12:17:54Z</time>
      </trkpt>
      <trkpt lat="44.11117" lon="6.2817">
        <ele>820.8</ele>
        <time>2022-06-06T12:18:00Z</time>
      </trkpt>
      <trkpt lat="44.11128" lon="6.28156">
        <ele>821.4</ele>
        <time>2022-06-06T12:18:05Z</time>
      </trkpt>
      <trkpt lat="44.1113" lon="6.28147">
        <ele>821.8</ele>
        <time>2022-06-06T12:18:08Z</time>
      </trkpt>
      <trkpt lat="44.11131" lon="6.28144">
        <ele>821.8</ele>
        <time>2022-06-06T12:18:09Z</time>
      </trkpt>
      <trkpt lat="44.11128" lon="6.28133">
        <ele>821.8</ele>
        <time>2022-06-06T12:18:11Z</time>
      </trkpt>
      <trkpt lat="44.11125" lon="6.28126">
        <ele>821.8</ele>
        <time>2022-06-06T12:18:12Z</time>
      </trkpt>
      <trkpt lat="44.11122" lon="6.28121">
        <ele>821.8</ele>
        <time>2022-06-06T12:18:13Z</time>
      </trkpt>
      <trkpt lat="44.1111" lon="6.28103">
        <ele>821.8</ele>
        <time>2022-06-06T12:18:16Z</time>
      </trkpt>
      <trkpt lat="44.111" lon="6.2809">
        <ele>821.8</ele>
        <time>2022-06-06T12:18:18Z</time>
      </trkpt>
      <trkpt lat="44.11095" lon="6.28083">
        <ele>821.8</ele>
        <time>2022-06-06T12:18:19Z</time>
      </trkpt>
      <trkpt lat="44.11092" lon="6.28075">
        <ele>821.8</ele>
        <time>2022-06-06T12:18:20Z</time>
      </trkpt>
      <trkpt lat="44.11091" lon="6.28067">
        <ele>821.8</ele>
        <time>2022-06-06T12:18:21Z</time>
      </trkpt>
      <trkpt lat="44.11092" lon="6.28059">
        <ele>822</ele>
        <time>2022-06-06T12:18:22Z</time>
      </trkpt>
      <trkpt lat="44.11095" lon="6.28045">
        <ele>822</ele>
        <time>2022-06-06T12:18:24Z</time>
      </trkpt>
      <trkpt lat="44.11097" lon="6.28039">
        <ele>822.2</ele>
        <time>2022-06-06T12:18:25Z</time>
      </trkpt>
      <trkpt lat="44.11103" lon="6.28024">
        <ele>822.4</ele>
        <time>2022-06-06T12:18:28Z</time>
      </trkpt>
      <trkpt lat="44.11117" lon="6.27999">
        <ele>823</ele>
        <time>2022-06-06T12:18:34Z</time>
      </trkpt>
      <trkpt lat="44.11131" lon="6.27974">
        <ele>823.6</ele>
        <time>2022-06-06T12:18:40Z</time>
      </trkpt>
      <trkpt lat="44.11142" lon="6.2795">
        <ele>824.4</ele>
        <time>2022-06-06T12:18:46Z</time>
      </trkpt>
      <trkpt lat="44.11152" lon="6.27924">
        <ele>825</ele>
        <time>2022-06-06T12:18:52Z</time>
      </trkpt>
      <trkpt lat="44.11151" lon="6.27923">
        <ele>825.4</ele>
        <time>2022-06-06T12:18:56Z</time>
      </trkpt>
      <trkpt lat="44.11151" lon="6.27923">
        <ele>826.6</ele>
        <time>2022-06-06T12:19:11Z</time>
      </trkpt>
      <trkpt lat="44.11151" lon="6.27923">
        <ele>827.4</ele>
        <time>2022-06-06T12:19:22Z</time>
      </trkpt>
      <trkpt lat="44.11151" lon="6.27924">
        <ele>828.2</ele>
        <time>2022-06-06T12:19:36Z</time>
      </trkpt>
      <trkpt lat="44.11151" lon="6.27921">
        <ele>828.2</ele>
        <time>2022-06-06T12:19:37Z</time>
      </trkpt>
      <trkpt lat="44.1115" lon="6.27899">
        <ele>828.4</ele>
        <time>2022-06-06T12:19:42Z</time>
      </trkpt>
      <trkpt lat="44.11148" lon="6.2789">
        <ele>828.8</ele>
        <time>2022-06-06T12:19:46Z</time>
      </trkpt>
      <trkpt lat="44.11147" lon="6.27889">
        <ele>829.2</ele>
        <time>2022-06-06T12:19:54Z</time>
      </trkpt>
      <trkpt lat="44.11142" lon="6.27877">
        <ele>829.2</ele>
        <time>2022-06-06T12:19:57Z</time>
      </trkpt>
      <trkpt lat="44.11129" lon="6.27863">
        <ele>829</ele>
        <time>2022-06-06T12:20:01Z</time>
      </trkpt>
      <trkpt lat="44.11126" lon="6.2786">
        <ele>828.8</ele>
        <time>2022-06-06T12:20:02Z</time>
      </trkpt>
      <trkpt lat="44.11117" lon="6.27851">
        <ele>828.6</ele>
        <time>2022-06-06T12:20:04Z</time>
      </trkpt>
      <trkpt lat="44.11099" lon="6.27835">
        <ele>828</ele>
        <time>2022-06-06T12:20:07Z</time>
      </trkpt>
      <trkpt lat="44.11089" lon="6.27825">
        <ele>827.2</ele>
        <time>2022-06-06T12:20:09Z</time>
      </trkpt>
      <trkpt lat="44.11082" lon="6.27822">
        <ele>826.8</ele>
        <time>2022-06-06T12:20:10Z</time>
      </trkpt>
      <trkpt lat="44.11077" lon="6.27817">
        <ele>826.6</ele>
        <time>2022-06-06T12:20:11Z</time>
      </trkpt>
      <trkpt lat="44.11068" lon="6.27801">
        <ele>826</ele>
        <time>2022-06-06T12:20:13Z</time>
      </trkpt>
      <trkpt lat="44.11062" lon="6.27774">
        <ele>824.8</ele>
        <time>2022-06-06T12:20:16Z</time>
      </trkpt>
      <trkpt lat="44.11061" lon="6.27765">
        <ele>824.6</ele>
        <time>2022-06-06T12:20:17Z</time>
      </trkpt>
      <trkpt lat="44.11061" lon="6.27755">
        <ele>824.2</ele>
        <time>2022-06-06T12:20:18Z</time>
      </trkpt>
      <trkpt lat="44.11059" lon="6.27732">
        <ele>823.4</ele>
        <time>2022-06-06T12:20:20Z</time>
      </trkpt>
      <trkpt lat="44.11058" lon="6.27721">
        <ele>823</ele>
        <time>2022-06-06T12:20:21Z</time>
      </trkpt>
      <trkpt lat="44.11056" lon="6.27707">
        <ele>822.4</ele>
        <time>2022-06-06T12:20:23Z</time>
      </trkpt>
      <trkpt lat="44.11054" lon="6.27695">
        <ele>821.8</ele>
        <time>2022-06-06T12:20:25Z</time>
      </trkpt>
      <trkpt lat="44.11055" lon="6.27687">
        <ele>821.4</ele>
        <time>2022-06-06T12:20:26Z</time>
      </trkpt>
      <trkpt lat="44.11061" lon="6.27642">
        <ele>819.6</ele>
        <time>2022-06-06T12:20:31Z</time>
      </trkpt>
      <trkpt lat="44.1106" lon="6.27634">
        <ele>819.2</ele>
        <time>2022-06-06T12:20:32Z</time>
      </trkpt>
      <trkpt lat="44.11057" lon="6.27627">
        <ele>818.8</ele>
        <time>2022-06-06T12:20:33Z</time>
      </trkpt>
      <trkpt lat="44.11048" lon="6.27616">
        <ele>817.8</ele>
        <time>2022-06-06T12:20:35Z</time>
      </trkpt>
      <trkpt lat="44.11032" lon="6.27604">
        <ele>816.2</ele>
        <time>2022-06-06T12:20:38Z</time>
      </trkpt>
      <trkpt lat="44.11032" lon="6.2759">
        <ele>815.4</ele>
        <time>2022-06-06T12:20:40Z</time>
      </trkpt>
      <trkpt lat="44.11033" lon="6.27574">
        <ele>814.4</ele>
        <time>2022-06-06T12:20:42Z</time>
      </trkpt>
      <trkpt lat="44.11031" lon="6.27557">
        <ele>813.4</ele>
        <time>2022-06-06T12:20:44Z</time>
      </trkpt>
      <trkpt lat="44.11031" lon="6.2755">
        <ele>812.4</ele>
        <time>2022-06-06T12:20:46Z</time>
      </trkpt>
      <trkpt lat="44.11032" lon="6.27551">
        <ele>809.6</ele>
        <time>2022-06-06T12:20:55Z</time>
      </trkpt>
      <trkpt lat="44.11034" lon="6.27551">
        <ele>809</ele>
        <time>2022-06-06T12:20:56Z</time>
      </trkpt>
      <trkpt lat="44.11039" lon="6.27555">
        <ele>808</ele>
        <time>2022-06-06T12:20:58Z</time>
      </trkpt>
      <trkpt lat="44.11044" lon="6.27561">
        <ele>806.8</ele>
        <time>2022-06-06T12:21:00Z</time>
      </trkpt>
      <trkpt lat="44.1105" lon="6.27572">
        <ele>805.8</ele>
        <time>2022-06-06T12:21:02Z</time>
      </trkpt>
      <trkpt lat="44.11057" lon="6.27583">
        <ele>804.4</ele>
        <time>2022-06-06T12:21:04Z</time>
      </trkpt>
      <trkpt lat="44.11059" lon="6.27584">
        <ele>803.8</ele>
        <time>2022-06-06T12:21:05Z</time>
      </trkpt>
      <trkpt lat="44.11073" lon="6.27577">
        <ele>801</ele>
        <time>2022-06-06T12:21:09Z</time>
      </trkpt>
      <trkpt lat="44.11085" lon="6.27576">
        <ele>799.2</ele>
        <time>2022-06-06T12:21:12Z</time>
      </trkpt>
      <trkpt lat="44.11088" lon="6.27577">
        <ele>798.6</ele>
        <time>2022-06-06T12:21:13Z</time>
      </trkpt>
      <trkpt lat="44.11093" lon="6.27584">
        <ele>797.2</ele>
        <time>2022-06-06T12:21:15Z</time>
      </trkpt>
      <trkpt lat="44.11103" lon="6.27602">
        <ele>794.8</ele>
        <time>2022-06-06T12:21:18Z</time>
      </trkpt>
      <trkpt lat="44.11105" lon="6.2761">
        <ele>794</ele>
        <time>2022-06-06T12:21:19Z</time>
      </trkpt>
      <trkpt lat="44.1111" lon="6.27632">
        <ele>791.4</ele>
        <time>2022-06-06T12:21:22Z</time>
      </trkpt>
      <trkpt lat="44.11109" lon="6.27633">
        <ele>790.8</ele>
        <time>2022-06-06T12:21:23Z</time>
      </trkpt>
      <trkpt lat="44.11109" lon="6.27633">
        <ele>790.2</ele>
        <time>2022-06-06T12:21:24Z</time>
      </trkpt>
      <trkpt lat="44.11113" lon="6.27631">
        <ele>788.8</ele>
        <time>2022-06-06T12:21:26Z</time>
      </trkpt>
      <trkpt lat="44.11124" lon="6.27624">
        <ele>786.8</ele>
        <time>2022-06-06T12:21:30Z</time>
      </trkpt>
      <trkpt lat="44.11127" lon="6.27621">
        <ele>786.4</ele>
        <time>2022-06-06T12:21:31Z</time>
      </trkpt>
      <trkpt lat="44.11141" lon="6.27606">
        <ele>784.6</ele>
        <time>2022-06-06T12:21:35Z</time>
      </trkpt>
      <trkpt lat="44.11146" lon="6.27598">
        <ele>784</ele>
        <time>2022-06-06T12:21:37Z</time>
      </trkpt>
      <trkpt lat="44.11151" lon="6.27587">
        <ele>783.4</ele>
        <time>2022-06-06T12:21:39Z</time>
      </trkpt>
      <trkpt lat="44.11166" lon="6.27558">
        <ele>780.8</ele>
        <time>2022-06-06T12:21:45Z</time>
      </trkpt>
      <trkpt lat="44.11175" lon="6.27552">
        <ele>779.4</ele>
        <time>2022-06-06T12:21:48Z</time>
      </trkpt>
      <trkpt lat="44.11177" lon="6.27549">
        <ele>779</ele>
        <time>2022-06-06T12:21:49Z</time>
      </trkpt>
      <trkpt lat="44.11189" lon="6.27533">
        <ele>776.6</ele>
        <time>2022-06-06T12:21:54Z</time>
      </trkpt>
      <trkpt lat="44.112" lon="6.27519">
        <ele>774.2</ele>
        <time>2022-06-06T12:21:59Z</time>
      </trkpt>
      <trkpt lat="44.11205" lon="6.27512">
        <ele>773.2</ele>
        <time>2022-06-06T12:22:01Z</time>
      </trkpt>
      <trkpt lat="44.11208" lon="6.27507">
        <ele>772.8</ele>
        <time>2022-06-06T12:22:02Z</time>
      </trkpt>
      <trkpt lat="44.11225" lon="6.27487">
        <ele>770.2</ele>
        <time>2022-06-06T12:22:07Z</time>
      </trkpt>
      <trkpt lat="44.11238" lon="6.27475">
        <ele>767.8</ele>
        <time>2022-06-06T12:22:11Z</time>
      </trkpt>
      <trkpt lat="44.11246" lon="6.27468">
        <ele>766.8</ele>
        <time>2022-06-06T12:22:13Z</time>
      </trkpt>
      <trkpt lat="44.11256" lon="6.27464">
        <ele>766</ele>
        <time>2022-06-06T12:22:15Z</time>
      </trkpt>
      <trkpt lat="44.11266" lon="6.27461">
        <ele>765.6</ele>
        <time>2022-06-06T12:22:17Z</time>
      </trkpt>
      <trkpt lat="44.11268" lon="6.2746">
        <ele>765.4</ele>
        <time>2022-06-06T12:22:18Z</time>
      </trkpt>
      <trkpt lat="44.1127" lon="6.27462">
        <ele>765</ele>
        <time>2022-06-06T12:22:19Z</time>
      </trkpt>
      <trkpt lat="44.11275" lon="6.27464">
        <ele>764.4</ele>
        <time>2022-06-06T12:22:21Z</time>
      </trkpt>
      <trkpt lat="44.11278" lon="6.27462">
        <ele>762.2</ele>
        <time>2022-06-06T12:22:27Z</time>
      </trkpt>
      <trkpt lat="44.11278" lon="6.27462">
        <ele>758.6</ele>
        <time>2022-06-06T12:22:39Z</time>
      </trkpt>
      <trkpt lat="44.11284" lon="6.27458">
        <ele>756.4</ele>
        <time>2022-06-06T12:22:46Z</time>
      </trkpt>
      <trkpt lat="44.11286" lon="6.27452">
        <ele>755.8</ele>
        <time>2022-06-06T12:22:48Z</time>
      </trkpt>
      <trkpt lat="44.11287" lon="6.27448">
        <ele>755</ele>
        <time>2022-06-06T12:22:50Z</time>
      </trkpt>
      <trkpt lat="44.11288" lon="6.27444">
        <ele>753.4</ele>
        <time>2022-06-06T12:22:56Z</time>
      </trkpt>
      <trkpt lat="44.11289" lon="6.27442">
        <ele>751.6</ele>
        <time>2022-06-06T12:23:02Z</time>
      </trkpt>
      <trkpt lat="44.1129" lon="6.27442">
        <ele>751</ele>
        <time>2022-06-06T12:23:04Z</time>
      </trkpt>
      <trkpt lat="44.1129" lon="6.27442">
        <ele>750.6</ele>
        <time>2022-06-06T12:23:06Z</time>
      </trkpt>
      <trkpt lat="44.11292" lon="6.2744">
        <ele>749.6</ele>
        <time>2022-06-06T12:23:09Z</time>
      </trkpt>
      <trkpt lat="44.11293" lon="6.27439">
        <ele>749.2</ele>
        <time>2022-06-06T12:23:10Z</time>
      </trkpt>
      <trkpt lat="44.11295" lon="6.27437">
        <ele>748.4</ele>
        <time>2022-06-06T12:23:12Z</time>
      </trkpt>
      <trkpt lat="44.11298" lon="6.27439">
        <ele>747.2</ele>
        <time>2022-06-06T12:23:14Z</time>
      </trkpt>
      <trkpt lat="44.11298" lon="6.27454">
        <ele>744.6</ele>
        <time>2022-06-06T12:23:18Z</time>
      </trkpt>
      <trkpt lat="44.113" lon="6.27463">
        <ele>743.2</ele>
        <time>2022-06-06T12:23:20Z</time>
      </trkpt>
      <trkpt lat="44.11303" lon="6.27472">
        <ele>741.8</ele>
        <time>2022-06-06T12:23:22Z</time>
      </trkpt>
      <trkpt lat="44.11307" lon="6.27477">
        <ele>740.4</ele>
        <time>2022-06-06T12:23:24Z</time>
      </trkpt>
      <trkpt lat="44.11312" lon="6.27482">
        <ele>739.6</ele>
        <time>2022-06-06T12:23:25Z</time>
      </trkpt>
      <trkpt lat="44.11321" lon="6.2749">
        <ele>737.4</ele>
        <time>2022-06-06T12:23:28Z</time>
      </trkpt>
      <trkpt lat="44.11328" lon="6.27496">
        <ele>735.2</ele>
        <time>2022-06-06T12:23:31Z</time>
      </trkpt>
      <trkpt lat="44.11342" lon="6.27501">
        <ele>732.2</ele>
        <time>2022-06-06T12:23:35Z</time>
      </trkpt>
      <trkpt lat="44.11347" lon="6.27503">
        <ele>731.2</ele>
        <time>2022-06-06T12:23:36Z</time>
      </trkpt>
      <trkpt lat="44.11356" lon="6.27508">
        <ele>729.4</ele>
        <time>2022-06-06T12:23:38Z</time>
      </trkpt>
      <trkpt lat="44.11363" lon="6.27519">
        <ele>727.8</ele>
        <time>2022-06-06T12:23:40Z</time>
      </trkpt>
      <trkpt lat="44.11365" lon="6.27525">
        <ele>727</ele>
        <time>2022-06-06T12:23:41Z</time>
      </trkpt>
      <trkpt lat="44.11368" lon="6.27531">
        <ele>726.2</ele>
        <time>2022-06-06T12:23:42Z</time>
      </trkpt>
      <trkpt lat="44.11375" lon="6.27539">
        <ele>724.4</ele>
        <time>2022-06-06T12:23:44Z</time>
      </trkpt>
      <trkpt lat="44.11379" lon="6.27551">
        <ele>722.6</ele>
        <time>2022-06-06T12:23:46Z</time>
      </trkpt>
      <trkpt lat="44.11383" lon="6.27558">
        <ele>721.8</ele>
        <time>2022-06-06T12:23:47Z</time>
      </trkpt>
      <trkpt lat="44.114" lon="6.27596">
        <ele>717</ele>
        <time>2022-06-06T12:23:52Z</time>
      </trkpt>
      <trkpt lat="44.11405" lon="6.27605">
        <ele>714.8</ele>
        <time>2022-06-06T12:23:54Z</time>
      </trkpt>
      <trkpt lat="44.11407" lon="6.27606">
        <ele>711.2</ele>
        <time>2022-06-06T12:23:58Z</time>
      </trkpt>
      <trkpt lat="44.11407" lon="6.27606">
        <ele>703</ele>
        <time>2022-06-06T12:24:11Z</time>
      </trkpt>
      <trkpt lat="44.11407" lon="6.27606">
        <ele>694.4</ele>
        <time>2022-06-06T12:24:26Z</time>
      </trkpt>
      <trkpt lat="44.11409" lon="6.27606">
        <ele>688</ele>
        <time>2022-06-06T12:24:41Z</time>
      </trkpt>
      <trkpt lat="44.11409" lon="6.27606">
        <ele>681.8</ele>
        <time>2022-06-06T12:24:59Z</time>
      </trkpt>
      <trkpt lat="44.11409" lon="6.27606">
        <ele>677.4</ele>
        <time>2022-06-06T12:25:15Z</time>
      </trkpt>
      <trkpt lat="44.11411" lon="6.27606">
        <ele>674.4</ele>
        <time>2022-06-06T12:25:28Z</time>
      </trkpt>
      <trkpt lat="44.11411" lon="6.27613">
        <ele>673.4</ele>
        <time>2022-06-06T12:25:32Z</time>
      </trkpt>
      <trkpt lat="44.11413" lon="6.27633">
        <ele>672</ele>
        <time>2022-06-06T12:25:36Z</time>
      </trkpt>
      <trkpt lat="44.11415" lon="6.27637">
        <ele>671.6</ele>
        <time>2022-06-06T12:25:37Z</time>
      </trkpt>
      <trkpt lat="44.11419" lon="6.27647">
        <ele>670.6</ele>
        <time>2022-06-06T12:25:40Z</time>
      </trkpt>
      <trkpt lat="44.11422" lon="6.27648">
        <ele>670.4</ele>
        <time>2022-06-06T12:25:41Z</time>
      </trkpt>
      <trkpt lat="44.11425" lon="6.27646">
        <ele>670</ele>
        <time>2022-06-06T12:25:42Z</time>
      </trkpt>
      <trkpt lat="44.11428" lon="6.27641">
        <ele>668.8</ele>
        <time>2022-06-06T12:25:45Z</time>
      </trkpt>
      <trkpt lat="44.1143" lon="6.27628">
        <ele>667.6</ele>
        <time>2022-06-06T12:25:50Z</time>
      </trkpt>
      <trkpt lat="44.11432" lon="6.27607">
        <ele>665</ele>
        <time>2022-06-06T12:25:55Z</time>
      </trkpt>
      <trkpt lat="44.11429" lon="6.27589">
        <ele>662.8</ele>
        <time>2022-06-06T12:25:58Z</time>
      </trkpt>
      <trkpt lat="44.11427" lon="6.27581">
        <ele>662.2</ele>
        <time>2022-06-06T12:25:59Z</time>
      </trkpt>
      <trkpt lat="44.11425" lon="6.27573">
        <ele>662</ele>
        <time>2022-06-06T12:26:00Z</time>
      </trkpt>
      <trkpt lat="44.11423" lon="6.27561">
        <ele>661.6</ele>
        <time>2022-06-06T12:26:02Z</time>
      </trkpt>
      <trkpt lat="44.11426" lon="6.27545">
        <ele>661</ele>
        <time>2022-06-06T12:26:04Z</time>
      </trkpt>
      <trkpt lat="44.11427" lon="6.27536">
        <ele>660.8</ele>
        <time>2022-06-06T12:26:05Z</time>
      </trkpt>
      <trkpt lat="44.11426" lon="6.27528">
        <ele>660.6</ele>
        <time>2022-06-06T12:26:06Z</time>
      </trkpt>
      <trkpt lat="44.11423" lon="6.27512">
        <ele>660.2</ele>
        <time>2022-06-06T12:26:08Z</time>
      </trkpt>
      <trkpt lat="44.1142" lon="6.27503">
        <ele>659.8</ele>
        <time>2022-06-06T12:26:09Z</time>
      </trkpt>
      <trkpt lat="44.11418" lon="6.27488">
        <ele>659.2</ele>
        <time>2022-06-06T12:26:11Z</time>
      </trkpt>
      <trkpt lat="44.11412" lon="6.27474">
        <ele>658.4</ele>
        <time>2022-06-06T12:26:14Z</time>
      </trkpt>
      <trkpt lat="44.11411" lon="6.27467">
        <ele>658.2</ele>
        <time>2022-06-06T12:26:15Z</time>
      </trkpt>
      <trkpt lat="44.11409" lon="6.2746">
        <ele>658</ele>
        <time>2022-06-06T12:26:16Z</time>
      </trkpt>
      <trkpt lat="44.11407" lon="6.27454">
        <ele>657.6</ele>
        <time>2022-06-06T12:26:17Z</time>
      </trkpt>
      <trkpt lat="44.11404" lon="6.27452">
        <ele>657.2</ele>
        <time>2022-06-06T12:26:18Z</time>
      </trkpt>
      <trkpt lat="44.11402" lon="6.2745">
        <ele>656.8</ele>
        <time>2022-06-06T12:26:19Z</time>
      </trkpt>
      <trkpt lat="44.11394" lon="6.27442">
        <ele>655.8</ele>
        <time>2022-06-06T12:26:22Z</time>
      </trkpt>
      <trkpt lat="44.11393" lon="6.27438">
        <ele>655.6</ele>
        <time>2022-06-06T12:26:23Z</time>
      </trkpt>
      <trkpt lat="44.11392" lon="6.27435">
        <ele>655.2</ele>
        <time>2022-06-06T12:26:24Z</time>
      </trkpt>
      <trkpt lat="44.1139" lon="6.27425">
        <ele>654.8</ele>
        <time>2022-06-06T12:26:26Z</time>
      </trkpt>
      <trkpt lat="44.11389" lon="6.27414">
        <ele>654.8</ele>
        <time>2022-06-06T12:26:28Z</time>
      </trkpt>
      <trkpt lat="44.11388" lon="6.27407">
        <ele>654.4</ele>
        <time>2022-06-06T12:26:30Z</time>
      </trkpt>
      <trkpt lat="44.11384" lon="6.27393">
        <ele>653.6</ele>
        <time>2022-06-06T12:26:33Z</time>
      </trkpt>
      <trkpt lat="44.11381" lon="6.27387">
        <ele>653.4</ele>
        <time>2022-06-06T12:26:34Z</time>
      </trkpt>
      <trkpt lat="44.11379" lon="6.27381">
        <ele>653</ele>
        <time>2022-06-06T12:26:35Z</time>
      </trkpt>
      <trkpt lat="44.11375" lon="6.27367">
        <ele>652.8</ele>
        <time>2022-06-06T12:26:37Z</time>
      </trkpt>
      <trkpt lat="44.11371" lon="6.27359">
        <ele>652.8</ele>
        <time>2022-06-06T12:26:38Z</time>
      </trkpt>
      <trkpt lat="44.11362" lon="6.27343">
        <ele>652.6</ele>
        <time>2022-06-06T12:26:40Z</time>
      </trkpt>
      <trkpt lat="44.11358" lon="6.27326">
        <ele>652.4</ele>
        <time>2022-06-06T12:26:42Z</time>
      </trkpt>
      <trkpt lat="44.1136" lon="6.27305">
        <ele>652.2</ele>
        <time>2022-06-06T12:26:44Z</time>
      </trkpt>
      <trkpt lat="44.11359" lon="6.27297">
        <ele>652</ele>
        <time>2022-06-06T12:26:45Z</time>
      </trkpt>
      <trkpt lat="44.11357" lon="6.2729">
        <ele>651.6</ele>
        <time>2022-06-06T12:26:46Z</time>
      </trkpt>
      <trkpt lat="44.11356" lon="6.27279">
        <ele>651.2</ele>
        <time>2022-06-06T12:26:48Z</time>
      </trkpt>
      <trkpt lat="44.11355" lon="6.27273">
        <ele>651</ele>
        <time>2022-06-06T12:26:49Z</time>
      </trkpt>
      <trkpt lat="44.1135" lon="6.27263">
        <ele>650.2</ele>
        <time>2022-06-06T12:26:51Z</time>
      </trkpt>
      <trkpt lat="44.1134" lon="6.27254">
        <ele>649.4</ele>
        <time>2022-06-06T12:26:54Z</time>
      </trkpt>
      <trkpt lat="44.11336" lon="6.27246">
        <ele>649</ele>
        <time>2022-06-06T12:26:56Z</time>
      </trkpt>
      <trkpt lat="44.11335" lon="6.2724">
        <ele>648.8</ele>
        <time>2022-06-06T12:26:57Z</time>
      </trkpt>
      <trkpt lat="44.11334" lon="6.27234">
        <ele>648.8</ele>
        <time>2022-06-06T12:26:58Z</time>
      </trkpt>
      <trkpt lat="44.1133" lon="6.27217">
        <ele>648.2</ele>
        <time>2022-06-06T12:27:01Z</time>
      </trkpt>
      <trkpt lat="44.11325" lon="6.27191">
        <ele>647.4</ele>
        <time>2022-06-06T12:27:06Z</time>
      </trkpt>
      <trkpt lat="44.11317" lon="6.2717">
        <ele>646.8</ele>
        <time>2022-06-06T12:27:09Z</time>
      </trkpt>
      <trkpt lat="44.113" lon="6.27137">
        <ele>646.2</ele>
        <time>2022-06-06T12:27:13Z</time>
      </trkpt>
      <trkpt lat="44.11296" lon="6.27129">
        <ele>646</ele>
        <time>2022-06-06T12:27:14Z</time>
      </trkpt>
      <trkpt lat="44.11289" lon="6.27113">
        <ele>645.8</ele>
        <time>2022-06-06T12:27:16Z</time>
      </trkpt>
      <trkpt lat="44.11285" lon="6.27106">
        <ele>645.6</ele>
        <time>2022-06-06T12:27:17Z</time>
      </trkpt>
      <trkpt lat="44.11274" lon="6.27087">
        <ele>645</ele>
        <time>2022-06-06T12:27:20Z</time>
      </trkpt>
      <trkpt lat="44.1127" lon="6.27081">
        <ele>644.8</ele>
        <time>2022-06-06T12:27:21Z</time>
      </trkpt>
      <trkpt lat="44.1126" lon="6.27062">
        <ele>644.4</ele>
        <time>2022-06-06T12:27:24Z</time>
      </trkpt>
      <trkpt lat="44.11252" lon="6.27052">
        <ele>644</ele>
        <time>2022-06-06T12:27:26Z</time>
      </trkpt>
      <trkpt lat="44.11244" lon="6.27042">
        <ele>643.6</ele>
        <time>2022-06-06T12:27:28Z</time>
      </trkpt>
      <trkpt lat="44.11231" lon="6.27026">
        <ele>643</ele>
        <time>2022-06-06T12:27:31Z</time>
      </trkpt>
      <trkpt lat="44.11217" lon="6.27007">
        <ele>642.6</ele>
        <time>2022-06-06T12:27:34Z</time>
      </trkpt>
      <trkpt lat="44.11209" lon="6.26994">
        <ele>642.2</ele>
        <time>2022-06-06T12:27:36Z</time>
      </trkpt>
      <trkpt lat="44.11205" lon="6.26987">
        <ele>642.2</ele>
        <time>2022-06-06T12:27:37Z</time>
      </trkpt>
      <trkpt lat="44.11199" lon="6.26973">
        <ele>642</ele>
        <time>2022-06-06T12:27:39Z</time>
      </trkpt>
      <trkpt lat="44.11189" lon="6.26958">
        <ele>641.8</ele>
        <time>2022-06-06T12:27:42Z</time>
      </trkpt>
      <trkpt lat="44.11187" lon="6.26954">
        <ele>641.8</ele>
        <time>2022-06-06T12:27:43Z</time>
      </trkpt>
      <trkpt lat="44.11185" lon="6.26943">
        <ele>641.6</ele>
        <time>2022-06-06T12:27:45Z</time>
      </trkpt>
      <trkpt lat="44.11182" lon="6.26927">
        <ele>641.6</ele>
        <time>2022-06-06T12:27:48Z</time>
      </trkpt>
      <trkpt lat="44.11169" lon="6.26902">
        <ele>642</ele>
        <time>2022-06-06T12:27:53Z</time>
      </trkpt>
      <trkpt lat="44.11158" lon="6.26886">
        <ele>641.2</ele>
        <time>2022-06-06T12:27:57Z</time>
      </trkpt>
      <trkpt lat="44.1115" lon="6.2687">
        <ele>642.2</ele>
        <time>2022-06-06T12:28:01Z</time>
      </trkpt>
      <trkpt lat="44.11149" lon="6.26862">
        <ele>642.6</ele>
        <time>2022-06-06T12:28:04Z</time>
      </trkpt>
      <trkpt lat="44.11149" lon="6.2686">
        <ele>642.8</ele>
        <time>2022-06-06T12:28:05Z</time>
      </trkpt>
      <trkpt lat="44.1115" lon="6.26858">
        <ele>643</ele>
        <time>2022-06-06T12:28:06Z</time>
      </trkpt>
      <trkpt lat="44.11152" lon="6.2685">
        <ele>643.2</ele>
        <time>2022-06-06T12:28:09Z</time>
      </trkpt>
      <trkpt lat="44.11152" lon="6.2685">
        <ele>643.4</ele>
        <time>2022-06-06T12:28:19Z</time>
      </trkpt>
      <trkpt lat="44.11152" lon="6.2685">
        <ele>644.4</ele>
        <time>2022-06-06T12:28:37Z</time>
      </trkpt>
      <trkpt lat="44.11153" lon="6.26847">
        <ele>644.8</ele>
        <time>2022-06-06T12:28:45Z</time>
      </trkpt>
      <trkpt lat="44.11153" lon="6.26844">
        <ele>645.2</ele>
        <time>2022-06-06T12:28:46Z</time>
      </trkpt>
      <trkpt lat="44.11158" lon="6.2683">
        <ele>645.8</ele>
        <time>2022-06-06T12:28:49Z</time>
      </trkpt>
      <trkpt lat="44.11163" lon="6.26822">
        <ele>646.2</ele>
        <time>2022-06-06T12:28:51Z</time>
      </trkpt>
      <trkpt lat="44.11165" lon="6.26819">
        <ele>646.2</ele>
        <time>2022-06-06T12:28:52Z</time>
      </trkpt>
      <trkpt lat="44.11168" lon="6.26816">
        <ele>646.2</ele>
        <time>2022-06-06T12:28:53Z</time>
      </trkpt>
      <trkpt lat="44.11173" lon="6.26811">
        <ele>646.2</ele>
        <time>2022-06-06T12:28:55Z</time>
      </trkpt>
      <trkpt lat="44.11175" lon="6.26801">
        <ele>646</ele>
        <time>2022-06-06T12:28:57Z</time>
      </trkpt>
      <trkpt lat="44.11173" lon="6.26795">
        <ele>645.8</ele>
        <time>2022-06-06T12:28:58Z</time>
      </trkpt>
      <trkpt lat="44.11173" lon="6.26789">
        <ele>645.8</ele>
        <time>2022-06-06T12:28:59Z</time>
      </trkpt>
      <trkpt lat="44.11175" lon="6.26785">
        <ele>645.6</ele>
        <time>2022-06-06T12:29:00Z</time>
      </trkpt>
      <trkpt lat="44.11178" lon="6.26776">
        <ele>645.8</ele>
        <time>2022-06-06T12:29:04Z</time>
      </trkpt>
      <trkpt lat="44.1118" lon="6.26774">
        <ele>645.8</ele>
        <time>2022-06-06T12:29:05Z</time>
      </trkpt>
      <trkpt lat="44.11185" lon="6.26767">
        <ele>646</ele>
        <time>2022-06-06T12:29:08Z</time>
      </trkpt>
      <trkpt lat="44.11188" lon="6.26766">
        <ele>646</ele>
        <time>2022-06-06T12:29:09Z</time>
      </trkpt>
      <trkpt lat="44.11192" lon="6.26765">
        <ele>645.8</ele>
        <time>2022-06-06T12:29:11Z</time>
      </trkpt>
      <trkpt lat="44.11197" lon="6.26762">
        <ele>646.4</ele>
        <time>2022-06-06T12:29:13Z</time>
      </trkpt>
      <trkpt lat="44.11204" lon="6.26759">
        <ele>646.8</ele>
        <time>2022-06-06T12:29:16Z</time>
      </trkpt>
      <trkpt lat="44.11217" lon="6.26753">
        <ele>647.4</ele>
        <time>2022-06-06T12:29:20Z</time>
      </trkpt>
      <trkpt lat="44.11232" lon="6.26743">
        <ele>648</ele>
        <time>2022-06-06T12:29:25Z</time>
      </trkpt>
      <trkpt lat="44.11253" lon="6.26736">
        <ele>649</ele>
        <time>2022-06-06T12:29:31Z</time>
      </trkpt>
      <trkpt lat="44.11254" lon="6.26737">
        <ele>649.4</ele>
        <time>2022-06-06T12:29:35Z</time>
      </trkpt>
      <trkpt lat="44.11254" lon="6.26737">
        <ele>650.6</ele>
        <time>2022-06-06T12:29:48Z</time>
      </trkpt>
      <trkpt lat="44.11264" lon="6.26737">
        <ele>651.6</ele>
        <time>2022-06-06T12:29:52Z</time>
      </trkpt>
      <trkpt lat="44.11268" lon="6.26731">
        <ele>652.2</ele>
        <time>2022-06-06T12:29:55Z</time>
      </trkpt>
      <trkpt lat="44.11268" lon="6.26728">
        <ele>652.4</ele>
        <time>2022-06-06T12:29:56Z</time>
      </trkpt>
      <trkpt lat="44.11259" lon="6.26715">
        <ele>653</ele>
        <time>2022-06-06T12:29:59Z</time>
      </trkpt>
      <trkpt lat="44.11234" lon="6.26684">
        <ele>653.6</ele>
        <time>2022-06-06T12:30:05Z</time>
      </trkpt>
      <trkpt lat="44.11195" lon="6.26639">
        <ele>654.4</ele>
        <time>2022-06-06T12:30:13Z</time>
      </trkpt>
      <trkpt lat="44.11155" lon="6.26591">
        <ele>655.2</ele>
        <time>2022-06-06T12:30:21Z</time>
      </trkpt>
      <trkpt lat="44.1111" lon="6.26539">
        <ele>655.2</ele>
        <time>2022-06-06T12:30:29Z</time>
      </trkpt>
      <trkpt lat="44.11104" lon="6.26532">
        <ele>655.2</ele>
        <time>2022-06-06T12:30:30Z</time>
      </trkpt>
      <trkpt lat="44.11067" lon="6.26487">
        <ele>655</ele>
        <time>2022-06-06T12:30:36Z</time>
      </trkpt>
      <trkpt lat="44.11021" lon="6.26432">
        <ele>654.6</ele>
        <time>2022-06-06T12:30:43Z</time>
      </trkpt>
      <trkpt lat="44.10975" lon="6.26378">
        <ele>654.6</ele>
        <time>2022-06-06T12:30:50Z</time>
      </trkpt>
      <trkpt lat="44.10963" lon="6.26363">
        <ele>654.6</ele>
        <time>2022-06-06T12:30:52Z</time>
      </trkpt>
      <trkpt lat="44.10936" lon="6.26332">
        <ele>654.2</ele>
        <time>2022-06-06T12:30:57Z</time>
      </trkpt>
      <trkpt lat="44.10905" lon="6.26293">
        <ele>653.6</ele>
        <time>2022-06-06T12:31:04Z</time>
      </trkpt>
      <trkpt lat="44.10872" lon="6.26248">
        <ele>653.4</ele>
        <time>2022-06-06T12:31:12Z</time>
      </trkpt>
      <trkpt lat="44.10844" lon="6.26207">
        <ele>653.2</ele>
        <time>2022-06-06T12:31:19Z</time>
      </trkpt>
      <trkpt lat="44.10816" lon="6.26164">
        <ele>653</ele>
        <time>2022-06-06T12:31:26Z</time>
      </trkpt>
      <trkpt lat="44.10812" lon="6.26157">
        <ele>653</ele>
        <time>2022-06-06T12:31:27Z</time>
      </trkpt>
      <trkpt lat="44.10782" lon="6.26105">
        <ele>653</ele>
        <time>2022-06-06T12:31:35Z</time>
      </trkpt>
      <trkpt lat="44.10767" lon="6.26068">
        <ele>652.8</ele>
        <time>2022-06-06T12:31:40Z</time>
      </trkpt>
      <trkpt lat="44.10764" lon="6.26061">
        <ele>653</ele>
        <time>2022-06-06T12:31:41Z</time>
      </trkpt>
      <trkpt lat="44.10752" lon="6.26011">
        <ele>652.8</ele>
        <time>2022-06-06T12:31:47Z</time>
      </trkpt>
      <trkpt lat="44.10748" lon="6.25946">
        <ele>653.2</ele>
        <time>2022-06-06T12:31:54Z</time>
      </trkpt>
      <trkpt lat="44.10746" lon="6.25899">
        <ele>653</ele>
        <time>2022-06-06T12:31:59Z</time>
      </trkpt>
      <trkpt lat="44.10735" lon="6.25832">
        <ele>652.8</ele>
        <time>2022-06-06T12:32:06Z</time>
      </trkpt>
      <trkpt lat="44.10714" lon="6.25777">
        <ele>652.8</ele>
        <time>2022-06-06T12:32:12Z</time>
      </trkpt>
      <trkpt lat="44.1071" lon="6.25768">
        <ele>652.8</ele>
        <time>2022-06-06T12:32:13Z</time>
      </trkpt>
      <trkpt lat="44.10688" lon="6.25737">
        <ele>652.6</ele>
        <time>2022-06-06T12:32:17Z</time>
      </trkpt>
      <trkpt lat="44.10651" lon="6.25698">
        <ele>651.8</ele>
        <time>2022-06-06T12:32:23Z</time>
      </trkpt>
      <trkpt lat="44.10618" lon="6.25678">
        <ele>651.4</ele>
        <time>2022-06-06T12:32:28Z</time>
      </trkpt>
      <trkpt lat="44.10582" lon="6.25661">
        <ele>650.8</ele>
        <time>2022-06-06T12:32:34Z</time>
      </trkpt>
      <trkpt lat="44.10536" lon="6.25637">
        <ele>650.2</ele>
        <time>2022-06-06T12:32:42Z</time>
      </trkpt>
      <trkpt lat="44.10501" lon="6.25609">
        <ele>649.2</ele>
        <time>2022-06-06T12:32:48Z</time>
      </trkpt>
      <trkpt lat="44.10455" lon="6.25558">
        <ele>647.6</ele>
        <time>2022-06-06T12:32:56Z</time>
      </trkpt>
      <trkpt lat="44.10416" lon="6.25499">
        <ele>646</ele>
        <time>2022-06-06T12:33:03Z</time>
      </trkpt>
      <trkpt lat="44.10401" lon="6.25469">
        <ele>645.4</ele>
        <time>2022-06-06T12:33:06Z</time>
      </trkpt>
      <trkpt lat="44.10388" lon="6.25438">
        <ele>644.8</ele>
        <time>2022-06-06T12:33:09Z</time>
      </trkpt>
      <trkpt lat="44.10361" lon="6.25371">
        <ele>643.6</ele>
        <time>2022-06-06T12:33:16Z</time>
      </trkpt>
      <trkpt lat="44.10349" lon="6.25347">
        <ele>643.2</ele>
        <time>2022-06-06T12:33:19Z</time>
      </trkpt>
      <trkpt lat="44.10346" lon="6.25339">
        <ele>643</ele>
        <time>2022-06-06T12:33:20Z</time>
      </trkpt>
      <trkpt lat="44.10343" lon="6.25331">
        <ele>642.8</ele>
        <time>2022-06-06T12:33:21Z</time>
      </trkpt>
      <trkpt lat="44.1034" lon="6.25307">
        <ele>642.6</ele>
        <time>2022-06-06T12:33:24Z</time>
      </trkpt>
      <trkpt lat="44.10334" lon="6.25293">
        <ele>642.4</ele>
        <time>2022-06-06T12:33:26Z</time>
      </trkpt>
      <trkpt lat="44.1033" lon="6.25289">
        <ele>642.2</ele>
        <time>2022-06-06T12:33:27Z</time>
      </trkpt>
      <trkpt lat="44.10325" lon="6.25287">
        <ele>642.2</ele>
        <time>2022-06-06T12:33:28Z</time>
      </trkpt>
      <trkpt lat="44.10314" lon="6.25289">
        <ele>642</ele>
        <time>2022-06-06T12:33:30Z</time>
      </trkpt>
      <trkpt lat="44.10304" lon="6.25292">
        <ele>641.6</ele>
        <time>2022-06-06T12:33:32Z</time>
      </trkpt>
      <trkpt lat="44.10293" lon="6.2529">
        <ele>641.2</ele>
        <time>2022-06-06T12:33:34Z</time>
      </trkpt>
      <trkpt lat="44.10265" lon="6.25274">
        <ele>640.4</ele>
        <time>2022-06-06T12:33:40Z</time>
      </trkpt>
      <trkpt lat="44.10257" lon="6.25268">
        <ele>640</ele>
        <time>2022-06-06T12:33:42Z</time>
      </trkpt>
      <trkpt lat="44.10249" lon="6.25258">
        <ele>639.4</ele>
        <time>2022-06-06T12:33:45Z</time>
      </trkpt>
      <trkpt lat="44.10248" lon="6.25258">
        <ele>638.8</ele>
        <time>2022-06-06T12:33:49Z</time>
      </trkpt>
      <trkpt lat="44.10244" lon="6.25255">
        <ele>638.2</ele>
        <time>2022-06-06T12:33:53Z</time>
      </trkpt>
      <trkpt lat="44.10226" lon="6.2524">
        <ele>637.8</ele>
        <time>2022-06-06T12:33:58Z</time>
      </trkpt>
      <trkpt lat="44.10204" lon="6.25215">
        <ele>637.2</ele>
        <time>2022-06-06T12:34:03Z</time>
      </trkpt>
      <trkpt lat="44.10169" lon="6.25166">
        <ele>636.2</ele>
        <time>2022-06-06T12:34:10Z</time>
      </trkpt>
      <trkpt lat="44.10139" lon="6.25109">
        <ele>635.2</ele>
        <time>2022-06-06T12:34:17Z</time>
      </trkpt>
      <trkpt lat="44.10117" lon="6.25064">
        <ele>635</ele>
        <time>2022-06-06T12:34:23Z</time>
      </trkpt>
      <trkpt lat="44.10089" lon="6.25018">
        <ele>634.6</ele>
        <time>2022-06-06T12:34:30Z</time>
      </trkpt>
      <trkpt lat="44.10058" lon="6.24979">
        <ele>634.4</ele>
        <time>2022-06-06T12:34:37Z</time>
      </trkpt>
      <trkpt lat="44.10021" lon="6.2493">
        <ele>633.8</ele>
        <time>2022-06-06T12:34:45Z</time>
      </trkpt>
      <trkpt lat="44.09994" lon="6.24882">
        <ele>633.2</ele>
        <time>2022-06-06T12:34:52Z</time>
      </trkpt>
      <trkpt lat="44.09963" lon="6.24814">
        <ele>632.6</ele>
        <time>2022-06-06T12:35:02Z</time>
      </trkpt>
      <trkpt lat="44.0993" lon="6.24759">
        <ele>632.4</ele>
        <time>2022-06-06T12:35:11Z</time>
      </trkpt>
      <trkpt lat="44.099" lon="6.24715">
        <ele>632</ele>
        <time>2022-06-06T12:35:18Z</time>
      </trkpt>
      <trkpt lat="44.09865" lon="6.24665">
        <ele>631</ele>
        <time>2022-06-06T12:35:25Z</time>
      </trkpt>
      <trkpt lat="44.09856" lon="6.24649">
        <ele>630.6</ele>
        <time>2022-06-06T12:35:27Z</time>
      </trkpt>
      <trkpt lat="44.09841" lon="6.24623">
        <ele>630</ele>
        <time>2022-06-06T12:35:30Z</time>
      </trkpt>
      <trkpt lat="44.09815" lon="6.24552">
        <ele>628.6</ele>
        <time>2022-06-06T12:35:37Z</time>
      </trkpt>
      <trkpt lat="44.0979" lon="6.24487">
        <ele>627.6</ele>
        <time>2022-06-06T12:35:44Z</time>
      </trkpt>
      <trkpt lat="44.09761" lon="6.24415">
        <ele>626.2</ele>
        <time>2022-06-06T12:35:52Z</time>
      </trkpt>
      <trkpt lat="44.09758" lon="6.24406">
        <ele>626</ele>
        <time>2022-06-06T12:35:53Z</time>
      </trkpt>
      <trkpt lat="44.09731" lon="6.24335">
        <ele>624.8</ele>
        <time>2022-06-06T12:36:01Z</time>
      </trkpt>
      <trkpt lat="44.09705" lon="6.24267">
        <ele>623.4</ele>
        <time>2022-06-06T12:36:09Z</time>
      </trkpt>
      <trkpt lat="44.09698" lon="6.24253">
        <ele>623</ele>
        <time>2022-06-06T12:36:11Z</time>
      </trkpt>
      <trkpt lat="44.09689" lon="6.24241">
        <ele>622.6</ele>
        <time>2022-06-06T12:36:13Z</time>
      </trkpt>
      <trkpt lat="44.09677" lon="6.24234">
        <ele>622.4</ele>
        <time>2022-06-06T12:36:15Z</time>
      </trkpt>
      <trkpt lat="44.09664" lon="6.24228">
        <ele>622.2</ele>
        <time>2022-06-06T12:36:17Z</time>
      </trkpt>
      <trkpt lat="44.09625" lon="6.24199">
        <ele>621.2</ele>
        <time>2022-06-06T12:36:24Z</time>
      </trkpt>
      <trkpt lat="44.09579" lon="6.24164">
        <ele>619.8</ele>
        <time>2022-06-06T12:36:33Z</time>
      </trkpt>
      <trkpt lat="44.09556" lon="6.24146">
        <ele>619.2</ele>
        <time>2022-06-06T12:36:38Z</time>
      </trkpt>
      <trkpt lat="44.09554" lon="6.2414">
        <ele>619.2</ele>
        <time>2022-06-06T12:36:39Z</time>
      </trkpt>
      <trkpt lat="44.09554" lon="6.24133">
        <ele>619</ele>
        <time>2022-06-06T12:36:40Z</time>
      </trkpt>
      <trkpt lat="44.09557" lon="6.24119">
        <ele>618.8</ele>
        <time>2022-06-06T12:36:42Z</time>
      </trkpt>
      <trkpt lat="44.09558" lon="6.24111">
        <ele>618.8</ele>
        <time>2022-06-06T12:36:43Z</time>
      </trkpt>
      <trkpt lat="44.09559" lon="6.24087">
        <ele>618.6</ele>
        <time>2022-06-06T12:36:46Z</time>
      </trkpt>
      <trkpt lat="44.0955" lon="6.24025">
        <ele>617.8</ele>
        <time>2022-06-06T12:36:53Z</time>
      </trkpt>
      <trkpt lat="44.09543" lon="6.2401">
        <ele>617.6</ele>
        <time>2022-06-06T12:36:55Z</time>
      </trkpt>
      <trkpt lat="44.09535" lon="6.23997">
        <ele>617.4</ele>
        <time>2022-06-06T12:36:57Z</time>
      </trkpt>
      <trkpt lat="44.09504" lon="6.23956">
        <ele>616.8</ele>
        <time>2022-06-06T12:37:04Z</time>
      </trkpt>
      <trkpt lat="44.09472" lon="6.23907">
        <ele>616.4</ele>
        <time>2022-06-06T12:37:12Z</time>
      </trkpt>
      <trkpt lat="44.09447" lon="6.23863">
        <ele>615.6</ele>
        <time>2022-06-06T12:37:19Z</time>
      </trkpt>
      <trkpt lat="44.09428" lon="6.23824">
        <ele>615</ele>
        <time>2022-06-06T12:37:25Z</time>
      </trkpt>
      <trkpt lat="44.09427" lon="6.23816">
        <ele>614.8</ele>
        <time>2022-06-06T12:37:26Z</time>
      </trkpt>
      <trkpt lat="44.09415" lon="6.23766">
        <ele>614.4</ele>
        <time>2022-06-06T12:37:32Z</time>
      </trkpt>
      <trkpt lat="44.09403" lon="6.23727">
        <ele>613.8</ele>
        <time>2022-06-06T12:37:37Z</time>
      </trkpt>
      <trkpt lat="44.09396" lon="6.23713">
        <ele>613.6</ele>
        <time>2022-06-06T12:37:39Z</time>
      </trkpt>
      <trkpt lat="44.09389" lon="6.23701">
        <ele>613.4</ele>
        <time>2022-06-06T12:37:41Z</time>
      </trkpt>
      <trkpt lat="44.09384" lon="6.23688">
        <ele>613.2</ele>
        <time>2022-06-06T12:37:43Z</time>
      </trkpt>
      <trkpt lat="44.09385" lon="6.23673">
        <ele>612.8</ele>
        <time>2022-06-06T12:37:45Z</time>
      </trkpt>
      <trkpt lat="44.09386" lon="6.23666">
        <ele>612.8</ele>
        <time>2022-06-06T12:37:46Z</time>
      </trkpt>
      <trkpt lat="44.09387" lon="6.23659">
        <ele>612.6</ele>
        <time>2022-06-06T12:37:47Z</time>
      </trkpt>
      <trkpt lat="44.0938" lon="6.23649">
        <ele>612.4</ele>
        <time>2022-06-06T12:37:49Z</time>
      </trkpt>
      <trkpt lat="44.09372" lon="6.23656">
        <ele>612</ele>
        <time>2022-06-06T12:37:51Z</time>
      </trkpt>
      <trkpt lat="44.09371" lon="6.23662">
        <ele>611.8</ele>
        <time>2022-06-06T12:37:52Z</time>
      </trkpt>
      <trkpt lat="44.09373" lon="6.23674">
        <ele>611.4</ele>
        <time>2022-06-06T12:37:54Z</time>
      </trkpt>
      <trkpt lat="44.09373" lon="6.23685">
        <ele>611</ele>
        <time>2022-06-06T12:37:56Z</time>
      </trkpt>
      <trkpt lat="44.09371" lon="6.23698">
        <ele>610.8</ele>
        <time>2022-06-06T12:37:58Z</time>
      </trkpt>
      <trkpt lat="44.09363" lon="6.23706">
        <ele>610.4</ele>
        <time>2022-06-06T12:38:01Z</time>
      </trkpt>
      <trkpt lat="44.09362" lon="6.23706">
        <ele>609.8</ele>
        <time>2022-06-06T12:38:05Z</time>
      </trkpt>
      <trkpt lat="44.09362" lon="6.23711">
        <ele>609</ele>
        <time>2022-06-06T12:38:13Z</time>
      </trkpt>
      <trkpt lat="44.09363" lon="6.23714">
        <ele>608.8</ele>
        <time>2022-06-06T12:38:14Z</time>
      </trkpt>
      <trkpt lat="44.09367" lon="6.23718">
        <ele>608.4</ele>
        <time>2022-06-06T12:38:17Z</time>
      </trkpt>
      <trkpt lat="44.09368" lon="6.23718">
        <ele>608.4</ele>
        <time>2022-06-06T12:38:18Z</time>
      </trkpt>
      <trkpt lat="44.09371" lon="6.23714">
        <ele>607.8</ele>
        <time>2022-06-06T12:38:23Z</time>
      </trkpt>
      <trkpt lat="44.09372" lon="6.23714">
        <ele>607.2</ele>
        <time>2022-06-06T12:38:30Z</time>
      </trkpt>
      <trkpt lat="44.09372" lon="6.23714">
        <ele>605.8</ele>
        <time>2022-06-06T12:38:48Z</time>
      </trkpt>
      <trkpt lat="44.09372" lon="6.23714">
        <ele>605.2</ele>
        <time>2022-06-06T12:39:01Z</time>
      </trkpt>
      <trkpt lat="44.09372" lon="6.23714">
        <ele>604.4</ele>
        <time>2022-06-06T12:39:15Z</time>
      </trkpt>
      <trkpt lat="44.09372" lon="6.23714">
        <ele>603.6</ele>
        <time>2022-06-06T12:39:34Z</time>
      </trkpt>
      <trkpt lat="44.09372" lon="6.23714">
        <ele>603</ele>
        <time>2022-06-06T12:39:56Z</time>
      </trkpt>
      <trkpt lat="44.09372" lon="6.23714">
        <ele>602.4</ele>
        <time>2022-06-06T12:40:16Z</time>
      </trkpt>
      <trkpt lat="44.09372" lon="6.23714">
        <ele>602.2</ele>
        <time>2022-06-06T12:40:32Z</time>
      </trkpt>
      <trkpt lat="44.09372" lon="6.23714">
        <ele>602</ele>
        <time>2022-06-06T12:40:49Z</time>
      </trkpt>
      <trkpt lat="44.09372" lon="6.23714">
        <ele>601.8</ele>
        <time>2022-06-06T12:41:08Z</time>
      </trkpt>
      <trkpt lat="44.09372" lon="6.23714">
        <ele>601.8</ele>
        <time>2022-06-06T12:41:28Z</time>
      </trkpt>
      <trkpt lat="44.09372" lon="6.23714">
        <ele>601.8</ele>
        <time>2022-06-06T12:41:46Z</time>
      </trkpt>
      <trkpt lat="44.09372" lon="6.23713">
        <ele>601.8</ele>
        <time>2022-06-06T12:42:06Z</time>
      </trkpt>
      <trkpt lat="44.09372" lon="6.23713">
        <ele>601.8</ele>
        <time>2022-06-06T12:42:28Z</time>
      </trkpt>
      <trkpt lat="44.09372" lon="6.23714">
        <ele>602</ele>
        <time>2022-06-06T12:42:51Z</time>
      </trkpt>
      <trkpt lat="44.09373" lon="6.23713">
        <ele>602</ele>
        <time>2022-06-06T12:43:17Z</time>
      </trkpt>
      <trkpt lat="44.09373" lon="6.23713">
        <ele>602</ele>
        <time>2022-06-06T12:43:35Z</time>
      </trkpt>
      <trkpt lat="44.09373" lon="6.23713">
        <ele>602.2</ele>
        <time>2022-06-06T12:43:56Z</time>
      </trkpt>
      <trkpt lat="44.09373" lon="6.23713">
        <ele>602.2</ele>
        <time>2022-06-06T12:44:20Z</time>
      </trkpt>
      <trkpt lat="44.09373" lon="6.23713">
        <ele>602.4</ele>
        <time>2022-06-06T12:44:41Z</time>
      </trkpt>
      <trkpt lat="44.09373" lon="6.23713">
        <ele>602.6</ele>
        <time>2022-06-06T12:44:59Z</time>
      </trkpt>
      <trkpt lat="44.09373" lon="6.23712">
        <ele>602.6</ele>
        <time>2022-06-06T12:45:26Z</time>
      </trkpt>
      <trkpt lat="44.09373" lon="6.23712">
        <ele>602.8</ele>
        <time>2022-06-06T12:45:46Z</time>
      </trkpt>
      <trkpt lat="44.09373" lon="6.23712">
        <ele>603</ele>
        <time>2022-06-06T12:46:08Z</time>
      </trkpt>
      <trkpt lat="44.09373" lon="6.23712">
        <ele>603</ele>
        <time>2022-06-06T12:46:26Z</time>
      </trkpt>
      <trkpt lat="44.09373" lon="6.23712">
        <ele>603.2</ele>
        <time>2022-06-06T12:46:48Z</time>
      </trkpt>
      <trkpt lat="44.09373" lon="6.23712">
        <ele>603.4</ele>
        <time>2022-06-06T12:47:09Z</time>
      </trkpt>
      <trkpt lat="44.09373" lon="6.23712">
        <ele>603.6</ele>
        <time>2022-06-06T12:47:32Z</time>
      </trkpt>
      <trkpt lat="44.09373" lon="6.23712">
        <ele>603.8</ele>
        <time>2022-06-06T12:47:56Z</time>
      </trkpt>
      <trkpt lat="44.09373" lon="6.23712">
        <ele>604</ele>
        <time>2022-06-06T12:48:14Z</time>
      </trkpt>
      <trkpt lat="44.09374" lon="6.23712">
        <ele>604</ele>
        <time>2022-06-06T12:48:37Z</time>
      </trkpt>
      <trkpt lat="44.09374" lon="6.23712">
        <ele>604.2</ele>
        <time>2022-06-06T12:48:53Z</time>
      </trkpt>
      <trkpt lat="44.09374" lon="6.23712">
        <ele>604.2</ele>
        <time>2022-06-06T12:49:19Z</time>
      </trkpt>
      <trkpt lat="44.09374" lon="6.23712">
        <ele>604.4</ele>
        <time>2022-06-06T12:49:44Z</time>
      </trkpt>
      <trkpt lat="44.09374" lon="6.23711">
        <ele>604.4</ele>
        <time>2022-06-06T12:50:04Z</time>
      </trkpt>
      <trkpt lat="44.09374" lon="6.23711">
        <ele>604.4</ele>
        <time>2022-06-06T12:50:20Z</time>
      </trkpt>
      <trkpt lat="44.09374" lon="6.23711">
        <ele>604.6</ele>
        <time>2022-06-06T12:50:43Z</time>
      </trkpt>
      <trkpt lat="44.09374" lon="6.23711">
        <ele>604.8</ele>
        <time>2022-06-06T12:51:04Z</time>
      </trkpt>
      <trkpt lat="44.09374" lon="6.23711">
        <ele>605</ele>
        <time>2022-06-06T12:51:22Z</time>
      </trkpt>
      <trkpt lat="44.09374" lon="6.23711">
        <ele>605</ele>
        <time>2022-06-06T12:51:41Z</time>
      </trkpt>
      <trkpt lat="44.09374" lon="6.23711">
        <ele>605.2</ele>
        <time>2022-06-06T12:52:07Z</time>
      </trkpt>
      <trkpt lat="44.09374" lon="6.23711">
        <ele>605.2</ele>
        <time>2022-06-06T12:52:28Z</time>
      </trkpt>
      <trkpt lat="44.09374" lon="6.23711">
        <ele>605.4</ele>
        <time>2022-06-06T12:52:50Z</time>
      </trkpt>
      <trkpt lat="44.09374" lon="6.23711">
        <ele>605.6</ele>
        <time>2022-06-06T12:53:14Z</time>
      </trkpt>
      <trkpt lat="44.09374" lon="6.23711">
        <ele>605.6</ele>
        <time>2022-06-06T12:53:38Z</time>
      </trkpt>
      <trkpt lat="44.09374" lon="6.23711">
        <ele>605.8</ele>
        <time>2022-06-06T12:53:59Z</time>
      </trkpt>
      <trkpt lat="44.09374" lon="6.23711">
        <ele>605.8</ele>
        <time>2022-06-06T12:54:23Z</time>
      </trkpt>
      <trkpt lat="44.09375" lon="6.23712">
        <ele>606</ele>
        <time>2022-06-06T12:54:48Z</time>
      </trkpt>
      <trkpt lat="44.09375" lon="6.23713">
        <ele>606.2</ele>
        <time>2022-06-06T12:55:11Z</time>
      </trkpt>
      <trkpt lat="44.09375" lon="6.23713">
        <ele>606.2</ele>
        <time>2022-06-06T12:55:30Z</time>
      </trkpt>
      <trkpt lat="44.09375" lon="6.23713">
        <ele>606.4</ele>
        <time>2022-06-06T12:55:52Z</time>
      </trkpt>
      <trkpt lat="44.09375" lon="6.23713">
        <ele>606.6</ele>
        <time>2022-06-06T12:56:17Z</time>
      </trkpt>
      <trkpt lat="44.09375" lon="6.23713">
        <ele>606.6</ele>
        <time>2022-06-06T12:56:37Z</time>
      </trkpt>
      <trkpt lat="44.09375" lon="6.23713">
        <ele>606.8</ele>
        <time>2022-06-06T12:56:56Z</time>
      </trkpt>
      <trkpt lat="44.09375" lon="6.23713">
        <ele>606.8</ele>
        <time>2022-06-06T12:57:16Z</time>
      </trkpt>
      <trkpt lat="44.09375" lon="6.23713">
        <ele>607</ele>
        <time>2022-06-06T12:57:40Z</time>
      </trkpt>
      <trkpt lat="44.09375" lon="6.23713">
        <ele>607</ele>
        <time>2022-06-06T12:57:59Z</time>
      </trkpt>
      <trkpt lat="44.09375" lon="6.23713">
        <ele>607</ele>
        <time>2022-06-06T12:58:18Z</time>
      </trkpt>
      <trkpt lat="44.09375" lon="6.23713">
        <ele>607</ele>
        <time>2022-06-06T12:58:40Z</time>
      </trkpt>
      <trkpt lat="44.09375" lon="6.23713">
        <ele>607</ele>
        <time>2022-06-06T12:58:54Z</time>
      </trkpt>
      <trkpt lat="44.09375" lon="6.23712">
        <ele>607</ele>
        <time>2022-06-06T12:59:15Z</time>
      </trkpt>
      <trkpt lat="44.09375" lon="6.23712">
        <ele>607.2</ele>
        <time>2022-06-06T12:59:37Z</time>
      </trkpt>
      <trkpt lat="44.09375" lon="6.23712">
        <ele>607.2</ele>
        <time>2022-06-06T12:59:56Z</time>
      </trkpt>
      <trkpt lat="44.09375" lon="6.23712">
        <ele>607.4</ele>
        <time>2022-06-06T13:00:16Z</time>
      </trkpt>
      <trkpt lat="44.09375" lon="6.23712">
        <ele>607.4</ele>
        <time>2022-06-06T13:00:40Z</time>
      </trkpt>
      <trkpt lat="44.09375" lon="6.23712">
        <ele>607.6</ele>
        <time>2022-06-06T13:01:00Z</time>
      </trkpt>
      <trkpt lat="44.09375" lon="6.23713">
        <ele>607.6</ele>
        <time>2022-06-06T13:01:25Z</time>
      </trkpt>
      <trkpt lat="44.09375" lon="6.23713">
        <ele>607.8</ele>
        <time>2022-06-06T13:01:47Z</time>
      </trkpt>
      <trkpt lat="44.09375" lon="6.23713">
        <ele>608</ele>
        <time>2022-06-06T13:02:06Z</time>
      </trkpt>
      <trkpt lat="44.09375" lon="6.23713">
        <ele>608</ele>
        <time>2022-06-06T13:02:28Z</time>
      </trkpt>
      <trkpt lat="44.09375" lon="6.23713">
        <ele>608</ele>
        <time>2022-06-06T13:02:49Z</time>
      </trkpt>
      <trkpt lat="44.09374" lon="6.23714">
        <ele>608</ele>
        <time>2022-06-06T13:03:15Z</time>
      </trkpt>
      <trkpt lat="44.09374" lon="6.23714">
        <ele>608</ele>
        <time>2022-06-06T13:03:33Z</time>
      </trkpt>
      <trkpt lat="44.09374" lon="6.23713">
        <ele>608</ele>
        <time>2022-06-06T13:03:50Z</time>
      </trkpt>
      <trkpt lat="44.09374" lon="6.23713">
        <ele>608</ele>
        <time>2022-06-06T13:04:04Z</time>
      </trkpt>
      <trkpt lat="44.09374" lon="6.23713">
        <ele>608</ele>
        <time>2022-06-06T13:04:18Z</time>
      </trkpt>
      <trkpt lat="44.09374" lon="6.23713">
        <ele>607.8</ele>
        <time>2022-06-06T13:04:28Z</time>
      </trkpt>
      <trkpt lat="44.09372" lon="6.23714">
        <ele>607.8</ele>
        <time>2022-06-06T13:04:37Z</time>
      </trkpt>
      <trkpt lat="44.09372" lon="6.23714">
        <ele>607.8</ele>
        <time>2022-06-06T13:04:51Z</time>
      </trkpt>
      <trkpt lat="44.09372" lon="6.23714">
        <ele>607.8</ele>
        <time>2022-06-06T13:05:03Z</time>
      </trkpt>
      <trkpt lat="44.09369" lon="6.23715">
        <ele>608</ele>
        <time>2022-06-06T13:05:12Z</time>
      </trkpt>
      <trkpt lat="44.09367" lon="6.23716">
        <ele>608</ele>
        <time>2022-06-06T13:05:13Z</time>
      </trkpt>
      <trkpt lat="44.0936" lon="6.2372">
        <ele>608</ele>
        <time>2022-06-06T13:05:18Z</time>
      </trkpt>
      <trkpt lat="44.09351" lon="6.23724">
        <ele>607.8</ele>
        <time>2022-06-06T13:05:23Z</time>
      </trkpt>
      <trkpt lat="44.09335" lon="6.23735">
        <ele>607.8</ele>
        <time>2022-06-06T13:05:29Z</time>
      </trkpt>
      <trkpt lat="44.09318" lon="6.23748">
        <ele>608.2</ele>
        <time>2022-06-06T13:05:36Z</time>
      </trkpt>
      <trkpt lat="44.09313" lon="6.23749">
        <ele>608.4</ele>
        <time>2022-06-06T13:05:39Z</time>
      </trkpt>
      <trkpt lat="44.09311" lon="6.23747">
        <ele>608.6</ele>
        <time>2022-06-06T13:05:40Z</time>
      </trkpt>
      <trkpt lat="44.09301" lon="6.23727">
        <ele>608.8</ele>
        <time>2022-06-06T13:05:45Z</time>
      </trkpt>
      <trkpt lat="44.09295" lon="6.2371">
        <ele>608.8</ele>
        <time>2022-06-06T13:05:49Z</time>
      </trkpt>
      <trkpt lat="44.09291" lon="6.23696">
        <ele>609</ele>
        <time>2022-06-06T13:05:52Z</time>
      </trkpt>
      <trkpt lat="44.09288" lon="6.2369">
        <ele>609</ele>
        <time>2022-06-06T13:05:53Z</time>
      </trkpt>
      <trkpt lat="44.09285" lon="6.2368">
        <ele>609.2</ele>
        <time>2022-06-06T13:05:55Z</time>
      </trkpt>
      <trkpt lat="44.0928" lon="6.23665">
        <ele>609.6</ele>
        <time>2022-06-06T13:05:58Z</time>
      </trkpt>
      <trkpt lat="44.09269" lon="6.23646">
        <ele>610.2</ele>
        <time>2022-06-06T13:06:03Z</time>
      </trkpt>
      <trkpt lat="44.09254" lon="6.23622">
        <ele>610.8</ele>
        <time>2022-06-06T13:06:09Z</time>
      </trkpt>
      <trkpt lat="44.09253" lon="6.23619">
        <ele>610.8</ele>
        <time>2022-06-06T13:06:10Z</time>
      </trkpt>
      <trkpt lat="44.09254" lon="6.23619">
        <ele>611</ele>
        <time>2022-06-06T13:06:11Z</time>
      </trkpt>
      <trkpt lat="44.09255" lon="6.2362">
        <ele>611.2</ele>
        <time>2022-06-06T13:06:12Z</time>
      </trkpt>
      <trkpt lat="44.09256" lon="6.23627">
        <ele>611.8</ele>
        <time>2022-06-06T13:06:15Z</time>
      </trkpt>
      <trkpt lat="44.09251" lon="6.23632">
        <ele>611.8</ele>
        <time>2022-06-06T13:06:16Z</time>
      </trkpt>
      <trkpt lat="44.0923" lon="6.23662">
        <ele>612.6</ele>
        <time>2022-06-06T13:06:23Z</time>
      </trkpt>
      <trkpt lat="44.09229" lon="6.23665">
        <ele>612.8</ele>
        <time>2022-06-06T13:06:24Z</time>
      </trkpt>
      <trkpt lat="44.09232" lon="6.23673">
        <ele>613</ele>
        <time>2022-06-06T13:06:26Z</time>
      </trkpt>
      <trkpt lat="44.0924" lon="6.23697">
        <ele>613.2</ele>
        <time>2022-06-06T13:06:31Z</time>
      </trkpt>
      <trkpt lat="44.09252" lon="6.23712">
        <ele>613.6</ele>
        <time>2022-06-06T13:06:36Z</time>
      </trkpt>
      <trkpt lat="44.09253" lon="6.23711">
        <ele>613.6</ele>
        <time>2022-06-06T13:06:38Z</time>
      </trkpt>
      <trkpt lat="44.09248" lon="6.23709">
        <ele>613.6</ele>
        <time>2022-06-06T13:06:39Z</time>
      </trkpt>
      <trkpt lat="44.09244" lon="6.23704">
        <ele>613.6</ele>
        <time>2022-06-06T13:06:40Z</time>
      </trkpt>
      <trkpt lat="44.09228" lon="6.23692">
        <ele>613.6</ele>
        <time>2022-06-06T13:06:43Z</time>
      </trkpt>
      <trkpt lat="44.09218" lon="6.23685">
        <ele>613.6</ele>
        <time>2022-06-06T13:06:47Z</time>
      </trkpt>
      <trkpt lat="44.09218" lon="6.23685">
        <ele>613.6</ele>
        <time>2022-06-06T13:06:48Z</time>
      </trkpt>
      <trkpt lat="44.09219" lon="6.23688">
        <ele>613.6</ele>
        <time>2022-06-06T13:06:50Z</time>
      </trkpt>
      <trkpt lat="44.09215" lon="6.2369">
        <ele>613.6</ele>
        <time>2022-06-06T13:06:52Z</time>
      </trkpt>
      <trkpt lat="44.09213" lon="6.23692">
        <ele>613.6</ele>
        <time>2022-06-06T13:06:53Z</time>
      </trkpt>
      <trkpt lat="44.09201" lon="6.23709">
        <ele>613.2</ele>
        <time>2022-06-06T13:06:57Z</time>
      </trkpt>
      <trkpt lat="44.092" lon="6.23714">
        <ele>612.8</ele>
        <time>2022-06-06T13:07:02Z</time>
      </trkpt>
      <trkpt lat="44.092" lon="6.23714">
        <ele>612.8</ele>
        <time>2022-06-06T13:07:07Z</time>
      </trkpt>
      <trkpt lat="44.09197" lon="6.23714">
        <ele>613.2</ele>
        <time>2022-06-06T13:07:08Z</time>
      </trkpt>
      <trkpt lat="44.09192" lon="6.2371">
        <ele>613.2</ele>
        <time>2022-06-06T13:07:10Z</time>
      </trkpt>
      <trkpt lat="44.09185" lon="6.23705">
        <ele>612.6</ele>
        <time>2022-06-06T13:07:12Z</time>
      </trkpt>
      <trkpt lat="44.09178" lon="6.23699">
        <ele>613</ele>
        <time>2022-06-06T13:07:14Z</time>
      </trkpt>
      <trkpt lat="44.09169" lon="6.23692">
        <ele>613</ele>
        <time>2022-06-06T13:07:16Z</time>
      </trkpt>
      <trkpt lat="44.09163" lon="6.23689">
        <ele>613</ele>
        <time>2022-06-06T13:07:17Z</time>
      </trkpt>
      <trkpt lat="44.09152" lon="6.23683">
        <ele>613</ele>
        <time>2022-06-06T13:07:19Z</time>
      </trkpt>
      <trkpt lat="44.09146" lon="6.23683">
        <ele>613</ele>
        <time>2022-06-06T13:07:20Z</time>
      </trkpt>
      <trkpt lat="44.09109" lon="6.2369">
        <ele>612.8</ele>
        <time>2022-06-06T13:07:26Z</time>
      </trkpt>
      <trkpt lat="44.09104" lon="6.23691">
        <ele>612.6</ele>
        <time>2022-06-06T13:07:27Z</time>
      </trkpt>
      <trkpt lat="44.09098" lon="6.23693">
        <ele>612.6</ele>
        <time>2022-06-06T13:07:28Z</time>
      </trkpt>
      <trkpt lat="44.09069" lon="6.23692">
        <ele>612.6</ele>
        <time>2022-06-06T13:07:33Z</time>
      </trkpt>
      <trkpt lat="44.09046" lon="6.23692">
        <ele>612.6</ele>
        <time>2022-06-06T13:07:37Z</time>
      </trkpt>
      <trkpt lat="44.09035" lon="6.23691">
        <ele>612.6</ele>
        <time>2022-06-06T13:07:39Z</time>
      </trkpt>
      <trkpt lat="44.09024" lon="6.23687">
        <ele>612.6</ele>
        <time>2022-06-06T13:07:41Z</time>
      </trkpt>
      <trkpt lat="44.09013" lon="6.23682">
        <ele>612.6</ele>
        <time>2022-06-06T13:07:43Z</time>
      </trkpt>
      <trkpt lat="44.09003" lon="6.23687">
        <ele>612.6</ele>
        <time>2022-06-06T13:07:45Z</time>
      </trkpt>
      <trkpt lat="44.08992" lon="6.23707">
        <ele>612.4</ele>
        <time>2022-06-06T13:07:48Z</time>
      </trkpt>
      <trkpt lat="44.08992" lon="6.23732">
        <ele>612.2</ele>
        <time>2022-06-06T13:07:51Z</time>
      </trkpt>
      <trkpt lat="44.08992" lon="6.2374">
        <ele>612</ele>
        <time>2022-06-06T13:07:52Z</time>
      </trkpt>
      <trkpt lat="44.08984" lon="6.23809">
        <ele>611</ele>
        <time>2022-06-06T13:08:00Z</time>
      </trkpt>
      <trkpt lat="44.08975" lon="6.23865">
        <ele>610.4</ele>
        <time>2022-06-06T13:08:07Z</time>
      </trkpt>
      <trkpt lat="44.08966" lon="6.23937">
        <ele>609.8</ele>
        <time>2022-06-06T13:08:16Z</time>
      </trkpt>
      <trkpt lat="44.08966" lon="6.23979">
        <ele>609.6</ele>
        <time>2022-06-06T13:08:21Z</time>
      </trkpt>
      <trkpt lat="44.08968" lon="6.23987">
        <ele>609.4</ele>
        <time>2022-06-06T13:08:22Z</time>
      </trkpt>
      <trkpt lat="44.08975" lon="6.24033">
        <ele>608.8</ele>
        <time>2022-06-06T13:08:28Z</time>
      </trkpt>
      <trkpt lat="44.08985" lon="6.24062">
        <ele>608.4</ele>
        <time>2022-06-06T13:08:32Z</time>
      </trkpt>
      <trkpt lat="44.08991" lon="6.24077">
        <ele>608.2</ele>
        <time>2022-06-06T13:08:34Z</time>
      </trkpt>
      <trkpt lat="44.09016" lon="6.24124">
        <ele>607.8</ele>
        <time>2022-06-06T13:08:41Z</time>
      </trkpt>
      <trkpt lat="44.09047" lon="6.24186">
        <ele>607.8</ele>
        <time>2022-06-06T13:08:50Z</time>
      </trkpt>
      <trkpt lat="44.09075" lon="6.2424">
        <ele>607.8</ele>
        <time>2022-06-06T13:08:58Z</time>
      </trkpt>
      <trkpt lat="44.09101" lon="6.24285">
        <ele>607.6</ele>
        <time>2022-06-06T13:09:05Z</time>
      </trkpt>
      <trkpt lat="44.09109" lon="6.24298">
        <ele>607.6</ele>
        <time>2022-06-06T13:09:07Z</time>
      </trkpt>
      <trkpt lat="44.09118" lon="6.24306">
        <ele>607.8</ele>
        <time>2022-06-06T13:09:09Z</time>
      </trkpt>
      <trkpt lat="44.09128" lon="6.2431">
        <ele>607.8</ele>
        <time>2022-06-06T13:09:11Z</time>
      </trkpt>
      <trkpt lat="44.09137" lon="6.24311">
        <ele>607.8</ele>
        <time>2022-06-06T13:09:13Z</time>
      </trkpt>
      <trkpt lat="44.09142" lon="6.2431">
        <ele>607.8</ele>
        <time>2022-06-06T13:09:14Z</time>
      </trkpt>
      <trkpt lat="44.09147" lon="6.24309">
        <ele>607.6</ele>
        <time>2022-06-06T13:09:15Z</time>
      </trkpt>
      <trkpt lat="44.09152" lon="6.24304">
        <ele>607.4</ele>
        <time>2022-06-06T13:09:17Z</time>
      </trkpt>
      <trkpt lat="44.09152" lon="6.243">
        <ele>607.2</ele>
        <time>2022-06-06T13:09:20Z</time>
      </trkpt>
      <trkpt lat="44.09152" lon="6.243">
        <ele>606.8</ele>
        <time>2022-06-06T13:09:28Z</time>
      </trkpt>
      <trkpt lat="44.09152" lon="6.24301">
        <ele>606.4</ele>
        <time>2022-06-06T13:09:36Z</time>
      </trkpt>
      <trkpt lat="44.09152" lon="6.24301">
        <ele>605.8</ele>
        <time>2022-06-06T13:09:52Z</time>
      </trkpt>
      <trkpt lat="44.09152" lon="6.24301">
        <ele>605.4</ele>
        <time>2022-06-06T13:10:08Z</time>
      </trkpt>
      <trkpt lat="44.09153" lon="6.24299">
        <ele>605.2</ele>
        <time>2022-06-06T13:10:28Z</time>
      </trkpt>
      <trkpt lat="44.09153" lon="6.24299">
        <ele>605</ele>
        <time>2022-06-06T13:10:47Z</time>
      </trkpt>
      <trkpt lat="44.09153" lon="6.24298">
        <ele>605</ele>
        <time>2022-06-06T13:11:05Z</time>
      </trkpt>
      <trkpt lat="44.09153" lon="6.24298">
        <ele>604.8</ele>
        <time>2022-06-06T13:11:29Z</time>
      </trkpt>
      <trkpt lat="44.09154" lon="6.24295">
        <ele>605.2</ele>
        <time>2022-06-06T13:11:54Z</time>
      </trkpt>
      <trkpt lat="44.09155" lon="6.24295">
        <ele>605.2</ele>
        <time>2022-06-06T13:12:17Z</time>
      </trkpt>
      <trkpt lat="44.09155" lon="6.24295">
        <ele>605.2</ele>
        <time>2022-06-06T13:12:33Z</time>
      </trkpt>
      <trkpt lat="44.09155" lon="6.24296">
        <ele>605</ele>
        <time>2022-06-06T13:12:58Z</time>
      </trkpt>
      <trkpt lat="44.09155" lon="6.24296">
        <ele>604.8</ele>
        <time>2022-06-06T13:13:15Z</time>
      </trkpt>
      <trkpt lat="44.09155" lon="6.24296">
        <ele>604.8</ele>
        <time>2022-06-06T13:13:17Z</time>
      </trkpt>
    </trkseg>
  </trk>
</gpx>